<?xml version="1.0" encoding="UTF-8" standalone="no" ?>
<gpx xmlns="http://www.topografix.com/GPX/1/1" xmlns:xsi="http://www.w3.org/2001/XMLSchema-instance" xsi:schemaLocation="http://www.topografix.com/GPX/1/1 http://www.topografix.com/GPX/1/1/gpx.xsd" version="1.1" creator="VisuGPX - https://www.visugpx.com">
  <metadata>
    <name>Mont-Dore Marche 28 sept. 2019 à 08:38</name>
    <desc><![CDATA[ les 3 Cascades par les crêtes]]></desc>
  </metadata>
  <trk>
    <name><![CDATA[Mont-Dore Marche 28 sept. 2019 à 08:38]]></name>
    <trkseg>
      <trkpt lat="45.57049" lon="2.81126">
        <ele>1085.5460054675</ele>
        <time>2019-09-28T06:38:03Z</time>
      </trkpt>
      <trkpt lat="45.57049" lon="2.81116">
        <ele>1116.9410366036</ele>
        <time>2019-09-28T06:38:13Z</time>
      </trkpt>
      <trkpt lat="45.57039" lon="2.81131">
        <ele>1072.7215470583</ele>
        <time>2019-09-28T06:38:23Z</time>
      </trkpt>
      <trkpt lat="45.57046" lon="2.81124">
        <ele>1069.4675287856</ele>
        <time>2019-09-28T06:38:32Z</time>
      </trkpt>
      <trkpt lat="45.57059" lon="2.81121">
        <ele>1058.5403912664</ele>
        <time>2019-09-28T06:38:41Z</time>
      </trkpt>
      <trkpt lat="45.57068" lon="2.81125">
        <ele>1055.7920397362</ele>
        <time>2019-09-28T06:38:51Z</time>
      </trkpt>
      <trkpt lat="45.5707" lon="2.81129">
        <ele>1055.7042028506</ele>
        <time>2019-09-28T06:39:00Z</time>
      </trkpt>
      <trkpt lat="45.57075" lon="2.81131">
        <ele>1056.1058842537</ele>
        <time>2019-09-28T06:39:09Z</time>
      </trkpt>
      <trkpt lat="45.57083" lon="2.8113">
        <ele>1056.7792658938</ele>
        <time>2019-09-28T06:39:18Z</time>
      </trkpt>
      <trkpt lat="45.57087" lon="2.81131">
        <ele>1057.8274447837</ele>
        <time>2019-09-28T06:39:28Z</time>
      </trkpt>
      <trkpt lat="45.57098" lon="2.81123">
        <ele>1058.9024681607</ele>
        <time>2019-09-28T06:39:37Z</time>
      </trkpt>
      <trkpt lat="45.57109" lon="2.81121">
        <ele>1059.9159133675</ele>
        <time>2019-09-28T06:39:47Z</time>
      </trkpt>
      <trkpt lat="45.57115" lon="2.81117">
        <ele>1060.6590503158</ele>
        <time>2019-09-28T06:39:56Z</time>
      </trkpt>
      <trkpt lat="45.57122" lon="2.81114">
        <ele>1061.2627245356</ele>
        <time>2019-09-28T06:40:05Z</time>
      </trkpt>
      <trkpt lat="45.57136" lon="2.8111">
        <ele>1061.8501470234</ele>
        <time>2019-09-28T06:40:15Z</time>
      </trkpt>
      <trkpt lat="45.57144" lon="2.81106">
        <ele>1062.2832718586</ele>
        <time>2019-09-28T06:40:24Z</time>
      </trkpt>
      <trkpt lat="45.57151" lon="2.81101">
        <ele>1062.6634645645</ele>
        <time>2019-09-28T06:40:33Z</time>
      </trkpt>
      <trkpt lat="45.57157" lon="2.81094">
        <ele>1063.0139401763</ele>
        <time>2019-09-28T06:40:42Z</time>
      </trkpt>
      <trkpt lat="45.57169" lon="2.81084">
        <ele>1063.5109563743</ele>
        <time>2019-09-28T06:40:52Z</time>
      </trkpt>
      <trkpt lat="45.57174" lon="2.81082">
        <ele>1063.8779115441</ele>
        <time>2019-09-28T06:41:02Z</time>
      </trkpt>
      <trkpt lat="45.57185" lon="2.81076">
        <ele>1064.1234208029</ele>
        <time>2019-09-28T06:41:11Z</time>
      </trkpt>
      <trkpt lat="45.57198" lon="2.81072">
        <ele>1064.3425262582</ele>
        <time>2019-09-28T06:41:21Z</time>
      </trkpt>
      <trkpt lat="45.57206" lon="2.81065">
        <ele>1064.4716833719</ele>
        <time>2019-09-28T06:41:30Z</time>
      </trkpt>
      <trkpt lat="45.57214" lon="2.81065">
        <ele>1064.5907584685</ele>
        <time>2019-09-28T06:41:40Z</time>
      </trkpt>
      <trkpt lat="45.57216" lon="2.8108">
        <ele>1064.6433737269</ele>
        <time>2019-09-28T06:41:49Z</time>
      </trkpt>
      <trkpt lat="45.57218" lon="2.81087">
        <ele>1064.6099861264</ele>
        <time>2019-09-28T06:41:58Z</time>
      </trkpt>
      <trkpt lat="45.57227" lon="2.81099">
        <ele>1064.5207066918</ele>
        <time>2019-09-28T06:42:08Z</time>
      </trkpt>
      <trkpt lat="45.57235" lon="2.81111">
        <ele>1064.4257108003</ele>
        <time>2019-09-28T06:42:18Z</time>
      </trkpt>
      <trkpt lat="45.57241" lon="2.81117">
        <ele>1064.3902981297</ele>
        <time>2019-09-28T06:42:27Z</time>
      </trkpt>
      <trkpt lat="45.57246" lon="2.81136">
        <ele>1064.298337356</ele>
        <time>2019-09-28T06:42:37Z</time>
      </trkpt>
      <trkpt lat="45.57254" lon="2.81138">
        <ele>1064.1993737417</ele>
        <time>2019-09-28T06:42:46Z</time>
      </trkpt>
      <trkpt lat="45.57258" lon="2.81141">
        <ele>1064.1062232535</ele>
        <time>2019-09-28T06:42:56Z</time>
      </trkpt>
      <trkpt lat="45.57267" lon="2.8114">
        <ele>1063.8990123465</ele>
        <time>2019-09-28T06:43:05Z</time>
      </trkpt>
      <trkpt lat="45.57277" lon="2.81142">
        <ele>1063.520581385</ele>
        <time>2019-09-28T06:43:14Z</time>
      </trkpt>
      <trkpt lat="45.5729" lon="2.81149">
        <ele>1062.9725938611</ele>
        <time>2019-09-28T06:43:24Z</time>
      </trkpt>
      <trkpt lat="45.57298" lon="2.81144">
        <ele>1062.7077251169</ele>
        <time>2019-09-28T06:43:33Z</time>
      </trkpt>
      <trkpt lat="45.57306" lon="2.81139">
        <ele>1062.8655569228</ele>
        <time>2019-09-28T06:43:42Z</time>
      </trkpt>
      <trkpt lat="45.57314" lon="2.81134">
        <ele>1063.2554501304</ele>
        <time>2019-09-28T06:43:52Z</time>
      </trkpt>
      <trkpt lat="45.57325" lon="2.81128">
        <ele>1063.6365871086</ele>
        <time>2019-09-28T06:44:02Z</time>
      </trkpt>
      <trkpt lat="45.57333" lon="2.81129">
        <ele>1064.0055119928</ele>
        <time>2019-09-28T06:44:11Z</time>
      </trkpt>
      <trkpt lat="45.57337" lon="2.81138">
        <ele>1064.4084542405</ele>
        <time>2019-09-28T06:44:21Z</time>
      </trkpt>
      <trkpt lat="45.5734" lon="2.81146">
        <ele>1064.8613816507</ele>
        <time>2019-09-28T06:44:31Z</time>
      </trkpt>
      <trkpt lat="45.57341" lon="2.8115">
        <ele>1065.2812179926</ele>
        <time>2019-09-28T06:44:41Z</time>
      </trkpt>
      <trkpt lat="45.57341" lon="2.81149">
        <ele>1065.3056332581</ele>
        <time>2019-09-28T06:44:50Z</time>
      </trkpt>
      <trkpt lat="45.57342" lon="2.81147">
        <ele>1065.2465801108</ele>
        <time>2019-09-28T06:44:59Z</time>
      </trkpt>
      <trkpt lat="45.57341" lon="2.81146">
        <ele>1065.0984513835</ele>
        <time>2019-09-28T06:45:13Z</time>
      </trkpt>
      <trkpt lat="45.57341" lon="2.81146">
        <ele>1064.7138479166</ele>
        <time>2019-09-28T06:45:25Z</time>
      </trkpt>
      <trkpt lat="45.5734" lon="2.81146">
        <ele>1064.6212464128</ele>
        <time>2019-09-28T06:45:35Z</time>
      </trkpt>
      <trkpt lat="45.57342" lon="2.81143">
        <ele>1064.3762269902</ele>
        <time>2019-09-28T06:45:44Z</time>
      </trkpt>
      <trkpt lat="45.57339" lon="2.81145">
        <ele>1064.2676923731</ele>
        <time>2019-09-28T06:45:54Z</time>
      </trkpt>
      <trkpt lat="45.57338" lon="2.81145">
        <ele>1063.9693705601</ele>
        <time>2019-09-28T06:46:04Z</time>
      </trkpt>
      <trkpt lat="45.57336" lon="2.81144">
        <ele>1063.7031655521</ele>
        <time>2019-09-28T06:46:13Z</time>
      </trkpt>
      <trkpt lat="45.57337" lon="2.81145">
        <ele>1063.5708921199</ele>
        <time>2019-09-28T06:46:22Z</time>
      </trkpt>
      <trkpt lat="45.57338" lon="2.81149">
        <ele>1063.5088169962</ele>
        <time>2019-09-28T06:46:31Z</time>
      </trkpt>
      <trkpt lat="45.57338" lon="2.81146">
        <ele>1063.4620847007</ele>
        <time>2019-09-28T06:46:41Z</time>
      </trkpt>
      <trkpt lat="45.57338" lon="2.81144">
        <ele>1063.439085041</ele>
        <time>2019-09-28T06:47:04Z</time>
      </trkpt>
      <trkpt lat="45.57337" lon="2.81143">
        <ele>1063.3922059083</ele>
        <time>2019-09-28T06:47:14Z</time>
      </trkpt>
      <trkpt lat="45.57337" lon="2.81143">
        <ele>1063.3328284031</ele>
        <time>2019-09-28T06:47:36Z</time>
      </trkpt>
      <trkpt lat="45.57336" lon="2.81141">
        <ele>1063.296729155</ele>
        <time>2019-09-28T06:47:52Z</time>
      </trkpt>
      <trkpt lat="45.57335" lon="2.81145">
        <ele>1063.2370535943</ele>
        <time>2019-09-28T06:48:01Z</time>
      </trkpt>
      <trkpt lat="45.57335" lon="2.81145">
        <ele>1063.2609042213</ele>
        <time>2019-09-28T06:48:16Z</time>
      </trkpt>
      <trkpt lat="45.57337" lon="2.81143">
        <ele>1063.3024749981</ele>
        <time>2019-09-28T06:48:26Z</time>
      </trkpt>
      <trkpt lat="45.57335" lon="2.81143">
        <ele>1063.403304005</ele>
        <time>2019-09-28T06:48:36Z</time>
      </trkpt>
      <trkpt lat="45.57336" lon="2.81155">
        <ele>1063.5109406239</ele>
        <time>2019-09-28T06:48:46Z</time>
      </trkpt>
      <trkpt lat="45.5734" lon="2.81159">
        <ele>1063.600925939</ele>
        <time>2019-09-28T06:48:55Z</time>
      </trkpt>
      <trkpt lat="45.57345" lon="2.81157">
        <ele>1063.6883627304</ele>
        <time>2019-09-28T06:49:05Z</time>
      </trkpt>
      <trkpt lat="45.5735" lon="2.81166">
        <ele>1063.8038764935</ele>
        <time>2019-09-28T06:49:15Z</time>
      </trkpt>
      <trkpt lat="45.57352" lon="2.81174">
        <ele>1063.9516524386</ele>
        <time>2019-09-28T06:49:24Z</time>
      </trkpt>
      <trkpt lat="45.57352" lon="2.81181">
        <ele>1064.0968638409</ele>
        <time>2019-09-28T06:49:33Z</time>
      </trkpt>
      <trkpt lat="45.5735" lon="2.81188">
        <ele>1064.313096971</ele>
        <time>2019-09-28T06:49:42Z</time>
      </trkpt>
      <trkpt lat="45.57346" lon="2.81193">
        <ele>1064.5473179857</ele>
        <time>2019-09-28T06:49:52Z</time>
      </trkpt>
      <trkpt lat="45.57345" lon="2.81198">
        <ele>1064.7180224773</ele>
        <time>2019-09-28T06:50:01Z</time>
      </trkpt>
      <trkpt lat="45.57347" lon="2.812">
        <ele>1064.8403018166</ele>
        <time>2019-09-28T06:50:10Z</time>
      </trkpt>
      <trkpt lat="45.57349" lon="2.81204">
        <ele>1065.068718119</ele>
        <time>2019-09-28T06:50:20Z</time>
      </trkpt>
      <trkpt lat="45.57356" lon="2.81211">
        <ele>1065.2484679683</ele>
        <time>2019-09-28T06:50:29Z</time>
      </trkpt>
      <trkpt lat="45.57364" lon="2.81217">
        <ele>1065.4109063594</ele>
        <time>2019-09-28T06:50:38Z</time>
      </trkpt>
      <trkpt lat="45.57368" lon="2.81224">
        <ele>1065.5165652821</ele>
        <time>2019-09-28T06:50:47Z</time>
      </trkpt>
      <trkpt lat="45.57369" lon="2.81226">
        <ele>1065.600868825</ele>
        <time>2019-09-28T06:50:56Z</time>
      </trkpt>
      <trkpt lat="45.57365" lon="2.81238">
        <ele>1065.6901778839</ele>
        <time>2019-09-28T06:51:06Z</time>
      </trkpt>
      <trkpt lat="45.57366" lon="2.81245">
        <ele>1065.8576852718</ele>
        <time>2019-09-28T06:51:16Z</time>
      </trkpt>
      <trkpt lat="45.57366" lon="2.81254">
        <ele>1066.0296478658</ele>
        <time>2019-09-28T06:51:25Z</time>
      </trkpt>
      <trkpt lat="45.57361" lon="2.81252">
        <ele>1066.0946511303</ele>
        <time>2019-09-28T06:51:35Z</time>
      </trkpt>
      <trkpt lat="45.57358" lon="2.81254">
        <ele>1066.1348355095</ele>
        <time>2019-09-28T06:51:44Z</time>
      </trkpt>
      <trkpt lat="45.57361" lon="2.81257">
        <ele>1066.2349170244</ele>
        <time>2019-09-28T06:51:53Z</time>
      </trkpt>
      <trkpt lat="45.5736" lon="2.81256">
        <ele>1066.3915418319</ele>
        <time>2019-09-28T06:52:02Z</time>
      </trkpt>
      <trkpt lat="45.57366" lon="2.81248">
        <ele>1066.6633680741</ele>
        <time>2019-09-28T06:52:11Z</time>
      </trkpt>
      <trkpt lat="45.57373" lon="2.81248">
        <ele>1067.0417510956</ele>
        <time>2019-09-28T06:52:21Z</time>
      </trkpt>
      <trkpt lat="45.57372" lon="2.81253">
        <ele>1067.5022398119</ele>
        <time>2019-09-28T06:52:31Z</time>
      </trkpt>
      <trkpt lat="45.57377" lon="2.81258">
        <ele>1068.1363049336</ele>
        <time>2019-09-28T06:52:40Z</time>
      </trkpt>
      <trkpt lat="45.57378" lon="2.81259">
        <ele>1069.2472384501</ele>
        <time>2019-09-28T06:52:55Z</time>
      </trkpt>
      <trkpt lat="45.57383" lon="2.81259">
        <ele>1070.0406854826</ele>
        <time>2019-09-28T06:53:04Z</time>
      </trkpt>
      <trkpt lat="45.57389" lon="2.81263">
        <ele>1070.7894949037</ele>
        <time>2019-09-28T06:53:13Z</time>
      </trkpt>
      <trkpt lat="45.5739" lon="2.81266">
        <ele>1071.4854638736</ele>
        <time>2019-09-28T06:53:23Z</time>
      </trkpt>
      <trkpt lat="45.57393" lon="2.81264">
        <ele>1072.0892787921</ele>
        <time>2019-09-28T06:53:32Z</time>
      </trkpt>
      <trkpt lat="45.57385" lon="2.81261">
        <ele>1072.8041333733</ele>
        <time>2019-09-28T06:53:41Z</time>
      </trkpt>
      <trkpt lat="45.57381" lon="2.8126">
        <ele>1073.4754031333</ele>
        <time>2019-09-28T06:53:51Z</time>
      </trkpt>
      <trkpt lat="45.57377" lon="2.81255">
        <ele>1074.1600817121</ele>
        <time>2019-09-28T06:54:01Z</time>
      </trkpt>
      <trkpt lat="45.57374" lon="2.81253">
        <ele>1074.6310082884</ele>
        <time>2019-09-28T06:54:10Z</time>
      </trkpt>
      <trkpt lat="45.57373" lon="2.81251">
        <ele>1075.1030376451</ele>
        <time>2019-09-28T06:54:19Z</time>
      </trkpt>
      <trkpt lat="45.5737" lon="2.81247">
        <ele>1075.5547105632</ele>
        <time>2019-09-28T06:54:28Z</time>
      </trkpt>
      <trkpt lat="45.57373" lon="2.81247">
        <ele>1076.1101618551</ele>
        <time>2019-09-28T06:54:37Z</time>
      </trkpt>
      <trkpt lat="45.57372" lon="2.81246">
        <ele>1076.6513451421</ele>
        <time>2019-09-28T06:54:47Z</time>
      </trkpt>
      <trkpt lat="45.57372" lon="2.81241">
        <ele>1077.7390956696</ele>
        <time>2019-09-28T06:54:57Z</time>
      </trkpt>
      <trkpt lat="45.5737" lon="2.81239">
        <ele>1078.5013039424</ele>
        <time>2019-09-28T06:55:06Z</time>
      </trkpt>
      <trkpt lat="45.57371" lon="2.8124">
        <ele>1079.1043992464</ele>
        <time>2019-09-28T06:55:15Z</time>
      </trkpt>
      <trkpt lat="45.57371" lon="2.81241">
        <ele>1079.2184352024</ele>
        <time>2019-09-28T06:55:24Z</time>
      </trkpt>
      <trkpt lat="45.57371" lon="2.81239">
        <ele>1080.6250906146</ele>
        <time>2019-09-28T06:55:50Z</time>
      </trkpt>
      <trkpt lat="45.57368" lon="2.81235">
        <ele>1082.0368415006</ele>
        <time>2019-09-28T06:55:59Z</time>
      </trkpt>
      <trkpt lat="45.5737" lon="2.81237">
        <ele>1083.0708827747</ele>
        <time>2019-09-28T06:56:08Z</time>
      </trkpt>
      <trkpt lat="45.57374" lon="2.8123">
        <ele>1084.8051210272</ele>
        <time>2019-09-28T06:56:17Z</time>
      </trkpt>
      <trkpt lat="45.57383" lon="2.81223">
        <ele>1086.5473962181</ele>
        <time>2019-09-28T06:56:27Z</time>
      </trkpt>
      <trkpt lat="45.57386" lon="2.81221">
        <ele>1088.4454258957</ele>
        <time>2019-09-28T06:56:37Z</time>
      </trkpt>
      <trkpt lat="45.57388" lon="2.81215">
        <ele>1090.035042469</ele>
        <time>2019-09-28T06:56:46Z</time>
      </trkpt>
      <trkpt lat="45.57397" lon="2.8121">
        <ele>1091.4437029136</ele>
        <time>2019-09-28T06:56:55Z</time>
      </trkpt>
      <trkpt lat="45.57421" lon="2.81219">
        <ele>1092.8502624406</ele>
        <time>2019-09-28T06:57:05Z</time>
      </trkpt>
      <trkpt lat="45.57446" lon="2.8123">
        <ele>1094.2000595099</ele>
        <time>2019-09-28T06:57:15Z</time>
      </trkpt>
      <trkpt lat="45.57457" lon="2.81233">
        <ele>1095.4599263191</ele>
        <time>2019-09-28T06:57:24Z</time>
      </trkpt>
      <trkpt lat="45.57469" lon="2.81241">
        <ele>1096.7909822943</ele>
        <time>2019-09-28T06:57:34Z</time>
      </trkpt>
      <trkpt lat="45.57474" lon="2.8124">
        <ele>1097.9490195049</ele>
        <time>2019-09-28T06:57:43Z</time>
      </trkpt>
      <trkpt lat="45.57487" lon="2.81244">
        <ele>1099.0023403993</ele>
        <time>2019-09-28T06:57:52Z</time>
      </trkpt>
      <trkpt lat="45.57493" lon="2.81247">
        <ele>1099.9592681873</ele>
        <time>2019-09-28T06:58:02Z</time>
      </trkpt>
      <trkpt lat="45.575" lon="2.8125">
        <ele>1100.7961091997</ele>
        <time>2019-09-28T06:58:11Z</time>
      </trkpt>
      <trkpt lat="45.5751" lon="2.81251">
        <ele>1101.5905012033</ele>
        <time>2019-09-28T06:58:20Z</time>
      </trkpt>
      <trkpt lat="45.5752" lon="2.81251">
        <ele>1102.2820728855</ele>
        <time>2019-09-28T06:58:29Z</time>
      </trkpt>
      <trkpt lat="45.57524" lon="2.81243">
        <ele>1102.9305365703</ele>
        <time>2019-09-28T06:58:38Z</time>
      </trkpt>
      <trkpt lat="45.57533" lon="2.81231">
        <ele>1103.4807182248</ele>
        <time>2019-09-28T06:58:47Z</time>
      </trkpt>
      <trkpt lat="45.57546" lon="2.8123">
        <ele>1104.024412807</ele>
        <time>2019-09-28T06:58:57Z</time>
      </trkpt>
      <trkpt lat="45.57554" lon="2.81221">
        <ele>1104.6847750841</ele>
        <time>2019-09-28T06:59:07Z</time>
      </trkpt>
      <trkpt lat="45.57561" lon="2.8122">
        <ele>1105.2620571428</ele>
        <time>2019-09-28T06:59:16Z</time>
      </trkpt>
      <trkpt lat="45.57573" lon="2.81217">
        <ele>1105.8266096178</ele>
        <time>2019-09-28T06:59:25Z</time>
      </trkpt>
      <trkpt lat="45.5758" lon="2.81205">
        <ele>1106.3031552733</ele>
        <time>2019-09-28T06:59:35Z</time>
      </trkpt>
      <trkpt lat="45.5759" lon="2.81193">
        <ele>1106.5326676503</ele>
        <time>2019-09-28T06:59:44Z</time>
      </trkpt>
      <trkpt lat="45.57595" lon="2.81181">
        <ele>1106.6670067999</ele>
        <time>2019-09-28T06:59:53Z</time>
      </trkpt>
      <trkpt lat="45.57601" lon="2.81168">
        <ele>1106.7252541768</ele>
        <time>2019-09-28T07:00:02Z</time>
      </trkpt>
      <trkpt lat="45.57603" lon="2.81158">
        <ele>1106.7725961056</ele>
        <time>2019-09-28T07:00:11Z</time>
      </trkpt>
      <trkpt lat="45.57606" lon="2.81154">
        <ele>1106.7607793536</ele>
        <time>2019-09-28T07:00:21Z</time>
      </trkpt>
      <trkpt lat="45.57615" lon="2.81146">
        <ele>1106.6680314612</ele>
        <time>2019-09-28T07:00:31Z</time>
      </trkpt>
      <trkpt lat="45.57622" lon="2.81129">
        <ele>1106.5294848848</ele>
        <time>2019-09-28T07:00:40Z</time>
      </trkpt>
      <trkpt lat="45.57628" lon="2.81122">
        <ele>1106.3816307296</ele>
        <time>2019-09-28T07:00:49Z</time>
      </trkpt>
      <trkpt lat="45.57636" lon="2.81115">
        <ele>1106.2407022642</ele>
        <time>2019-09-28T07:00:58Z</time>
      </trkpt>
      <trkpt lat="45.57646" lon="2.81111">
        <ele>1106.1344054154</ele>
        <time>2019-09-28T07:01:07Z</time>
      </trkpt>
      <trkpt lat="45.57653" lon="2.81098">
        <ele>1106.0469251308</ele>
        <time>2019-09-28T07:01:17Z</time>
      </trkpt>
      <trkpt lat="45.57659" lon="2.81093">
        <ele>1105.9688226528</ele>
        <time>2019-09-28T07:01:26Z</time>
      </trkpt>
      <trkpt lat="45.5767" lon="2.81076">
        <ele>1105.9000280307</ele>
        <time>2019-09-28T07:01:36Z</time>
      </trkpt>
      <trkpt lat="45.57676" lon="2.8107">
        <ele>1105.8658678071</ele>
        <time>2019-09-28T07:01:46Z</time>
      </trkpt>
      <trkpt lat="45.57685" lon="2.81065">
        <ele>1105.8434945268</ele>
        <time>2019-09-28T07:01:55Z</time>
      </trkpt>
      <trkpt lat="45.57696" lon="2.81061">
        <ele>1105.860046141</ele>
        <time>2019-09-28T07:02:04Z</time>
      </trkpt>
      <trkpt lat="45.57706" lon="2.81058">
        <ele>1105.8857757413</ele>
        <time>2019-09-28T07:02:14Z</time>
      </trkpt>
      <trkpt lat="45.57715" lon="2.81056">
        <ele>1105.965210429</ele>
        <time>2019-09-28T07:02:24Z</time>
      </trkpt>
      <trkpt lat="45.57721" lon="2.81051">
        <ele>1106.0501978199</ele>
        <time>2019-09-28T07:02:33Z</time>
      </trkpt>
      <trkpt lat="45.57727" lon="2.8105">
        <ele>1106.1258867232</ele>
        <time>2019-09-28T07:02:42Z</time>
      </trkpt>
      <trkpt lat="45.57731" lon="2.81051">
        <ele>1106.2168872684</ele>
        <time>2019-09-28T07:02:51Z</time>
      </trkpt>
      <trkpt lat="45.57744" lon="2.81049">
        <ele>1106.3302038082</ele>
        <time>2019-09-28T07:03:01Z</time>
      </trkpt>
      <trkpt lat="45.57753" lon="2.8104">
        <ele>1106.443026111</ele>
        <time>2019-09-28T07:03:11Z</time>
      </trkpt>
      <trkpt lat="45.57767" lon="2.81037">
        <ele>1106.5928631616</ele>
        <time>2019-09-28T07:03:20Z</time>
      </trkpt>
      <trkpt lat="45.57781" lon="2.81038">
        <ele>1106.7436852194</ele>
        <time>2019-09-28T07:03:29Z</time>
      </trkpt>
      <trkpt lat="45.57786" lon="2.81033">
        <ele>1106.8679596779</ele>
        <time>2019-09-28T07:03:38Z</time>
      </trkpt>
      <trkpt lat="45.57791" lon="2.8103">
        <ele>1107.0079663014</ele>
        <time>2019-09-28T07:03:47Z</time>
      </trkpt>
      <trkpt lat="45.578" lon="2.81023">
        <ele>1107.1307862118</ele>
        <time>2019-09-28T07:03:57Z</time>
      </trkpt>
      <trkpt lat="45.57803" lon="2.81024">
        <ele>1107.2439034629</ele>
        <time>2019-09-28T07:04:07Z</time>
      </trkpt>
      <trkpt lat="45.57812" lon="2.81023">
        <ele>1107.3372166338</ele>
        <time>2019-09-28T07:04:16Z</time>
      </trkpt>
      <trkpt lat="45.57816" lon="2.8102">
        <ele>1107.4217760665</ele>
        <time>2019-09-28T07:04:26Z</time>
      </trkpt>
      <trkpt lat="45.57839" lon="2.81017">
        <ele>1107.4673034335</ele>
        <time>2019-09-28T07:04:35Z</time>
      </trkpt>
      <trkpt lat="45.5785" lon="2.81012">
        <ele>1107.4678583144</ele>
        <time>2019-09-28T07:04:44Z</time>
      </trkpt>
      <trkpt lat="45.57862" lon="2.81007">
        <ele>1107.4391487649</ele>
        <time>2019-09-28T07:04:54Z</time>
      </trkpt>
      <trkpt lat="45.57877" lon="2.81002">
        <ele>1107.3973175032</ele>
        <time>2019-09-28T07:05:04Z</time>
      </trkpt>
      <trkpt lat="45.57883" lon="2.80998">
        <ele>1107.3613349876</ele>
        <time>2019-09-28T07:05:13Z</time>
      </trkpt>
      <trkpt lat="45.57892" lon="2.80991">
        <ele>1107.3202370734</ele>
        <time>2019-09-28T07:05:22Z</time>
      </trkpt>
      <trkpt lat="45.57903" lon="2.80989">
        <ele>1107.2786726709</ele>
        <time>2019-09-28T07:05:31Z</time>
      </trkpt>
      <trkpt lat="45.57909" lon="2.80987">
        <ele>1107.2465753143</ele>
        <time>2019-09-28T07:05:40Z</time>
      </trkpt>
      <trkpt lat="45.57917" lon="2.80974">
        <ele>1107.2046970331</ele>
        <time>2019-09-28T07:05:50Z</time>
      </trkpt>
      <trkpt lat="45.57925" lon="2.80962">
        <ele>1107.1528948741</ele>
        <time>2019-09-28T07:06:00Z</time>
      </trkpt>
      <trkpt lat="45.57935" lon="2.80951">
        <ele>1107.0716310286</ele>
        <time>2019-09-28T07:06:10Z</time>
      </trkpt>
      <trkpt lat="45.5794" lon="2.80944">
        <ele>1107.0009419646</ele>
        <time>2019-09-28T07:06:19Z</time>
      </trkpt>
      <trkpt lat="45.5795" lon="2.80929">
        <ele>1106.9222901646</ele>
        <time>2019-09-28T07:06:29Z</time>
      </trkpt>
      <trkpt lat="45.57955" lon="2.80922">
        <ele>1106.858039849</ele>
        <time>2019-09-28T07:06:38Z</time>
      </trkpt>
      <trkpt lat="45.57966" lon="2.80911">
        <ele>1106.7960024969</ele>
        <time>2019-09-28T07:06:47Z</time>
      </trkpt>
      <trkpt lat="45.57978" lon="2.80906">
        <ele>1106.7624590754</ele>
        <time>2019-09-28T07:06:57Z</time>
      </trkpt>
      <trkpt lat="45.57986" lon="2.80897">
        <ele>1106.7474311937</ele>
        <time>2019-09-28T07:07:07Z</time>
      </trkpt>
      <trkpt lat="45.57993" lon="2.8089">
        <ele>1106.7083260627</ele>
        <time>2019-09-28T07:07:16Z</time>
      </trkpt>
      <trkpt lat="45.57999" lon="2.80885">
        <ele>1106.6622308997</ele>
        <time>2019-09-28T07:07:25Z</time>
      </trkpt>
      <trkpt lat="45.58008" lon="2.80884">
        <ele>1106.6234036099</ele>
        <time>2019-09-28T07:07:35Z</time>
      </trkpt>
      <trkpt lat="45.58023" lon="2.80878">
        <ele>1106.5776264057</ele>
        <time>2019-09-28T07:07:45Z</time>
      </trkpt>
      <trkpt lat="45.58028" lon="2.80872">
        <ele>1106.4820155218</ele>
        <time>2019-09-28T07:07:55Z</time>
      </trkpt>
      <trkpt lat="45.5804" lon="2.80863">
        <ele>1106.3887388258</ele>
        <time>2019-09-28T07:08:04Z</time>
      </trkpt>
      <trkpt lat="45.58046" lon="2.80849">
        <ele>1106.2488147313</ele>
        <time>2019-09-28T07:08:14Z</time>
      </trkpt>
      <trkpt lat="45.58053" lon="2.80837">
        <ele>1106.1234061901</ele>
        <time>2019-09-28T07:08:23Z</time>
      </trkpt>
      <trkpt lat="45.58062" lon="2.80824">
        <ele>1105.9937195381</ele>
        <time>2019-09-28T07:08:33Z</time>
      </trkpt>
      <trkpt lat="45.58071" lon="2.80818">
        <ele>1105.9104657882</ele>
        <time>2019-09-28T07:08:42Z</time>
      </trkpt>
      <trkpt lat="45.58077" lon="2.80805">
        <ele>1105.8612421641</ele>
        <time>2019-09-28T07:08:51Z</time>
      </trkpt>
      <trkpt lat="45.58093" lon="2.808">
        <ele>1105.8427731633</ele>
        <time>2019-09-28T07:09:01Z</time>
      </trkpt>
      <trkpt lat="45.58103" lon="2.80797">
        <ele>1105.8439905633</ele>
        <time>2019-09-28T07:09:10Z</time>
      </trkpt>
      <trkpt lat="45.58117" lon="2.80784">
        <ele>1105.8418171829</ele>
        <time>2019-09-28T07:09:20Z</time>
      </trkpt>
      <trkpt lat="45.58126" lon="2.80778">
        <ele>1105.8482179205</ele>
        <time>2019-09-28T07:09:29Z</time>
      </trkpt>
      <trkpt lat="45.58133" lon="2.80772">
        <ele>1105.8409191377</ele>
        <time>2019-09-28T07:09:39Z</time>
      </trkpt>
      <trkpt lat="45.5814" lon="2.80765">
        <ele>1105.818852122</ele>
        <time>2019-09-28T07:09:49Z</time>
      </trkpt>
      <trkpt lat="45.5815" lon="2.8076">
        <ele>1105.7831345853</ele>
        <time>2019-09-28T07:09:58Z</time>
      </trkpt>
      <trkpt lat="45.58153" lon="2.80752">
        <ele>1105.714116918</ele>
        <time>2019-09-28T07:10:08Z</time>
      </trkpt>
      <trkpt lat="45.58157" lon="2.80746">
        <ele>1105.6104127247</ele>
        <time>2019-09-28T07:10:17Z</time>
      </trkpt>
      <trkpt lat="45.58166" lon="2.80742">
        <ele>1105.5217906261</ele>
        <time>2019-09-28T07:10:26Z</time>
      </trkpt>
      <trkpt lat="45.58177" lon="2.80737">
        <ele>1105.4239215694</ele>
        <time>2019-09-28T07:10:36Z</time>
      </trkpt>
      <trkpt lat="45.58186" lon="2.80729">
        <ele>1105.316054056</ele>
        <time>2019-09-28T07:10:46Z</time>
      </trkpt>
      <trkpt lat="45.58195" lon="2.8072">
        <ele>1105.2018518338</ele>
        <time>2019-09-28T07:10:55Z</time>
      </trkpt>
      <trkpt lat="45.58206" lon="2.80712">
        <ele>1105.0680689639</ele>
        <time>2019-09-28T07:11:05Z</time>
      </trkpt>
      <trkpt lat="45.58213" lon="2.80709">
        <ele>1104.938005648</ele>
        <time>2019-09-28T07:11:14Z</time>
      </trkpt>
      <trkpt lat="45.58221" lon="2.80702">
        <ele>1104.8059036213</ele>
        <time>2019-09-28T07:11:23Z</time>
      </trkpt>
      <trkpt lat="45.58226" lon="2.80692">
        <ele>1104.6629771179</ele>
        <time>2019-09-28T07:11:33Z</time>
      </trkpt>
      <trkpt lat="45.58237" lon="2.80693">
        <ele>1104.5589425943</ele>
        <time>2019-09-28T07:11:42Z</time>
      </trkpt>
      <trkpt lat="45.58249" lon="2.80685">
        <ele>1104.46381932</ele>
        <time>2019-09-28T07:11:51Z</time>
      </trkpt>
      <trkpt lat="45.58257" lon="2.80674">
        <ele>1104.3386051913</ele>
        <time>2019-09-28T07:12:01Z</time>
      </trkpt>
      <trkpt lat="45.58264" lon="2.80666">
        <ele>1104.2357166119</ele>
        <time>2019-09-28T07:12:10Z</time>
      </trkpt>
      <trkpt lat="45.58274" lon="2.80659">
        <ele>1104.1261598939</ele>
        <time>2019-09-28T07:12:20Z</time>
      </trkpt>
      <trkpt lat="45.58274" lon="2.80652">
        <ele>1104.0530190935</ele>
        <time>2019-09-28T07:12:29Z</time>
      </trkpt>
      <trkpt lat="45.58279" lon="2.80644">
        <ele>1103.9448490217</ele>
        <time>2019-09-28T07:12:38Z</time>
      </trkpt>
      <trkpt lat="45.58281" lon="2.80635">
        <ele>1103.8452221719</ele>
        <time>2019-09-28T07:12:47Z</time>
      </trkpt>
      <trkpt lat="45.58284" lon="2.80631">
        <ele>1103.7532901495</ele>
        <time>2019-09-28T07:12:56Z</time>
      </trkpt>
      <trkpt lat="45.58286" lon="2.80629">
        <ele>1103.6612245231</ele>
        <time>2019-09-28T07:13:06Z</time>
      </trkpt>
      <trkpt lat="45.58289" lon="2.80619">
        <ele>1103.5229311222</ele>
        <time>2019-09-28T07:13:15Z</time>
      </trkpt>
      <trkpt lat="45.58292" lon="2.8061">
        <ele>1103.3893594393</ele>
        <time>2019-09-28T07:13:24Z</time>
      </trkpt>
      <trkpt lat="45.58292" lon="2.80609">
        <ele>1103.337208623</ele>
        <time>2019-09-28T07:13:38Z</time>
      </trkpt>
      <trkpt lat="45.58297" lon="2.80599">
        <ele>1103.1872949634</ele>
        <time>2019-09-28T07:13:48Z</time>
      </trkpt>
      <trkpt lat="45.58299" lon="2.80589">
        <ele>1103.0202611612</ele>
        <time>2019-09-28T07:13:57Z</time>
      </trkpt>
      <trkpt lat="45.58304" lon="2.80576">
        <ele>1102.842497086</ele>
        <time>2019-09-28T07:14:07Z</time>
      </trkpt>
      <trkpt lat="45.58308" lon="2.80568">
        <ele>1102.6982555337</ele>
        <time>2019-09-28T07:14:17Z</time>
      </trkpt>
      <trkpt lat="45.58312" lon="2.80556">
        <ele>1102.5468914885</ele>
        <time>2019-09-28T07:14:26Z</time>
      </trkpt>
      <trkpt lat="45.58317" lon="2.80554">
        <ele>1102.4096661812</ele>
        <time>2019-09-28T07:14:35Z</time>
      </trkpt>
      <trkpt lat="45.58322" lon="2.80546">
        <ele>1102.2415324896</ele>
        <time>2019-09-28T07:14:45Z</time>
      </trkpt>
      <trkpt lat="45.5833" lon="2.80538">
        <ele>1102.0897393813</ele>
        <time>2019-09-28T07:14:54Z</time>
      </trkpt>
      <trkpt lat="45.58334" lon="2.80526">
        <ele>1101.9450595833</ele>
        <time>2019-09-28T07:15:03Z</time>
      </trkpt>
      <trkpt lat="45.58337" lon="2.80512">
        <ele>1101.7755379732</ele>
        <time>2019-09-28T07:15:12Z</time>
      </trkpt>
      <trkpt lat="45.58338" lon="2.80499">
        <ele>1101.5939502378</ele>
        <time>2019-09-28T07:15:21Z</time>
      </trkpt>
      <trkpt lat="45.58341" lon="2.8049">
        <ele>1101.4240590267</ele>
        <time>2019-09-28T07:15:30Z</time>
      </trkpt>
      <trkpt lat="45.58344" lon="2.80475">
        <ele>1101.2538631966</ele>
        <time>2019-09-28T07:15:40Z</time>
      </trkpt>
      <trkpt lat="45.58345" lon="2.80467">
        <ele>1101.0845382663</ele>
        <time>2019-09-28T07:15:50Z</time>
      </trkpt>
      <trkpt lat="45.58347" lon="2.80465">
        <ele>1100.9155308018</ele>
        <time>2019-09-28T07:15:59Z</time>
      </trkpt>
      <trkpt lat="45.58346" lon="2.80476">
        <ele>1100.7054346494</ele>
        <time>2019-09-28T07:16:08Z</time>
      </trkpt>
      <trkpt lat="45.58342" lon="2.8048">
        <ele>1100.4778861259</ele>
        <time>2019-09-28T07:16:17Z</time>
      </trkpt>
      <trkpt lat="45.58331" lon="2.80484">
        <ele>1100.1576778574</ele>
        <time>2019-09-28T07:16:26Z</time>
      </trkpt>
      <trkpt lat="45.58328" lon="2.80484">
        <ele>1099.7582396872</ele>
        <time>2019-09-28T07:16:36Z</time>
      </trkpt>
      <trkpt lat="45.5833" lon="2.80479">
        <ele>1099.351171935</ele>
        <time>2019-09-28T07:16:45Z</time>
      </trkpt>
      <trkpt lat="45.58334" lon="2.80474">
        <ele>1098.91373322</ele>
        <time>2019-09-28T07:16:54Z</time>
      </trkpt>
      <trkpt lat="45.58339" lon="2.80463">
        <ele>1098.343473266</ele>
        <time>2019-09-28T07:17:04Z</time>
      </trkpt>
      <trkpt lat="45.58339" lon="2.80454">
        <ele>1097.8871636741</ele>
        <time>2019-09-28T07:17:13Z</time>
      </trkpt>
      <trkpt lat="45.58329" lon="2.80458">
        <ele>1097.3739844827</ele>
        <time>2019-09-28T07:17:22Z</time>
      </trkpt>
      <trkpt lat="45.58327" lon="2.80466">
        <ele>1096.9852367159</ele>
        <time>2019-09-28T07:17:32Z</time>
      </trkpt>
      <trkpt lat="45.58326" lon="2.80466">
        <ele>1096.2046031289</ele>
        <time>2019-09-28T07:17:41Z</time>
      </trkpt>
      <trkpt lat="45.58327" lon="2.80461">
        <ele>1095.1907561197</ele>
        <time>2019-09-28T07:17:51Z</time>
      </trkpt>
      <trkpt lat="45.58328" lon="2.80453">
        <ele>1094.3586257285</ele>
        <time>2019-09-28T07:18:00Z</time>
      </trkpt>
      <trkpt lat="45.58327" lon="2.80443">
        <ele>1092.9062180651</ele>
        <time>2019-09-28T07:18:10Z</time>
      </trkpt>
      <trkpt lat="45.58322" lon="2.80437">
        <ele>1091.1141813386</ele>
        <time>2019-09-28T07:18:20Z</time>
      </trkpt>
      <trkpt lat="45.58324" lon="2.80434">
        <ele>1089.0856378018</ele>
        <time>2019-09-28T07:18:29Z</time>
      </trkpt>
      <trkpt lat="45.58328" lon="2.80429">
        <ele>1086.81037013</ele>
        <time>2019-09-28T07:18:39Z</time>
      </trkpt>
      <trkpt lat="45.58332" lon="2.80422">
        <ele>1084.9216349447</ele>
        <time>2019-09-28T07:18:48Z</time>
      </trkpt>
      <trkpt lat="45.58334" lon="2.80413">
        <ele>1082.8806377632</ele>
        <time>2019-09-28T07:18:57Z</time>
      </trkpt>
      <trkpt lat="45.58334" lon="2.80403">
        <ele>1080.6242809843</ele>
        <time>2019-09-28T07:19:07Z</time>
      </trkpt>
      <trkpt lat="45.58335" lon="2.80403">
        <ele>1078.4072955696</ele>
        <time>2019-09-28T07:19:16Z</time>
      </trkpt>
      <trkpt lat="45.58343" lon="2.80394">
        <ele>1075.9606631369</ele>
        <time>2019-09-28T07:19:26Z</time>
      </trkpt>
      <trkpt lat="45.58341" lon="2.80388">
        <ele>1073.6134539908</ele>
        <time>2019-09-28T07:19:35Z</time>
      </trkpt>
      <trkpt lat="45.58337" lon="2.80382">
        <ele>1071.5739722437</ele>
        <time>2019-09-28T07:19:45Z</time>
      </trkpt>
      <trkpt lat="45.58334" lon="2.8037">
        <ele>1069.0128895438</ele>
        <time>2019-09-28T07:19:55Z</time>
      </trkpt>
      <trkpt lat="45.58332" lon="2.80375">
        <ele>1067.9434984168</ele>
        <time>2019-09-28T07:20:05Z</time>
      </trkpt>
      <trkpt lat="45.58332" lon="2.80376">
        <ele>1066.1012467753</ele>
        <time>2019-09-28T07:20:39Z</time>
      </trkpt>
      <trkpt lat="45.58332" lon="2.80377">
        <ele>1065.6945293747</ele>
        <time>2019-09-28T07:20:49Z</time>
      </trkpt>
      <trkpt lat="45.58333" lon="2.80378">
        <ele>1065.2191022993</ele>
        <time>2019-09-28T07:21:00Z</time>
      </trkpt>
      <trkpt lat="45.58335" lon="2.80379">
        <ele>1063.6252957112</ele>
        <time>2019-09-28T07:21:09Z</time>
      </trkpt>
      <trkpt lat="45.58336" lon="2.8038">
        <ele>1063.0508946205</ele>
        <time>2019-09-28T07:21:22Z</time>
      </trkpt>
      <trkpt lat="45.58337" lon="2.80378">
        <ele>1060.6840596281</ele>
        <time>2019-09-28T07:21:31Z</time>
      </trkpt>
      <trkpt lat="45.58337" lon="2.80376">
        <ele>1059.8748291921</ele>
        <time>2019-09-28T07:21:41Z</time>
      </trkpt>
      <trkpt lat="45.58337" lon="2.80376">
        <ele>1057.7681590298</ele>
        <time>2019-09-28T07:22:15Z</time>
      </trkpt>
      <trkpt lat="45.58338" lon="2.80375">
        <ele>1054.348971948</ele>
        <time>2019-09-28T07:22:24Z</time>
      </trkpt>
      <trkpt lat="45.58344" lon="2.80369">
        <ele>1050.7027270808</ele>
        <time>2019-09-28T07:22:33Z</time>
      </trkpt>
      <trkpt lat="45.58354" lon="2.8036">
        <ele>1047.3202952069</ele>
        <time>2019-09-28T07:22:43Z</time>
      </trkpt>
      <trkpt lat="45.58361" lon="2.80353">
        <ele>1044.4441191244</ele>
        <time>2019-09-28T07:22:53Z</time>
      </trkpt>
      <trkpt lat="45.58368" lon="2.80343">
        <ele>1042.2415264277</ele>
        <time>2019-09-28T07:23:02Z</time>
      </trkpt>
      <trkpt lat="45.58376" lon="2.80333">
        <ele>1040.1676766108</ele>
        <time>2019-09-28T07:23:12Z</time>
      </trkpt>
      <trkpt lat="45.58384" lon="2.80328">
        <ele>1038.569018267</ele>
        <time>2019-09-28T07:23:21Z</time>
      </trkpt>
      <trkpt lat="45.58393" lon="2.80327">
        <ele>1037.1695419373</ele>
        <time>2019-09-28T07:23:30Z</time>
      </trkpt>
      <trkpt lat="45.58403" lon="2.80319">
        <ele>1035.7933977167</ele>
        <time>2019-09-28T07:23:40Z</time>
      </trkpt>
      <trkpt lat="45.5841" lon="2.80313">
        <ele>1034.7841465022</ele>
        <time>2019-09-28T07:23:49Z</time>
      </trkpt>
      <trkpt lat="45.58418" lon="2.80309">
        <ele>1033.8004480915</ele>
        <time>2019-09-28T07:23:58Z</time>
      </trkpt>
      <trkpt lat="45.58428" lon="2.80302">
        <ele>1032.8715201621</ele>
        <time>2019-09-28T07:24:08Z</time>
      </trkpt>
      <trkpt lat="45.58438" lon="2.803">
        <ele>1032.1590913322</ele>
        <time>2019-09-28T07:24:17Z</time>
      </trkpt>
      <trkpt lat="45.58447" lon="2.80294">
        <ele>1031.5345900172</ele>
        <time>2019-09-28T07:24:26Z</time>
      </trkpt>
      <trkpt lat="45.58456" lon="2.80291">
        <ele>1030.9821380026</ele>
        <time>2019-09-28T07:24:35Z</time>
      </trkpt>
      <trkpt lat="45.58464" lon="2.80284">
        <ele>1030.4301875594</ele>
        <time>2019-09-28T07:24:45Z</time>
      </trkpt>
      <trkpt lat="45.58472" lon="2.80276">
        <ele>1029.9689621996</ele>
        <time>2019-09-28T07:24:54Z</time>
      </trkpt>
      <trkpt lat="45.58483" lon="2.80268">
        <ele>1029.4998834218</ele>
        <time>2019-09-28T07:25:04Z</time>
      </trkpt>
      <trkpt lat="45.58492" lon="2.8026">
        <ele>1029.0853842598</ele>
        <time>2019-09-28T07:25:14Z</time>
      </trkpt>
      <trkpt lat="45.58502" lon="2.80256">
        <ele>1028.7595331564</ele>
        <time>2019-09-28T07:25:23Z</time>
      </trkpt>
      <trkpt lat="45.58512" lon="2.80251">
        <ele>1028.4078748498</ele>
        <time>2019-09-28T07:25:33Z</time>
      </trkpt>
      <trkpt lat="45.58521" lon="2.80249">
        <ele>1028.0661982496</ele>
        <time>2019-09-28T07:25:43Z</time>
      </trkpt>
      <trkpt lat="45.5853" lon="2.8024">
        <ele>1027.7195511869</ele>
        <time>2019-09-28T07:25:53Z</time>
      </trkpt>
      <trkpt lat="45.58539" lon="2.80239">
        <ele>1027.4362269155</ele>
        <time>2019-09-28T07:26:02Z</time>
      </trkpt>
      <trkpt lat="45.58549" lon="2.80225">
        <ele>1027.1501090674</ele>
        <time>2019-09-28T07:26:11Z</time>
      </trkpt>
      <trkpt lat="45.58555" lon="2.80217">
        <ele>1026.8665344998</ele>
        <time>2019-09-28T07:26:20Z</time>
      </trkpt>
      <trkpt lat="45.58562" lon="2.80209">
        <ele>1026.589328561</ele>
        <time>2019-09-28T07:26:29Z</time>
      </trkpt>
      <trkpt lat="45.58571" lon="2.802">
        <ele>1026.3038036844</ele>
        <time>2019-09-28T07:26:39Z</time>
      </trkpt>
      <trkpt lat="45.58578" lon="2.8019">
        <ele>1026.0772900241</ele>
        <time>2019-09-28T07:26:48Z</time>
      </trkpt>
      <trkpt lat="45.58586" lon="2.80182">
        <ele>1025.8679790017</ele>
        <time>2019-09-28T07:26:57Z</time>
      </trkpt>
      <trkpt lat="45.58595" lon="2.80177">
        <ele>1025.6787355035</ele>
        <time>2019-09-28T07:27:06Z</time>
      </trkpt>
      <trkpt lat="45.58604" lon="2.80178">
        <ele>1025.5020517471</ele>
        <time>2019-09-28T07:27:15Z</time>
      </trkpt>
      <trkpt lat="45.58611" lon="2.80176">
        <ele>1025.3535862037</ele>
        <time>2019-09-28T07:27:24Z</time>
      </trkpt>
      <trkpt lat="45.58622" lon="2.80171">
        <ele>1025.2134524812</ele>
        <time>2019-09-28T07:27:34Z</time>
      </trkpt>
      <trkpt lat="45.58631" lon="2.80168">
        <ele>1025.0951010246</ele>
        <time>2019-09-28T07:27:43Z</time>
      </trkpt>
      <trkpt lat="45.58639" lon="2.80162">
        <ele>1025.00519524</ele>
        <time>2019-09-28T07:27:53Z</time>
      </trkpt>
      <trkpt lat="45.5865" lon="2.80164">
        <ele>1024.9786414312</ele>
        <time>2019-09-28T07:28:02Z</time>
      </trkpt>
      <trkpt lat="45.58663" lon="2.80164">
        <ele>1025.0066610887</ele>
        <time>2019-09-28T07:28:12Z</time>
      </trkpt>
      <trkpt lat="45.58673" lon="2.80162">
        <ele>1025.054262447</ele>
        <time>2019-09-28T07:28:21Z</time>
      </trkpt>
      <trkpt lat="45.58682" lon="2.80161">
        <ele>1025.1417797857</ele>
        <time>2019-09-28T07:28:31Z</time>
      </trkpt>
      <trkpt lat="45.58689" lon="2.80164">
        <ele>1025.2075724704</ele>
        <time>2019-09-28T07:28:40Z</time>
      </trkpt>
      <trkpt lat="45.587" lon="2.80161">
        <ele>1025.2278356855</ele>
        <time>2019-09-28T07:28:49Z</time>
      </trkpt>
      <trkpt lat="45.58711" lon="2.80163">
        <ele>1025.2115108413</ele>
        <time>2019-09-28T07:28:59Z</time>
      </trkpt>
      <trkpt lat="45.58718" lon="2.8016">
        <ele>1025.2114819878</ele>
        <time>2019-09-28T07:29:09Z</time>
      </trkpt>
      <trkpt lat="45.58724" lon="2.80164">
        <ele>1025.228881384</ele>
        <time>2019-09-28T07:29:18Z</time>
      </trkpt>
      <trkpt lat="45.58736" lon="2.80173">
        <ele>1025.2641848457</ele>
        <time>2019-09-28T07:29:27Z</time>
      </trkpt>
      <trkpt lat="45.58739" lon="2.80179">
        <ele>1025.2747787884</ele>
        <time>2019-09-28T07:29:36Z</time>
      </trkpt>
      <trkpt lat="45.58744" lon="2.80191">
        <ele>1025.2889555284</ele>
        <time>2019-09-28T07:29:45Z</time>
      </trkpt>
      <trkpt lat="45.58755" lon="2.80202">
        <ele>1025.3036395019</ele>
        <time>2019-09-28T07:29:54Z</time>
      </trkpt>
      <trkpt lat="45.58761" lon="2.80215">
        <ele>1025.3211447058</ele>
        <time>2019-09-28T07:30:03Z</time>
      </trkpt>
      <trkpt lat="45.58769" lon="2.80221">
        <ele>1025.3291633092</ele>
        <time>2019-09-28T07:30:13Z</time>
      </trkpt>
      <trkpt lat="45.58779" lon="2.8023">
        <ele>1025.3288938843</ele>
        <time>2019-09-28T07:30:22Z</time>
      </trkpt>
      <trkpt lat="45.58788" lon="2.80241">
        <ele>1025.3347487639</ele>
        <time>2019-09-28T07:30:32Z</time>
      </trkpt>
      <trkpt lat="45.58797" lon="2.80252">
        <ele>1025.3451674191</ele>
        <time>2019-09-28T07:30:41Z</time>
      </trkpt>
      <trkpt lat="45.58804" lon="2.80267">
        <ele>1025.365385962</ele>
        <time>2019-09-28T07:30:50Z</time>
      </trkpt>
      <trkpt lat="45.58808" lon="2.80282">
        <ele>1025.3653436939</ele>
        <time>2019-09-28T07:30:59Z</time>
      </trkpt>
      <trkpt lat="45.5881" lon="2.80298">
        <ele>1025.3479754032</ele>
        <time>2019-09-28T07:31:08Z</time>
      </trkpt>
      <trkpt lat="45.58812" lon="2.80308">
        <ele>1025.3162772378</ele>
        <time>2019-09-28T07:31:17Z</time>
      </trkpt>
      <trkpt lat="45.58815" lon="2.80319">
        <ele>1025.257840115</ele>
        <time>2019-09-28T07:31:27Z</time>
      </trkpt>
      <trkpt lat="45.58817" lon="2.80333">
        <ele>1025.1872962682</ele>
        <time>2019-09-28T07:31:36Z</time>
      </trkpt>
      <trkpt lat="45.5882" lon="2.80338">
        <ele>1025.1273377838</ele>
        <time>2019-09-28T07:31:46Z</time>
      </trkpt>
      <trkpt lat="45.5882" lon="2.80341">
        <ele>1025.0867860059</ele>
        <time>2019-09-28T07:31:56Z</time>
      </trkpt>
      <trkpt lat="45.5882" lon="2.80342">
        <ele>1024.9768111117</ele>
        <time>2019-09-28T07:32:29Z</time>
      </trkpt>
      <trkpt lat="45.58821" lon="2.80341">
        <ele>1024.9244108593</ele>
        <time>2019-09-28T07:32:39Z</time>
      </trkpt>
      <trkpt lat="45.5882" lon="2.80346">
        <ele>1024.8588423291</ele>
        <time>2019-09-28T07:32:49Z</time>
      </trkpt>
      <trkpt lat="45.5882" lon="2.80344">
        <ele>1024.8463237256</ele>
        <time>2019-09-28T07:32:58Z</time>
      </trkpt>
      <trkpt lat="45.5882" lon="2.80344">
        <ele>1024.8007472573</ele>
        <time>2019-09-28T07:33:10Z</time>
      </trkpt>
      <trkpt lat="45.58821" lon="2.80341">
        <ele>1024.7490239383</ele>
        <time>2019-09-28T07:33:19Z</time>
      </trkpt>
      <trkpt lat="45.5882" lon="2.80341">
        <ele>1024.7011702056</ele>
        <time>2019-09-28T07:33:40Z</time>
      </trkpt>
      <trkpt lat="45.58819" lon="2.80341">
        <ele>1024.6592605534</ele>
        <time>2019-09-28T07:33:49Z</time>
      </trkpt>
      <trkpt lat="45.58818" lon="2.8034">
        <ele>1024.6260476855</ele>
        <time>2019-09-28T07:34:07Z</time>
      </trkpt>
      <trkpt lat="45.58818" lon="2.80339">
        <ele>1024.5725516717</ele>
        <time>2019-09-28T07:34:45Z</time>
      </trkpt>
      <trkpt lat="45.58819" lon="2.80339">
        <ele>1024.5327023803</ele>
        <time>2019-09-28T07:35:05Z</time>
      </trkpt>
      <trkpt lat="45.5882" lon="2.80334">
        <ele>1024.4134659317</ele>
        <time>2019-09-28T07:35:15Z</time>
      </trkpt>
      <trkpt lat="45.58821" lon="2.80333">
        <ele>1024.3130149678</ele>
        <time>2019-09-28T07:35:38Z</time>
      </trkpt>
      <trkpt lat="45.58822" lon="2.80334">
        <ele>1024.2407218029</ele>
        <time>2019-09-28T07:36:01Z</time>
      </trkpt>
      <trkpt lat="45.58821" lon="2.80336">
        <ele>1024.2045673685</ele>
        <time>2019-09-28T07:36:10Z</time>
      </trkpt>
      <trkpt lat="45.58821" lon="2.80337">
        <ele>1024.1405296361</ele>
        <time>2019-09-28T07:36:32Z</time>
      </trkpt>
      <trkpt lat="45.5882" lon="2.80338">
        <ele>1024.0435913122</ele>
        <time>2019-09-28T07:36:53Z</time>
      </trkpt>
      <trkpt lat="45.5882" lon="2.80339">
        <ele>1024.0017450559</ele>
        <time>2019-09-28T07:37:05Z</time>
      </trkpt>
      <trkpt lat="45.58819" lon="2.80339">
        <ele>1023.8735296945</ele>
        <time>2019-09-28T07:37:37Z</time>
      </trkpt>
      <trkpt lat="45.58819" lon="2.80339">
        <ele>1023.711162842</ele>
        <time>2019-09-28T07:38:05Z</time>
      </trkpt>
      <trkpt lat="45.5882" lon="2.80352">
        <ele>1023.3488559223</ele>
        <time>2019-09-28T07:38:14Z</time>
      </trkpt>
      <trkpt lat="45.58818" lon="2.80366">
        <ele>1022.9970668004</ele>
        <time>2019-09-28T07:38:24Z</time>
      </trkpt>
      <trkpt lat="45.58816" lon="2.80379">
        <ele>1022.7213970096</ele>
        <time>2019-09-28T07:38:32Z</time>
      </trkpt>
      <trkpt lat="45.58817" lon="2.80396">
        <ele>1022.4728944432</ele>
        <time>2019-09-28T07:38:42Z</time>
      </trkpt>
      <trkpt lat="45.58818" lon="2.80409">
        <ele>1022.2483357614</ele>
        <time>2019-09-28T07:38:51Z</time>
      </trkpt>
      <trkpt lat="45.58818" lon="2.80421">
        <ele>1022.0435025594</ele>
        <time>2019-09-28T07:39:00Z</time>
      </trkpt>
      <trkpt lat="45.58817" lon="2.8043">
        <ele>1021.8704949214</ele>
        <time>2019-09-28T07:39:09Z</time>
      </trkpt>
      <trkpt lat="45.58819" lon="2.8044">
        <ele>1021.7340503493</ele>
        <time>2019-09-28T07:39:18Z</time>
      </trkpt>
      <trkpt lat="45.5882" lon="2.80452">
        <ele>1021.6218882232</ele>
        <time>2019-09-28T07:39:27Z</time>
      </trkpt>
      <trkpt lat="45.58818" lon="2.8046">
        <ele>1021.5283375238</ele>
        <time>2019-09-28T07:39:36Z</time>
      </trkpt>
      <trkpt lat="45.58818" lon="2.80466">
        <ele>1021.4600997696</ele>
        <time>2019-09-28T07:39:45Z</time>
      </trkpt>
      <trkpt lat="45.5882" lon="2.80477">
        <ele>1021.4117093345</ele>
        <time>2019-09-28T07:39:54Z</time>
      </trkpt>
      <trkpt lat="45.58817" lon="2.80493">
        <ele>1021.3856988099</ele>
        <time>2019-09-28T07:40:03Z</time>
      </trkpt>
      <trkpt lat="45.5882" lon="2.80506">
        <ele>1021.3690190564</ele>
        <time>2019-09-28T07:40:12Z</time>
      </trkpt>
      <trkpt lat="45.58822" lon="2.8052">
        <ele>1021.35797554</ele>
        <time>2019-09-28T07:40:21Z</time>
      </trkpt>
      <trkpt lat="45.58821" lon="2.80535">
        <ele>1021.3494497185</ele>
        <time>2019-09-28T07:40:31Z</time>
      </trkpt>
      <trkpt lat="45.58821" lon="2.80543">
        <ele>1021.3434345226</ele>
        <time>2019-09-28T07:40:40Z</time>
      </trkpt>
      <trkpt lat="45.58825" lon="2.80559">
        <ele>1021.3374581948</ele>
        <time>2019-09-28T07:40:50Z</time>
      </trkpt>
      <trkpt lat="45.58826" lon="2.80564">
        <ele>1021.3340864934</ele>
        <time>2019-09-28T07:40:59Z</time>
      </trkpt>
      <trkpt lat="45.58825" lon="2.80582">
        <ele>1021.3499372871</ele>
        <time>2019-09-28T07:41:09Z</time>
      </trkpt>
      <trkpt lat="45.58827" lon="2.80596">
        <ele>1021.3749874344</ele>
        <time>2019-09-28T07:41:19Z</time>
      </trkpt>
      <trkpt lat="45.58829" lon="2.80607">
        <ele>1021.436461807</ele>
        <time>2019-09-28T07:41:29Z</time>
      </trkpt>
      <trkpt lat="45.58834" lon="2.80627">
        <ele>1021.5216920281</ele>
        <time>2019-09-28T07:41:38Z</time>
      </trkpt>
      <trkpt lat="45.58836" lon="2.80641">
        <ele>1021.5994570585</ele>
        <time>2019-09-28T07:41:47Z</time>
      </trkpt>
      <trkpt lat="45.58834" lon="2.80646">
        <ele>1021.7058488442</ele>
        <time>2019-09-28T07:41:57Z</time>
      </trkpt>
      <trkpt lat="45.5883" lon="2.80659">
        <ele>1021.8516813071</ele>
        <time>2019-09-28T07:42:06Z</time>
      </trkpt>
      <trkpt lat="45.58826" lon="2.8068">
        <ele>1022.0266629434</ele>
        <time>2019-09-28T07:42:16Z</time>
      </trkpt>
      <trkpt lat="45.58828" lon="2.80694">
        <ele>1022.194553624</ele>
        <time>2019-09-28T07:42:25Z</time>
      </trkpt>
      <trkpt lat="45.5883" lon="2.80705">
        <ele>1022.4452204294</ele>
        <time>2019-09-28T07:42:34Z</time>
      </trkpt>
      <trkpt lat="45.58835" lon="2.80717">
        <ele>1022.7087866487</ele>
        <time>2019-09-28T07:42:43Z</time>
      </trkpt>
      <trkpt lat="45.58841" lon="2.80732">
        <ele>1022.9680267523</ele>
        <time>2019-09-28T07:42:52Z</time>
      </trkpt>
      <trkpt lat="45.58846" lon="2.80747">
        <ele>1023.2804288067</ele>
        <time>2019-09-28T07:43:02Z</time>
      </trkpt>
      <trkpt lat="45.58847" lon="2.80761">
        <ele>1023.540323592</ele>
        <time>2019-09-28T07:43:11Z</time>
      </trkpt>
      <trkpt lat="45.5885" lon="2.80768">
        <ele>1023.8275318619</ele>
        <time>2019-09-28T07:43:20Z</time>
      </trkpt>
      <trkpt lat="45.58852" lon="2.80782">
        <ele>1024.1465812838</ele>
        <time>2019-09-28T07:43:29Z</time>
      </trkpt>
      <trkpt lat="45.58852" lon="2.80792">
        <ele>1024.5053666954</ele>
        <time>2019-09-28T07:43:39Z</time>
      </trkpt>
      <trkpt lat="45.58854" lon="2.80808">
        <ele>1024.8830735787</ele>
        <time>2019-09-28T07:43:48Z</time>
      </trkpt>
      <trkpt lat="45.58856" lon="2.80827">
        <ele>1025.4402051602</ele>
        <time>2019-09-28T07:43:58Z</time>
      </trkpt>
      <trkpt lat="45.58853" lon="2.80833">
        <ele>1026.2045718573</ele>
        <time>2019-09-28T07:44:07Z</time>
      </trkpt>
      <trkpt lat="45.58856" lon="2.80855">
        <ele>1027.0551247402</ele>
        <time>2019-09-28T07:44:17Z</time>
      </trkpt>
      <trkpt lat="45.58855" lon="2.80865">
        <ele>1027.7895505109</ele>
        <time>2019-09-28T07:44:26Z</time>
      </trkpt>
      <trkpt lat="45.58857" lon="2.80878">
        <ele>1028.3708020678</ele>
        <time>2019-09-28T07:44:35Z</time>
      </trkpt>
      <trkpt lat="45.5886" lon="2.80893">
        <ele>1028.8182603933</ele>
        <time>2019-09-28T07:44:44Z</time>
      </trkpt>
      <trkpt lat="45.58852" lon="2.80905">
        <ele>1029.0784261862</ele>
        <time>2019-09-28T07:44:54Z</time>
      </trkpt>
      <trkpt lat="45.58842" lon="2.80912">
        <ele>1029.151523902</ele>
        <time>2019-09-28T07:45:04Z</time>
      </trkpt>
      <trkpt lat="45.58834" lon="2.8092">
        <ele>1029.2027635754</ele>
        <time>2019-09-28T07:45:13Z</time>
      </trkpt>
      <trkpt lat="45.58829" lon="2.80919">
        <ele>1029.7414449495</ele>
        <time>2019-09-28T07:45:22Z</time>
      </trkpt>
      <trkpt lat="45.58827" lon="2.80921">
        <ele>1030.141856484</ele>
        <time>2019-09-28T07:45:32Z</time>
      </trkpt>
      <trkpt lat="45.58825" lon="2.80927">
        <ele>1030.7740079962</ele>
        <time>2019-09-28T07:45:41Z</time>
      </trkpt>
      <trkpt lat="45.58825" lon="2.80922">
        <ele>1031.1829661485</ele>
        <time>2019-09-28T07:45:50Z</time>
      </trkpt>
      <trkpt lat="45.58825" lon="2.80926">
        <ele>1031.5744668513</ele>
        <time>2019-09-28T07:46:00Z</time>
      </trkpt>
      <trkpt lat="45.58825" lon="2.80928">
        <ele>1031.8744840643</ele>
        <time>2019-09-28T07:46:09Z</time>
      </trkpt>
      <trkpt lat="45.58822" lon="2.8093">
        <ele>1032.4386379294</ele>
        <time>2019-09-28T07:46:19Z</time>
      </trkpt>
      <trkpt lat="45.58821" lon="2.80931">
        <ele>1032.7109931322</ele>
        <time>2019-09-28T07:46:29Z</time>
      </trkpt>
      <trkpt lat="45.5882" lon="2.80936">
        <ele>1033.3334948856</ele>
        <time>2019-09-28T07:46:38Z</time>
      </trkpt>
      <trkpt lat="45.58817" lon="2.80947">
        <ele>1034.6672974522</ele>
        <time>2019-09-28T07:46:48Z</time>
      </trkpt>
      <trkpt lat="45.58818" lon="2.80958">
        <ele>1035.6103253157</ele>
        <time>2019-09-28T07:46:57Z</time>
      </trkpt>
      <trkpt lat="45.5882" lon="2.80967">
        <ele>1036.3663186692</ele>
        <time>2019-09-28T07:47:06Z</time>
      </trkpt>
      <trkpt lat="45.58824" lon="2.80977">
        <ele>1037.0543455947</ele>
        <time>2019-09-28T07:47:15Z</time>
      </trkpt>
      <trkpt lat="45.58827" lon="2.80987">
        <ele>1037.7187676985</ele>
        <time>2019-09-28T07:47:24Z</time>
      </trkpt>
      <trkpt lat="45.58829" lon="2.81">
        <ele>1038.3692614254</ele>
        <time>2019-09-28T07:47:34Z</time>
      </trkpt>
      <trkpt lat="45.58827" lon="2.81014">
        <ele>1038.9726753144</ele>
        <time>2019-09-28T07:47:44Z</time>
      </trkpt>
      <trkpt lat="45.58824" lon="2.8103">
        <ele>1039.4786919502</ele>
        <time>2019-09-28T07:47:53Z</time>
      </trkpt>
      <trkpt lat="45.58827" lon="2.81042">
        <ele>1039.9335313459</ele>
        <time>2019-09-28T07:48:02Z</time>
      </trkpt>
      <trkpt lat="45.58828" lon="2.8106">
        <ele>1040.3316603928</ele>
        <time>2019-09-28T07:48:12Z</time>
      </trkpt>
      <trkpt lat="45.58827" lon="2.81071">
        <ele>1040.6539297736</ele>
        <time>2019-09-28T07:48:22Z</time>
      </trkpt>
      <trkpt lat="45.58819" lon="2.81085">
        <ele>1040.9296660773</ele>
        <time>2019-09-28T07:48:32Z</time>
      </trkpt>
      <trkpt lat="45.58816" lon="2.81092">
        <ele>1041.1733114957</ele>
        <time>2019-09-28T07:48:41Z</time>
      </trkpt>
      <trkpt lat="45.58813" lon="2.81104">
        <ele>1041.4109373358</ele>
        <time>2019-09-28T07:48:50Z</time>
      </trkpt>
      <trkpt lat="45.58814" lon="2.81114">
        <ele>1041.6643728656</ele>
        <time>2019-09-28T07:48:59Z</time>
      </trkpt>
      <trkpt lat="45.58807" lon="2.81126">
        <ele>1041.8243077379</ele>
        <time>2019-09-28T07:49:08Z</time>
      </trkpt>
      <trkpt lat="45.58805" lon="2.81144">
        <ele>1041.9747397677</ele>
        <time>2019-09-28T07:49:18Z</time>
      </trkpt>
      <trkpt lat="45.58804" lon="2.81153">
        <ele>1042.1023040447</ele>
        <time>2019-09-28T07:49:27Z</time>
      </trkpt>
      <trkpt lat="45.58801" lon="2.81164">
        <ele>1042.3016137797</ele>
        <time>2019-09-28T07:49:36Z</time>
      </trkpt>
      <trkpt lat="45.58804" lon="2.81177">
        <ele>1042.4490037506</ele>
        <time>2019-09-28T07:49:45Z</time>
      </trkpt>
      <trkpt lat="45.58803" lon="2.8119">
        <ele>1042.6407948441</ele>
        <time>2019-09-28T07:49:55Z</time>
      </trkpt>
      <trkpt lat="45.58796" lon="2.81212">
        <ele>1042.9057133672</ele>
        <time>2019-09-28T07:50:04Z</time>
      </trkpt>
      <trkpt lat="45.58795" lon="2.81227">
        <ele>1043.1778254324</ele>
        <time>2019-09-28T07:50:13Z</time>
      </trkpt>
      <trkpt lat="45.58795" lon="2.81235">
        <ele>1043.4205255502</ele>
        <time>2019-09-28T07:50:23Z</time>
      </trkpt>
      <trkpt lat="45.58796" lon="2.81247">
        <ele>1043.8023904479</ele>
        <time>2019-09-28T07:50:32Z</time>
      </trkpt>
      <trkpt lat="45.58799" lon="2.81269">
        <ele>1044.2794892912</ele>
        <time>2019-09-28T07:50:41Z</time>
      </trkpt>
      <trkpt lat="45.58798" lon="2.8128">
        <ele>1044.7160819474</ele>
        <time>2019-09-28T07:50:50Z</time>
      </trkpt>
      <trkpt lat="45.58799" lon="2.81287">
        <ele>1045.207499191</ele>
        <time>2019-09-28T07:51:00Z</time>
      </trkpt>
      <trkpt lat="45.588" lon="2.81304">
        <ele>1045.7252185567</ele>
        <time>2019-09-28T07:51:10Z</time>
      </trkpt>
      <trkpt lat="45.58803" lon="2.81313">
        <ele>1046.1305154531</ele>
        <time>2019-09-28T07:51:19Z</time>
      </trkpt>
      <trkpt lat="45.58799" lon="2.81325">
        <ele>1046.4730346991</ele>
        <time>2019-09-28T07:51:29Z</time>
      </trkpt>
      <trkpt lat="45.58795" lon="2.81334">
        <ele>1046.7192638977</ele>
        <time>2019-09-28T07:51:38Z</time>
      </trkpt>
      <trkpt lat="45.58788" lon="2.81341">
        <ele>1047.0615731714</ele>
        <time>2019-09-28T07:51:48Z</time>
      </trkpt>
      <trkpt lat="45.58779" lon="2.81353">
        <ele>1047.3525650077</ele>
        <time>2019-09-28T07:51:58Z</time>
      </trkpt>
      <trkpt lat="45.58767" lon="2.81362">
        <ele>1047.5254926755</ele>
        <time>2019-09-28T07:52:07Z</time>
      </trkpt>
      <trkpt lat="45.58762" lon="2.81368">
        <ele>1047.8740068749</ele>
        <time>2019-09-28T07:52:17Z</time>
      </trkpt>
      <trkpt lat="45.58764" lon="2.81375">
        <ele>1048.4539698157</ele>
        <time>2019-09-28T07:52:27Z</time>
      </trkpt>
      <trkpt lat="45.58766" lon="2.81392">
        <ele>1049.3090522538</ele>
        <time>2019-09-28T07:52:37Z</time>
      </trkpt>
      <trkpt lat="45.58765" lon="2.81407">
        <ele>1049.9164627057</ele>
        <time>2019-09-28T07:52:47Z</time>
      </trkpt>
      <trkpt lat="45.58763" lon="2.81423">
        <ele>1050.6709395715</ele>
        <time>2019-09-28T07:52:56Z</time>
      </trkpt>
      <trkpt lat="45.58769" lon="2.81433">
        <ele>1051.4316285557</ele>
        <time>2019-09-28T07:53:06Z</time>
      </trkpt>
      <trkpt lat="45.58782" lon="2.81452">
        <ele>1052.0274175458</ele>
        <time>2019-09-28T07:53:15Z</time>
      </trkpt>
      <trkpt lat="45.58786" lon="2.81469">
        <ele>1052.7091459171</ele>
        <time>2019-09-28T07:53:25Z</time>
      </trkpt>
      <trkpt lat="45.58791" lon="2.81486">
        <ele>1053.959740287</ele>
        <time>2019-09-28T07:53:35Z</time>
      </trkpt>
      <trkpt lat="45.58796" lon="2.81486">
        <ele>1055.0567904489</ele>
        <time>2019-09-28T07:53:44Z</time>
      </trkpt>
      <trkpt lat="45.58804" lon="2.81489">
        <ele>1056.9399037977</ele>
        <time>2019-09-28T07:53:53Z</time>
      </trkpt>
      <trkpt lat="45.58808" lon="2.815">
        <ele>1058.6335859272</ele>
        <time>2019-09-28T07:54:02Z</time>
      </trkpt>
      <trkpt lat="45.58808" lon="2.81496">
        <ele>1060.3554586297</ele>
        <time>2019-09-28T07:54:12Z</time>
      </trkpt>
      <trkpt lat="45.58808" lon="2.81501">
        <ele>1062.052745816</ele>
        <time>2019-09-28T07:54:22Z</time>
      </trkpt>
      <trkpt lat="45.58806" lon="2.81501">
        <ele>1063.4879141349</ele>
        <time>2019-09-28T07:54:32Z</time>
      </trkpt>
      <trkpt lat="45.58806" lon="2.81497">
        <ele>1064.1462136034</ele>
        <time>2019-09-28T07:54:41Z</time>
      </trkpt>
      <trkpt lat="45.58805" lon="2.81498">
        <ele>1065.218627953</ele>
        <time>2019-09-28T07:54:50Z</time>
      </trkpt>
      <trkpt lat="45.58795" lon="2.8149">
        <ele>1066.0031843223</ele>
        <time>2019-09-28T07:54:59Z</time>
      </trkpt>
      <trkpt lat="45.58795" lon="2.81484">
        <ele>1066.1508390369</ele>
        <time>2019-09-28T07:55:08Z</time>
      </trkpt>
      <trkpt lat="45.58794" lon="2.81483">
        <ele>1066.4494789566</ele>
        <time>2019-09-28T07:55:18Z</time>
      </trkpt>
      <trkpt lat="45.58796" lon="2.81485">
        <ele>1066.8226326838</ele>
        <time>2019-09-28T07:55:27Z</time>
      </trkpt>
      <trkpt lat="45.58796" lon="2.81485">
        <ele>1067.3109728436</ele>
        <time>2019-09-28T07:55:38Z</time>
      </trkpt>
      <trkpt lat="45.58789" lon="2.8149">
        <ele>1067.6649065051</ele>
        <time>2019-09-28T07:55:48Z</time>
      </trkpt>
      <trkpt lat="45.58787" lon="2.81488">
        <ele>1068.0361991472</ele>
        <time>2019-09-28T07:55:57Z</time>
      </trkpt>
      <trkpt lat="45.58786" lon="2.8149">
        <ele>1068.3418799134</ele>
        <time>2019-09-28T07:56:06Z</time>
      </trkpt>
      <trkpt lat="45.58776" lon="2.81491">
        <ele>1068.7992562705</ele>
        <time>2019-09-28T07:56:16Z</time>
      </trkpt>
      <trkpt lat="45.58777" lon="2.81489">
        <ele>1069.2323523461</ele>
        <time>2019-09-28T07:56:25Z</time>
      </trkpt>
      <trkpt lat="45.58777" lon="2.81487">
        <ele>1069.5928168195</ele>
        <time>2019-09-28T07:56:35Z</time>
      </trkpt>
      <trkpt lat="45.58781" lon="2.81484">
        <ele>1070.0137679381</ele>
        <time>2019-09-28T07:56:45Z</time>
      </trkpt>
      <trkpt lat="45.58777" lon="2.81483">
        <ele>1071.2252750796</ele>
        <time>2019-09-28T07:56:54Z</time>
      </trkpt>
      <trkpt lat="45.58781" lon="2.81479">
        <ele>1071.3759519326</ele>
        <time>2019-09-28T07:57:04Z</time>
      </trkpt>
      <trkpt lat="45.58782" lon="2.81485">
        <ele>1071.8192299885</ele>
        <time>2019-09-28T07:57:13Z</time>
      </trkpt>
      <trkpt lat="45.58791" lon="2.81494">
        <ele>1072.7340641952</ele>
        <time>2019-09-28T07:57:22Z</time>
      </trkpt>
      <trkpt lat="45.58794" lon="2.8149">
        <ele>1073.2191434533</ele>
        <time>2019-09-28T07:57:32Z</time>
      </trkpt>
      <trkpt lat="45.58795" lon="2.81479">
        <ele>1073.2820793559</ele>
        <time>2019-09-28T07:57:41Z</time>
      </trkpt>
      <trkpt lat="45.588" lon="2.81483">
        <ele>1073.3103867401</ele>
        <time>2019-09-28T07:57:51Z</time>
      </trkpt>
      <trkpt lat="45.58793" lon="2.81489">
        <ele>1073.530720599</ele>
        <time>2019-09-28T07:58:00Z</time>
      </trkpt>
      <trkpt lat="45.58792" lon="2.81483">
        <ele>1073.7331413833</ele>
        <time>2019-09-28T07:58:10Z</time>
      </trkpt>
      <trkpt lat="45.58796" lon="2.81473">
        <ele>1073.7698212736</ele>
        <time>2019-09-28T07:58:19Z</time>
      </trkpt>
      <trkpt lat="45.58795" lon="2.81464">
        <ele>1073.6901807802</ele>
        <time>2019-09-28T07:58:28Z</time>
      </trkpt>
      <trkpt lat="45.58799" lon="2.81458">
        <ele>1073.6316262314</ele>
        <time>2019-09-28T07:58:37Z</time>
      </trkpt>
      <trkpt lat="45.58796" lon="2.81467">
        <ele>1073.5916113642</ele>
        <time>2019-09-28T07:58:47Z</time>
      </trkpt>
      <trkpt lat="45.58796" lon="2.81469">
        <ele>1073.597951903</ele>
        <time>2019-09-28T07:58:56Z</time>
      </trkpt>
      <trkpt lat="45.58796" lon="2.81469">
        <ele>1073.6717216436</ele>
        <time>2019-09-28T07:59:07Z</time>
      </trkpt>
      <trkpt lat="45.58799" lon="2.81451">
        <ele>1073.6589296286</ele>
        <time>2019-09-28T07:59:17Z</time>
      </trkpt>
      <trkpt lat="45.58799" lon="2.81438">
        <ele>1073.4283325717</ele>
        <time>2019-09-28T07:59:26Z</time>
      </trkpt>
      <trkpt lat="45.58799" lon="2.81431">
        <ele>1073.033250907</ele>
        <time>2019-09-28T07:59:36Z</time>
      </trkpt>
      <trkpt lat="45.58803" lon="2.81422">
        <ele>1072.6452172754</ele>
        <time>2019-09-28T07:59:45Z</time>
      </trkpt>
      <trkpt lat="45.58805" lon="2.81409">
        <ele>1072.3359838166</ele>
        <time>2019-09-28T07:59:54Z</time>
      </trkpt>
      <trkpt lat="45.58809" lon="2.81404">
        <ele>1072.050984494</ele>
        <time>2019-09-28T08:00:04Z</time>
      </trkpt>
      <trkpt lat="45.58816" lon="2.81399">
        <ele>1071.6584568918</ele>
        <time>2019-09-28T08:00:14Z</time>
      </trkpt>
      <trkpt lat="45.58832" lon="2.81387">
        <ele>1071.2861909342</ele>
        <time>2019-09-28T08:00:24Z</time>
      </trkpt>
      <trkpt lat="45.58837" lon="2.81391">
        <ele>1070.9761729001</ele>
        <time>2019-09-28T08:00:33Z</time>
      </trkpt>
      <trkpt lat="45.58844" lon="2.81399">
        <ele>1070.5996683897</ele>
        <time>2019-09-28T08:00:42Z</time>
      </trkpt>
      <trkpt lat="45.58852" lon="2.81412">
        <ele>1070.1478089746</ele>
        <time>2019-09-28T08:00:52Z</time>
      </trkpt>
      <trkpt lat="45.5886" lon="2.81409">
        <ele>1069.7818675436</ele>
        <time>2019-09-28T08:01:01Z</time>
      </trkpt>
      <trkpt lat="45.58865" lon="2.81418">
        <ele>1069.4672359661</ele>
        <time>2019-09-28T08:01:11Z</time>
      </trkpt>
      <trkpt lat="45.58869" lon="2.81422">
        <ele>1069.2490127124</ele>
        <time>2019-09-28T08:01:20Z</time>
      </trkpt>
      <trkpt lat="45.58874" lon="2.81425">
        <ele>1069.0877381421</ele>
        <time>2019-09-28T08:01:29Z</time>
      </trkpt>
      <trkpt lat="45.58885" lon="2.81425">
        <ele>1068.9685621339</ele>
        <time>2019-09-28T08:01:38Z</time>
      </trkpt>
      <trkpt lat="45.58898" lon="2.8141">
        <ele>1068.7040525848</ele>
        <time>2019-09-28T08:01:48Z</time>
      </trkpt>
      <trkpt lat="45.58907" lon="2.81402">
        <ele>1068.5408408661</ele>
        <time>2019-09-28T08:01:57Z</time>
      </trkpt>
      <trkpt lat="45.58914" lon="2.81392">
        <ele>1068.4643111623</ele>
        <time>2019-09-28T08:02:06Z</time>
      </trkpt>
      <trkpt lat="45.58921" lon="2.81387">
        <ele>1068.3855892925</ele>
        <time>2019-09-28T08:02:15Z</time>
      </trkpt>
      <trkpt lat="45.58925" lon="2.81384">
        <ele>1068.2688563132</ele>
        <time>2019-09-28T08:02:25Z</time>
      </trkpt>
      <trkpt lat="45.58926" lon="2.81383">
        <ele>1067.9443254493</ele>
        <time>2019-09-28T08:02:35Z</time>
      </trkpt>
      <trkpt lat="45.58934" lon="2.8138">
        <ele>1067.6379358573</ele>
        <time>2019-09-28T08:02:44Z</time>
      </trkpt>
      <trkpt lat="45.58933" lon="2.81376">
        <ele>1067.402373016</ele>
        <time>2019-09-28T08:02:54Z</time>
      </trkpt>
      <trkpt lat="45.58934" lon="2.81373">
        <ele>1067.2193867973</ele>
        <time>2019-09-28T08:03:03Z</time>
      </trkpt>
      <trkpt lat="45.58934" lon="2.81373">
        <ele>1067.1459041766</ele>
        <time>2019-09-28T08:03:16Z</time>
      </trkpt>
      <trkpt lat="45.58943" lon="2.81362">
        <ele>1067.0462393401</ele>
        <time>2019-09-28T08:03:25Z</time>
      </trkpt>
      <trkpt lat="45.58942" lon="2.81362">
        <ele>1066.7849738774</ele>
        <time>2019-09-28T08:03:35Z</time>
      </trkpt>
      <trkpt lat="45.58945" lon="2.81376">
        <ele>1066.5712899309</ele>
        <time>2019-09-28T08:03:45Z</time>
      </trkpt>
      <trkpt lat="45.58951" lon="2.8138">
        <ele>1066.3510035425</ele>
        <time>2019-09-28T08:03:54Z</time>
      </trkpt>
      <trkpt lat="45.58966" lon="2.81371">
        <ele>1065.9869219328</ele>
        <time>2019-09-28T08:04:03Z</time>
      </trkpt>
      <trkpt lat="45.58969" lon="2.81365">
        <ele>1065.6655576321</ele>
        <time>2019-09-28T08:04:13Z</time>
      </trkpt>
      <trkpt lat="45.58975" lon="2.8136">
        <ele>1065.3891337714</ele>
        <time>2019-09-28T08:04:23Z</time>
      </trkpt>
      <trkpt lat="45.58977" lon="2.81356">
        <ele>1065.113880491</ele>
        <time>2019-09-28T08:04:33Z</time>
      </trkpt>
      <trkpt lat="45.58981" lon="2.81345">
        <ele>1064.7771168623</ele>
        <time>2019-09-28T08:04:42Z</time>
      </trkpt>
      <trkpt lat="45.58987" lon="2.81334">
        <ele>1064.4288679829</ele>
        <time>2019-09-28T08:04:51Z</time>
      </trkpt>
      <trkpt lat="45.58985" lon="2.81333">
        <ele>1063.9675372976</ele>
        <time>2019-09-28T08:05:00Z</time>
      </trkpt>
      <trkpt lat="45.58988" lon="2.81318">
        <ele>1063.2487065417</ele>
        <time>2019-09-28T08:05:10Z</time>
      </trkpt>
      <trkpt lat="45.58988" lon="2.81307">
        <ele>1062.6245918646</ele>
        <time>2019-09-28T08:05:19Z</time>
      </trkpt>
      <trkpt lat="45.58996" lon="2.81314">
        <ele>1062.0300545283</ele>
        <time>2019-09-28T08:05:28Z</time>
      </trkpt>
      <trkpt lat="45.58999" lon="2.81327">
        <ele>1061.6345981741</ele>
        <time>2019-09-28T08:05:37Z</time>
      </trkpt>
      <trkpt lat="45.59005" lon="2.81345">
        <ele>1061.1677658538</ele>
        <time>2019-09-28T08:05:46Z</time>
      </trkpt>
      <trkpt lat="45.59009" lon="2.81356">
        <ele>1060.7956344466</ele>
        <time>2019-09-28T08:05:55Z</time>
      </trkpt>
      <trkpt lat="45.5901" lon="2.81364">
        <ele>1060.4639903065</ele>
        <time>2019-09-28T08:06:04Z</time>
      </trkpt>
      <trkpt lat="45.59017" lon="2.81379">
        <ele>1060.1560292492</ele>
        <time>2019-09-28T08:06:14Z</time>
      </trkpt>
      <trkpt lat="45.59022" lon="2.81392">
        <ele>1059.8855776366</ele>
        <time>2019-09-28T08:06:23Z</time>
      </trkpt>
      <trkpt lat="45.59026" lon="2.81408">
        <ele>1059.5896326073</ele>
        <time>2019-09-28T08:06:33Z</time>
      </trkpt>
      <trkpt lat="45.59032" lon="2.81424">
        <ele>1059.3382617932</ele>
        <time>2019-09-28T08:06:42Z</time>
      </trkpt>
      <trkpt lat="45.59035" lon="2.81432">
        <ele>1059.1002508662</ele>
        <time>2019-09-28T08:06:51Z</time>
      </trkpt>
      <trkpt lat="45.59039" lon="2.81442">
        <ele>1058.8381654159</ele>
        <time>2019-09-28T08:07:01Z</time>
      </trkpt>
      <trkpt lat="45.59043" lon="2.8145">
        <ele>1058.6602976287</ele>
        <time>2019-09-28T08:07:11Z</time>
      </trkpt>
      <trkpt lat="45.59048" lon="2.81458">
        <ele>1058.5754604402</ele>
        <time>2019-09-28T08:07:21Z</time>
      </trkpt>
      <trkpt lat="45.5905" lon="2.81467">
        <ele>1058.564938094</ele>
        <time>2019-09-28T08:07:31Z</time>
      </trkpt>
      <trkpt lat="45.59055" lon="2.81474">
        <ele>1058.5917662377</ele>
        <time>2019-09-28T08:07:40Z</time>
      </trkpt>
      <trkpt lat="45.59062" lon="2.81487">
        <ele>1058.5924512287</ele>
        <time>2019-09-28T08:07:49Z</time>
      </trkpt>
      <trkpt lat="45.5907" lon="2.81501">
        <ele>1058.5836934172</ele>
        <time>2019-09-28T08:07:59Z</time>
      </trkpt>
      <trkpt lat="45.59078" lon="2.81512">
        <ele>1058.5899715125</ele>
        <time>2019-09-28T08:08:08Z</time>
      </trkpt>
      <trkpt lat="45.59083" lon="2.81516">
        <ele>1058.5883495963</ele>
        <time>2019-09-28T08:08:18Z</time>
      </trkpt>
      <trkpt lat="45.59092" lon="2.81517">
        <ele>1058.591619889</ele>
        <time>2019-09-28T08:08:28Z</time>
      </trkpt>
      <trkpt lat="45.591" lon="2.81525">
        <ele>1058.6753377283</ele>
        <time>2019-09-28T08:08:37Z</time>
      </trkpt>
      <trkpt lat="45.59111" lon="2.81534">
        <ele>1058.8240119728</ele>
        <time>2019-09-28T08:08:47Z</time>
      </trkpt>
      <trkpt lat="45.59118" lon="2.81537">
        <ele>1058.9986814581</ele>
        <time>2019-09-28T08:08:56Z</time>
      </trkpt>
      <trkpt lat="45.5913" lon="2.81546">
        <ele>1059.2025706219</ele>
        <time>2019-09-28T08:09:06Z</time>
      </trkpt>
      <trkpt lat="45.59138" lon="2.81556">
        <ele>1059.337979158</ele>
        <time>2019-09-28T08:09:15Z</time>
      </trkpt>
      <trkpt lat="45.59141" lon="2.81567">
        <ele>1059.4372657483</ele>
        <time>2019-09-28T08:09:25Z</time>
      </trkpt>
      <trkpt lat="45.59147" lon="2.81572">
        <ele>1059.5288646355</ele>
        <time>2019-09-28T08:09:34Z</time>
      </trkpt>
      <trkpt lat="45.59152" lon="2.81584">
        <ele>1059.6234074597</ele>
        <time>2019-09-28T08:09:43Z</time>
      </trkpt>
      <trkpt lat="45.59159" lon="2.81597">
        <ele>1059.6821617734</ele>
        <time>2019-09-28T08:09:53Z</time>
      </trkpt>
      <trkpt lat="45.59164" lon="2.8161">
        <ele>1059.7035906247</ele>
        <time>2019-09-28T08:10:02Z</time>
      </trkpt>
      <trkpt lat="45.59165" lon="2.81615">
        <ele>1059.7066992884</ele>
        <time>2019-09-28T08:10:11Z</time>
      </trkpt>
      <trkpt lat="45.59168" lon="2.81622">
        <ele>1059.7627628506</ele>
        <time>2019-09-28T08:10:20Z</time>
      </trkpt>
      <trkpt lat="45.59171" lon="2.81626">
        <ele>1059.8440926658</ele>
        <time>2019-09-28T08:10:30Z</time>
      </trkpt>
      <trkpt lat="45.59171" lon="2.81628">
        <ele>1059.9039317474</ele>
        <time>2019-09-28T08:10:39Z</time>
      </trkpt>
      <trkpt lat="45.59175" lon="2.81636">
        <ele>1060.170282344</ele>
        <time>2019-09-28T08:10:49Z</time>
      </trkpt>
      <trkpt lat="45.59177" lon="2.81643">
        <ele>1060.4586277613</ele>
        <time>2019-09-28T08:10:59Z</time>
      </trkpt>
      <trkpt lat="45.59181" lon="2.81655">
        <ele>1060.7490441372</ele>
        <time>2019-09-28T08:11:08Z</time>
      </trkpt>
      <trkpt lat="45.59189" lon="2.81667">
        <ele>1060.9957999107</ele>
        <time>2019-09-28T08:11:17Z</time>
      </trkpt>
      <trkpt lat="45.59197" lon="2.81679">
        <ele>1061.2946783908</ele>
        <time>2019-09-28T08:11:27Z</time>
      </trkpt>
      <trkpt lat="45.59198" lon="2.81685">
        <ele>1061.6080852408</ele>
        <time>2019-09-28T08:11:37Z</time>
      </trkpt>
      <trkpt lat="45.59196" lon="2.81694">
        <ele>1061.8849979339</ele>
        <time>2019-09-28T08:11:47Z</time>
      </trkpt>
      <trkpt lat="45.59193" lon="2.81706">
        <ele>1062.1111235728</ele>
        <time>2019-09-28T08:11:56Z</time>
      </trkpt>
      <trkpt lat="45.59196" lon="2.81719">
        <ele>1062.3034680441</ele>
        <time>2019-09-28T08:12:05Z</time>
      </trkpt>
      <trkpt lat="45.59205" lon="2.81728">
        <ele>1062.5147248212</ele>
        <time>2019-09-28T08:12:14Z</time>
      </trkpt>
      <trkpt lat="45.59215" lon="2.81743">
        <ele>1062.9862543055</ele>
        <time>2019-09-28T08:12:23Z</time>
      </trkpt>
      <trkpt lat="45.59222" lon="2.81757">
        <ele>1063.5857783065</ele>
        <time>2019-09-28T08:12:32Z</time>
      </trkpt>
      <trkpt lat="45.59226" lon="2.81769">
        <ele>1064.1097986193</ele>
        <time>2019-09-28T08:12:41Z</time>
      </trkpt>
      <trkpt lat="45.59228" lon="2.81782">
        <ele>1064.6945571069</ele>
        <time>2019-09-28T08:12:51Z</time>
      </trkpt>
      <trkpt lat="45.59225" lon="2.81797">
        <ele>1065.3644838059</ele>
        <time>2019-09-28T08:13:01Z</time>
      </trkpt>
      <trkpt lat="45.59226" lon="2.81813">
        <ele>1066.0023519277</ele>
        <time>2019-09-28T08:13:11Z</time>
      </trkpt>
      <trkpt lat="45.59229" lon="2.81824">
        <ele>1066.5326360376</ele>
        <time>2019-09-28T08:13:20Z</time>
      </trkpt>
      <trkpt lat="45.5923" lon="2.81835">
        <ele>1067.0862567707</ele>
        <time>2019-09-28T08:13:30Z</time>
      </trkpt>
      <trkpt lat="45.59232" lon="2.81845">
        <ele>1067.532488797</ele>
        <time>2019-09-28T08:13:39Z</time>
      </trkpt>
      <trkpt lat="45.59237" lon="2.81859">
        <ele>1067.9871995073</ele>
        <time>2019-09-28T08:13:49Z</time>
      </trkpt>
      <trkpt lat="45.59238" lon="2.81868">
        <ele>1068.368266525</ele>
        <time>2019-09-28T08:13:58Z</time>
      </trkpt>
      <trkpt lat="45.59241" lon="2.81883">
        <ele>1068.8933134656</ele>
        <time>2019-09-28T08:14:08Z</time>
      </trkpt>
      <trkpt lat="45.59243" lon="2.8189">
        <ele>1069.459547231</ele>
        <time>2019-09-28T08:14:17Z</time>
      </trkpt>
      <trkpt lat="45.59243" lon="2.81899">
        <ele>1070.2910773562</ele>
        <time>2019-09-28T08:14:27Z</time>
      </trkpt>
      <trkpt lat="45.59244" lon="2.81906">
        <ele>1071.1732099456</ele>
        <time>2019-09-28T08:14:36Z</time>
      </trkpt>
      <trkpt lat="45.59251" lon="2.81921">
        <ele>1072.1494064362</ele>
        <time>2019-09-28T08:14:45Z</time>
      </trkpt>
      <trkpt lat="45.5926" lon="2.81936">
        <ele>1073.199370818</ele>
        <time>2019-09-28T08:14:54Z</time>
      </trkpt>
      <trkpt lat="45.59265" lon="2.81945">
        <ele>1074.2585853487</ele>
        <time>2019-09-28T08:15:03Z</time>
      </trkpt>
      <trkpt lat="45.59265" lon="2.8195">
        <ele>1075.4301659571</ele>
        <time>2019-09-28T08:15:12Z</time>
      </trkpt>
      <trkpt lat="45.59269" lon="2.81959">
        <ele>1076.5269033284</ele>
        <time>2019-09-28T08:15:21Z</time>
      </trkpt>
      <trkpt lat="45.59273" lon="2.81973">
        <ele>1077.6813783613</ele>
        <time>2019-09-28T08:15:30Z</time>
      </trkpt>
      <trkpt lat="45.59277" lon="2.81987">
        <ele>1078.8694946152</ele>
        <time>2019-09-28T08:15:40Z</time>
      </trkpt>
      <trkpt lat="45.59281" lon="2.82">
        <ele>1079.7642691746</ele>
        <time>2019-09-28T08:15:49Z</time>
      </trkpt>
      <trkpt lat="45.59285" lon="2.82015">
        <ele>1080.5686574763</ele>
        <time>2019-09-28T08:15:58Z</time>
      </trkpt>
      <trkpt lat="45.5929" lon="2.82028">
        <ele>1081.3503387225</ele>
        <time>2019-09-28T08:16:07Z</time>
      </trkpt>
      <trkpt lat="45.59291" lon="2.82037">
        <ele>1082.0826733853</ele>
        <time>2019-09-28T08:16:17Z</time>
      </trkpt>
      <trkpt lat="45.59287" lon="2.82042">
        <ele>1082.7102547835</ele>
        <time>2019-09-28T08:16:26Z</time>
      </trkpt>
      <trkpt lat="45.5929" lon="2.82053">
        <ele>1083.394870525</ele>
        <time>2019-09-28T08:16:35Z</time>
      </trkpt>
      <trkpt lat="45.59292" lon="2.82041">
        <ele>1084.1514744088</ele>
        <time>2019-09-28T08:16:45Z</time>
      </trkpt>
      <trkpt lat="45.59291" lon="2.8203">
        <ele>1084.7185187497</ele>
        <time>2019-09-28T08:16:54Z</time>
      </trkpt>
      <trkpt lat="45.59294" lon="2.82017">
        <ele>1085.2540992196</ele>
        <time>2019-09-28T08:17:04Z</time>
      </trkpt>
      <trkpt lat="45.59295" lon="2.82006">
        <ele>1085.705831218</ele>
        <time>2019-09-28T08:17:13Z</time>
      </trkpt>
      <trkpt lat="45.59296" lon="2.81996">
        <ele>1086.2161812037</ele>
        <time>2019-09-28T08:17:23Z</time>
      </trkpt>
      <trkpt lat="45.59297" lon="2.81987">
        <ele>1086.6402562991</ele>
        <time>2019-09-28T08:17:32Z</time>
      </trkpt>
      <trkpt lat="45.59298" lon="2.81975">
        <ele>1087.0154514662</ele>
        <time>2019-09-28T08:17:41Z</time>
      </trkpt>
      <trkpt lat="45.593" lon="2.81958">
        <ele>1087.4542728432</ele>
        <time>2019-09-28T08:17:51Z</time>
      </trkpt>
      <trkpt lat="45.593" lon="2.81953">
        <ele>1087.943080091</ele>
        <time>2019-09-28T08:18:00Z</time>
      </trkpt>
      <trkpt lat="45.59309" lon="2.81942">
        <ele>1088.5958122497</ele>
        <time>2019-09-28T08:18:10Z</time>
      </trkpt>
      <trkpt lat="45.59315" lon="2.81941">
        <ele>1089.3673481984</ele>
        <time>2019-09-28T08:18:19Z</time>
      </trkpt>
      <trkpt lat="45.59324" lon="2.81929">
        <ele>1090.1077523687</ele>
        <time>2019-09-28T08:18:29Z</time>
      </trkpt>
      <trkpt lat="45.59329" lon="2.81924">
        <ele>1090.8064556333</ele>
        <time>2019-09-28T08:18:38Z</time>
      </trkpt>
      <trkpt lat="45.59339" lon="2.81921">
        <ele>1091.4771586538</ele>
        <time>2019-09-28T08:18:47Z</time>
      </trkpt>
      <trkpt lat="45.59346" lon="2.81928">
        <ele>1092.262890839</ele>
        <time>2019-09-28T08:18:56Z</time>
      </trkpt>
      <trkpt lat="45.59348" lon="2.81938">
        <ele>1092.8414245742</ele>
        <time>2019-09-28T08:19:05Z</time>
      </trkpt>
      <trkpt lat="45.59349" lon="2.81949">
        <ele>1093.4983540351</ele>
        <time>2019-09-28T08:19:14Z</time>
      </trkpt>
      <trkpt lat="45.59341" lon="2.8196">
        <ele>1094.1575120659</ele>
        <time>2019-09-28T08:19:23Z</time>
      </trkpt>
      <trkpt lat="45.59338" lon="2.81973">
        <ele>1094.8038128698</ele>
        <time>2019-09-28T08:19:32Z</time>
      </trkpt>
      <trkpt lat="45.59336" lon="2.81982">
        <ele>1095.5331779612</ele>
        <time>2019-09-28T08:19:42Z</time>
      </trkpt>
      <trkpt lat="45.59341" lon="2.81995">
        <ele>1096.2007753904</ele>
        <time>2019-09-28T08:19:52Z</time>
      </trkpt>
      <trkpt lat="45.59343" lon="2.82">
        <ele>1096.879173893</ele>
        <time>2019-09-28T08:20:02Z</time>
      </trkpt>
      <trkpt lat="45.59342" lon="2.82012">
        <ele>1097.4132010894</ele>
        <time>2019-09-28T08:20:11Z</time>
      </trkpt>
      <trkpt lat="45.59341" lon="2.8203">
        <ele>1097.8822192507</ele>
        <time>2019-09-28T08:20:21Z</time>
      </trkpt>
      <trkpt lat="45.59342" lon="2.82042">
        <ele>1098.4388710402</ele>
        <time>2019-09-28T08:20:31Z</time>
      </trkpt>
      <trkpt lat="45.59343" lon="2.82052">
        <ele>1098.9679696963</ele>
        <time>2019-09-28T08:20:41Z</time>
      </trkpt>
      <trkpt lat="45.59346" lon="2.82065">
        <ele>1099.5599949354</ele>
        <time>2019-09-28T08:20:50Z</time>
      </trkpt>
      <trkpt lat="45.59341" lon="2.82069">
        <ele>1099.9923989855</ele>
        <time>2019-09-28T08:20:59Z</time>
      </trkpt>
      <trkpt lat="45.59339" lon="2.82082">
        <ele>1100.5574501994</ele>
        <time>2019-09-28T08:21:09Z</time>
      </trkpt>
      <trkpt lat="45.5934" lon="2.82088">
        <ele>1101.1389012494</ele>
        <time>2019-09-28T08:21:18Z</time>
      </trkpt>
      <trkpt lat="45.59338" lon="2.82089">
        <ele>1101.903423959</ele>
        <time>2019-09-28T08:21:27Z</time>
      </trkpt>
      <trkpt lat="45.59338" lon="2.821">
        <ele>1103.052821283</ele>
        <time>2019-09-28T08:21:37Z</time>
      </trkpt>
      <trkpt lat="45.59343" lon="2.82112">
        <ele>1104.1831132381</ele>
        <time>2019-09-28T08:21:46Z</time>
      </trkpt>
      <trkpt lat="45.5935" lon="2.82125">
        <ele>1105.3072171402</ele>
        <time>2019-09-28T08:21:55Z</time>
      </trkpt>
      <trkpt lat="45.59352" lon="2.82137">
        <ele>1106.462183764</ele>
        <time>2019-09-28T08:22:05Z</time>
      </trkpt>
      <trkpt lat="45.59354" lon="2.82151">
        <ele>1107.3709613567</ele>
        <time>2019-09-28T08:22:14Z</time>
      </trkpt>
      <trkpt lat="45.59357" lon="2.82166">
        <ele>1108.4742993462</ele>
        <time>2019-09-28T08:22:24Z</time>
      </trkpt>
      <trkpt lat="45.59359" lon="2.82174">
        <ele>1109.7551299161</ele>
        <time>2019-09-28T08:22:34Z</time>
      </trkpt>
      <trkpt lat="45.59363" lon="2.82179">
        <ele>1111.0170414373</ele>
        <time>2019-09-28T08:22:44Z</time>
      </trkpt>
      <trkpt lat="45.5937" lon="2.8219">
        <ele>1112.0521575337</ele>
        <time>2019-09-28T08:22:53Z</time>
      </trkpt>
      <trkpt lat="45.59375" lon="2.82206">
        <ele>1113.1579460895</ele>
        <time>2019-09-28T08:23:03Z</time>
      </trkpt>
      <trkpt lat="45.5938" lon="2.82217">
        <ele>1114.338004279</ele>
        <time>2019-09-28T08:23:12Z</time>
      </trkpt>
      <trkpt lat="45.59381" lon="2.8223">
        <ele>1115.864943394</ele>
        <time>2019-09-28T08:23:22Z</time>
      </trkpt>
      <trkpt lat="45.59381" lon="2.82237">
        <ele>1117.0779450366</ele>
        <time>2019-09-28T08:23:31Z</time>
      </trkpt>
      <trkpt lat="45.5938" lon="2.82249">
        <ele>1118.2841073621</ele>
        <time>2019-09-28T08:23:40Z</time>
      </trkpt>
      <trkpt lat="45.59381" lon="2.82261">
        <ele>1119.3869346111</ele>
        <time>2019-09-28T08:23:49Z</time>
      </trkpt>
      <trkpt lat="45.59382" lon="2.82268">
        <ele>1120.5820599335</ele>
        <time>2019-09-28T08:23:58Z</time>
      </trkpt>
      <trkpt lat="45.59386" lon="2.82275">
        <ele>1121.7487439077</ele>
        <time>2019-09-28T08:24:07Z</time>
      </trkpt>
      <trkpt lat="45.59388" lon="2.82282">
        <ele>1122.9154544858</ele>
        <time>2019-09-28T08:24:17Z</time>
      </trkpt>
      <trkpt lat="45.5939" lon="2.8229">
        <ele>1124.0640359433</ele>
        <time>2019-09-28T08:24:26Z</time>
      </trkpt>
      <trkpt lat="45.5939" lon="2.82297">
        <ele>1125.1165971233</ele>
        <time>2019-09-28T08:24:35Z</time>
      </trkpt>
      <trkpt lat="45.59393" lon="2.82307">
        <ele>1126.1061035388</ele>
        <time>2019-09-28T08:24:45Z</time>
      </trkpt>
      <trkpt lat="45.59395" lon="2.82312">
        <ele>1126.9951799831</ele>
        <time>2019-09-28T08:24:54Z</time>
      </trkpt>
      <trkpt lat="45.59398" lon="2.82322">
        <ele>1127.8748553203</ele>
        <time>2019-09-28T08:25:03Z</time>
      </trkpt>
      <trkpt lat="45.59401" lon="2.82333">
        <ele>1128.7424326868</ele>
        <time>2019-09-28T08:25:12Z</time>
      </trkpt>
      <trkpt lat="45.59407" lon="2.82346">
        <ele>1129.6080811506</ele>
        <time>2019-09-28T08:25:21Z</time>
      </trkpt>
      <trkpt lat="45.59408" lon="2.82358">
        <ele>1130.789359194</ele>
        <time>2019-09-28T08:25:31Z</time>
      </trkpt>
      <trkpt lat="45.59412" lon="2.82363">
        <ele>1132.1162952875</ele>
        <time>2019-09-28T08:25:40Z</time>
      </trkpt>
      <trkpt lat="45.59417" lon="2.82372">
        <ele>1133.519417907</ele>
        <time>2019-09-28T08:25:49Z</time>
      </trkpt>
      <trkpt lat="45.59421" lon="2.82376">
        <ele>1135.2957243613</ele>
        <time>2019-09-28T08:25:59Z</time>
      </trkpt>
      <trkpt lat="45.59422" lon="2.82386">
        <ele>1137.0653459219</ele>
        <time>2019-09-28T08:26:08Z</time>
      </trkpt>
      <trkpt lat="45.59422" lon="2.82388">
        <ele>1139.1984815496</ele>
        <time>2019-09-28T08:26:17Z</time>
      </trkpt>
      <trkpt lat="45.59429" lon="2.82399">
        <ele>1141.5872600976</ele>
        <time>2019-09-28T08:26:27Z</time>
      </trkpt>
      <trkpt lat="45.59432" lon="2.82411">
        <ele>1143.765648222</ele>
        <time>2019-09-28T08:26:36Z</time>
      </trkpt>
      <trkpt lat="45.59435" lon="2.8242">
        <ele>1146.2436795225</ele>
        <time>2019-09-28T08:26:46Z</time>
      </trkpt>
      <trkpt lat="45.59438" lon="2.82432">
        <ele>1148.564804883</ele>
        <time>2019-09-28T08:26:55Z</time>
      </trkpt>
      <trkpt lat="45.59438" lon="2.82431">
        <ele>1150.9322137011</ele>
        <time>2019-09-28T08:27:05Z</time>
      </trkpt>
      <trkpt lat="45.59438" lon="2.82434">
        <ele>1154.0672891706</ele>
        <time>2019-09-28T08:27:15Z</time>
      </trkpt>
      <trkpt lat="45.59441" lon="2.82434">
        <ele>1155.2100252451</ele>
        <time>2019-09-28T08:27:24Z</time>
      </trkpt>
      <trkpt lat="45.59445" lon="2.82432">
        <ele>1156.507505422</ele>
        <time>2019-09-28T08:27:33Z</time>
      </trkpt>
      <trkpt lat="45.59444" lon="2.82432">
        <ele>1158.4280896955</ele>
        <time>2019-09-28T08:28:02Z</time>
      </trkpt>
      <trkpt lat="45.59445" lon="2.82425">
        <ele>1162.1936273751</ele>
        <time>2019-09-28T08:28:12Z</time>
      </trkpt>
      <trkpt lat="45.59448" lon="2.82417">
        <ele>1165.2454978319</ele>
        <time>2019-09-28T08:28:22Z</time>
      </trkpt>
      <trkpt lat="45.59455" lon="2.82431">
        <ele>1167.7190771863</ele>
        <time>2019-09-28T08:28:32Z</time>
      </trkpt>
      <trkpt lat="45.59459" lon="2.82443">
        <ele>1169.5982155923</ele>
        <time>2019-09-28T08:28:41Z</time>
      </trkpt>
      <trkpt lat="45.59463" lon="2.82455">
        <ele>1171.2094147945</ele>
        <time>2019-09-28T08:28:50Z</time>
      </trkpt>
      <trkpt lat="45.5947" lon="2.82468">
        <ele>1172.5569056733</ele>
        <time>2019-09-28T08:28:59Z</time>
      </trkpt>
      <trkpt lat="45.59477" lon="2.82477">
        <ele>1173.6505130457</ele>
        <time>2019-09-28T08:29:09Z</time>
      </trkpt>
      <trkpt lat="45.59484" lon="2.82488">
        <ele>1174.4468897287</ele>
        <time>2019-09-28T08:29:18Z</time>
      </trkpt>
      <trkpt lat="45.59489" lon="2.82491">
        <ele>1174.907827417</ele>
        <time>2019-09-28T08:29:27Z</time>
      </trkpt>
      <trkpt lat="45.59492" lon="2.82501">
        <ele>1175.3874847008</ele>
        <time>2019-09-28T08:29:37Z</time>
      </trkpt>
      <trkpt lat="45.59495" lon="2.82511">
        <ele>1175.7468587578</ele>
        <time>2019-09-28T08:29:46Z</time>
      </trkpt>
      <trkpt lat="45.595" lon="2.82508">
        <ele>1175.8993584105</ele>
        <time>2019-09-28T08:29:55Z</time>
      </trkpt>
      <trkpt lat="45.59497" lon="2.82508">
        <ele>1176.3417934424</ele>
        <time>2019-09-28T08:30:04Z</time>
      </trkpt>
      <trkpt lat="45.59497" lon="2.82511">
        <ele>1176.6790436478</ele>
        <time>2019-09-28T08:30:13Z</time>
      </trkpt>
      <trkpt lat="45.595" lon="2.82513">
        <ele>1177.2221828819</ele>
        <time>2019-09-28T08:30:22Z</time>
      </trkpt>
      <trkpt lat="45.59503" lon="2.82515">
        <ele>1177.4486937263</ele>
        <time>2019-09-28T08:30:32Z</time>
      </trkpt>
      <trkpt lat="45.59501" lon="2.82511">
        <ele>1178.1051055847</ele>
        <time>2019-09-28T08:30:41Z</time>
      </trkpt>
      <trkpt lat="45.59501" lon="2.82509">
        <ele>1178.8294907315</ele>
        <time>2019-09-28T08:30:51Z</time>
      </trkpt>
      <trkpt lat="45.59503" lon="2.82504">
        <ele>1179.641300588</ele>
        <time>2019-09-28T08:31:01Z</time>
      </trkpt>
      <trkpt lat="45.59501" lon="2.82497">
        <ele>1180.3061556947</ele>
        <time>2019-09-28T08:31:11Z</time>
      </trkpt>
      <trkpt lat="45.59499" lon="2.82497">
        <ele>1180.8468566391</ele>
        <time>2019-09-28T08:31:20Z</time>
      </trkpt>
      <trkpt lat="45.59499" lon="2.82496">
        <ele>1181.243326585</ele>
        <time>2019-09-28T08:31:38Z</time>
      </trkpt>
      <trkpt lat="45.59498" lon="2.82496">
        <ele>1181.6365798021</ele>
        <time>2019-09-28T08:31:58Z</time>
      </trkpt>
      <trkpt lat="45.595" lon="2.82498">
        <ele>1182.4426054834</ele>
        <time>2019-09-28T08:32:07Z</time>
      </trkpt>
      <trkpt lat="45.595" lon="2.82499">
        <ele>1182.655471028</ele>
        <time>2019-09-28T08:32:17Z</time>
      </trkpt>
      <trkpt lat="45.595" lon="2.825">
        <ele>1182.8493615256</ele>
        <time>2019-09-28T08:32:26Z</time>
      </trkpt>
      <trkpt lat="45.595" lon="2.82502">
        <ele>1183.2692889167</ele>
        <time>2019-09-28T08:32:36Z</time>
      </trkpt>
      <trkpt lat="45.595" lon="2.82502">
        <ele>1184.2143911825</ele>
        <time>2019-09-28T08:32:53Z</time>
      </trkpt>
      <trkpt lat="45.59498" lon="2.82501">
        <ele>1184.8034390365</ele>
        <time>2019-09-28T08:33:03Z</time>
      </trkpt>
      <trkpt lat="45.59498" lon="2.82502">
        <ele>1185.2362145223</ele>
        <time>2019-09-28T08:33:16Z</time>
      </trkpt>
      <trkpt lat="45.59499" lon="2.82497">
        <ele>1186.2091747366</ele>
        <time>2019-09-28T08:33:26Z</time>
      </trkpt>
      <trkpt lat="45.59499" lon="2.82493">
        <ele>1186.5056561942</ele>
        <time>2019-09-28T08:33:35Z</time>
      </trkpt>
      <trkpt lat="45.59498" lon="2.82493">
        <ele>1186.9441999081</ele>
        <time>2019-09-28T08:33:44Z</time>
      </trkpt>
      <trkpt lat="45.59498" lon="2.82501">
        <ele>1188.3011892525</ele>
        <time>2019-09-28T08:33:53Z</time>
      </trkpt>
      <trkpt lat="45.595" lon="2.82509">
        <ele>1189.2930165765</ele>
        <time>2019-09-28T08:34:03Z</time>
      </trkpt>
      <trkpt lat="45.59504" lon="2.82506">
        <ele>1190.2016101389</ele>
        <time>2019-09-28T08:34:12Z</time>
      </trkpt>
      <trkpt lat="45.59503" lon="2.8251">
        <ele>1190.8602578687</ele>
        <time>2019-09-28T08:34:22Z</time>
      </trkpt>
      <trkpt lat="45.59504" lon="2.82509">
        <ele>1191.2754882599</ele>
        <time>2019-09-28T08:34:31Z</time>
      </trkpt>
      <trkpt lat="45.59503" lon="2.82509">
        <ele>1191.7109342449</ele>
        <time>2019-09-28T08:34:45Z</time>
      </trkpt>
      <trkpt lat="45.59502" lon="2.82508">
        <ele>1191.8201002297</ele>
        <time>2019-09-28T08:34:54Z</time>
      </trkpt>
      <trkpt lat="45.59501" lon="2.82509">
        <ele>1191.9714062733</ele>
        <time>2019-09-28T08:35:06Z</time>
      </trkpt>
      <trkpt lat="45.595" lon="2.8251">
        <ele>1192.2525882534</ele>
        <time>2019-09-28T08:35:16Z</time>
      </trkpt>
      <trkpt lat="45.595" lon="2.82513">
        <ele>1192.5701957244</ele>
        <time>2019-09-28T08:35:25Z</time>
      </trkpt>
      <trkpt lat="45.595" lon="2.82512">
        <ele>1192.7951017771</ele>
        <time>2019-09-28T08:35:34Z</time>
      </trkpt>
      <trkpt lat="45.595" lon="2.82511">
        <ele>1192.8970655041</ele>
        <time>2019-09-28T08:35:46Z</time>
      </trkpt>
      <trkpt lat="45.595" lon="2.8251">
        <ele>1193.0553380235</ele>
        <time>2019-09-28T08:36:01Z</time>
      </trkpt>
      <trkpt lat="45.59506" lon="2.82502">
        <ele>1193.1695173658</ele>
        <time>2019-09-28T08:36:10Z</time>
      </trkpt>
      <trkpt lat="45.59507" lon="2.82499">
        <ele>1193.2112035238</ele>
        <time>2019-09-28T08:36:19Z</time>
      </trkpt>
      <trkpt lat="45.59506" lon="2.82499">
        <ele>1193.2118505121</ele>
        <time>2019-09-28T08:36:28Z</time>
      </trkpt>
      <trkpt lat="45.595" lon="2.825">
        <ele>1193.208131532</ele>
        <time>2019-09-28T08:36:37Z</time>
      </trkpt>
      <trkpt lat="45.59494" lon="2.82503">
        <ele>1193.2045042492</ele>
        <time>2019-09-28T08:36:47Z</time>
      </trkpt>
      <trkpt lat="45.59497" lon="2.82503">
        <ele>1193.2028781906</ele>
        <time>2019-09-28T08:36:56Z</time>
      </trkpt>
      <trkpt lat="45.59496" lon="2.82505">
        <ele>1193.2333515118</ele>
        <time>2019-09-28T08:37:06Z</time>
      </trkpt>
      <trkpt lat="45.59499" lon="2.82507">
        <ele>1193.2554786999</ele>
        <time>2019-09-28T08:37:15Z</time>
      </trkpt>
      <trkpt lat="45.595" lon="2.82505">
        <ele>1193.2759896358</ele>
        <time>2019-09-28T08:37:25Z</time>
      </trkpt>
      <trkpt lat="45.59504" lon="2.82507">
        <ele>1193.2557782707</ele>
        <time>2019-09-28T08:37:34Z</time>
      </trkpt>
      <trkpt lat="45.59503" lon="2.82509">
        <ele>1193.2025646242</ele>
        <time>2019-09-28T08:37:44Z</time>
      </trkpt>
      <trkpt lat="45.59509" lon="2.82515">
        <ele>1193.1191662163</ele>
        <time>2019-09-28T08:37:54Z</time>
      </trkpt>
      <trkpt lat="45.59511" lon="2.82518">
        <ele>1193.0291133553</ele>
        <time>2019-09-28T08:38:03Z</time>
      </trkpt>
      <trkpt lat="45.59518" lon="2.82526">
        <ele>1192.9363461247</ele>
        <time>2019-09-28T08:38:13Z</time>
      </trkpt>
      <trkpt lat="45.59526" lon="2.82537">
        <ele>1192.8751351953</ele>
        <time>2019-09-28T08:38:23Z</time>
      </trkpt>
      <trkpt lat="45.59528" lon="2.8255">
        <ele>1192.8654131767</ele>
        <time>2019-09-28T08:38:32Z</time>
      </trkpt>
      <trkpt lat="45.59534" lon="2.82558">
        <ele>1192.874962546</ele>
        <time>2019-09-28T08:38:41Z</time>
      </trkpt>
      <trkpt lat="45.5954" lon="2.82568">
        <ele>1192.9342559027</ele>
        <time>2019-09-28T08:38:50Z</time>
      </trkpt>
      <trkpt lat="45.59545" lon="2.82573">
        <ele>1193.0313192671</ele>
        <time>2019-09-28T08:38:59Z</time>
      </trkpt>
      <trkpt lat="45.59552" lon="2.82575">
        <ele>1193.1858637735</ele>
        <time>2019-09-28T08:39:09Z</time>
      </trkpt>
      <trkpt lat="45.59558" lon="2.82585">
        <ele>1193.3396286581</ele>
        <time>2019-09-28T08:39:18Z</time>
      </trkpt>
      <trkpt lat="45.59563" lon="2.82593">
        <ele>1193.527565921</ele>
        <time>2019-09-28T08:39:27Z</time>
      </trkpt>
      <trkpt lat="45.5957" lon="2.8261">
        <ele>1193.7541387223</ele>
        <time>2019-09-28T08:39:37Z</time>
      </trkpt>
      <trkpt lat="45.59579" lon="2.82622">
        <ele>1193.9155318453</ele>
        <time>2019-09-28T08:39:47Z</time>
      </trkpt>
      <trkpt lat="45.59583" lon="2.82637">
        <ele>1194.0615032189</ele>
        <time>2019-09-28T08:39:56Z</time>
      </trkpt>
      <trkpt lat="45.59586" lon="2.82643">
        <ele>1194.2050763109</ele>
        <time>2019-09-28T08:40:05Z</time>
      </trkpt>
      <trkpt lat="45.59587" lon="2.82652">
        <ele>1194.3911757226</ele>
        <time>2019-09-28T08:40:14Z</time>
      </trkpt>
      <trkpt lat="45.59592" lon="2.82667">
        <ele>1194.7577327701</ele>
        <time>2019-09-28T08:40:24Z</time>
      </trkpt>
      <trkpt lat="45.59597" lon="2.82674">
        <ele>1195.2344236928</ele>
        <time>2019-09-28T08:40:33Z</time>
      </trkpt>
      <trkpt lat="45.59606" lon="2.82687">
        <ele>1195.7691410949</ele>
        <time>2019-09-28T08:40:42Z</time>
      </trkpt>
      <trkpt lat="45.59611" lon="2.82695">
        <ele>1196.2298434065</ele>
        <time>2019-09-28T08:40:51Z</time>
      </trkpt>
      <trkpt lat="45.59618" lon="2.82706">
        <ele>1196.7672536829</ele>
        <time>2019-09-28T08:41:01Z</time>
      </trkpt>
      <trkpt lat="45.59621" lon="2.82716">
        <ele>1197.2064684465</ele>
        <time>2019-09-28T08:41:10Z</time>
      </trkpt>
      <trkpt lat="45.59624" lon="2.82723">
        <ele>1197.8133550082</ele>
        <time>2019-09-28T08:41:19Z</time>
      </trkpt>
      <trkpt lat="45.59629" lon="2.82737">
        <ele>1198.5946975532</ele>
        <time>2019-09-28T08:41:29Z</time>
      </trkpt>
      <trkpt lat="45.59635" lon="2.82749">
        <ele>1199.5253256105</ele>
        <time>2019-09-28T08:41:39Z</time>
      </trkpt>
      <trkpt lat="45.59639" lon="2.82759">
        <ele>1200.4712963197</ele>
        <time>2019-09-28T08:41:48Z</time>
      </trkpt>
      <trkpt lat="45.59642" lon="2.82763">
        <ele>1201.6011961344</ele>
        <time>2019-09-28T08:41:58Z</time>
      </trkpt>
      <trkpt lat="45.59649" lon="2.82775">
        <ele>1202.6843811251</ele>
        <time>2019-09-28T08:42:07Z</time>
      </trkpt>
      <trkpt lat="45.59656" lon="2.82783">
        <ele>1203.885510832</ele>
        <time>2019-09-28T08:42:17Z</time>
      </trkpt>
      <trkpt lat="45.59663" lon="2.82791">
        <ele>1204.9121559743</ele>
        <time>2019-09-28T08:42:26Z</time>
      </trkpt>
      <trkpt lat="45.5967" lon="2.82802">
        <ele>1205.9507227777</ele>
        <time>2019-09-28T08:42:35Z</time>
      </trkpt>
      <trkpt lat="45.59678" lon="2.82812">
        <ele>1206.9883750905</ele>
        <time>2019-09-28T08:42:44Z</time>
      </trkpt>
      <trkpt lat="45.59687" lon="2.82822">
        <ele>1208.0661096654</ele>
        <time>2019-09-28T08:42:53Z</time>
      </trkpt>
      <trkpt lat="45.59695" lon="2.82829">
        <ele>1209.0785131405</ele>
        <time>2019-09-28T08:43:02Z</time>
      </trkpt>
      <trkpt lat="45.59704" lon="2.8284">
        <ele>1209.9760404211</ele>
        <time>2019-09-28T08:43:11Z</time>
      </trkpt>
      <trkpt lat="45.5971" lon="2.82846">
        <ele>1210.6701732406</ele>
        <time>2019-09-28T08:43:20Z</time>
      </trkpt>
      <trkpt lat="45.59717" lon="2.82855">
        <ele>1211.3476253103</ele>
        <time>2019-09-28T08:43:29Z</time>
      </trkpt>
      <trkpt lat="45.59729" lon="2.82867">
        <ele>1212.1139784912</ele>
        <time>2019-09-28T08:43:39Z</time>
      </trkpt>
      <trkpt lat="45.59736" lon="2.82875">
        <ele>1212.8841886047</ele>
        <time>2019-09-28T08:43:49Z</time>
      </trkpt>
      <trkpt lat="45.59743" lon="2.82884">
        <ele>1213.6016992995</ele>
        <time>2019-09-28T08:43:58Z</time>
      </trkpt>
      <trkpt lat="45.59745" lon="2.82892">
        <ele>1214.3650665261</ele>
        <time>2019-09-28T08:44:07Z</time>
      </trkpt>
      <trkpt lat="45.59752" lon="2.82901">
        <ele>1215.1492560179</ele>
        <time>2019-09-28T08:44:16Z</time>
      </trkpt>
      <trkpt lat="45.59758" lon="2.82911">
        <ele>1216.0108986185</ele>
        <time>2019-09-28T08:44:26Z</time>
      </trkpt>
      <trkpt lat="45.59765" lon="2.82917">
        <ele>1216.7703250594</ele>
        <time>2019-09-28T08:44:35Z</time>
      </trkpt>
      <trkpt lat="45.59765" lon="2.82919">
        <ele>1217.2457676623</ele>
        <time>2019-09-28T08:44:51Z</time>
      </trkpt>
      <trkpt lat="45.59764" lon="2.82919">
        <ele>1217.4242525548</ele>
        <time>2019-09-28T08:45:00Z</time>
      </trkpt>
      <trkpt lat="45.59765" lon="2.8293">
        <ele>1218.2951778016</ele>
        <time>2019-09-28T08:45:10Z</time>
      </trkpt>
      <trkpt lat="45.59772" lon="2.82944">
        <ele>1219.0793508952</ele>
        <time>2019-09-28T08:45:20Z</time>
      </trkpt>
      <trkpt lat="45.59779" lon="2.82953">
        <ele>1219.7000447913</ele>
        <time>2019-09-28T08:45:29Z</time>
      </trkpt>
      <trkpt lat="45.59784" lon="2.82965">
        <ele>1220.2767327306</ele>
        <time>2019-09-28T08:45:38Z</time>
      </trkpt>
      <trkpt lat="45.59787" lon="2.82973">
        <ele>1220.78668364</ele>
        <time>2019-09-28T08:45:47Z</time>
      </trkpt>
      <trkpt lat="45.59782" lon="2.82988">
        <ele>1221.252603461</ele>
        <time>2019-09-28T08:45:57Z</time>
      </trkpt>
      <trkpt lat="45.59776" lon="2.82996">
        <ele>1221.567955363</ele>
        <time>2019-09-28T08:46:06Z</time>
      </trkpt>
      <trkpt lat="45.59774" lon="2.83001">
        <ele>1221.830450893</ele>
        <time>2019-09-28T08:46:16Z</time>
      </trkpt>
      <trkpt lat="45.5977" lon="2.83011">
        <ele>1221.9899279203</ele>
        <time>2019-09-28T08:46:25Z</time>
      </trkpt>
      <trkpt lat="45.59764" lon="2.83022">
        <ele>1222.0528083262</ele>
        <time>2019-09-28T08:46:34Z</time>
      </trkpt>
      <trkpt lat="45.59759" lon="2.83033">
        <ele>1222.036658259</ele>
        <time>2019-09-28T08:46:44Z</time>
      </trkpt>
      <trkpt lat="45.59754" lon="2.8304">
        <ele>1221.9646501137</ele>
        <time>2019-09-28T08:46:53Z</time>
      </trkpt>
      <trkpt lat="45.59749" lon="2.8305">
        <ele>1221.8588621762</ele>
        <time>2019-09-28T08:47:02Z</time>
      </trkpt>
      <trkpt lat="45.59745" lon="2.83059">
        <ele>1221.7072043072</ele>
        <time>2019-09-28T08:47:12Z</time>
      </trkpt>
      <trkpt lat="45.5974" lon="2.8307">
        <ele>1221.5432863751</ele>
        <time>2019-09-28T08:47:21Z</time>
      </trkpt>
      <trkpt lat="45.59742" lon="2.83085">
        <ele>1221.3154647765</ele>
        <time>2019-09-28T08:47:31Z</time>
      </trkpt>
      <trkpt lat="45.59741" lon="2.83095">
        <ele>1221.1554369544</ele>
        <time>2019-09-28T08:47:40Z</time>
      </trkpt>
      <trkpt lat="45.59745" lon="2.83107">
        <ele>1221.0999896084</ele>
        <time>2019-09-28T08:47:49Z</time>
      </trkpt>
      <trkpt lat="45.59746" lon="2.8311">
        <ele>1221.2011784016</ele>
        <time>2019-09-28T08:47:59Z</time>
      </trkpt>
      <trkpt lat="45.59756" lon="2.83112">
        <ele>1221.4959094237</ele>
        <time>2019-09-28T08:48:08Z</time>
      </trkpt>
      <trkpt lat="45.59767" lon="2.83112">
        <ele>1222.0697181676</ele>
        <time>2019-09-28T08:48:18Z</time>
      </trkpt>
      <trkpt lat="45.59778" lon="2.83109">
        <ele>1222.8244989584</ele>
        <time>2019-09-28T08:48:28Z</time>
      </trkpt>
      <trkpt lat="45.59787" lon="2.8311">
        <ele>1223.63197887</ele>
        <time>2019-09-28T08:48:37Z</time>
      </trkpt>
      <trkpt lat="45.59798" lon="2.83113">
        <ele>1224.500754032</ele>
        <time>2019-09-28T08:48:46Z</time>
      </trkpt>
      <trkpt lat="45.59809" lon="2.83116">
        <ele>1225.4101405856</ele>
        <time>2019-09-28T08:48:56Z</time>
      </trkpt>
      <trkpt lat="45.59815" lon="2.83122">
        <ele>1226.1299912217</ele>
        <time>2019-09-28T08:49:05Z</time>
      </trkpt>
      <trkpt lat="45.59823" lon="2.8313">
        <ele>1226.7939018802</ele>
        <time>2019-09-28T08:49:14Z</time>
      </trkpt>
      <trkpt lat="45.59829" lon="2.83138">
        <ele>1227.3861150121</ele>
        <time>2019-09-28T08:49:23Z</time>
      </trkpt>
      <trkpt lat="45.59834" lon="2.83146">
        <ele>1227.9037528611</ele>
        <time>2019-09-28T08:49:32Z</time>
      </trkpt>
      <trkpt lat="45.59838" lon="2.83153">
        <ele>1228.3508190971</ele>
        <time>2019-09-28T08:49:41Z</time>
      </trkpt>
      <trkpt lat="45.59845" lon="2.83165">
        <ele>1228.8212249657</ele>
        <time>2019-09-28T08:49:51Z</time>
      </trkpt>
      <trkpt lat="45.59853" lon="2.83175">
        <ele>1229.326710994</ele>
        <time>2019-09-28T08:50:01Z</time>
      </trkpt>
      <trkpt lat="45.59857" lon="2.83183">
        <ele>1229.6723433247</ele>
        <time>2019-09-28T08:50:10Z</time>
      </trkpt>
      <trkpt lat="45.59861" lon="2.83197">
        <ele>1230.100066941</ele>
        <time>2019-09-28T08:50:20Z</time>
      </trkpt>
      <trkpt lat="45.59865" lon="2.83209">
        <ele>1230.4995966032</ele>
        <time>2019-09-28T08:50:29Z</time>
      </trkpt>
      <trkpt lat="45.59869" lon="2.83225">
        <ele>1230.9549870137</ele>
        <time>2019-09-28T08:50:39Z</time>
      </trkpt>
      <trkpt lat="45.59872" lon="2.8324">
        <ele>1231.3594100316</ele>
        <time>2019-09-28T08:50:48Z</time>
      </trkpt>
      <trkpt lat="45.59875" lon="2.8325">
        <ele>1231.7577319364</ele>
        <time>2019-09-28T08:50:57Z</time>
      </trkpt>
      <trkpt lat="45.5988" lon="2.83262">
        <ele>1232.2005657308</ele>
        <time>2019-09-28T08:51:07Z</time>
      </trkpt>
      <trkpt lat="45.59885" lon="2.83272">
        <ele>1232.5889512971</ele>
        <time>2019-09-28T08:51:16Z</time>
      </trkpt>
      <trkpt lat="45.59889" lon="2.83284">
        <ele>1232.9648183554</ele>
        <time>2019-09-28T08:51:25Z</time>
      </trkpt>
      <trkpt lat="45.59893" lon="2.83295">
        <ele>1233.3440088925</ele>
        <time>2019-09-28T08:51:34Z</time>
      </trkpt>
      <trkpt lat="45.59895" lon="2.83308">
        <ele>1233.7014877924</ele>
        <time>2019-09-28T08:51:43Z</time>
      </trkpt>
      <trkpt lat="45.59899" lon="2.83319">
        <ele>1234.0301633772</ele>
        <time>2019-09-28T08:51:52Z</time>
      </trkpt>
      <trkpt lat="45.59904" lon="2.83334">
        <ele>1234.372614836</ele>
        <time>2019-09-28T08:52:02Z</time>
      </trkpt>
      <trkpt lat="45.59908" lon="2.83345">
        <ele>1234.7048494773</ele>
        <time>2019-09-28T08:52:11Z</time>
      </trkpt>
      <trkpt lat="45.59912" lon="2.83355">
        <ele>1235.0516872517</ele>
        <time>2019-09-28T08:52:21Z</time>
      </trkpt>
      <trkpt lat="45.59919" lon="2.83365">
        <ele>1235.3556461161</ele>
        <time>2019-09-28T08:52:30Z</time>
      </trkpt>
      <trkpt lat="45.59922" lon="2.83374">
        <ele>1235.6009801765</ele>
        <time>2019-09-28T08:52:39Z</time>
      </trkpt>
      <trkpt lat="45.59927" lon="2.83385">
        <ele>1235.7546938502</ele>
        <time>2019-09-28T08:52:49Z</time>
      </trkpt>
      <trkpt lat="45.59926" lon="2.83404">
        <ele>1235.779531813</ele>
        <time>2019-09-28T08:52:58Z</time>
      </trkpt>
      <trkpt lat="45.59932" lon="2.83415">
        <ele>1235.7694792959</ele>
        <time>2019-09-28T08:53:08Z</time>
      </trkpt>
      <trkpt lat="45.59938" lon="2.83428">
        <ele>1235.7527193788</ele>
        <time>2019-09-28T08:53:17Z</time>
      </trkpt>
      <trkpt lat="45.59939" lon="2.83437">
        <ele>1235.7501714233</ele>
        <time>2019-09-28T08:53:27Z</time>
      </trkpt>
      <trkpt lat="45.59944" lon="2.83451">
        <ele>1235.7434406614</ele>
        <time>2019-09-28T08:53:36Z</time>
      </trkpt>
      <trkpt lat="45.59948" lon="2.8346">
        <ele>1235.7292739903</ele>
        <time>2019-09-28T08:53:46Z</time>
      </trkpt>
      <trkpt lat="45.59951" lon="2.83467">
        <ele>1235.7226641166</ele>
        <time>2019-09-28T08:53:55Z</time>
      </trkpt>
      <trkpt lat="45.59948" lon="2.83473">
        <ele>1235.7190569688</ele>
        <time>2019-09-28T08:54:05Z</time>
      </trkpt>
      <trkpt lat="45.59945" lon="2.83482">
        <ele>1235.7612136773</ele>
        <time>2019-09-28T08:54:14Z</time>
      </trkpt>
      <trkpt lat="45.59945" lon="2.83481">
        <ele>1235.8829395176</ele>
        <time>2019-09-28T08:54:26Z</time>
      </trkpt>
      <trkpt lat="45.59947" lon="2.83478">
        <ele>1236.0371432655</ele>
        <time>2019-09-28T08:54:35Z</time>
      </trkpt>
      <trkpt lat="45.59948" lon="2.83478">
        <ele>1236.2690146664</ele>
        <time>2019-09-28T08:54:45Z</time>
      </trkpt>
      <trkpt lat="45.59949" lon="2.83478">
        <ele>1236.5883261563</ele>
        <time>2019-09-28T08:55:04Z</time>
      </trkpt>
      <trkpt lat="45.59944" lon="2.83478">
        <ele>1236.8374039744</ele>
        <time>2019-09-28T08:55:13Z</time>
      </trkpt>
      <trkpt lat="45.59946" lon="2.8348">
        <ele>1237.0347317033</ele>
        <time>2019-09-28T08:55:22Z</time>
      </trkpt>
      <trkpt lat="45.59946" lon="2.83481">
        <ele>1237.3144362995</ele>
        <time>2019-09-28T08:55:36Z</time>
      </trkpt>
      <trkpt lat="45.59958" lon="2.83477">
        <ele>1237.7686503766</ele>
        <time>2019-09-28T08:55:45Z</time>
      </trkpt>
      <trkpt lat="45.59957" lon="2.83486">
        <ele>1238.6108866606</ele>
        <time>2019-09-28T08:55:55Z</time>
      </trkpt>
      <trkpt lat="45.59964" lon="2.83498">
        <ele>1239.4550647715</ele>
        <time>2019-09-28T08:56:04Z</time>
      </trkpt>
      <trkpt lat="45.59964" lon="2.83513">
        <ele>1240.2718658569</ele>
        <time>2019-09-28T08:56:13Z</time>
      </trkpt>
      <trkpt lat="45.59971" lon="2.83522">
        <ele>1241.2598686124</ele>
        <time>2019-09-28T08:56:22Z</time>
      </trkpt>
      <trkpt lat="45.5998" lon="2.83539">
        <ele>1242.169154672</ele>
        <time>2019-09-28T08:56:31Z</time>
      </trkpt>
      <trkpt lat="45.59981" lon="2.83554">
        <ele>1243.1274738995</ele>
        <time>2019-09-28T08:56:40Z</time>
      </trkpt>
      <trkpt lat="45.59988" lon="2.83565">
        <ele>1244.5949572534</ele>
        <time>2019-09-28T08:56:50Z</time>
      </trkpt>
      <trkpt lat="45.59996" lon="2.83578">
        <ele>1245.9188546877</ele>
        <time>2019-09-28T08:57:00Z</time>
      </trkpt>
      <trkpt lat="45.59995" lon="2.83598">
        <ele>1247.0501057147</ele>
        <time>2019-09-28T08:57:09Z</time>
      </trkpt>
      <trkpt lat="45.6" lon="2.83618">
        <ele>1248.3425012555</ele>
        <time>2019-09-28T08:57:19Z</time>
      </trkpt>
      <trkpt lat="45.60005" lon="2.83631">
        <ele>1249.5510744622</ele>
        <time>2019-09-28T08:57:29Z</time>
      </trkpt>
      <trkpt lat="45.60006" lon="2.83637">
        <ele>1250.9858927012</ele>
        <time>2019-09-28T08:57:39Z</time>
      </trkpt>
      <trkpt lat="45.6001" lon="2.83657">
        <ele>1252.1567121553</ele>
        <time>2019-09-28T08:57:49Z</time>
      </trkpt>
      <trkpt lat="45.60011" lon="2.83668">
        <ele>1253.0041091157</ele>
        <time>2019-09-28T08:57:58Z</time>
      </trkpt>
      <trkpt lat="45.60023" lon="2.83684">
        <ele>1253.6883836246</ele>
        <time>2019-09-28T08:58:07Z</time>
      </trkpt>
      <trkpt lat="45.60024" lon="2.83695">
        <ele>1254.1906773815</ele>
        <time>2019-09-28T08:58:16Z</time>
      </trkpt>
      <trkpt lat="45.60024" lon="2.83706">
        <ele>1254.518982459</ele>
        <time>2019-09-28T08:58:26Z</time>
      </trkpt>
      <trkpt lat="45.60021" lon="2.83726">
        <ele>1254.9899619909</ele>
        <time>2019-09-28T08:58:36Z</time>
      </trkpt>
      <trkpt lat="45.60018" lon="2.83744">
        <ele>1255.3126637452</ele>
        <time>2019-09-28T08:58:46Z</time>
      </trkpt>
      <trkpt lat="45.60026" lon="2.83755">
        <ele>1255.6865623735</ele>
        <time>2019-09-28T08:58:56Z</time>
      </trkpt>
      <trkpt lat="45.60023" lon="2.83768">
        <ele>1256.2587661747</ele>
        <time>2019-09-28T08:59:05Z</time>
      </trkpt>
      <trkpt lat="45.60018" lon="2.8378">
        <ele>1256.799428462</ele>
        <time>2019-09-28T08:59:14Z</time>
      </trkpt>
      <trkpt lat="45.60024" lon="2.83792">
        <ele>1257.3251076178</ele>
        <time>2019-09-28T08:59:24Z</time>
      </trkpt>
      <trkpt lat="45.60029" lon="2.83812">
        <ele>1258.020924793</ele>
        <time>2019-09-28T08:59:33Z</time>
      </trkpt>
      <trkpt lat="45.6004" lon="2.83825">
        <ele>1259.3700860006</ele>
        <time>2019-09-28T08:59:43Z</time>
      </trkpt>
      <trkpt lat="45.60043" lon="2.8383">
        <ele>1260.9252734846</ele>
        <time>2019-09-28T08:59:52Z</time>
      </trkpt>
      <trkpt lat="45.60049" lon="2.83848">
        <ele>1262.6812073098</ele>
        <time>2019-09-28T09:00:01Z</time>
      </trkpt>
      <trkpt lat="45.60054" lon="2.83859">
        <ele>1264.1367056474</ele>
        <time>2019-09-28T09:00:11Z</time>
      </trkpt>
      <trkpt lat="45.60058" lon="2.83864">
        <ele>1265.6626995456</ele>
        <time>2019-09-28T09:00:21Z</time>
      </trkpt>
      <trkpt lat="45.60052" lon="2.83874">
        <ele>1266.8002180647</ele>
        <time>2019-09-28T09:00:31Z</time>
      </trkpt>
      <trkpt lat="45.60053" lon="2.83889">
        <ele>1268.2399055149</ele>
        <time>2019-09-28T09:00:40Z</time>
      </trkpt>
      <trkpt lat="45.60054" lon="2.83899">
        <ele>1269.5577433567</ele>
        <time>2019-09-28T09:00:49Z</time>
      </trkpt>
      <trkpt lat="45.60047" lon="2.83908">
        <ele>1270.6395209964</ele>
        <time>2019-09-28T09:00:58Z</time>
      </trkpt>
      <trkpt lat="45.60063" lon="2.83925">
        <ele>1271.4242874856</ele>
        <time>2019-09-28T09:01:07Z</time>
      </trkpt>
      <trkpt lat="45.60062" lon="2.83939">
        <ele>1272.0114782646</ele>
        <time>2019-09-28T09:01:17Z</time>
      </trkpt>
      <trkpt lat="45.60063" lon="2.83942">
        <ele>1272.543511304</ele>
        <time>2019-09-28T09:01:26Z</time>
      </trkpt>
      <trkpt lat="45.60065" lon="2.8396">
        <ele>1273.1393420618</ele>
        <time>2019-09-28T09:01:35Z</time>
      </trkpt>
      <trkpt lat="45.60059" lon="2.83968">
        <ele>1273.5919355887</ele>
        <time>2019-09-28T09:01:45Z</time>
      </trkpt>
      <trkpt lat="45.60072" lon="2.83984">
        <ele>1273.7125642386</ele>
        <time>2019-09-28T09:01:55Z</time>
      </trkpt>
      <trkpt lat="45.60076" lon="2.84003">
        <ele>1273.607926153</ele>
        <time>2019-09-28T09:02:04Z</time>
      </trkpt>
      <trkpt lat="45.60076" lon="2.8401">
        <ele>1272.5276472046</ele>
        <time>2019-09-28T09:02:14Z</time>
      </trkpt>
      <trkpt lat="45.60074" lon="2.84016">
        <ele>1271.3170943576</ele>
        <time>2019-09-28T09:02:24Z</time>
      </trkpt>
      <trkpt lat="45.60076" lon="2.84029">
        <ele>1270.8296001569</ele>
        <time>2019-09-28T09:02:33Z</time>
      </trkpt>
      <trkpt lat="45.60074" lon="2.84051">
        <ele>1272.675034259</ele>
        <time>2019-09-28T09:02:42Z</time>
      </trkpt>
      <trkpt lat="45.60074" lon="2.84065">
        <ele>1275.363698212</ele>
        <time>2019-09-28T09:02:52Z</time>
      </trkpt>
      <trkpt lat="45.60077" lon="2.84078">
        <ele>1278.1533104355</ele>
        <time>2019-09-28T09:03:01Z</time>
      </trkpt>
      <trkpt lat="45.60076" lon="2.84089">
        <ele>1280.7210162889</ele>
        <time>2019-09-28T09:03:10Z</time>
      </trkpt>
      <trkpt lat="45.60081" lon="2.84109">
        <ele>1283.148882904</ele>
        <time>2019-09-28T09:03:20Z</time>
      </trkpt>
      <trkpt lat="45.60082" lon="2.84121">
        <ele>1285.240902366</ele>
        <time>2019-09-28T09:03:29Z</time>
      </trkpt>
      <trkpt lat="45.60081" lon="2.84127">
        <ele>1287.3016390213</ele>
        <time>2019-09-28T09:03:39Z</time>
      </trkpt>
      <trkpt lat="45.60081" lon="2.84135">
        <ele>1289.0105987489</ele>
        <time>2019-09-28T09:03:49Z</time>
      </trkpt>
      <trkpt lat="45.6008" lon="2.84147">
        <ele>1290.2733847392</ele>
        <time>2019-09-28T09:03:58Z</time>
      </trkpt>
      <trkpt lat="45.60083" lon="2.84159">
        <ele>1291.6982995337</ele>
        <time>2019-09-28T09:04:07Z</time>
      </trkpt>
      <trkpt lat="45.60081" lon="2.84177">
        <ele>1293.0524829014</ele>
        <time>2019-09-28T09:04:17Z</time>
      </trkpt>
      <trkpt lat="45.60079" lon="2.8419">
        <ele>1294.2166048989</ele>
        <time>2019-09-28T09:04:27Z</time>
      </trkpt>
      <trkpt lat="45.60076" lon="2.84199">
        <ele>1295.1938482287</ele>
        <time>2019-09-28T09:04:36Z</time>
      </trkpt>
      <trkpt lat="45.60071" lon="2.84207">
        <ele>1296.2303307027</ele>
        <time>2019-09-28T09:04:45Z</time>
      </trkpt>
      <trkpt lat="45.60072" lon="2.84224">
        <ele>1297.2567913577</ele>
        <time>2019-09-28T09:04:54Z</time>
      </trkpt>
      <trkpt lat="45.60069" lon="2.84233">
        <ele>1298.1691585245</ele>
        <time>2019-09-28T09:05:04Z</time>
      </trkpt>
      <trkpt lat="45.60065" lon="2.84242">
        <ele>1298.9007131387</ele>
        <time>2019-09-28T09:05:13Z</time>
      </trkpt>
      <trkpt lat="45.60057" lon="2.84251">
        <ele>1299.7078736419</ele>
        <time>2019-09-28T09:05:23Z</time>
      </trkpt>
      <trkpt lat="45.6005" lon="2.84252">
        <ele>1300.4486287749</ele>
        <time>2019-09-28T09:05:32Z</time>
      </trkpt>
      <trkpt lat="45.60043" lon="2.84258">
        <ele>1301.6142603473</ele>
        <time>2019-09-28T09:05:42Z</time>
      </trkpt>
      <trkpt lat="45.60041" lon="2.84261">
        <ele>1302.7339488703</ele>
        <time>2019-09-28T09:05:51Z</time>
      </trkpt>
      <trkpt lat="45.60039" lon="2.84263">
        <ele>1304.094558166</ele>
        <time>2019-09-28T09:06:00Z</time>
      </trkpt>
      <trkpt lat="45.60044" lon="2.8427">
        <ele>1305.4369337699</ele>
        <time>2019-09-28T09:06:09Z</time>
      </trkpt>
      <trkpt lat="45.60043" lon="2.84275">
        <ele>1305.8244714033</ele>
        <time>2019-09-28T09:06:18Z</time>
      </trkpt>
      <trkpt lat="45.60042" lon="2.84277">
        <ele>1306.576402419</ele>
        <time>2019-09-28T09:06:28Z</time>
      </trkpt>
      <trkpt lat="45.60045" lon="2.84283">
        <ele>1307.9330737253</ele>
        <time>2019-09-28T09:06:37Z</time>
      </trkpt>
      <trkpt lat="45.60046" lon="2.84292">
        <ele>1310.5062971435</ele>
        <time>2019-09-28T09:06:46Z</time>
      </trkpt>
      <trkpt lat="45.60052" lon="2.843">
        <ele>1312.8984711566</ele>
        <time>2019-09-28T09:06:55Z</time>
      </trkpt>
      <trkpt lat="45.60056" lon="2.84314">
        <ele>1315.4391447623</ele>
        <time>2019-09-28T09:07:05Z</time>
      </trkpt>
      <trkpt lat="45.60057" lon="2.84323">
        <ele>1317.5296480959</ele>
        <time>2019-09-28T09:07:14Z</time>
      </trkpt>
      <trkpt lat="45.60059" lon="2.84333">
        <ele>1319.6526085623</ele>
        <time>2019-09-28T09:07:24Z</time>
      </trkpt>
      <trkpt lat="45.60058" lon="2.84346">
        <ele>1321.4534273723</ele>
        <time>2019-09-28T09:07:33Z</time>
      </trkpt>
      <trkpt lat="45.60057" lon="2.84363">
        <ele>1323.2952923311</ele>
        <time>2019-09-28T09:07:43Z</time>
      </trkpt>
      <trkpt lat="45.60053" lon="2.84374">
        <ele>1324.8187210917</ele>
        <time>2019-09-28T09:07:52Z</time>
      </trkpt>
      <trkpt lat="45.60046" lon="2.84385">
        <ele>1326.3562788216</ele>
        <time>2019-09-28T09:08:01Z</time>
      </trkpt>
      <trkpt lat="45.60038" lon="2.84393">
        <ele>1327.8780080383</ele>
        <time>2019-09-28T09:08:10Z</time>
      </trkpt>
      <trkpt lat="45.60033" lon="2.84403">
        <ele>1329.3736794803</ele>
        <time>2019-09-28T09:08:20Z</time>
      </trkpt>
      <trkpt lat="45.60029" lon="2.84413">
        <ele>1330.5240428966</ele>
        <time>2019-09-28T09:08:29Z</time>
      </trkpt>
      <trkpt lat="45.60028" lon="2.8442">
        <ele>1331.6732872393</ele>
        <time>2019-09-28T09:08:39Z</time>
      </trkpt>
      <trkpt lat="45.60026" lon="2.84427">
        <ele>1332.6990035693</ele>
        <time>2019-09-28T09:08:48Z</time>
      </trkpt>
      <trkpt lat="45.60022" lon="2.84435">
        <ele>1333.6592508542</ele>
        <time>2019-09-28T09:08:57Z</time>
      </trkpt>
      <trkpt lat="45.60013" lon="2.84446">
        <ele>1334.6341966923</ele>
        <time>2019-09-28T09:09:07Z</time>
      </trkpt>
      <trkpt lat="45.6001" lon="2.84454">
        <ele>1335.4281584495</ele>
        <time>2019-09-28T09:09:16Z</time>
      </trkpt>
      <trkpt lat="45.60005" lon="2.84466">
        <ele>1336.1950150565</ele>
        <time>2019-09-28T09:09:25Z</time>
      </trkpt>
      <trkpt lat="45.60001" lon="2.84486">
        <ele>1336.9884602142</ele>
        <time>2019-09-28T09:09:34Z</time>
      </trkpt>
      <trkpt lat="45.59998" lon="2.84492">
        <ele>1337.9631683958</ele>
        <time>2019-09-28T09:09:44Z</time>
      </trkpt>
      <trkpt lat="45.5999" lon="2.845">
        <ele>1338.7959162027</ele>
        <time>2019-09-28T09:09:53Z</time>
      </trkpt>
      <trkpt lat="45.59981" lon="2.84513">
        <ele>1339.5700950521</ele>
        <time>2019-09-28T09:10:02Z</time>
      </trkpt>
      <trkpt lat="45.59974" lon="2.84524">
        <ele>1340.2772044118</ele>
        <time>2019-09-28T09:10:11Z</time>
      </trkpt>
      <trkpt lat="45.59971" lon="2.84526">
        <ele>1340.9431105337</ele>
        <time>2019-09-28T09:10:20Z</time>
      </trkpt>
      <trkpt lat="45.59965" lon="2.84531">
        <ele>1341.7106988501</ele>
        <time>2019-09-28T09:10:30Z</time>
      </trkpt>
      <trkpt lat="45.59955" lon="2.84535">
        <ele>1342.468536224</ele>
        <time>2019-09-28T09:10:40Z</time>
      </trkpt>
      <trkpt lat="45.59955" lon="2.84536">
        <ele>1342.9537868251</ele>
        <time>2019-09-28T09:10:55Z</time>
      </trkpt>
      <trkpt lat="45.59955" lon="2.84535">
        <ele>1343.4969611936</ele>
        <time>2019-09-28T09:11:11Z</time>
      </trkpt>
      <trkpt lat="45.59952" lon="2.84529">
        <ele>1344.039199632</ele>
        <time>2019-09-28T09:11:20Z</time>
      </trkpt>
      <trkpt lat="45.59953" lon="2.8453">
        <ele>1344.5638410494</ele>
        <time>2019-09-28T09:11:53Z</time>
      </trkpt>
      <trkpt lat="45.59953" lon="2.8453">
        <ele>1344.8226079392</ele>
        <time>2019-09-28T09:12:07Z</time>
      </trkpt>
      <trkpt lat="45.59954" lon="2.8453">
        <ele>1345.1870400931</ele>
        <time>2019-09-28T09:12:28Z</time>
      </trkpt>
      <trkpt lat="45.59953" lon="2.84522">
        <ele>1346.426733943</ele>
        <time>2019-09-28T09:12:38Z</time>
      </trkpt>
      <trkpt lat="45.5995" lon="2.84513">
        <ele>1347.3989363177</ele>
        <time>2019-09-28T09:12:47Z</time>
      </trkpt>
      <trkpt lat="45.59947" lon="2.84516">
        <ele>1348.246791163</ele>
        <time>2019-09-28T09:12:56Z</time>
      </trkpt>
      <trkpt lat="45.59942" lon="2.84524">
        <ele>1349.0175456901</ele>
        <time>2019-09-28T09:13:05Z</time>
      </trkpt>
      <trkpt lat="45.59936" lon="2.84541">
        <ele>1349.7497025938</ele>
        <time>2019-09-28T09:13:14Z</time>
      </trkpt>
      <trkpt lat="45.59932" lon="2.84551">
        <ele>1350.500684501</ele>
        <time>2019-09-28T09:13:24Z</time>
      </trkpt>
      <trkpt lat="45.59927" lon="2.84562">
        <ele>1351.1615768999</ele>
        <time>2019-09-28T09:13:33Z</time>
      </trkpt>
      <trkpt lat="45.59923" lon="2.84576">
        <ele>1351.8569112052</ele>
        <time>2019-09-28T09:13:43Z</time>
      </trkpt>
      <trkpt lat="45.59918" lon="2.84588">
        <ele>1352.4848034376</ele>
        <time>2019-09-28T09:13:52Z</time>
      </trkpt>
      <trkpt lat="45.59913" lon="2.84598">
        <ele>1353.1021533711</ele>
        <time>2019-09-28T09:14:01Z</time>
      </trkpt>
      <trkpt lat="45.59908" lon="2.84606">
        <ele>1353.699419323</ele>
        <time>2019-09-28T09:14:10Z</time>
      </trkpt>
      <trkpt lat="45.59903" lon="2.84618">
        <ele>1354.2739203949</ele>
        <time>2019-09-28T09:14:19Z</time>
      </trkpt>
      <trkpt lat="45.59896" lon="2.84635">
        <ele>1354.898579033</ele>
        <time>2019-09-28T09:14:29Z</time>
      </trkpt>
      <trkpt lat="45.59892" lon="2.84645">
        <ele>1355.5246145585</ele>
        <time>2019-09-28T09:14:39Z</time>
      </trkpt>
      <trkpt lat="45.59889" lon="2.84659">
        <ele>1356.0821833172</ele>
        <time>2019-09-28T09:14:48Z</time>
      </trkpt>
      <trkpt lat="45.59883" lon="2.84674">
        <ele>1356.6517554746</ele>
        <time>2019-09-28T09:14:57Z</time>
      </trkpt>
      <trkpt lat="45.59877" lon="2.84688">
        <ele>1357.2956198052</ele>
        <time>2019-09-28T09:15:07Z</time>
      </trkpt>
      <trkpt lat="45.59865" lon="2.84705">
        <ele>1358.0425254883</ele>
        <time>2019-09-28T09:15:17Z</time>
      </trkpt>
      <trkpt lat="45.59857" lon="2.84716">
        <ele>1358.8405166711</ele>
        <time>2019-09-28T09:15:27Z</time>
      </trkpt>
      <trkpt lat="45.59852" lon="2.84724">
        <ele>1359.5165049142</ele>
        <time>2019-09-28T09:15:36Z</time>
      </trkpt>
      <trkpt lat="45.5985" lon="2.84733">
        <ele>1360.1080959628</ele>
        <time>2019-09-28T09:15:45Z</time>
      </trkpt>
      <trkpt lat="45.59846" lon="2.84741">
        <ele>1360.6829200844</ele>
        <time>2019-09-28T09:15:55Z</time>
      </trkpt>
      <trkpt lat="45.59843" lon="2.84753">
        <ele>1361.1382468329</ele>
        <time>2019-09-28T09:16:04Z</time>
      </trkpt>
      <trkpt lat="45.59839" lon="2.84765">
        <ele>1361.5550149681</ele>
        <time>2019-09-28T09:16:13Z</time>
      </trkpt>
      <trkpt lat="45.59833" lon="2.84782">
        <ele>1361.9788055557</ele>
        <time>2019-09-28T09:16:23Z</time>
      </trkpt>
      <trkpt lat="45.59828" lon="2.84793">
        <ele>1362.37372094</ele>
        <time>2019-09-28T09:16:33Z</time>
      </trkpt>
      <trkpt lat="45.59824" lon="2.84807">
        <ele>1362.784048377</ele>
        <time>2019-09-28T09:16:43Z</time>
      </trkpt>
      <trkpt lat="45.59819" lon="2.84821">
        <ele>1363.156928832</ele>
        <time>2019-09-28T09:16:52Z</time>
      </trkpt>
      <trkpt lat="45.59813" lon="2.84834">
        <ele>1363.5238092147</ele>
        <time>2019-09-28T09:17:01Z</time>
      </trkpt>
      <trkpt lat="45.5981" lon="2.84858">
        <ele>1363.984688966</ele>
        <time>2019-09-28T09:17:11Z</time>
      </trkpt>
      <trkpt lat="45.59806" lon="2.84876">
        <ele>1364.4589595793</ele>
        <time>2019-09-28T09:17:20Z</time>
      </trkpt>
      <trkpt lat="45.59799" lon="2.84894">
        <ele>1364.9997763231</ele>
        <time>2019-09-28T09:17:30Z</time>
      </trkpt>
      <trkpt lat="45.59794" lon="2.8491">
        <ele>1365.5303127796</ele>
        <time>2019-09-28T09:17:40Z</time>
      </trkpt>
      <trkpt lat="45.59789" lon="2.84921">
        <ele>1366.0081570993</ele>
        <time>2019-09-28T09:17:49Z</time>
      </trkpt>
      <trkpt lat="45.59783" lon="2.84935">
        <ele>1366.490541663</ele>
        <time>2019-09-28T09:17:58Z</time>
      </trkpt>
      <trkpt lat="45.59774" lon="2.84956">
        <ele>1367.0531865125</ele>
        <time>2019-09-28T09:18:07Z</time>
      </trkpt>
      <trkpt lat="45.59767" lon="2.84969">
        <ele>1367.7196255867</ele>
        <time>2019-09-28T09:18:17Z</time>
      </trkpt>
      <trkpt lat="45.59762" lon="2.84976">
        <ele>1368.4049491309</ele>
        <time>2019-09-28T09:18:26Z</time>
      </trkpt>
      <trkpt lat="45.59756" lon="2.84991">
        <ele>1369.296919404</ele>
        <time>2019-09-28T09:18:36Z</time>
      </trkpt>
      <trkpt lat="45.59752" lon="2.85004">
        <ele>1370.2625630532</ele>
        <time>2019-09-28T09:18:46Z</time>
      </trkpt>
      <trkpt lat="45.59745" lon="2.85021">
        <ele>1371.2220002172</ele>
        <time>2019-09-28T09:18:55Z</time>
      </trkpt>
      <trkpt lat="45.59742" lon="2.85035">
        <ele>1372.2905081475</ele>
        <time>2019-09-28T09:19:05Z</time>
      </trkpt>
      <trkpt lat="45.59738" lon="2.85041">
        <ele>1373.305661817</ele>
        <time>2019-09-28T09:19:14Z</time>
      </trkpt>
      <trkpt lat="45.59731" lon="2.85054">
        <ele>1374.5996747875</ele>
        <time>2019-09-28T09:19:24Z</time>
      </trkpt>
      <trkpt lat="45.59725" lon="2.85063">
        <ele>1375.8502284312</ele>
        <time>2019-09-28T09:19:33Z</time>
      </trkpt>
      <trkpt lat="45.59719" lon="2.85064">
        <ele>1377.0950738957</ele>
        <time>2019-09-28T09:19:42Z</time>
      </trkpt>
      <trkpt lat="45.59713" lon="2.85063">
        <ele>1378.2487543709</ele>
        <time>2019-09-28T09:19:51Z</time>
      </trkpt>
      <trkpt lat="45.5971" lon="2.8507">
        <ele>1379.2895162222</ele>
        <time>2019-09-28T09:20:00Z</time>
      </trkpt>
      <trkpt lat="45.59706" lon="2.85066">
        <ele>1379.4970441354</ele>
        <time>2019-09-28T09:20:10Z</time>
      </trkpt>
      <trkpt lat="45.59706" lon="2.85067">
        <ele>1379.5969821922</ele>
        <time>2019-09-28T09:20:19Z</time>
      </trkpt>
      <trkpt lat="45.59706" lon="2.85069">
        <ele>1379.6968045925</ele>
        <time>2019-09-28T09:20:28Z</time>
      </trkpt>
      <trkpt lat="45.59705" lon="2.8507">
        <ele>1379.8187606349</ele>
        <time>2019-09-28T09:20:39Z</time>
      </trkpt>
      <trkpt lat="45.59704" lon="2.85075">
        <ele>1380.0277226604</ele>
        <time>2019-09-28T09:20:49Z</time>
      </trkpt>
      <trkpt lat="45.59704" lon="2.85077">
        <ele>1380.1239205598</ele>
        <time>2019-09-28T09:20:58Z</time>
      </trkpt>
      <trkpt lat="45.59704" lon="2.85078">
        <ele>1380.2300504374</ele>
        <time>2019-09-28T09:21:08Z</time>
      </trkpt>
      <trkpt lat="45.59704" lon="2.85081">
        <ele>1380.3297047448</ele>
        <time>2019-09-28T09:21:17Z</time>
      </trkpt>
      <trkpt lat="45.59703" lon="2.85089">
        <ele>1380.4414798193</ele>
        <time>2019-09-28T09:21:27Z</time>
      </trkpt>
      <trkpt lat="45.59703" lon="2.8509">
        <ele>1380.5518050408</ele>
        <time>2019-09-28T09:21:37Z</time>
      </trkpt>
      <trkpt lat="45.59703" lon="2.85091">
        <ele>1380.6602896313</ele>
        <time>2019-09-28T09:21:47Z</time>
      </trkpt>
      <trkpt lat="45.59705" lon="2.85095">
        <ele>1380.8531760366</ele>
        <time>2019-09-28T09:21:56Z</time>
      </trkpt>
      <trkpt lat="45.59703" lon="2.85104">
        <ele>1381.6124766631</ele>
        <time>2019-09-28T09:22:06Z</time>
      </trkpt>
      <trkpt lat="45.59701" lon="2.85111">
        <ele>1382.3552992541</ele>
        <time>2019-09-28T09:22:15Z</time>
      </trkpt>
      <trkpt lat="45.59698" lon="2.8512">
        <ele>1383.0774534427</ele>
        <time>2019-09-28T09:22:24Z</time>
      </trkpt>
      <trkpt lat="45.59695" lon="2.85127">
        <ele>1383.7176462489</ele>
        <time>2019-09-28T09:22:34Z</time>
      </trkpt>
      <trkpt lat="45.59694" lon="2.85129">
        <ele>1384.1246410917</ele>
        <time>2019-09-28T09:22:43Z</time>
      </trkpt>
      <trkpt lat="45.59691" lon="2.85137">
        <ele>1384.6549853971</ele>
        <time>2019-09-28T09:22:53Z</time>
      </trkpt>
      <trkpt lat="45.59692" lon="2.85138">
        <ele>1384.8244721602</ele>
        <time>2019-09-28T09:23:07Z</time>
      </trkpt>
      <trkpt lat="45.59692" lon="2.85142">
        <ele>1385.0519461492</ele>
        <time>2019-09-28T09:23:16Z</time>
      </trkpt>
      <trkpt lat="45.59691" lon="2.85144">
        <ele>1385.2269579526</ele>
        <time>2019-09-28T09:23:25Z</time>
      </trkpt>
      <trkpt lat="45.5969" lon="2.85145">
        <ele>1385.5822504829</ele>
        <time>2019-09-28T09:23:48Z</time>
      </trkpt>
      <trkpt lat="45.59689" lon="2.85146">
        <ele>1385.7350143258</ele>
        <time>2019-09-28T09:23:57Z</time>
      </trkpt>
      <trkpt lat="45.59689" lon="2.85147">
        <ele>1385.9292727688</ele>
        <time>2019-09-28T09:24:06Z</time>
      </trkpt>
      <trkpt lat="45.59689" lon="2.85144">
        <ele>1386.2160108926</ele>
        <time>2019-09-28T09:24:15Z</time>
      </trkpt>
      <trkpt lat="45.5969" lon="2.85124">
        <ele>1386.5594012807</ele>
        <time>2019-09-28T09:24:25Z</time>
      </trkpt>
      <trkpt lat="45.59682" lon="2.85109">
        <ele>1386.8461088174</ele>
        <time>2019-09-28T09:24:35Z</time>
      </trkpt>
      <trkpt lat="45.5968" lon="2.85094">
        <ele>1387.0714651002</ele>
        <time>2019-09-28T09:24:44Z</time>
      </trkpt>
      <trkpt lat="45.59677" lon="2.8508">
        <ele>1387.2731018278</ele>
        <time>2019-09-28T09:24:53Z</time>
      </trkpt>
      <trkpt lat="45.59677" lon="2.85067">
        <ele>1387.4716445637</ele>
        <time>2019-09-28T09:25:02Z</time>
      </trkpt>
      <trkpt lat="45.59676" lon="2.85045">
        <ele>1387.6897613563</ele>
        <time>2019-09-28T09:25:12Z</time>
      </trkpt>
      <trkpt lat="45.59678" lon="2.85031">
        <ele>1387.8883582173</ele>
        <time>2019-09-28T09:25:21Z</time>
      </trkpt>
      <trkpt lat="45.59681" lon="2.85022">
        <ele>1388.0576480243</ele>
        <time>2019-09-28T09:25:30Z</time>
      </trkpt>
      <trkpt lat="45.5968" lon="2.85023">
        <ele>1388.1747493725</ele>
        <time>2019-09-28T09:25:39Z</time>
      </trkpt>
      <trkpt lat="45.59676" lon="2.85025">
        <ele>1388.4179038427</ele>
        <time>2019-09-28T09:25:49Z</time>
      </trkpt>
      <trkpt lat="45.59676" lon="2.85022">
        <ele>1388.5177401729</ele>
        <time>2019-09-28T09:25:58Z</time>
      </trkpt>
      <trkpt lat="45.59676" lon="2.85021">
        <ele>1388.6315758564</ele>
        <time>2019-09-28T09:26:14Z</time>
      </trkpt>
      <trkpt lat="45.59677" lon="2.8502">
        <ele>1388.7171595297</ele>
        <time>2019-09-28T09:26:26Z</time>
      </trkpt>
      <trkpt lat="45.59677" lon="2.85019">
        <ele>1388.8760235776</ele>
        <time>2019-09-28T09:26:38Z</time>
      </trkpt>
      <trkpt lat="45.59678" lon="2.85019">
        <ele>1389.083675751</ele>
        <time>2019-09-28T09:26:47Z</time>
      </trkpt>
      <trkpt lat="45.59679" lon="2.85019">
        <ele>1389.2142698329</ele>
        <time>2019-09-28T09:26:57Z</time>
      </trkpt>
      <trkpt lat="45.59679" lon="2.85018">
        <ele>1389.3507637169</ele>
        <time>2019-09-28T09:27:07Z</time>
      </trkpt>
      <trkpt lat="45.5968" lon="2.85015">
        <ele>1389.5459191973</ele>
        <time>2019-09-28T09:27:17Z</time>
      </trkpt>
      <trkpt lat="45.5968" lon="2.85016">
        <ele>1389.8353677945</ele>
        <time>2019-09-28T09:27:50Z</time>
      </trkpt>
      <trkpt lat="45.5968" lon="2.85014">
        <ele>1390.0821689268</ele>
        <time>2019-09-28T09:28:26Z</time>
      </trkpt>
      <trkpt lat="45.5968" lon="2.85011">
        <ele>1390.3171132901</ele>
        <time>2019-09-28T09:28:36Z</time>
      </trkpt>
      <trkpt lat="45.5968" lon="2.85012">
        <ele>1390.4609757481</ele>
        <time>2019-09-28T09:28:49Z</time>
      </trkpt>
      <trkpt lat="45.59681" lon="2.85013">
        <ele>1390.4988707067</ele>
        <time>2019-09-28T09:28:59Z</time>
      </trkpt>
      <trkpt lat="45.59681" lon="2.85017">
        <ele>1390.6135485146</ele>
        <time>2019-09-28T09:29:09Z</time>
      </trkpt>
      <trkpt lat="45.59681" lon="2.85016">
        <ele>1391.04356526</ele>
        <time>2019-09-28T09:30:01Z</time>
      </trkpt>
      <trkpt lat="45.59681" lon="2.85016">
        <ele>1391.2149176584</ele>
        <time>2019-09-28T09:30:29Z</time>
      </trkpt>
      <trkpt lat="45.5968" lon="2.85019">
        <ele>1391.5032280389</ele>
        <time>2019-09-28T09:30:39Z</time>
      </trkpt>
      <trkpt lat="45.5968" lon="2.85018">
        <ele>1391.6061061518</ele>
        <time>2019-09-28T09:30:51Z</time>
      </trkpt>
      <trkpt lat="45.59684" lon="2.85017">
        <ele>1391.8805143617</ele>
        <time>2019-09-28T09:31:00Z</time>
      </trkpt>
      <trkpt lat="45.59685" lon="2.85018">
        <ele>1392.1602067101</ele>
        <time>2019-09-28T09:31:14Z</time>
      </trkpt>
      <trkpt lat="45.59683" lon="2.85017">
        <ele>1392.3985916079</ele>
        <time>2019-09-28T09:31:23Z</time>
      </trkpt>
      <trkpt lat="45.59683" lon="2.85016">
        <ele>1392.8195391538</ele>
        <time>2019-09-28T09:31:35Z</time>
      </trkpt>
      <trkpt lat="45.59682" lon="2.85014">
        <ele>1393.5748946187</ele>
        <time>2019-09-28T09:31:44Z</time>
      </trkpt>
      <trkpt lat="45.59682" lon="2.85013">
        <ele>1393.9540443276</ele>
        <time>2019-09-28T09:31:53Z</time>
      </trkpt>
      <trkpt lat="45.59683" lon="2.85013">
        <ele>1394.0822294398</ele>
        <time>2019-09-28T09:32:02Z</time>
      </trkpt>
      <trkpt lat="45.59683" lon="2.85012">
        <ele>1394.8374153733</ele>
        <time>2019-09-28T09:32:19Z</time>
      </trkpt>
      <trkpt lat="45.59683" lon="2.85011">
        <ele>1394.9907154277</ele>
        <time>2019-09-28T09:32:30Z</time>
      </trkpt>
      <trkpt lat="45.59684" lon="2.85012">
        <ele>1395.250204428</ele>
        <time>2019-09-28T09:32:48Z</time>
      </trkpt>
      <trkpt lat="45.59683" lon="2.85013">
        <ele>1395.8859937148</ele>
        <time>2019-09-28T09:32:57Z</time>
      </trkpt>
      <trkpt lat="45.59681" lon="2.85014">
        <ele>1396.2547420955</ele>
        <time>2019-09-28T09:33:06Z</time>
      </trkpt>
      <trkpt lat="45.59679" lon="2.85015">
        <ele>1396.5078667237</ele>
        <time>2019-09-28T09:33:16Z</time>
      </trkpt>
      <trkpt lat="45.59678" lon="2.85014">
        <ele>1396.6413188384</ele>
        <time>2019-09-28T09:33:26Z</time>
      </trkpt>
      <trkpt lat="45.59679" lon="2.85014">
        <ele>1397.2504262079</ele>
        <time>2019-09-28T09:33:35Z</time>
      </trkpt>
      <trkpt lat="45.5968" lon="2.85012">
        <ele>1397.8164508613</ele>
        <time>2019-09-28T09:33:44Z</time>
      </trkpt>
      <trkpt lat="45.59681" lon="2.85013">
        <ele>1398.0068812645</ele>
        <time>2019-09-28T09:33:59Z</time>
      </trkpt>
      <trkpt lat="45.59683" lon="2.85012">
        <ele>1398.605283841</ele>
        <time>2019-09-28T09:34:09Z</time>
      </trkpt>
      <trkpt lat="45.59678" lon="2.85018">
        <ele>1399.5398056483</ele>
        <time>2019-09-28T09:34:18Z</time>
      </trkpt>
      <trkpt lat="45.59676" lon="2.85022">
        <ele>1399.7256021152</ele>
        <time>2019-09-28T09:34:27Z</time>
      </trkpt>
      <trkpt lat="45.59676" lon="2.85029">
        <ele>1400.3349324027</ele>
        <time>2019-09-28T09:34:37Z</time>
      </trkpt>
      <trkpt lat="45.59677" lon="2.85024">
        <ele>1401.1448054608</ele>
        <time>2019-09-28T09:34:47Z</time>
      </trkpt>
      <trkpt lat="45.59679" lon="2.85023">
        <ele>1401.459637074</ele>
        <time>2019-09-28T09:34:56Z</time>
      </trkpt>
      <trkpt lat="45.59677" lon="2.85025">
        <ele>1401.639364648</ele>
        <time>2019-09-28T09:35:05Z</time>
      </trkpt>
      <trkpt lat="45.59677" lon="2.85026">
        <ele>1402.0310937458</ele>
        <time>2019-09-28T09:35:15Z</time>
      </trkpt>
      <trkpt lat="45.59676" lon="2.85026">
        <ele>1402.2315247487</ele>
        <time>2019-09-28T09:35:24Z</time>
      </trkpt>
      <trkpt lat="45.59676" lon="2.85025">
        <ele>1402.4635526965</ele>
        <time>2019-09-28T09:35:51Z</time>
      </trkpt>
      <trkpt lat="45.59676" lon="2.85023">
        <ele>1402.5979905678</ele>
        <time>2019-09-28T09:36:01Z</time>
      </trkpt>
      <trkpt lat="45.59678" lon="2.85016">
        <ele>1402.7322672532</ele>
        <time>2019-09-28T09:36:11Z</time>
      </trkpt>
      <trkpt lat="45.5968" lon="2.85012">
        <ele>1402.9408744393</ele>
        <time>2019-09-28T09:36:21Z</time>
      </trkpt>
      <trkpt lat="45.59681" lon="2.85009">
        <ele>1403.2135834146</ele>
        <time>2019-09-28T09:36:30Z</time>
      </trkpt>
      <trkpt lat="45.59679" lon="2.85011">
        <ele>1403.3201441395</ele>
        <time>2019-09-28T09:36:39Z</time>
      </trkpt>
      <trkpt lat="45.59678" lon="2.85016">
        <ele>1403.5742803159</ele>
        <time>2019-09-28T09:36:48Z</time>
      </trkpt>
      <trkpt lat="45.59678" lon="2.85015">
        <ele>1403.8840989755</ele>
        <time>2019-09-28T09:37:03Z</time>
      </trkpt>
      <trkpt lat="45.59679" lon="2.85011">
        <ele>1404.0771461432</ele>
        <time>2019-09-28T09:37:12Z</time>
      </trkpt>
      <trkpt lat="45.5968" lon="2.85011">
        <ele>1404.128663507</ele>
        <time>2019-09-28T09:37:21Z</time>
      </trkpt>
      <trkpt lat="45.59679" lon="2.85008">
        <ele>1404.5141158011</ele>
        <time>2019-09-28T09:37:31Z</time>
      </trkpt>
      <trkpt lat="45.59679" lon="2.85009">
        <ele>1404.7575689857</ele>
        <time>2019-09-28T09:38:00Z</time>
      </trkpt>
      <trkpt lat="45.59679" lon="2.85008">
        <ele>1404.858096034</ele>
        <time>2019-09-28T09:38:14Z</time>
      </trkpt>
      <trkpt lat="45.59678" lon="2.85009">
        <ele>1405.2048654839</ele>
        <time>2019-09-28T09:38:23Z</time>
      </trkpt>
      <trkpt lat="45.59678" lon="2.8501">
        <ele>1405.3618731097</ele>
        <time>2019-09-28T09:38:34Z</time>
      </trkpt>
      <trkpt lat="45.59678" lon="2.85013">
        <ele>1405.5745990272</ele>
        <time>2019-09-28T09:38:43Z</time>
      </trkpt>
      <trkpt lat="45.59678" lon="2.85015">
        <ele>1405.6497838254</ele>
        <time>2019-09-28T09:38:53Z</time>
      </trkpt>
      <trkpt lat="45.5968" lon="2.85014">
        <ele>1405.8493260794</ele>
        <time>2019-09-28T09:39:02Z</time>
      </trkpt>
      <trkpt lat="45.59679" lon="2.85018">
        <ele>1406.1090701496</ele>
        <time>2019-09-28T09:39:12Z</time>
      </trkpt>
      <trkpt lat="45.5968" lon="2.85017">
        <ele>1406.4011753534</ele>
        <time>2019-09-28T09:39:21Z</time>
      </trkpt>
      <trkpt lat="45.59681" lon="2.85014">
        <ele>1406.726809426</ele>
        <time>2019-09-28T09:39:30Z</time>
      </trkpt>
      <trkpt lat="45.59682" lon="2.85011">
        <ele>1406.930458421</ele>
        <time>2019-09-28T09:39:40Z</time>
      </trkpt>
      <trkpt lat="45.59682" lon="2.8501">
        <ele>1407.1214442718</ele>
        <time>2019-09-28T09:39:51Z</time>
      </trkpt>
      <trkpt lat="45.59679" lon="2.85009">
        <ele>1407.2956947176</ele>
        <time>2019-09-28T09:40:01Z</time>
      </trkpt>
      <trkpt lat="45.5968" lon="2.8501">
        <ele>1407.438654934</ele>
        <time>2019-09-28T09:40:21Z</time>
      </trkpt>
      <trkpt lat="45.59681" lon="2.8501">
        <ele>1407.5330601588</ele>
        <time>2019-09-28T09:40:31Z</time>
      </trkpt>
      <trkpt lat="45.59683" lon="2.85011">
        <ele>1407.6713099689</ele>
        <time>2019-09-28T09:40:41Z</time>
      </trkpt>
      <trkpt lat="45.59683" lon="2.85018">
        <ele>1407.889119051</ele>
        <time>2019-09-28T09:40:51Z</time>
      </trkpt>
      <trkpt lat="45.59681" lon="2.85015">
        <ele>1408.1322936107</ele>
        <time>2019-09-28T09:41:01Z</time>
      </trkpt>
      <trkpt lat="45.59681" lon="2.85013">
        <ele>1408.2467182955</ele>
        <time>2019-09-28T09:41:10Z</time>
      </trkpt>
      <trkpt lat="45.59681" lon="2.85021">
        <ele>1408.5437188682</ele>
        <time>2019-09-28T09:41:20Z</time>
      </trkpt>
      <trkpt lat="45.59678" lon="2.85019">
        <ele>1408.5757469485</ele>
        <time>2019-09-28T09:41:29Z</time>
      </trkpt>
      <trkpt lat="45.59677" lon="2.85019">
        <ele>1408.6097291715</ele>
        <time>2019-09-28T09:41:39Z</time>
      </trkpt>
      <trkpt lat="45.59677" lon="2.85018">
        <ele>1408.8219251501</ele>
        <time>2019-09-28T09:42:09Z</time>
      </trkpt>
      <trkpt lat="45.59678" lon="2.85018">
        <ele>1408.9854283107</ele>
        <time>2019-09-28T09:42:28Z</time>
      </trkpt>
      <trkpt lat="45.59677" lon="2.85016">
        <ele>1409.1704439088</ele>
        <time>2019-09-28T09:42:38Z</time>
      </trkpt>
      <trkpt lat="45.59678" lon="2.85016">
        <ele>1409.2379813845</ele>
        <time>2019-09-28T09:42:53Z</time>
      </trkpt>
      <trkpt lat="45.5968" lon="2.85015">
        <ele>1409.3096333318</ele>
        <time>2019-09-28T09:43:02Z</time>
      </trkpt>
      <trkpt lat="45.59679" lon="2.85014">
        <ele>1409.3963367227</ele>
        <time>2019-09-28T09:43:19Z</time>
      </trkpt>
      <trkpt lat="45.5968" lon="2.85015">
        <ele>1409.4579635513</ele>
        <time>2019-09-28T09:43:34Z</time>
      </trkpt>
      <trkpt lat="45.59683" lon="2.85018">
        <ele>1409.6149129419</ele>
        <time>2019-09-28T09:43:44Z</time>
      </trkpt>
      <trkpt lat="45.59684" lon="2.85019">
        <ele>1409.7776183511</ele>
        <time>2019-09-28T09:43:55Z</time>
      </trkpt>
      <trkpt lat="45.59681" lon="2.8502">
        <ele>1409.9133949894</ele>
        <time>2019-09-28T09:44:05Z</time>
      </trkpt>
      <trkpt lat="45.59681" lon="2.85019">
        <ele>1410.0282237037</ele>
        <time>2019-09-28T09:44:15Z</time>
      </trkpt>
      <trkpt lat="45.5968" lon="2.85027">
        <ele>1410.1466028372</ele>
        <time>2019-09-28T09:44:25Z</time>
      </trkpt>
      <trkpt lat="45.59685" lon="2.85021">
        <ele>1410.2698210787</ele>
        <time>2019-09-28T09:44:35Z</time>
      </trkpt>
      <trkpt lat="45.59685" lon="2.85021">
        <ele>1410.3005989811</ele>
        <time>2019-09-28T09:44:44Z</time>
      </trkpt>
      <trkpt lat="45.59682" lon="2.85015">
        <ele>1410.5443601464</ele>
        <time>2019-09-28T09:44:54Z</time>
      </trkpt>
      <trkpt lat="45.59683" lon="2.85012">
        <ele>1410.7212419308</ele>
        <time>2019-09-28T09:45:03Z</time>
      </trkpt>
      <trkpt lat="45.59682" lon="2.85014">
        <ele>1410.8996778754</ele>
        <time>2019-09-28T09:45:12Z</time>
      </trkpt>
      <trkpt lat="45.59682" lon="2.85015">
        <ele>1410.9313562946</ele>
        <time>2019-09-28T09:45:22Z</time>
      </trkpt>
      <trkpt lat="45.59682" lon="2.85017">
        <ele>1410.9452216213</ele>
        <time>2019-09-28T09:45:31Z</time>
      </trkpt>
      <trkpt lat="45.59681" lon="2.85016">
        <ele>1410.9932221262</ele>
        <time>2019-09-28T09:45:41Z</time>
      </trkpt>
      <trkpt lat="45.5968" lon="2.85015">
        <ele>1411.0373249937</ele>
        <time>2019-09-28T09:45:50Z</time>
      </trkpt>
      <trkpt lat="45.59679" lon="2.85014">
        <ele>1411.1938327814</ele>
        <time>2019-09-28T09:46:18Z</time>
      </trkpt>
      <trkpt lat="45.5968" lon="2.85013">
        <ele>1411.2108547161</ele>
        <time>2019-09-28T09:46:27Z</time>
      </trkpt>
      <trkpt lat="45.59679" lon="2.85004">
        <ele>1411.2850931849</ele>
        <time>2019-09-28T09:46:36Z</time>
      </trkpt>
      <trkpt lat="45.5967" lon="2.85018">
        <ele>1411.3226184218</ele>
        <time>2019-09-28T09:46:46Z</time>
      </trkpt>
      <trkpt lat="45.59669" lon="2.8502">
        <ele>1411.3259761587</ele>
        <time>2019-09-28T09:46:56Z</time>
      </trkpt>
      <trkpt lat="45.59669" lon="2.85021">
        <ele>1411.3317442127</ele>
        <time>2019-09-28T09:47:09Z</time>
      </trkpt>
      <trkpt lat="45.5967" lon="2.85021">
        <ele>1411.3495151038</ele>
        <time>2019-09-28T09:47:29Z</time>
      </trkpt>
      <trkpt lat="45.5967" lon="2.85022">
        <ele>1411.3514608223</ele>
        <time>2019-09-28T09:47:39Z</time>
      </trkpt>
      <trkpt lat="45.5967" lon="2.85023">
        <ele>1411.3637315168</ele>
        <time>2019-09-28T09:47:54Z</time>
      </trkpt>
      <trkpt lat="45.59676" lon="2.85026">
        <ele>1411.37549225</ele>
        <time>2019-09-28T09:48:03Z</time>
      </trkpt>
      <trkpt lat="45.59678" lon="2.85026">
        <ele>1411.3880455756</ele>
        <time>2019-09-28T09:48:12Z</time>
      </trkpt>
      <trkpt lat="45.59678" lon="2.85026">
        <ele>1411.3910657541</ele>
        <time>2019-09-28T09:48:24Z</time>
      </trkpt>
      <trkpt lat="45.59677" lon="2.85025">
        <ele>1411.4000204557</ele>
        <time>2019-09-28T09:48:34Z</time>
      </trkpt>
      <trkpt lat="45.59678" lon="2.85025">
        <ele>1411.4112359971</ele>
        <time>2019-09-28T09:48:53Z</time>
      </trkpt>
      <trkpt lat="45.59681" lon="2.85024">
        <ele>1411.4304923549</ele>
        <time>2019-09-28T09:49:03Z</time>
      </trkpt>
      <trkpt lat="45.59681" lon="2.85025">
        <ele>1411.4764710188</ele>
        <time>2019-09-28T09:49:13Z</time>
      </trkpt>
      <trkpt lat="45.5968" lon="2.85025">
        <ele>1411.4848394418</ele>
        <time>2019-09-28T09:49:22Z</time>
      </trkpt>
      <trkpt lat="45.59679" lon="2.85025">
        <ele>1411.5052395971</ele>
        <time>2019-09-28T09:49:33Z</time>
      </trkpt>
      <trkpt lat="45.59679" lon="2.85024">
        <ele>1411.5101437496</ele>
        <time>2019-09-28T09:49:43Z</time>
      </trkpt>
      <trkpt lat="45.59679" lon="2.85023">
        <ele>1411.5328048334</ele>
        <time>2019-09-28T09:50:00Z</time>
      </trkpt>
      <trkpt lat="45.59678" lon="2.85025">
        <ele>1411.5393661459</ele>
        <time>2019-09-28T09:50:09Z</time>
      </trkpt>
      <trkpt lat="45.59677" lon="2.85026">
        <ele>1411.5503825502</ele>
        <time>2019-09-28T09:50:18Z</time>
      </trkpt>
      <trkpt lat="45.59676" lon="2.85026">
        <ele>1411.5555203453</ele>
        <time>2019-09-28T09:50:39Z</time>
      </trkpt>
      <trkpt lat="45.59677" lon="2.85026">
        <ele>1411.5623667853</ele>
        <time>2019-09-28T09:50:50Z</time>
      </trkpt>
      <trkpt lat="45.59679" lon="2.85022">
        <ele>1411.5734631184</ele>
        <time>2019-09-28T09:51:00Z</time>
      </trkpt>
      <trkpt lat="45.59678" lon="2.85019">
        <ele>1411.5767405618</ele>
        <time>2019-09-28T09:51:10Z</time>
      </trkpt>
      <trkpt lat="45.59678" lon="2.85018">
        <ele>1411.5826713702</ele>
        <time>2019-09-28T09:51:29Z</time>
      </trkpt>
      <trkpt lat="45.59678" lon="2.8502">
        <ele>1411.5933411312</ele>
        <time>2019-09-28T09:51:38Z</time>
      </trkpt>
      <trkpt lat="45.59674" lon="2.8502">
        <ele>1411.599549955</ele>
        <time>2019-09-28T09:51:48Z</time>
      </trkpt>
      <trkpt lat="45.59674" lon="2.85021">
        <ele>1411.6005283673</ele>
        <time>2019-09-28T09:51:58Z</time>
      </trkpt>
      <trkpt lat="45.59674" lon="2.85021">
        <ele>1411.6127135008</ele>
        <time>2019-09-28T09:52:32Z</time>
      </trkpt>
      <trkpt lat="45.59677" lon="2.85021">
        <ele>1411.6232998432</ele>
        <time>2019-09-28T09:52:41Z</time>
      </trkpt>
      <trkpt lat="45.59677" lon="2.85016">
        <ele>1411.6356933734</ele>
        <time>2019-09-28T09:52:50Z</time>
      </trkpt>
      <trkpt lat="45.59676" lon="2.85015">
        <ele>1411.6401621659</ele>
        <time>2019-09-28T09:52:59Z</time>
      </trkpt>
      <trkpt lat="45.59675" lon="2.85013">
        <ele>1411.6475339956</ele>
        <time>2019-09-28T09:53:08Z</time>
      </trkpt>
      <trkpt lat="45.59676" lon="2.85012">
        <ele>1411.672740565</ele>
        <time>2019-09-28T09:53:17Z</time>
      </trkpt>
      <trkpt lat="45.59676" lon="2.85013">
        <ele>1411.7020271487</ele>
        <time>2019-09-28T09:53:27Z</time>
      </trkpt>
      <trkpt lat="45.59677" lon="2.85013">
        <ele>1411.7108437638</ele>
        <time>2019-09-28T09:53:46Z</time>
      </trkpt>
      <trkpt lat="45.59678" lon="2.85013">
        <ele>1411.7229078363</ele>
        <time>2019-09-28T09:53:56Z</time>
      </trkpt>
      <trkpt lat="45.59678" lon="2.85014">
        <ele>1411.7280417121</ele>
        <time>2019-09-28T09:54:17Z</time>
      </trkpt>
      <trkpt lat="45.59682" lon="2.85017">
        <ele>1411.7124495626</ele>
        <time>2019-09-28T09:54:27Z</time>
      </trkpt>
      <trkpt lat="45.59683" lon="2.85018">
        <ele>1411.6922862256</ele>
        <time>2019-09-28T09:54:41Z</time>
      </trkpt>
      <trkpt lat="45.59683" lon="2.85019">
        <ele>1411.6841757907</ele>
        <time>2019-09-28T09:54:53Z</time>
      </trkpt>
      <trkpt lat="45.59681" lon="2.85021">
        <ele>1411.6695965537</ele>
        <time>2019-09-28T09:55:02Z</time>
      </trkpt>
      <trkpt lat="45.59681" lon="2.85021">
        <ele>1411.6599041979</ele>
        <time>2019-09-28T09:55:18Z</time>
      </trkpt>
      <trkpt lat="45.5968" lon="2.85021">
        <ele>1411.6279827563</ele>
        <time>2019-09-28T09:55:28Z</time>
      </trkpt>
      <trkpt lat="45.59679" lon="2.85021">
        <ele>1411.6210436021</ele>
        <time>2019-09-28T09:55:42Z</time>
      </trkpt>
      <trkpt lat="45.59678" lon="2.85021">
        <ele>1411.6167227101</ele>
        <time>2019-09-28T09:55:51Z</time>
      </trkpt>
      <trkpt lat="45.59677" lon="2.85021">
        <ele>1411.6082055411</ele>
        <time>2019-09-28T09:56:01Z</time>
      </trkpt>
      <trkpt lat="45.59676" lon="2.85021">
        <ele>1411.5892002876</ele>
        <time>2019-09-28T09:56:10Z</time>
      </trkpt>
      <trkpt lat="45.59675" lon="2.8502">
        <ele>1411.5727864451</ele>
        <time>2019-09-28T09:56:21Z</time>
      </trkpt>
      <trkpt lat="45.59675" lon="2.85019">
        <ele>1411.5649375878</ele>
        <time>2019-09-28T09:56:34Z</time>
      </trkpt>
      <trkpt lat="45.59674" lon="2.85019">
        <ele>1411.5521675989</ele>
        <time>2019-09-28T09:56:44Z</time>
      </trkpt>
      <trkpt lat="45.59673" lon="2.85018">
        <ele>1411.5318690299</ele>
        <time>2019-09-28T09:56:53Z</time>
      </trkpt>
      <trkpt lat="45.59672" lon="2.85017">
        <ele>1411.5246367636</ele>
        <time>2019-09-28T09:57:03Z</time>
      </trkpt>
      <trkpt lat="45.59673" lon="2.85015">
        <ele>1411.4721138958</ele>
        <time>2019-09-28T09:57:13Z</time>
      </trkpt>
      <trkpt lat="45.59671" lon="2.85014">
        <ele>1411.4471619852</ele>
        <time>2019-09-28T09:57:22Z</time>
      </trkpt>
      <trkpt lat="45.59671" lon="2.85013">
        <ele>1411.4329334699</ele>
        <time>2019-09-28T09:57:31Z</time>
      </trkpt>
      <trkpt lat="45.59672" lon="2.85012">
        <ele>1411.4144840973</ele>
        <time>2019-09-28T09:57:41Z</time>
      </trkpt>
      <trkpt lat="45.59674" lon="2.85014">
        <ele>1411.3237510456</ele>
        <time>2019-09-28T09:57:50Z</time>
      </trkpt>
      <trkpt lat="45.59675" lon="2.85014">
        <ele>1411.3027503159</ele>
        <time>2019-09-28T09:58:00Z</time>
      </trkpt>
      <trkpt lat="45.59674" lon="2.85018">
        <ele>1411.2800559627</ele>
        <time>2019-09-28T09:58:10Z</time>
      </trkpt>
      <trkpt lat="45.59674" lon="2.85021">
        <ele>1411.2337146421</ele>
        <time>2019-09-28T09:58:19Z</time>
      </trkpt>
      <trkpt lat="45.59675" lon="2.85023">
        <ele>1411.1587846189</ele>
        <time>2019-09-28T09:58:29Z</time>
      </trkpt>
      <trkpt lat="45.59674" lon="2.85023">
        <ele>1411.0551736855</ele>
        <time>2019-09-28T09:58:54Z</time>
      </trkpt>
      <trkpt lat="45.59674" lon="2.85022">
        <ele>1411.0162641385</ele>
        <time>2019-09-28T09:59:12Z</time>
      </trkpt>
      <trkpt lat="45.59675" lon="2.85023">
        <ele>1410.837136983</ele>
        <time>2019-09-28T10:00:02Z</time>
      </trkpt>
      <trkpt lat="45.59675" lon="2.85024">
        <ele>1410.7841688669</ele>
        <time>2019-09-28T10:00:41Z</time>
      </trkpt>
      <trkpt lat="45.59675" lon="2.85023">
        <ele>1410.7084832869</ele>
        <time>2019-09-28T10:01:28Z</time>
      </trkpt>
      <trkpt lat="45.59674" lon="2.85024">
        <ele>1410.6914346922</ele>
        <time>2019-09-28T10:01:41Z</time>
      </trkpt>
      <trkpt lat="45.59674" lon="2.85025">
        <ele>1410.6896921773</ele>
        <time>2019-09-28T10:01:50Z</time>
      </trkpt>
      <trkpt lat="45.59677" lon="2.85028">
        <ele>1410.7014405948</ele>
        <time>2019-09-28T10:01:59Z</time>
      </trkpt>
      <trkpt lat="45.59675" lon="2.85028">
        <ele>1410.7033794227</ele>
        <time>2019-09-28T10:02:09Z</time>
      </trkpt>
      <trkpt lat="45.59674" lon="2.85029">
        <ele>1410.7060747825</ele>
        <time>2019-09-28T10:02:32Z</time>
      </trkpt>
      <trkpt lat="45.59675" lon="2.85027">
        <ele>1410.7135463124</ele>
        <time>2019-09-28T10:02:42Z</time>
      </trkpt>
      <trkpt lat="45.59677" lon="2.85024">
        <ele>1410.7369232263</ele>
        <time>2019-09-28T10:02:51Z</time>
      </trkpt>
      <trkpt lat="45.59676" lon="2.85024">
        <ele>1410.7658391339</ele>
        <time>2019-09-28T10:03:18Z</time>
      </trkpt>
      <trkpt lat="45.59677" lon="2.85023">
        <ele>1410.7986304693</ele>
        <time>2019-09-28T10:03:50Z</time>
      </trkpt>
      <trkpt lat="45.59676" lon="2.85024">
        <ele>1410.8149964215</ele>
        <time>2019-09-28T10:03:59Z</time>
      </trkpt>
      <trkpt lat="45.59674" lon="2.85022">
        <ele>1410.8270614817</ele>
        <time>2019-09-28T10:04:08Z</time>
      </trkpt>
      <trkpt lat="45.59673" lon="2.85022">
        <ele>1410.8354076156</ele>
        <time>2019-09-28T10:04:18Z</time>
      </trkpt>
      <trkpt lat="45.59673" lon="2.85023">
        <ele>1410.8560728451</ele>
        <time>2019-09-28T10:04:41Z</time>
      </trkpt>
      <trkpt lat="45.59673" lon="2.85022">
        <ele>1410.8957063908</ele>
        <time>2019-09-28T10:05:00Z</time>
      </trkpt>
      <trkpt lat="45.59674" lon="2.85021">
        <ele>1410.9022306076</ele>
        <time>2019-09-28T10:05:10Z</time>
      </trkpt>
      <trkpt lat="45.59676" lon="2.85019">
        <ele>1410.9277095955</ele>
        <time>2019-09-28T10:05:19Z</time>
      </trkpt>
      <trkpt lat="45.59676" lon="2.85018">
        <ele>1410.9535016701</ele>
        <time>2019-09-28T10:05:30Z</time>
      </trkpt>
      <trkpt lat="45.5968" lon="2.85016">
        <ele>1410.9779175487</ele>
        <time>2019-09-28T10:05:39Z</time>
      </trkpt>
      <trkpt lat="45.5968" lon="2.85017">
        <ele>1410.9737740648</ele>
        <time>2019-09-28T10:05:48Z</time>
      </trkpt>
      <trkpt lat="45.59677" lon="2.85017">
        <ele>1410.9424249202</ele>
        <time>2019-09-28T10:05:58Z</time>
      </trkpt>
      <trkpt lat="45.59677" lon="2.85018">
        <ele>1410.8917453651</ele>
        <time>2019-09-28T10:06:07Z</time>
      </trkpt>
      <trkpt lat="45.59676" lon="2.8502">
        <ele>1410.8714295813</ele>
        <time>2019-09-28T10:06:17Z</time>
      </trkpt>
      <trkpt lat="45.59676" lon="2.85021">
        <ele>1410.8479276402</ele>
        <time>2019-09-28T10:06:27Z</time>
      </trkpt>
      <trkpt lat="45.59672" lon="2.85023">
        <ele>1410.8247159803</ele>
        <time>2019-09-28T10:06:36Z</time>
      </trkpt>
      <trkpt lat="45.59673" lon="2.85023">
        <ele>1410.8016904088</ele>
        <time>2019-09-28T10:06:55Z</time>
      </trkpt>
      <trkpt lat="45.59676" lon="2.85022">
        <ele>1410.7964112847</ele>
        <time>2019-09-28T10:07:04Z</time>
      </trkpt>
      <trkpt lat="45.59678" lon="2.85021">
        <ele>1410.7856305991</ele>
        <time>2019-09-28T10:07:13Z</time>
      </trkpt>
      <trkpt lat="45.59676" lon="2.8502">
        <ele>1410.7804558865</ele>
        <time>2019-09-28T10:07:22Z</time>
      </trkpt>
      <trkpt lat="45.59677" lon="2.8502">
        <ele>1410.7704383892</ele>
        <time>2019-09-28T10:07:38Z</time>
      </trkpt>
      <trkpt lat="45.59677" lon="2.85021">
        <ele>1410.7634480142</ele>
        <time>2019-09-28T10:07:49Z</time>
      </trkpt>
      <trkpt lat="45.59677" lon="2.85023">
        <ele>1410.746931939</ele>
        <time>2019-09-28T10:07:58Z</time>
      </trkpt>
      <trkpt lat="45.59675" lon="2.85027">
        <ele>1410.7195129365</ele>
        <time>2019-09-28T10:08:07Z</time>
      </trkpt>
      <trkpt lat="45.59674" lon="2.85027">
        <ele>1410.6922877904</ele>
        <time>2019-09-28T10:08:16Z</time>
      </trkpt>
      <trkpt lat="45.59673" lon="2.8503">
        <ele>1410.6843215732</ele>
        <time>2019-09-28T10:08:26Z</time>
      </trkpt>
      <trkpt lat="45.59672" lon="2.85031">
        <ele>1410.6504680912</ele>
        <time>2019-09-28T10:08:36Z</time>
      </trkpt>
      <trkpt lat="45.59662" lon="2.85025">
        <ele>1410.5759872759</ele>
        <time>2019-09-28T10:08:45Z</time>
      </trkpt>
      <trkpt lat="45.59661" lon="2.85025">
        <ele>1410.5369700769</ele>
        <time>2019-09-28T10:08:54Z</time>
      </trkpt>
      <trkpt lat="45.59657" lon="2.85019">
        <ele>1410.4877349829</ele>
        <time>2019-09-28T10:09:03Z</time>
      </trkpt>
      <trkpt lat="45.59655" lon="2.85015">
        <ele>1410.4750181119</ele>
        <time>2019-09-28T10:09:12Z</time>
      </trkpt>
      <trkpt lat="45.59655" lon="2.8501">
        <ele>1410.4862425319</ele>
        <time>2019-09-28T10:09:22Z</time>
      </trkpt>
      <trkpt lat="45.59656" lon="2.85009">
        <ele>1410.4974298912</ele>
        <time>2019-09-28T10:09:31Z</time>
      </trkpt>
      <trkpt lat="45.59652" lon="2.85002">
        <ele>1410.5557729325</ele>
        <time>2019-09-28T10:09:40Z</time>
      </trkpt>
      <trkpt lat="45.59652" lon="2.85006">
        <ele>1410.5943759427</ele>
        <time>2019-09-28T10:09:49Z</time>
      </trkpt>
      <trkpt lat="45.59654" lon="2.85012">
        <ele>1410.6172141973</ele>
        <time>2019-09-28T10:09:58Z</time>
      </trkpt>
      <trkpt lat="45.59653" lon="2.85013">
        <ele>1410.6294519062</ele>
        <time>2019-09-28T10:10:07Z</time>
      </trkpt>
      <trkpt lat="45.59654" lon="2.85012">
        <ele>1410.6414258098</ele>
        <time>2019-09-28T10:10:17Z</time>
      </trkpt>
      <trkpt lat="45.59655" lon="2.85012">
        <ele>1410.6779616331</ele>
        <time>2019-09-28T10:10:42Z</time>
      </trkpt>
      <trkpt lat="45.59655" lon="2.85013">
        <ele>1410.6819225358</ele>
        <time>2019-09-28T10:11:08Z</time>
      </trkpt>
      <trkpt lat="45.59655" lon="2.85014">
        <ele>1410.6739850832</ele>
        <time>2019-09-28T10:11:21Z</time>
      </trkpt>
      <trkpt lat="45.59654" lon="2.85013">
        <ele>1410.6091082454</ele>
        <time>2019-09-28T10:11:30Z</time>
      </trkpt>
      <trkpt lat="45.59646" lon="2.84998">
        <ele>1410.5099970432</ele>
        <time>2019-09-28T10:11:40Z</time>
      </trkpt>
      <trkpt lat="45.59641" lon="2.84989">
        <ele>1410.3991438986</ele>
        <time>2019-09-28T10:11:49Z</time>
      </trkpt>
      <trkpt lat="45.59631" lon="2.84978">
        <ele>1410.2366967603</ele>
        <time>2019-09-28T10:11:59Z</time>
      </trkpt>
      <trkpt lat="45.59623" lon="2.84966">
        <ele>1410.0575196694</ele>
        <time>2019-09-28T10:12:09Z</time>
      </trkpt>
      <trkpt lat="45.59616" lon="2.84955">
        <ele>1409.881272097</ele>
        <time>2019-09-28T10:12:19Z</time>
      </trkpt>
      <trkpt lat="45.5961" lon="2.84948">
        <ele>1409.7371376654</ele>
        <time>2019-09-28T10:12:28Z</time>
      </trkpt>
      <trkpt lat="45.59603" lon="2.84939">
        <ele>1409.6054515681</ele>
        <time>2019-09-28T10:12:37Z</time>
      </trkpt>
      <trkpt lat="45.59595" lon="2.84931">
        <ele>1409.4730895005</ele>
        <time>2019-09-28T10:12:46Z</time>
      </trkpt>
      <trkpt lat="45.59587" lon="2.84925">
        <ele>1409.3458359946</ele>
        <time>2019-09-28T10:12:55Z</time>
      </trkpt>
      <trkpt lat="45.59582" lon="2.84918">
        <ele>1409.2184750734</ele>
        <time>2019-09-28T10:13:05Z</time>
      </trkpt>
      <trkpt lat="45.59578" lon="2.8491">
        <ele>1409.1191727432</ele>
        <time>2019-09-28T10:13:14Z</time>
      </trkpt>
      <trkpt lat="45.59576" lon="2.84901">
        <ele>1409.0382807532</ele>
        <time>2019-09-28T10:13:23Z</time>
      </trkpt>
      <trkpt lat="45.59576" lon="2.84885">
        <ele>1408.9633540386</ele>
        <time>2019-09-28T10:13:33Z</time>
      </trkpt>
      <trkpt lat="45.59573" lon="2.84879">
        <ele>1408.9185532898</ele>
        <time>2019-09-28T10:13:42Z</time>
      </trkpt>
      <trkpt lat="45.59568" lon="2.84875">
        <ele>1408.8965986086</ele>
        <time>2019-09-28T10:13:52Z</time>
      </trkpt>
      <trkpt lat="45.59566" lon="2.84869">
        <ele>1408.9083593211</ele>
        <time>2019-09-28T10:14:01Z</time>
      </trkpt>
      <trkpt lat="45.59562" lon="2.84863">
        <ele>1408.932060668</ele>
        <time>2019-09-28T10:14:11Z</time>
      </trkpt>
      <trkpt lat="45.59558" lon="2.84854">
        <ele>1408.9630944916</ele>
        <time>2019-09-28T10:14:20Z</time>
      </trkpt>
      <trkpt lat="45.59555" lon="2.8485">
        <ele>1409.033602624</ele>
        <time>2019-09-28T10:14:30Z</time>
      </trkpt>
      <trkpt lat="45.59551" lon="2.84842">
        <ele>1409.1311518531</ele>
        <time>2019-09-28T10:14:40Z</time>
      </trkpt>
      <trkpt lat="45.59552" lon="2.84832">
        <ele>1409.2203916149</ele>
        <time>2019-09-28T10:14:49Z</time>
      </trkpt>
      <trkpt lat="45.5955" lon="2.84822">
        <ele>1409.3302711914</ele>
        <time>2019-09-28T10:14:59Z</time>
      </trkpt>
      <trkpt lat="45.59548" lon="2.84817">
        <ele>1409.4291970759</ele>
        <time>2019-09-28T10:15:08Z</time>
      </trkpt>
      <trkpt lat="45.59544" lon="2.84804">
        <ele>1409.5275417745</ele>
        <time>2019-09-28T10:15:17Z</time>
      </trkpt>
      <trkpt lat="45.59544" lon="2.84802">
        <ele>1409.5568877916</ele>
        <time>2019-09-28T10:15:26Z</time>
      </trkpt>
      <trkpt lat="45.59544" lon="2.84801">
        <ele>1409.6489089025</ele>
        <time>2019-09-28T10:15:37Z</time>
      </trkpt>
      <trkpt lat="45.59546" lon="2.848">
        <ele>1409.8035522521</ele>
        <time>2019-09-28T10:15:47Z</time>
      </trkpt>
      <trkpt lat="45.59546" lon="2.848">
        <ele>1410.015175779</ele>
        <time>2019-09-28T10:15:58Z</time>
      </trkpt>
      <trkpt lat="45.59542" lon="2.84798">
        <ele>1410.4716732606</ele>
        <time>2019-09-28T10:16:07Z</time>
      </trkpt>
      <trkpt lat="45.5954" lon="2.84796">
        <ele>1410.5579174528</ele>
        <time>2019-09-28T10:16:16Z</time>
      </trkpt>
      <trkpt lat="45.5954" lon="2.84795">
        <ele>1410.7697443497</ele>
        <time>2019-09-28T10:16:54Z</time>
      </trkpt>
      <trkpt lat="45.59539" lon="2.84794">
        <ele>1411.0889117515</ele>
        <time>2019-09-28T10:17:23Z</time>
      </trkpt>
      <trkpt lat="45.59537" lon="2.84785">
        <ele>1411.6775174367</ele>
        <time>2019-09-28T10:17:32Z</time>
      </trkpt>
      <trkpt lat="45.59535" lon="2.84783">
        <ele>1412.1926509934</ele>
        <time>2019-09-28T10:17:41Z</time>
      </trkpt>
      <trkpt lat="45.59533" lon="2.84779">
        <ele>1412.5639772493</ele>
        <time>2019-09-28T10:17:50Z</time>
      </trkpt>
      <trkpt lat="45.59532" lon="2.84778">
        <ele>1412.6193396609</ele>
        <time>2019-09-28T10:18:00Z</time>
      </trkpt>
      <trkpt lat="45.59532" lon="2.84777">
        <ele>1412.7140914203</ele>
        <time>2019-09-28T10:18:16Z</time>
      </trkpt>
      <trkpt lat="45.59531" lon="2.84776">
        <ele>1412.9136237419</ele>
        <time>2019-09-28T10:18:48Z</time>
      </trkpt>
      <trkpt lat="45.59528" lon="2.84767">
        <ele>1413.49444869</ele>
        <time>2019-09-28T10:18:57Z</time>
      </trkpt>
      <trkpt lat="45.59526" lon="2.84756">
        <ele>1414.0067719409</ele>
        <time>2019-09-28T10:19:06Z</time>
      </trkpt>
      <trkpt lat="45.59524" lon="2.84752">
        <ele>1414.4535708056</ele>
        <time>2019-09-28T10:19:15Z</time>
      </trkpt>
      <trkpt lat="45.59523" lon="2.84751">
        <ele>1414.7738654793</ele>
        <time>2019-09-28T10:19:25Z</time>
      </trkpt>
      <trkpt lat="45.59522" lon="2.84745">
        <ele>1415.1340852481</ele>
        <time>2019-09-28T10:19:34Z</time>
      </trkpt>
      <trkpt lat="45.59521" lon="2.84735">
        <ele>1415.4869544044</ele>
        <time>2019-09-28T10:19:43Z</time>
      </trkpt>
      <trkpt lat="45.59513" lon="2.84734">
        <ele>1415.8576943723</ele>
        <time>2019-09-28T10:19:53Z</time>
      </trkpt>
      <trkpt lat="45.59514" lon="2.84719">
        <ele>1416.1806810281</ele>
        <time>2019-09-28T10:20:02Z</time>
      </trkpt>
      <trkpt lat="45.59511" lon="2.84719">
        <ele>1416.5148671049</ele>
        <time>2019-09-28T10:20:11Z</time>
      </trkpt>
      <trkpt lat="45.59503" lon="2.84714">
        <ele>1416.8487348862</ele>
        <time>2019-09-28T10:20:20Z</time>
      </trkpt>
      <trkpt lat="45.59499" lon="2.84712">
        <ele>1417.1898613744</ele>
        <time>2019-09-28T10:20:29Z</time>
      </trkpt>
      <trkpt lat="45.59497" lon="2.84713">
        <ele>1417.5347523579</ele>
        <time>2019-09-28T10:20:39Z</time>
      </trkpt>
      <trkpt lat="45.5949" lon="2.84712">
        <ele>1418.0313166359</ele>
        <time>2019-09-28T10:20:48Z</time>
      </trkpt>
      <trkpt lat="45.59485" lon="2.84711">
        <ele>1418.508725732</ele>
        <time>2019-09-28T10:20:57Z</time>
      </trkpt>
      <trkpt lat="45.59478" lon="2.84712">
        <ele>1418.9586909954</ele>
        <time>2019-09-28T10:21:06Z</time>
      </trkpt>
      <trkpt lat="45.59475" lon="2.84708">
        <ele>1419.4723169859</ele>
        <time>2019-09-28T10:21:16Z</time>
      </trkpt>
      <trkpt lat="45.59472" lon="2.84713">
        <ele>1419.9160012758</ele>
        <time>2019-09-28T10:21:25Z</time>
      </trkpt>
      <trkpt lat="45.59467" lon="2.84705">
        <ele>1420.3714694211</ele>
        <time>2019-09-28T10:21:34Z</time>
      </trkpt>
      <trkpt lat="45.59457" lon="2.84719">
        <ele>1420.8895454533</ele>
        <time>2019-09-28T10:21:44Z</time>
      </trkpt>
      <trkpt lat="45.59454" lon="2.84727">
        <ele>1421.4266503707</ele>
        <time>2019-09-28T10:21:53Z</time>
      </trkpt>
      <trkpt lat="45.59457" lon="2.84734">
        <ele>1422.0804761168</ele>
        <time>2019-09-28T10:22:02Z</time>
      </trkpt>
      <trkpt lat="45.59459" lon="2.84741">
        <ele>1423.1444329729</ele>
        <time>2019-09-28T10:22:11Z</time>
      </trkpt>
      <trkpt lat="45.59456" lon="2.84738">
        <ele>1424.5049650356</ele>
        <time>2019-09-28T10:22:20Z</time>
      </trkpt>
      <trkpt lat="45.59456" lon="2.84729">
        <ele>1425.9241164137</ele>
        <time>2019-09-28T10:22:29Z</time>
      </trkpt>
      <trkpt lat="45.59454" lon="2.84723">
        <ele>1427.0030511568</ele>
        <time>2019-09-28T10:22:39Z</time>
      </trkpt>
      <trkpt lat="45.59456" lon="2.84705">
        <ele>1428.622069292</ele>
        <time>2019-09-28T10:22:49Z</time>
      </trkpt>
      <trkpt lat="45.59454" lon="2.84693">
        <ele>1430.1119497449</ele>
        <time>2019-09-28T10:22:58Z</time>
      </trkpt>
      <trkpt lat="45.59454" lon="2.84681">
        <ele>1431.6971334519</ele>
        <time>2019-09-28T10:23:07Z</time>
      </trkpt>
      <trkpt lat="45.59452" lon="2.84667">
        <ele>1433.4685900335</ele>
        <time>2019-09-28T10:23:16Z</time>
      </trkpt>
      <trkpt lat="45.59451" lon="2.84658">
        <ele>1435.5057667883</ele>
        <time>2019-09-28T10:23:26Z</time>
      </trkpt>
      <trkpt lat="45.59452" lon="2.84647">
        <ele>1437.2551061674</ele>
        <time>2019-09-28T10:23:35Z</time>
      </trkpt>
      <trkpt lat="45.5945" lon="2.84643">
        <ele>1437.9113884938</ele>
        <time>2019-09-28T10:23:44Z</time>
      </trkpt>
      <trkpt lat="45.5945" lon="2.84642">
        <ele>1438.7135986521</ele>
        <time>2019-09-28T10:23:58Z</time>
      </trkpt>
      <trkpt lat="45.5945" lon="2.84641">
        <ele>1439.0140425593</ele>
        <time>2019-09-28T10:24:08Z</time>
      </trkpt>
      <trkpt lat="45.59451" lon="2.84639">
        <ele>1439.6756276114</ele>
        <time>2019-09-28T10:24:29Z</time>
      </trkpt>
      <trkpt lat="45.59451" lon="2.84638">
        <ele>1440.1276509583</ele>
        <time>2019-09-28T10:24:43Z</time>
      </trkpt>
      <trkpt lat="45.59451" lon="2.84637">
        <ele>1440.4982494223</ele>
        <time>2019-09-28T10:24:54Z</time>
      </trkpt>
      <trkpt lat="45.59451" lon="2.84636">
        <ele>1441.2771543318</ele>
        <time>2019-09-28T10:25:15Z</time>
      </trkpt>
      <trkpt lat="45.59451" lon="2.84632">
        <ele>1442.9947575803</ele>
        <time>2019-09-28T10:25:25Z</time>
      </trkpt>
      <trkpt lat="45.59451" lon="2.84631">
        <ele>1443.5304340643</ele>
        <time>2019-09-28T10:25:39Z</time>
      </trkpt>
      <trkpt lat="45.59452" lon="2.8463">
        <ele>1444.2696213194</ele>
        <time>2019-09-28T10:25:57Z</time>
      </trkpt>
      <trkpt lat="45.59453" lon="2.84629">
        <ele>1445.1648832995</ele>
        <time>2019-09-28T10:26:07Z</time>
      </trkpt>
      <trkpt lat="45.59453" lon="2.84628">
        <ele>1446.1470093229</ele>
        <time>2019-09-28T10:26:18Z</time>
      </trkpt>
      <trkpt lat="45.59453" lon="2.84626">
        <ele>1446.5911713287</ele>
        <time>2019-09-28T10:26:27Z</time>
      </trkpt>
      <trkpt lat="45.59454" lon="2.84625">
        <ele>1447.1449480291</ele>
        <time>2019-09-28T10:26:38Z</time>
      </trkpt>
      <trkpt lat="45.59454" lon="2.84623">
        <ele>1448.0521336265</ele>
        <time>2019-09-28T10:26:47Z</time>
      </trkpt>
      <trkpt lat="45.59453" lon="2.84623">
        <ele>1448.7421665074</ele>
        <time>2019-09-28T10:27:01Z</time>
      </trkpt>
      <trkpt lat="45.59452" lon="2.84622">
        <ele>1451.186377184</ele>
        <time>2019-09-28T10:27:15Z</time>
      </trkpt>
      <trkpt lat="45.59451" lon="2.84616">
        <ele>1453.6187627771</ele>
        <time>2019-09-28T10:27:24Z</time>
      </trkpt>
      <trkpt lat="45.59452" lon="2.84614">
        <ele>1456.5218363841</ele>
        <time>2019-09-28T10:27:33Z</time>
      </trkpt>
      <trkpt lat="45.59454" lon="2.84605">
        <ele>1459.3270121676</ele>
        <time>2019-09-28T10:27:42Z</time>
      </trkpt>
      <trkpt lat="45.59456" lon="2.84593">
        <ele>1461.9785155649</ele>
        <time>2019-09-28T10:27:51Z</time>
      </trkpt>
      <trkpt lat="45.5946" lon="2.84583">
        <ele>1464.2326150843</ele>
        <time>2019-09-28T10:28:00Z</time>
      </trkpt>
      <trkpt lat="45.59463" lon="2.84572">
        <ele>1466.3326776581</ele>
        <time>2019-09-28T10:28:10Z</time>
      </trkpt>
      <trkpt lat="45.59459" lon="2.84558">
        <ele>1467.9260553374</ele>
        <time>2019-09-28T10:28:19Z</time>
      </trkpt>
      <trkpt lat="45.59457" lon="2.8455">
        <ele>1469.3046920179</ele>
        <time>2019-09-28T10:28:28Z</time>
      </trkpt>
      <trkpt lat="45.59458" lon="2.84539">
        <ele>1470.5184202634</ele>
        <time>2019-09-28T10:28:37Z</time>
      </trkpt>
      <trkpt lat="45.59459" lon="2.84523">
        <ele>1471.7039156408</ele>
        <time>2019-09-28T10:28:47Z</time>
      </trkpt>
      <trkpt lat="45.59457" lon="2.84513">
        <ele>1472.7462233414</ele>
        <time>2019-09-28T10:28:57Z</time>
      </trkpt>
      <trkpt lat="45.59459" lon="2.845">
        <ele>1473.6664501122</ele>
        <time>2019-09-28T10:29:07Z</time>
      </trkpt>
      <trkpt lat="45.59458" lon="2.84492">
        <ele>1474.4108704951</ele>
        <time>2019-09-28T10:29:16Z</time>
      </trkpt>
      <trkpt lat="45.59459" lon="2.8448">
        <ele>1475.2063214754</ele>
        <time>2019-09-28T10:29:26Z</time>
      </trkpt>
      <trkpt lat="45.59459" lon="2.84469">
        <ele>1475.9143737881</ele>
        <time>2019-09-28T10:29:35Z</time>
      </trkpt>
      <trkpt lat="45.59458" lon="2.84461">
        <ele>1476.5871104912</ele>
        <time>2019-09-28T10:29:44Z</time>
      </trkpt>
      <trkpt lat="45.59458" lon="2.84452">
        <ele>1477.2471467176</ele>
        <time>2019-09-28T10:29:53Z</time>
      </trkpt>
      <trkpt lat="45.59458" lon="2.84448">
        <ele>1477.8995555088</ele>
        <time>2019-09-28T10:30:02Z</time>
      </trkpt>
      <trkpt lat="45.5946" lon="2.84431">
        <ele>1478.6229807623</ele>
        <time>2019-09-28T10:30:12Z</time>
      </trkpt>
      <trkpt lat="45.59457" lon="2.84421">
        <ele>1479.3409480139</ele>
        <time>2019-09-28T10:30:22Z</time>
      </trkpt>
      <trkpt lat="45.59452" lon="2.84415">
        <ele>1479.8244018739</ele>
        <time>2019-09-28T10:30:31Z</time>
      </trkpt>
      <trkpt lat="45.59452" lon="2.84406">
        <ele>1480.3791172521</ele>
        <time>2019-09-28T10:30:41Z</time>
      </trkpt>
      <trkpt lat="45.59454" lon="2.84408">
        <ele>1481.0521982212</ele>
        <time>2019-09-28T10:30:50Z</time>
      </trkpt>
      <trkpt lat="45.59454" lon="2.84397">
        <ele>1481.7684838158</ele>
        <time>2019-09-28T10:31:00Z</time>
      </trkpt>
      <trkpt lat="45.59454" lon="2.84392">
        <ele>1482.377865332</ele>
        <time>2019-09-28T10:31:09Z</time>
      </trkpt>
      <trkpt lat="45.59455" lon="2.84374">
        <ele>1482.7032898817</ele>
        <time>2019-09-28T10:31:19Z</time>
      </trkpt>
      <trkpt lat="45.59451" lon="2.84373">
        <ele>1483.2603769097</ele>
        <time>2019-09-28T10:31:28Z</time>
      </trkpt>
      <trkpt lat="45.59447" lon="2.8438">
        <ele>1483.8185389459</ele>
        <time>2019-09-28T10:31:37Z</time>
      </trkpt>
      <trkpt lat="45.59436" lon="2.84391">
        <ele>1484.3922765174</ele>
        <time>2019-09-28T10:31:47Z</time>
      </trkpt>
      <trkpt lat="45.59433" lon="2.84398">
        <ele>1484.9083046339</ele>
        <time>2019-09-28T10:31:56Z</time>
      </trkpt>
      <trkpt lat="45.59426" lon="2.8441">
        <ele>1485.4251588367</ele>
        <time>2019-09-28T10:32:05Z</time>
      </trkpt>
      <trkpt lat="45.59423" lon="2.84411">
        <ele>1486.0587736684</ele>
        <time>2019-09-28T10:32:14Z</time>
      </trkpt>
      <trkpt lat="45.5942" lon="2.84433">
        <ele>1486.8404521343</ele>
        <time>2019-09-28T10:32:23Z</time>
      </trkpt>
      <trkpt lat="45.59408" lon="2.84442">
        <ele>1487.8005762629</ele>
        <time>2019-09-28T10:32:33Z</time>
      </trkpt>
      <trkpt lat="45.59402" lon="2.84454">
        <ele>1488.8484809969</ele>
        <time>2019-09-28T10:32:43Z</time>
      </trkpt>
      <trkpt lat="45.59398" lon="2.84455">
        <ele>1489.8431539498</ele>
        <time>2019-09-28T10:32:52Z</time>
      </trkpt>
      <trkpt lat="45.59391" lon="2.84472">
        <ele>1490.9554692464</ele>
        <time>2019-09-28T10:33:01Z</time>
      </trkpt>
      <trkpt lat="45.59391" lon="2.84473">
        <ele>1491.3202503808</ele>
        <time>2019-09-28T10:33:10Z</time>
      </trkpt>
      <trkpt lat="45.59393" lon="2.8448">
        <ele>1492.4493788574</ele>
        <time>2019-09-28T10:33:19Z</time>
      </trkpt>
      <trkpt lat="45.59394" lon="2.84481">
        <ele>1492.7351954531</ele>
        <time>2019-09-28T10:33:30Z</time>
      </trkpt>
      <trkpt lat="45.59393" lon="2.84481">
        <ele>1493.6949723227</ele>
        <time>2019-09-28T10:33:40Z</time>
      </trkpt>
      <trkpt lat="45.59398" lon="2.84477">
        <ele>1496.6414796459</ele>
        <time>2019-09-28T10:33:49Z</time>
      </trkpt>
      <trkpt lat="45.59397" lon="2.84476">
        <ele>1497.4661311051</ele>
        <time>2019-09-28T10:33:58Z</time>
      </trkpt>
      <trkpt lat="45.59397" lon="2.84475">
        <ele>1499.2898808808</ele>
        <time>2019-09-28T10:34:45Z</time>
      </trkpt>
      <trkpt lat="45.59397" lon="2.8447">
        <ele>1500.555125374</ele>
        <time>2019-09-28T10:34:55Z</time>
      </trkpt>
      <trkpt lat="45.59398" lon="2.84468">
        <ele>1501.4402119747</ele>
        <time>2019-09-28T10:35:04Z</time>
      </trkpt>
      <trkpt lat="45.59398" lon="2.84469">
        <ele>1503.1644882557</ele>
        <time>2019-09-28T10:35:13Z</time>
      </trkpt>
      <trkpt lat="45.59395" lon="2.84469">
        <ele>1503.4373864598</ele>
        <time>2019-09-28T10:35:22Z</time>
      </trkpt>
      <trkpt lat="45.59395" lon="2.84468">
        <ele>1504.3284030457</ele>
        <time>2019-09-28T10:35:32Z</time>
      </trkpt>
      <trkpt lat="45.59396" lon="2.84468">
        <ele>1504.9524446003</ele>
        <time>2019-09-28T10:35:51Z</time>
      </trkpt>
      <trkpt lat="45.59396" lon="2.84468">
        <ele>1506.1748287448</ele>
        <time>2019-09-28T10:36:01Z</time>
      </trkpt>
      <trkpt lat="45.59398" lon="2.84474">
        <ele>1508.5784883169</ele>
        <time>2019-09-28T10:36:10Z</time>
      </trkpt>
      <trkpt lat="45.59393" lon="2.84481">
        <ele>1510.9147578106</ele>
        <time>2019-09-28T10:36:19Z</time>
      </trkpt>
      <trkpt lat="45.5939" lon="2.84491">
        <ele>1512.0061810498</ele>
        <time>2019-09-28T10:36:29Z</time>
      </trkpt>
      <trkpt lat="45.5939" lon="2.84493">
        <ele>1513.8252794567</ele>
        <time>2019-09-28T10:36:39Z</time>
      </trkpt>
      <trkpt lat="45.59384" lon="2.845">
        <ele>1515.2327665043</ele>
        <time>2019-09-28T10:36:48Z</time>
      </trkpt>
      <trkpt lat="45.59385" lon="2.84496">
        <ele>1516.6094821235</ele>
        <time>2019-09-28T10:36:57Z</time>
      </trkpt>
      <trkpt lat="45.59387" lon="2.84484">
        <ele>1517.8921304562</ele>
        <time>2019-09-28T10:37:06Z</time>
      </trkpt>
      <trkpt lat="45.59387" lon="2.8447">
        <ele>1519.0852413174</ele>
        <time>2019-09-28T10:37:16Z</time>
      </trkpt>
      <trkpt lat="45.59388" lon="2.84461">
        <ele>1519.9111999547</ele>
        <time>2019-09-28T10:37:25Z</time>
      </trkpt>
      <trkpt lat="45.59386" lon="2.84449">
        <ele>1520.7217686793</ele>
        <time>2019-09-28T10:37:34Z</time>
      </trkpt>
      <trkpt lat="45.59386" lon="2.8444">
        <ele>1521.4458147246</ele>
        <time>2019-09-28T10:37:43Z</time>
      </trkpt>
      <trkpt lat="45.59387" lon="2.84421">
        <ele>1522.1891936105</ele>
        <time>2019-09-28T10:37:53Z</time>
      </trkpt>
      <trkpt lat="45.59388" lon="2.84408">
        <ele>1522.8146763856</ele>
        <time>2019-09-28T10:38:02Z</time>
      </trkpt>
      <trkpt lat="45.59387" lon="2.84396">
        <ele>1523.4191286194</ele>
        <time>2019-09-28T10:38:12Z</time>
      </trkpt>
      <trkpt lat="45.59385" lon="2.84385">
        <ele>1523.8969530659</ele>
        <time>2019-09-28T10:38:21Z</time>
      </trkpt>
      <trkpt lat="45.59384" lon="2.84356">
        <ele>1524.2742876118</ele>
        <time>2019-09-28T10:38:31Z</time>
      </trkpt>
      <trkpt lat="45.59386" lon="2.84358">
        <ele>1524.6593624603</ele>
        <time>2019-09-28T10:38:40Z</time>
      </trkpt>
      <trkpt lat="45.59384" lon="2.84353">
        <ele>1525.3487666818</ele>
        <time>2019-09-28T10:38:49Z</time>
      </trkpt>
      <trkpt lat="45.59381" lon="2.84345">
        <ele>1526.1026801534</ele>
        <time>2019-09-28T10:38:59Z</time>
      </trkpt>
      <trkpt lat="45.5938" lon="2.84334">
        <ele>1526.7598996092</ele>
        <time>2019-09-28T10:39:08Z</time>
      </trkpt>
      <trkpt lat="45.59377" lon="2.84322">
        <ele>1527.3907499901</ele>
        <time>2019-09-28T10:39:17Z</time>
      </trkpt>
      <trkpt lat="45.59375" lon="2.84308">
        <ele>1527.6519886111</ele>
        <time>2019-09-28T10:39:26Z</time>
      </trkpt>
      <trkpt lat="45.59374" lon="2.84307">
        <ele>1528.4063206831</ele>
        <time>2019-09-28T10:39:35Z</time>
      </trkpt>
      <trkpt lat="45.59381" lon="2.84296">
        <ele>1529.1998194624</ele>
        <time>2019-09-28T10:39:45Z</time>
      </trkpt>
      <trkpt lat="45.59374" lon="2.84288">
        <ele>1529.902082373</ele>
        <time>2019-09-28T10:39:54Z</time>
      </trkpt>
      <trkpt lat="45.59368" lon="2.84281">
        <ele>1530.7026587902</ele>
        <time>2019-09-28T10:40:04Z</time>
      </trkpt>
      <trkpt lat="45.59363" lon="2.84276">
        <ele>1531.4287021955</ele>
        <time>2019-09-28T10:40:13Z</time>
      </trkpt>
      <trkpt lat="45.59355" lon="2.84267">
        <ele>1532.135333462</ele>
        <time>2019-09-28T10:40:22Z</time>
      </trkpt>
      <trkpt lat="45.59353" lon="2.84252">
        <ele>1532.6535099322</ele>
        <time>2019-09-28T10:40:31Z</time>
      </trkpt>
      <trkpt lat="45.59355" lon="2.84254">
        <ele>1533.4069193599</ele>
        <time>2019-09-28T10:40:40Z</time>
      </trkpt>
      <trkpt lat="45.59356" lon="2.84257">
        <ele>1534.1747516</ele>
        <time>2019-09-28T10:40:50Z</time>
      </trkpt>
      <trkpt lat="45.59358" lon="2.84265">
        <ele>1534.8775199095</ele>
        <time>2019-09-28T10:41:00Z</time>
      </trkpt>
      <trkpt lat="45.5935" lon="2.84278">
        <ele>1535.448153331</ele>
        <time>2019-09-28T10:41:09Z</time>
      </trkpt>
      <trkpt lat="45.59349" lon="2.84289">
        <ele>1535.9928557408</ele>
        <time>2019-09-28T10:41:19Z</time>
      </trkpt>
      <trkpt lat="45.59346" lon="2.84286">
        <ele>1536.4713978636</ele>
        <time>2019-09-28T10:41:29Z</time>
      </trkpt>
      <trkpt lat="45.59343" lon="2.84285">
        <ele>1536.610125143</ele>
        <time>2019-09-28T10:41:38Z</time>
      </trkpt>
      <trkpt lat="45.59334" lon="2.84283">
        <ele>1536.9518078491</ele>
        <time>2019-09-28T10:41:48Z</time>
      </trkpt>
      <trkpt lat="45.59335" lon="2.84284">
        <ele>1537.3236415949</ele>
        <time>2019-09-28T10:41:58Z</time>
      </trkpt>
      <trkpt lat="45.59335" lon="2.84288">
        <ele>1538.0945928682</ele>
        <time>2019-09-28T10:42:07Z</time>
      </trkpt>
      <trkpt lat="45.59327" lon="2.84291">
        <ele>1538.8288765314</ele>
        <time>2019-09-28T10:42:17Z</time>
      </trkpt>
      <trkpt lat="45.59326" lon="2.84292">
        <ele>1539.4749280956</ele>
        <time>2019-09-28T10:42:27Z</time>
      </trkpt>
      <trkpt lat="45.59323" lon="2.84299">
        <ele>1540.4702569796</ele>
        <time>2019-09-28T10:42:37Z</time>
      </trkpt>
      <trkpt lat="45.59324" lon="2.84302">
        <ele>1541.423114121</ele>
        <time>2019-09-28T10:42:47Z</time>
      </trkpt>
      <trkpt lat="45.59315" lon="2.84312">
        <ele>1541.7674253299</ele>
        <time>2019-09-28T10:42:56Z</time>
      </trkpt>
      <trkpt lat="45.59318" lon="2.8432">
        <ele>1542.4410591064</ele>
        <time>2019-09-28T10:43:06Z</time>
      </trkpt>
      <trkpt lat="45.59317" lon="2.84322">
        <ele>1543.0356040367</ele>
        <time>2019-09-28T10:43:15Z</time>
      </trkpt>
      <trkpt lat="45.59315" lon="2.84349">
        <ele>1544.4651989377</ele>
        <time>2019-09-28T10:43:25Z</time>
      </trkpt>
      <trkpt lat="45.59308" lon="2.8435">
        <ele>1545.7324915082</ele>
        <time>2019-09-28T10:43:34Z</time>
      </trkpt>
      <trkpt lat="45.59307" lon="2.84347">
        <ele>1547.0040401168</ele>
        <time>2019-09-28T10:43:43Z</time>
      </trkpt>
      <trkpt lat="45.59307" lon="2.84359">
        <ele>1547.3987763483</ele>
        <time>2019-09-28T10:43:52Z</time>
      </trkpt>
      <trkpt lat="45.59307" lon="2.84374">
        <ele>1548.6654340056</ele>
        <time>2019-09-28T10:44:02Z</time>
      </trkpt>
      <trkpt lat="45.59304" lon="2.84376">
        <ele>1549.9683660956</ele>
        <time>2019-09-28T10:44:11Z</time>
      </trkpt>
      <trkpt lat="45.59302" lon="2.84381">
        <ele>1551.1198456644</ele>
        <time>2019-09-28T10:44:20Z</time>
      </trkpt>
      <trkpt lat="45.593" lon="2.84388">
        <ele>1551.9679527298</ele>
        <time>2019-09-28T10:44:29Z</time>
      </trkpt>
      <trkpt lat="45.59292" lon="2.84383">
        <ele>1553.1867262371</ele>
        <time>2019-09-28T10:44:38Z</time>
      </trkpt>
      <trkpt lat="45.59288" lon="2.84378">
        <ele>1554.0519118303</ele>
        <time>2019-09-28T10:44:48Z</time>
      </trkpt>
      <trkpt lat="45.59293" lon="2.84387">
        <ele>1555.7965895833</ele>
        <time>2019-09-28T10:44:57Z</time>
      </trkpt>
      <trkpt lat="45.59288" lon="2.84399">
        <ele>1557.5261055815</ele>
        <time>2019-09-28T10:45:06Z</time>
      </trkpt>
      <trkpt lat="45.59285" lon="2.84402">
        <ele>1559.3660091563</ele>
        <time>2019-09-28T10:45:16Z</time>
      </trkpt>
      <trkpt lat="45.5928" lon="2.844">
        <ele>1561.095104239</ele>
        <time>2019-09-28T10:45:25Z</time>
      </trkpt>
      <trkpt lat="45.59276" lon="2.84395">
        <ele>1563.0440732745</ele>
        <time>2019-09-28T10:45:35Z</time>
      </trkpt>
      <trkpt lat="45.59277" lon="2.84412">
        <ele>1564.840382147</ele>
        <time>2019-09-28T10:45:44Z</time>
      </trkpt>
      <trkpt lat="45.59273" lon="2.84422">
        <ele>1566.349609942</ele>
        <time>2019-09-28T10:45:53Z</time>
      </trkpt>
      <trkpt lat="45.59262" lon="2.8442">
        <ele>1568.0431546341</ele>
        <time>2019-09-28T10:46:03Z</time>
      </trkpt>
      <trkpt lat="45.5926" lon="2.84419">
        <ele>1568.7434163912</ele>
        <time>2019-09-28T10:46:12Z</time>
      </trkpt>
      <trkpt lat="45.59254" lon="2.84419">
        <ele>1569.0064023003</ele>
        <time>2019-09-28T10:46:21Z</time>
      </trkpt>
      <trkpt lat="45.59254" lon="2.84422">
        <ele>1570.1548681392</ele>
        <time>2019-09-28T10:46:31Z</time>
      </trkpt>
      <trkpt lat="45.59257" lon="2.84425">
        <ele>1571.0210578175</ele>
        <time>2019-09-28T10:46:40Z</time>
      </trkpt>
      <trkpt lat="45.59261" lon="2.84431">
        <ele>1572.4237959628</ele>
        <time>2019-09-28T10:46:50Z</time>
      </trkpt>
      <trkpt lat="45.59261" lon="2.84436">
        <ele>1574.005084143</ele>
        <time>2019-09-28T10:46:59Z</time>
      </trkpt>
      <trkpt lat="45.59261" lon="2.84436">
        <ele>1575.7822506275</ele>
        <time>2019-09-28T10:47:10Z</time>
      </trkpt>
      <trkpt lat="45.5926" lon="2.84428">
        <ele>1577.9764481586</ele>
        <time>2019-09-28T10:47:19Z</time>
      </trkpt>
      <trkpt lat="45.59259" lon="2.84422">
        <ele>1578.7748455172</ele>
        <time>2019-09-28T10:47:28Z</time>
      </trkpt>
      <trkpt lat="45.59262" lon="2.84421">
        <ele>1579.0309269906</ele>
        <time>2019-09-28T10:47:38Z</time>
      </trkpt>
      <trkpt lat="45.59264" lon="2.84419">
        <ele>1580.2742285908</ele>
        <time>2019-09-28T10:47:48Z</time>
      </trkpt>
      <trkpt lat="45.59261" lon="2.8442">
        <ele>1581.8941842795</ele>
        <time>2019-09-28T10:47:57Z</time>
      </trkpt>
      <trkpt lat="45.59266" lon="2.8442">
        <ele>1583.3402272469</ele>
        <time>2019-09-28T10:48:06Z</time>
      </trkpt>
      <trkpt lat="45.59266" lon="2.84421">
        <ele>1583.5800924698</ele>
        <time>2019-09-28T10:48:17Z</time>
      </trkpt>
      <trkpt lat="45.59266" lon="2.84422">
        <ele>1584.3932690817</ele>
        <time>2019-09-28T10:48:26Z</time>
      </trkpt>
      <trkpt lat="45.59267" lon="2.84424">
        <ele>1585.5500000941</ele>
        <time>2019-09-28T10:48:36Z</time>
      </trkpt>
      <trkpt lat="45.59267" lon="2.84424">
        <ele>1586.2568411148</ele>
        <time>2019-09-28T10:49:02Z</time>
      </trkpt>
      <trkpt lat="45.59267" lon="2.84423">
        <ele>1587.1179488653</ele>
        <time>2019-09-28T10:49:31Z</time>
      </trkpt>
      <trkpt lat="45.59264" lon="2.84425">
        <ele>1587.3518655105</ele>
        <time>2019-09-28T10:49:40Z</time>
      </trkpt>
      <trkpt lat="45.59265" lon="2.84426">
        <ele>1587.5918431753</ele>
        <time>2019-09-28T10:49:49Z</time>
      </trkpt>
      <trkpt lat="45.59267" lon="2.84426">
        <ele>1589.2130955434</ele>
        <time>2019-09-28T10:49:58Z</time>
      </trkpt>
      <trkpt lat="45.59267" lon="2.84424">
        <ele>1590.670074586</ele>
        <time>2019-09-28T10:50:07Z</time>
      </trkpt>
      <trkpt lat="45.59264" lon="2.84427">
        <ele>1592.3765562028</ele>
        <time>2019-09-28T10:50:16Z</time>
      </trkpt>
      <trkpt lat="45.59257" lon="2.84431">
        <ele>1594.0203178352</ele>
        <time>2019-09-28T10:50:25Z</time>
      </trkpt>
      <trkpt lat="45.59256" lon="2.8443">
        <ele>1594.3246890732</ele>
        <time>2019-09-28T10:50:34Z</time>
      </trkpt>
      <trkpt lat="45.59253" lon="2.8443">
        <ele>1595.0799234975</ele>
        <time>2019-09-28T10:50:43Z</time>
      </trkpt>
      <trkpt lat="45.59245" lon="2.84441">
        <ele>1596.5719481665</ele>
        <time>2019-09-28T10:50:53Z</time>
      </trkpt>
      <trkpt lat="45.59242" lon="2.84439">
        <ele>1597.7642379711</ele>
        <time>2019-09-28T10:51:02Z</time>
      </trkpt>
      <trkpt lat="45.59238" lon="2.84438">
        <ele>1598.7960658658</ele>
        <time>2019-09-28T10:51:11Z</time>
      </trkpt>
      <trkpt lat="45.59234" lon="2.84445">
        <ele>1599.7025822098</ele>
        <time>2019-09-28T10:51:21Z</time>
      </trkpt>
      <trkpt lat="45.59227" lon="2.84452">
        <ele>1600.5950658253</ele>
        <time>2019-09-28T10:51:31Z</time>
      </trkpt>
      <trkpt lat="45.59226" lon="2.84458">
        <ele>1601.3347212908</ele>
        <time>2019-09-28T10:51:41Z</time>
      </trkpt>
      <trkpt lat="45.59222" lon="2.84466">
        <ele>1602.0049565874</ele>
        <time>2019-09-28T10:51:50Z</time>
      </trkpt>
      <trkpt lat="45.59217" lon="2.8448">
        <ele>1602.7261856028</ele>
        <time>2019-09-28T10:52:00Z</time>
      </trkpt>
      <trkpt lat="45.59213" lon="2.84495">
        <ele>1603.1188269984</ele>
        <time>2019-09-28T10:52:09Z</time>
      </trkpt>
      <trkpt lat="45.59209" lon="2.84502">
        <ele>1603.6919005319</ele>
        <time>2019-09-28T10:52:18Z</time>
      </trkpt>
      <trkpt lat="45.5921" lon="2.84498">
        <ele>1603.999368852</ele>
        <time>2019-09-28T10:52:27Z</time>
      </trkpt>
      <trkpt lat="45.59209" lon="2.84498">
        <ele>1604.1727429691</ele>
        <time>2019-09-28T10:52:43Z</time>
      </trkpt>
      <trkpt lat="45.59209" lon="2.84497">
        <ele>1604.783968615</ele>
        <time>2019-09-28T10:52:55Z</time>
      </trkpt>
      <trkpt lat="45.5921" lon="2.84498">
        <ele>1605.0143157846</ele>
        <time>2019-09-28T10:53:06Z</time>
      </trkpt>
      <trkpt lat="45.59206" lon="2.84504">
        <ele>1605.3057409928</ele>
        <time>2019-09-28T10:53:16Z</time>
      </trkpt>
      <trkpt lat="45.5921" lon="2.84502">
        <ele>1605.7585004457</ele>
        <time>2019-09-28T10:53:26Z</time>
      </trkpt>
      <trkpt lat="45.5921" lon="2.84506">
        <ele>1606.0623699434</ele>
        <time>2019-09-28T10:53:36Z</time>
      </trkpt>
      <trkpt lat="45.59214" lon="2.84502">
        <ele>1606.3426959823</ele>
        <time>2019-09-28T10:53:45Z</time>
      </trkpt>
      <trkpt lat="45.59213" lon="2.8451">
        <ele>1606.5873394211</ele>
        <time>2019-09-28T10:53:55Z</time>
      </trkpt>
      <trkpt lat="45.59212" lon="2.84511">
        <ele>1606.6564650789</ele>
        <time>2019-09-28T10:54:05Z</time>
      </trkpt>
      <trkpt lat="45.59212" lon="2.84511">
        <ele>1606.7952016964</ele>
        <time>2019-09-28T10:54:15Z</time>
      </trkpt>
      <trkpt lat="45.59211" lon="2.84509">
        <ele>1606.8761099416</ele>
        <time>2019-09-28T10:54:25Z</time>
      </trkpt>
      <trkpt lat="45.59211" lon="2.84508">
        <ele>1607.2909474932</ele>
        <time>2019-09-28T10:55:05Z</time>
      </trkpt>
      <trkpt lat="45.5921" lon="2.84507">
        <ele>1608.1679370516</ele>
        <time>2019-09-28T10:55:50Z</time>
      </trkpt>
      <trkpt lat="45.59209" lon="2.84507">
        <ele>1608.6469804582</ele>
        <time>2019-09-28T10:56:26Z</time>
      </trkpt>
      <trkpt lat="45.59208" lon="2.84509">
        <ele>1608.8024952984</ele>
        <time>2019-09-28T10:56:36Z</time>
      </trkpt>
      <trkpt lat="45.59207" lon="2.8451">
        <ele>1608.8840379751</ele>
        <time>2019-09-28T10:56:46Z</time>
      </trkpt>
      <trkpt lat="45.59206" lon="2.8451">
        <ele>1609.0479317213</ele>
        <time>2019-09-28T10:57:06Z</time>
      </trkpt>
      <trkpt lat="45.59205" lon="2.84511">
        <ele>1609.1465701781</ele>
        <time>2019-09-28T10:57:18Z</time>
      </trkpt>
      <trkpt lat="45.59205" lon="2.8451">
        <ele>1609.2282089539</ele>
        <time>2019-09-28T10:57:28Z</time>
      </trkpt>
      <trkpt lat="45.59204" lon="2.84511">
        <ele>1609.4431479869</ele>
        <time>2019-09-28T10:57:37Z</time>
      </trkpt>
      <trkpt lat="45.59204" lon="2.84512">
        <ele>1609.6780863638</ele>
        <time>2019-09-28T10:57:50Z</time>
      </trkpt>
      <trkpt lat="45.59204" lon="2.84511">
        <ele>1609.9847714935</ele>
        <time>2019-09-28T10:58:23Z</time>
      </trkpt>
      <trkpt lat="45.59202" lon="2.8451">
        <ele>1610.1133500028</ele>
        <time>2019-09-28T10:58:32Z</time>
      </trkpt>
      <trkpt lat="45.59203" lon="2.8451">
        <ele>1610.1767197309</ele>
        <time>2019-09-28T10:58:41Z</time>
      </trkpt>
      <trkpt lat="45.59214" lon="2.84509">
        <ele>1610.7065913181</ele>
        <time>2019-09-28T10:58:50Z</time>
      </trkpt>
      <trkpt lat="45.59208" lon="2.84514">
        <ele>1611.2510446341</ele>
        <time>2019-09-28T10:58:59Z</time>
      </trkpt>
      <trkpt lat="45.59204" lon="2.84521">
        <ele>1611.7463822858</ele>
        <time>2019-09-28T10:59:09Z</time>
      </trkpt>
      <trkpt lat="45.592" lon="2.84535">
        <ele>1612.2575063091</ele>
        <time>2019-09-28T10:59:19Z</time>
      </trkpt>
      <trkpt lat="45.59199" lon="2.84534">
        <ele>1612.7502197796</ele>
        <time>2019-09-28T10:59:28Z</time>
      </trkpt>
      <trkpt lat="45.59197" lon="2.84546">
        <ele>1613.2529582895</ele>
        <time>2019-09-28T10:59:38Z</time>
      </trkpt>
      <trkpt lat="45.59195" lon="2.84554">
        <ele>1613.3860437722</ele>
        <time>2019-09-28T10:59:47Z</time>
      </trkpt>
      <trkpt lat="45.59194" lon="2.84556">
        <ele>1613.4959775233</ele>
        <time>2019-09-28T10:59:57Z</time>
      </trkpt>
      <trkpt lat="45.59191" lon="2.84562">
        <ele>1613.8619664073</ele>
        <time>2019-09-28T11:00:07Z</time>
      </trkpt>
      <trkpt lat="45.59187" lon="2.84569">
        <ele>1614.1979534042</ele>
        <time>2019-09-28T11:00:16Z</time>
      </trkpt>
      <trkpt lat="45.59184" lon="2.84571">
        <ele>1614.4496403556</ele>
        <time>2019-09-28T11:00:26Z</time>
      </trkpt>
      <trkpt lat="45.59178" lon="2.84573">
        <ele>1614.9028005945</ele>
        <time>2019-09-28T11:00:35Z</time>
      </trkpt>
      <trkpt lat="45.5917" lon="2.84577">
        <ele>1615.3482513002</ele>
        <time>2019-09-28T11:00:45Z</time>
      </trkpt>
      <trkpt lat="45.59161" lon="2.84578">
        <ele>1615.7115661616</ele>
        <time>2019-09-28T11:00:54Z</time>
      </trkpt>
      <trkpt lat="45.59153" lon="2.84586">
        <ele>1616.051920383</ele>
        <time>2019-09-28T11:01:03Z</time>
      </trkpt>
      <trkpt lat="45.59145" lon="2.84588">
        <ele>1616.4014344725</ele>
        <time>2019-09-28T11:01:13Z</time>
      </trkpt>
      <trkpt lat="45.59136" lon="2.84591">
        <ele>1616.7075365778</ele>
        <time>2019-09-28T11:01:23Z</time>
      </trkpt>
      <trkpt lat="45.59126" lon="2.84593">
        <ele>1616.9605948932</ele>
        <time>2019-09-28T11:01:32Z</time>
      </trkpt>
      <trkpt lat="45.59115" lon="2.84599">
        <ele>1617.1815800333</ele>
        <time>2019-09-28T11:01:41Z</time>
      </trkpt>
      <trkpt lat="45.59105" lon="2.84598">
        <ele>1617.3818592324</ele>
        <time>2019-09-28T11:01:50Z</time>
      </trkpt>
      <trkpt lat="45.59096" lon="2.84599">
        <ele>1617.5808821903</ele>
        <time>2019-09-28T11:02:00Z</time>
      </trkpt>
      <trkpt lat="45.59087" lon="2.84602">
        <ele>1617.7679127449</ele>
        <time>2019-09-28T11:02:10Z</time>
      </trkpt>
      <trkpt lat="45.59077" lon="2.84605">
        <ele>1617.9248994166</ele>
        <time>2019-09-28T11:02:19Z</time>
      </trkpt>
      <trkpt lat="45.59065" lon="2.84608">
        <ele>1618.081404009</ele>
        <time>2019-09-28T11:02:28Z</time>
      </trkpt>
      <trkpt lat="45.59056" lon="2.84607">
        <ele>1618.2553977663</ele>
        <time>2019-09-28T11:02:38Z</time>
      </trkpt>
      <trkpt lat="45.59045" lon="2.846">
        <ele>1618.4009652489</ele>
        <time>2019-09-28T11:02:47Z</time>
      </trkpt>
      <trkpt lat="45.59037" lon="2.84594">
        <ele>1618.5345476301</ele>
        <time>2019-09-28T11:02:56Z</time>
      </trkpt>
      <trkpt lat="45.5903" lon="2.84586">
        <ele>1618.6739796022</ele>
        <time>2019-09-28T11:03:05Z</time>
      </trkpt>
      <trkpt lat="45.59021" lon="2.84573">
        <ele>1618.8108989486</ele>
        <time>2019-09-28T11:03:14Z</time>
      </trkpt>
      <trkpt lat="45.59014" lon="2.84564">
        <ele>1618.9409581962</ele>
        <time>2019-09-28T11:03:23Z</time>
      </trkpt>
      <trkpt lat="45.59009" lon="2.84558">
        <ele>1619.0976727714</ele>
        <time>2019-09-28T11:03:33Z</time>
      </trkpt>
      <trkpt lat="45.59003" lon="2.84553">
        <ele>1619.2373106373</ele>
        <time>2019-09-28T11:03:42Z</time>
      </trkpt>
      <trkpt lat="45.58996" lon="2.84545">
        <ele>1619.3757349926</ele>
        <time>2019-09-28T11:03:51Z</time>
      </trkpt>
      <trkpt lat="45.58993" lon="2.84536">
        <ele>1619.5085991549</ele>
        <time>2019-09-28T11:04:00Z</time>
      </trkpt>
      <trkpt lat="45.58986" lon="2.84526">
        <ele>1619.6418289978</ele>
        <time>2019-09-28T11:04:10Z</time>
      </trkpt>
      <trkpt lat="45.58981" lon="2.84516">
        <ele>1619.7408290402</ele>
        <time>2019-09-28T11:04:19Z</time>
      </trkpt>
      <trkpt lat="45.58973" lon="2.84508">
        <ele>1619.8146785034</ele>
        <time>2019-09-28T11:04:28Z</time>
      </trkpt>
      <trkpt lat="45.58965" lon="2.84503">
        <ele>1619.8704521878</ele>
        <time>2019-09-28T11:04:37Z</time>
      </trkpt>
      <trkpt lat="45.58953" lon="2.84499">
        <ele>1619.9165292782</ele>
        <time>2019-09-28T11:04:47Z</time>
      </trkpt>
      <trkpt lat="45.58945" lon="2.84499">
        <ele>1619.9433067017</ele>
        <time>2019-09-28T11:04:56Z</time>
      </trkpt>
      <trkpt lat="45.58936" lon="2.84498">
        <ele>1619.9596486147</ele>
        <time>2019-09-28T11:05:05Z</time>
      </trkpt>
      <trkpt lat="45.58928" lon="2.84494">
        <ele>1619.9732398523</ele>
        <time>2019-09-28T11:05:14Z</time>
      </trkpt>
      <trkpt lat="45.5892" lon="2.84494">
        <ele>1619.9732285634</ele>
        <time>2019-09-28T11:05:23Z</time>
      </trkpt>
      <trkpt lat="45.58914" lon="2.84491">
        <ele>1619.9649990339</ele>
        <time>2019-09-28T11:05:32Z</time>
      </trkpt>
      <trkpt lat="45.58907" lon="2.84488">
        <ele>1619.9456293652</ele>
        <time>2019-09-28T11:05:41Z</time>
      </trkpt>
      <trkpt lat="45.58902" lon="2.84487">
        <ele>1619.9192434702</ele>
        <time>2019-09-28T11:05:50Z</time>
      </trkpt>
      <trkpt lat="45.58895" lon="2.84486">
        <ele>1619.8677659105</ele>
        <time>2019-09-28T11:05:59Z</time>
      </trkpt>
      <trkpt lat="45.58889" lon="2.84485">
        <ele>1619.7757747464</ele>
        <time>2019-09-28T11:06:09Z</time>
      </trkpt>
      <trkpt lat="45.5888" lon="2.84487">
        <ele>1619.6783804613</ele>
        <time>2019-09-28T11:06:18Z</time>
      </trkpt>
      <trkpt lat="45.58872" lon="2.84488">
        <ele>1619.5707516582</ele>
        <time>2019-09-28T11:06:27Z</time>
      </trkpt>
      <trkpt lat="45.58861" lon="2.8449">
        <ele>1619.4358271091</ele>
        <time>2019-09-28T11:06:37Z</time>
      </trkpt>
      <trkpt lat="45.58851" lon="2.84492">
        <ele>1619.2969275572</ele>
        <time>2019-09-28T11:06:47Z</time>
      </trkpt>
      <trkpt lat="45.58843" lon="2.84492">
        <ele>1619.1700528638</ele>
        <time>2019-09-28T11:06:56Z</time>
      </trkpt>
      <trkpt lat="45.58838" lon="2.84494">
        <ele>1619.0551635402</ele>
        <time>2019-09-28T11:07:05Z</time>
      </trkpt>
      <trkpt lat="45.58831" lon="2.845">
        <ele>1618.9135619059</ele>
        <time>2019-09-28T11:07:15Z</time>
      </trkpt>
      <trkpt lat="45.58829" lon="2.845">
        <ele>1618.7606606638</ele>
        <time>2019-09-28T11:07:25Z</time>
      </trkpt>
      <trkpt lat="45.58825" lon="2.84502">
        <ele>1618.6321281716</ele>
        <time>2019-09-28T11:07:34Z</time>
      </trkpt>
      <trkpt lat="45.58821" lon="2.84504">
        <ele>1618.4869970478</ele>
        <time>2019-09-28T11:07:43Z</time>
      </trkpt>
      <trkpt lat="45.58815" lon="2.84506">
        <ele>1618.3500439523</ele>
        <time>2019-09-28T11:07:52Z</time>
      </trkpt>
      <trkpt lat="45.58813" lon="2.84506">
        <ele>1618.2029038359</ele>
        <time>2019-09-28T11:08:02Z</time>
      </trkpt>
      <trkpt lat="45.58804" lon="2.84509">
        <ele>1618.0531382163</ele>
        <time>2019-09-28T11:08:11Z</time>
      </trkpt>
      <trkpt lat="45.58799" lon="2.84504">
        <ele>1617.8762674698</ele>
        <time>2019-09-28T11:08:21Z</time>
      </trkpt>
      <trkpt lat="45.58791" lon="2.84502">
        <ele>1617.6582054097</ele>
        <time>2019-09-28T11:08:31Z</time>
      </trkpt>
      <trkpt lat="45.58783" lon="2.84505">
        <ele>1617.4028494378</ele>
        <time>2019-09-28T11:08:40Z</time>
      </trkpt>
      <trkpt lat="45.58772" lon="2.84509">
        <ele>1617.1154803957</ele>
        <time>2019-09-28T11:08:50Z</time>
      </trkpt>
      <trkpt lat="45.58761" lon="2.84509">
        <ele>1616.8267554424</ele>
        <time>2019-09-28T11:08:59Z</time>
      </trkpt>
      <trkpt lat="45.5875" lon="2.84508">
        <ele>1616.4822534953</ele>
        <time>2019-09-28T11:09:09Z</time>
      </trkpt>
      <trkpt lat="45.5874" lon="2.84509">
        <ele>1616.1564318394</ele>
        <time>2019-09-28T11:09:18Z</time>
      </trkpt>
      <trkpt lat="45.58735" lon="2.84511">
        <ele>1615.8233113481</ele>
        <time>2019-09-28T11:09:27Z</time>
      </trkpt>
      <trkpt lat="45.58734" lon="2.84511">
        <ele>1615.5383874953</ele>
        <time>2019-09-28T11:10:23Z</time>
      </trkpt>
      <trkpt lat="45.58733" lon="2.84512">
        <ele>1614.7364113807</ele>
        <time>2019-09-28T11:11:56Z</time>
      </trkpt>
      <trkpt lat="45.58736" lon="2.84516">
        <ele>1614.1738582385</ele>
        <time>2019-09-28T11:12:06Z</time>
      </trkpt>
      <trkpt lat="45.58735" lon="2.84516">
        <ele>1613.8752159562</ele>
        <time>2019-09-28T11:12:45Z</time>
      </trkpt>
      <trkpt lat="45.58734" lon="2.84517">
        <ele>1613.2601771521</ele>
        <time>2019-09-28T11:13:30Z</time>
      </trkpt>
      <trkpt lat="45.58728" lon="2.84518">
        <ele>1612.5208248356</ele>
        <time>2019-09-28T11:13:39Z</time>
      </trkpt>
      <trkpt lat="45.5872" lon="2.84519">
        <ele>1611.8442145323</ele>
        <time>2019-09-28T11:13:48Z</time>
      </trkpt>
      <trkpt lat="45.58708" lon="2.84518">
        <ele>1611.1438036551</ele>
        <time>2019-09-28T11:13:58Z</time>
      </trkpt>
      <trkpt lat="45.58698" lon="2.84515">
        <ele>1610.5549495696</ele>
        <time>2019-09-28T11:14:07Z</time>
      </trkpt>
      <trkpt lat="45.58691" lon="2.84517">
        <ele>1609.9652495857</ele>
        <time>2019-09-28T11:14:17Z</time>
      </trkpt>
      <trkpt lat="45.58684" lon="2.84518">
        <ele>1609.4797783602</ele>
        <time>2019-09-28T11:14:26Z</time>
      </trkpt>
      <trkpt lat="45.58678" lon="2.84523">
        <ele>1609.0343544596</ele>
        <time>2019-09-28T11:14:35Z</time>
      </trkpt>
      <trkpt lat="45.58674" lon="2.84524">
        <ele>1608.6895959784</ele>
        <time>2019-09-28T11:14:44Z</time>
      </trkpt>
      <trkpt lat="45.58665" lon="2.84521">
        <ele>1608.2832264356</ele>
        <time>2019-09-28T11:14:53Z</time>
      </trkpt>
      <trkpt lat="45.58656" lon="2.84515">
        <ele>1607.8643993197</ele>
        <time>2019-09-28T11:15:03Z</time>
      </trkpt>
      <trkpt lat="45.58648" lon="2.84511">
        <ele>1607.4620785848</ele>
        <time>2019-09-28T11:15:12Z</time>
      </trkpt>
      <trkpt lat="45.58639" lon="2.84507">
        <ele>1607.0460174447</ele>
        <time>2019-09-28T11:15:21Z</time>
      </trkpt>
      <trkpt lat="45.58634" lon="2.84505">
        <ele>1606.6274894117</ele>
        <time>2019-09-28T11:15:30Z</time>
      </trkpt>
      <trkpt lat="45.58626" lon="2.84503">
        <ele>1606.2158329722</ele>
        <time>2019-09-28T11:15:39Z</time>
      </trkpt>
      <trkpt lat="45.58618" lon="2.84501">
        <ele>1605.8147088817</ele>
        <time>2019-09-28T11:15:48Z</time>
      </trkpt>
      <trkpt lat="45.58609" lon="2.84496">
        <ele>1605.4240434866</ele>
        <time>2019-09-28T11:15:57Z</time>
      </trkpt>
      <trkpt lat="45.58601" lon="2.84492">
        <ele>1605.0305657503</ele>
        <time>2019-09-28T11:16:07Z</time>
      </trkpt>
      <trkpt lat="45.58595" lon="2.84491">
        <ele>1604.710708118</ele>
        <time>2019-09-28T11:16:16Z</time>
      </trkpt>
      <trkpt lat="45.58588" lon="2.84491">
        <ele>1604.4242040756</ele>
        <time>2019-09-28T11:16:25Z</time>
      </trkpt>
      <trkpt lat="45.58579" lon="2.84491">
        <ele>1604.1254279218</ele>
        <time>2019-09-28T11:16:35Z</time>
      </trkpt>
      <trkpt lat="45.58572" lon="2.84489">
        <ele>1603.8884856967</ele>
        <time>2019-09-28T11:16:44Z</time>
      </trkpt>
      <trkpt lat="45.58568" lon="2.84491">
        <ele>1603.681595575</ele>
        <time>2019-09-28T11:16:53Z</time>
      </trkpt>
      <trkpt lat="45.58561" lon="2.84489">
        <ele>1603.5166439925</ele>
        <time>2019-09-28T11:17:02Z</time>
      </trkpt>
      <trkpt lat="45.58556" lon="2.84488">
        <ele>1603.3775504683</ele>
        <time>2019-09-28T11:17:11Z</time>
      </trkpt>
      <trkpt lat="45.58549" lon="2.84486">
        <ele>1603.2516991505</ele>
        <time>2019-09-28T11:17:20Z</time>
      </trkpt>
      <trkpt lat="45.58541" lon="2.84481">
        <ele>1603.1877033796</ele>
        <time>2019-09-28T11:17:29Z</time>
      </trkpt>
      <trkpt lat="45.58539" lon="2.84479">
        <ele>1603.1384747622</ele>
        <time>2019-09-28T11:17:38Z</time>
      </trkpt>
      <trkpt lat="45.58538" lon="2.8448">
        <ele>1603.1111891179</ele>
        <time>2019-09-28T11:17:47Z</time>
      </trkpt>
      <trkpt lat="45.58534" lon="2.84481">
        <ele>1603.1103488781</ele>
        <time>2019-09-28T11:17:56Z</time>
      </trkpt>
      <trkpt lat="45.58533" lon="2.84481">
        <ele>1603.1320839638</ele>
        <time>2019-09-28T11:18:06Z</time>
      </trkpt>
      <trkpt lat="45.58532" lon="2.84482">
        <ele>1603.1653720465</ele>
        <time>2019-09-28T11:18:22Z</time>
      </trkpt>
      <trkpt lat="45.58534" lon="2.84487">
        <ele>1603.2276997979</ele>
        <time>2019-09-28T11:18:32Z</time>
      </trkpt>
      <trkpt lat="45.58541" lon="2.84496">
        <ele>1603.2554203557</ele>
        <time>2019-09-28T11:18:42Z</time>
      </trkpt>
      <trkpt lat="45.58545" lon="2.845">
        <ele>1603.2733798734</ele>
        <time>2019-09-28T11:18:52Z</time>
      </trkpt>
      <trkpt lat="45.58549" lon="2.84509">
        <ele>1603.3053684643</ele>
        <time>2019-09-28T11:19:01Z</time>
      </trkpt>
      <trkpt lat="45.58551" lon="2.84515">
        <ele>1603.3632504799</ele>
        <time>2019-09-28T11:19:10Z</time>
      </trkpt>
      <trkpt lat="45.58551" lon="2.84523">
        <ele>1603.5052307259</ele>
        <time>2019-09-28T11:19:20Z</time>
      </trkpt>
      <trkpt lat="45.58553" lon="2.84528">
        <ele>1603.6302701143</ele>
        <time>2019-09-28T11:19:29Z</time>
      </trkpt>
      <trkpt lat="45.58547" lon="2.8453">
        <ele>1603.8101061774</ele>
        <time>2019-09-28T11:19:39Z</time>
      </trkpt>
      <trkpt lat="45.58542" lon="2.84528">
        <ele>1603.9770649203</ele>
        <time>2019-09-28T11:19:48Z</time>
      </trkpt>
      <trkpt lat="45.58539" lon="2.84527">
        <ele>1604.1276923645</ele>
        <time>2019-09-28T11:19:57Z</time>
      </trkpt>
      <trkpt lat="45.58533" lon="2.84527">
        <ele>1604.2711805325</ele>
        <time>2019-09-28T11:20:07Z</time>
      </trkpt>
      <trkpt lat="45.5853" lon="2.84525">
        <ele>1604.3951104137</ele>
        <time>2019-09-28T11:20:16Z</time>
      </trkpt>
      <trkpt lat="45.58529" lon="2.84528">
        <ele>1604.5771798887</ele>
        <time>2019-09-28T11:20:25Z</time>
      </trkpt>
      <trkpt lat="45.58528" lon="2.84531">
        <ele>1604.7823085143</ele>
        <time>2019-09-28T11:20:35Z</time>
      </trkpt>
      <trkpt lat="45.5853" lon="2.84537">
        <ele>1604.9760104628</ele>
        <time>2019-09-28T11:20:44Z</time>
      </trkpt>
      <trkpt lat="45.5853" lon="2.84545">
        <ele>1605.1373946416</ele>
        <time>2019-09-28T11:20:54Z</time>
      </trkpt>
      <trkpt lat="45.5853" lon="2.8455">
        <ele>1605.290762809</ele>
        <time>2019-09-28T11:21:03Z</time>
      </trkpt>
      <trkpt lat="45.58532" lon="2.84559">
        <ele>1605.577324146</ele>
        <time>2019-09-28T11:21:12Z</time>
      </trkpt>
      <trkpt lat="45.58539" lon="2.84566">
        <ele>1605.9006827403</ele>
        <time>2019-09-28T11:21:22Z</time>
      </trkpt>
      <trkpt lat="45.5854" lon="2.84576">
        <ele>1606.2248331886</ele>
        <time>2019-09-28T11:21:31Z</time>
      </trkpt>
      <trkpt lat="45.58534" lon="2.84584">
        <ele>1606.5715153874</ele>
        <time>2019-09-28T11:21:40Z</time>
      </trkpt>
      <trkpt lat="45.58532" lon="2.84583">
        <ele>1606.9418509006</ele>
        <time>2019-09-28T11:21:50Z</time>
      </trkpt>
      <trkpt lat="45.58528" lon="2.84579">
        <ele>1607.3601035589</ele>
        <time>2019-09-28T11:21:59Z</time>
      </trkpt>
      <trkpt lat="45.58522" lon="2.84576">
        <ele>1607.7689683935</ele>
        <time>2019-09-28T11:22:08Z</time>
      </trkpt>
      <trkpt lat="45.58517" lon="2.84573">
        <ele>1608.2286936886</ele>
        <time>2019-09-28T11:22:18Z</time>
      </trkpt>
      <trkpt lat="45.58512" lon="2.84572">
        <ele>1608.6282416072</ele>
        <time>2019-09-28T11:22:27Z</time>
      </trkpt>
      <trkpt lat="45.58507" lon="2.84572">
        <ele>1609.0205234655</ele>
        <time>2019-09-28T11:22:37Z</time>
      </trkpt>
      <trkpt lat="45.585" lon="2.84573">
        <ele>1609.4443933479</ele>
        <time>2019-09-28T11:22:46Z</time>
      </trkpt>
      <trkpt lat="45.58494" lon="2.84571">
        <ele>1609.9009201481</ele>
        <time>2019-09-28T11:22:55Z</time>
      </trkpt>
      <trkpt lat="45.58493" lon="2.84569">
        <ele>1610.1150777932</ele>
        <time>2019-09-28T11:23:05Z</time>
      </trkpt>
      <trkpt lat="45.58491" lon="2.84567">
        <ele>1610.3779995589</ele>
        <time>2019-09-28T11:23:14Z</time>
      </trkpt>
      <trkpt lat="45.58485" lon="2.84564">
        <ele>1611.0388706886</ele>
        <time>2019-09-28T11:23:23Z</time>
      </trkpt>
      <trkpt lat="45.58478" lon="2.84561">
        <ele>1611.7221226806</ele>
        <time>2019-09-28T11:23:33Z</time>
      </trkpt>
      <trkpt lat="45.58471" lon="2.84558">
        <ele>1612.2751606906</ele>
        <time>2019-09-28T11:23:42Z</time>
      </trkpt>
      <trkpt lat="45.58464" lon="2.84559">
        <ele>1612.6291302617</ele>
        <time>2019-09-28T11:23:51Z</time>
      </trkpt>
      <trkpt lat="45.58461" lon="2.8456">
        <ele>1612.686969403</ele>
        <time>2019-09-28T11:24:00Z</time>
      </trkpt>
      <trkpt lat="45.58459" lon="2.84559">
        <ele>1612.7598442262</ele>
        <time>2019-09-28T11:24:10Z</time>
      </trkpt>
      <trkpt lat="45.58458" lon="2.84558">
        <ele>1612.8276397646</ele>
        <time>2019-09-28T11:24:19Z</time>
      </trkpt>
      <trkpt lat="45.58457" lon="2.84558">
        <ele>1612.9284501813</ele>
        <time>2019-09-28T11:24:32Z</time>
      </trkpt>
      <trkpt lat="45.58456" lon="2.84558">
        <ele>1613.0273961289</ele>
        <time>2019-09-28T11:24:44Z</time>
      </trkpt>
      <trkpt lat="45.58456" lon="2.84558">
        <ele>1613.1897815104</ele>
        <time>2019-09-28T11:25:03Z</time>
      </trkpt>
      <trkpt lat="45.58455" lon="2.84558">
        <ele>1613.3368112392</ele>
        <time>2019-09-28T11:25:19Z</time>
      </trkpt>
      <trkpt lat="45.58454" lon="2.84557">
        <ele>1613.4609513634</ele>
        <time>2019-09-28T11:25:32Z</time>
      </trkpt>
      <trkpt lat="45.58453" lon="2.84557">
        <ele>1613.5991281884</ele>
        <time>2019-09-28T11:25:46Z</time>
      </trkpt>
      <trkpt lat="45.58452" lon="2.84557">
        <ele>1613.6925754048</ele>
        <time>2019-09-28T11:25:55Z</time>
      </trkpt>
      <trkpt lat="45.58451" lon="2.84557">
        <ele>1613.811424182</ele>
        <time>2019-09-28T11:26:06Z</time>
      </trkpt>
      <trkpt lat="45.5845" lon="2.84557">
        <ele>1613.9836549601</ele>
        <time>2019-09-28T11:26:22Z</time>
      </trkpt>
      <trkpt lat="45.58449" lon="2.84557">
        <ele>1614.0805167567</ele>
        <time>2019-09-28T11:26:31Z</time>
      </trkpt>
      <trkpt lat="45.58449" lon="2.84557">
        <ele>1614.1916028142</ele>
        <time>2019-09-28T11:26:41Z</time>
      </trkpt>
      <trkpt lat="45.58448" lon="2.84557">
        <ele>1614.3513156519</ele>
        <time>2019-09-28T11:26:55Z</time>
      </trkpt>
      <trkpt lat="45.58447" lon="2.84557">
        <ele>1614.4698345194</ele>
        <time>2019-09-28T11:27:05Z</time>
      </trkpt>
      <trkpt lat="45.58446" lon="2.84557">
        <ele>1614.8242022742</ele>
        <time>2019-09-28T11:27:34Z</time>
      </trkpt>
      <trkpt lat="45.58445" lon="2.84557">
        <ele>1614.9502750681</ele>
        <time>2019-09-28T11:27:44Z</time>
      </trkpt>
      <trkpt lat="45.58443" lon="2.84559">
        <ele>1615.1814193198</ele>
        <time>2019-09-28T11:27:53Z</time>
      </trkpt>
      <trkpt lat="45.58441" lon="2.8456">
        <ele>1615.4225647884</ele>
        <time>2019-09-28T11:28:03Z</time>
      </trkpt>
      <trkpt lat="45.58439" lon="2.84563">
        <ele>1615.9812134107</ele>
        <time>2019-09-28T11:28:13Z</time>
      </trkpt>
      <trkpt lat="45.58435" lon="2.84564">
        <ele>1616.7981855724</ele>
        <time>2019-09-28T11:28:22Z</time>
      </trkpt>
      <trkpt lat="45.58425" lon="2.84559">
        <ele>1617.6968091415</ele>
        <time>2019-09-28T11:28:31Z</time>
      </trkpt>
      <trkpt lat="45.58416" lon="2.84559">
        <ele>1618.564983861</ele>
        <time>2019-09-28T11:28:41Z</time>
      </trkpt>
      <trkpt lat="45.58412" lon="2.84555">
        <ele>1619.3258344022</ele>
        <time>2019-09-28T11:28:51Z</time>
      </trkpt>
      <trkpt lat="45.58403" lon="2.8456">
        <ele>1619.9338620002</ele>
        <time>2019-09-28T11:29:00Z</time>
      </trkpt>
      <trkpt lat="45.58396" lon="2.84562">
        <ele>1620.4778539406</ele>
        <time>2019-09-28T11:29:09Z</time>
      </trkpt>
      <trkpt lat="45.58382" lon="2.84567">
        <ele>1620.9596441964</ele>
        <time>2019-09-28T11:29:18Z</time>
      </trkpt>
      <trkpt lat="45.58376" lon="2.8457">
        <ele>1621.4440515219</ele>
        <time>2019-09-28T11:29:28Z</time>
      </trkpt>
      <trkpt lat="45.5837" lon="2.84569">
        <ele>1621.8423058847</ele>
        <time>2019-09-28T11:29:37Z</time>
      </trkpt>
      <trkpt lat="45.58364" lon="2.84578">
        <ele>1622.2279374897</ele>
        <time>2019-09-28T11:29:46Z</time>
      </trkpt>
      <trkpt lat="45.58354" lon="2.84582">
        <ele>1622.5961753333</ele>
        <time>2019-09-28T11:29:56Z</time>
      </trkpt>
      <trkpt lat="45.58343" lon="2.84577">
        <ele>1623.0122244225</ele>
        <time>2019-09-28T11:30:05Z</time>
      </trkpt>
      <trkpt lat="45.58331" lon="2.84571">
        <ele>1623.4118553366</ele>
        <time>2019-09-28T11:30:14Z</time>
      </trkpt>
      <trkpt lat="45.58323" lon="2.84565">
        <ele>1623.7768121502</ele>
        <time>2019-09-28T11:30:23Z</time>
      </trkpt>
      <trkpt lat="45.58316" lon="2.84557">
        <ele>1624.1141521614</ele>
        <time>2019-09-28T11:30:32Z</time>
      </trkpt>
      <trkpt lat="45.58308" lon="2.84552">
        <ele>1624.4212475911</ele>
        <time>2019-09-28T11:30:41Z</time>
      </trkpt>
      <trkpt lat="45.58304" lon="2.84546">
        <ele>1624.7205999976</ele>
        <time>2019-09-28T11:30:50Z</time>
      </trkpt>
      <trkpt lat="45.58298" lon="2.84541">
        <ele>1625.0520032797</ele>
        <time>2019-09-28T11:31:00Z</time>
      </trkpt>
      <trkpt lat="45.58292" lon="2.84535">
        <ele>1625.3610148309</ele>
        <time>2019-09-28T11:31:09Z</time>
      </trkpt>
      <trkpt lat="45.58287" lon="2.84532">
        <ele>1625.709714191</ele>
        <time>2019-09-28T11:31:19Z</time>
      </trkpt>
      <trkpt lat="45.58288" lon="2.84521">
        <ele>1626.0252448399</ele>
        <time>2019-09-28T11:31:28Z</time>
      </trkpt>
      <trkpt lat="45.5828" lon="2.84521">
        <ele>1626.3152967842</ele>
        <time>2019-09-28T11:31:37Z</time>
      </trkpt>
      <trkpt lat="45.58272" lon="2.84516">
        <ele>1626.6862578009</ele>
        <time>2019-09-28T11:31:46Z</time>
      </trkpt>
      <trkpt lat="45.58261" lon="2.84502">
        <ele>1627.117982042</ele>
        <time>2019-09-28T11:31:56Z</time>
      </trkpt>
      <trkpt lat="45.5826" lon="2.84504">
        <ele>1627.5428152757</ele>
        <time>2019-09-28T11:32:05Z</time>
      </trkpt>
      <trkpt lat="45.58254" lon="2.84502">
        <ele>1628.0490981046</ele>
        <time>2019-09-28T11:32:15Z</time>
      </trkpt>
      <trkpt lat="45.58248" lon="2.84498">
        <ele>1628.5086320043</ele>
        <time>2019-09-28T11:32:24Z</time>
      </trkpt>
      <trkpt lat="45.58242" lon="2.84493">
        <ele>1629.164922633</ele>
        <time>2019-09-28T11:32:34Z</time>
      </trkpt>
      <trkpt lat="45.58238" lon="2.84481">
        <ele>1629.7752063842</ele>
        <time>2019-09-28T11:32:43Z</time>
      </trkpt>
      <trkpt lat="45.58235" lon="2.84475">
        <ele>1629.9135799865</ele>
        <time>2019-09-28T11:32:52Z</time>
      </trkpt>
      <trkpt lat="45.58232" lon="2.84473">
        <ele>1629.9878235218</ele>
        <time>2019-09-28T11:33:01Z</time>
      </trkpt>
      <trkpt lat="45.58231" lon="2.84474">
        <ele>1630.0940557795</ele>
        <time>2019-09-28T11:33:12Z</time>
      </trkpt>
      <trkpt lat="45.58233" lon="2.8448">
        <ele>1630.9353784477</ele>
        <time>2019-09-28T11:33:21Z</time>
      </trkpt>
      <trkpt lat="45.58228" lon="2.84474">
        <ele>1631.879747836</ele>
        <time>2019-09-28T11:33:31Z</time>
      </trkpt>
      <trkpt lat="45.58224" lon="2.84466">
        <ele>1632.6826419628</ele>
        <time>2019-09-28T11:33:40Z</time>
      </trkpt>
      <trkpt lat="45.58217" lon="2.8446">
        <ele>1633.4456771512</ele>
        <time>2019-09-28T11:33:49Z</time>
      </trkpt>
      <trkpt lat="45.58216" lon="2.84449">
        <ele>1634.1515416766</ele>
        <time>2019-09-28T11:33:58Z</time>
      </trkpt>
      <trkpt lat="45.58211" lon="2.84445">
        <ele>1634.8466226191</ele>
        <time>2019-09-28T11:34:08Z</time>
      </trkpt>
      <trkpt lat="45.58208" lon="2.84441">
        <ele>1635.4717714432</ele>
        <time>2019-09-28T11:34:18Z</time>
      </trkpt>
      <trkpt lat="45.58205" lon="2.84438">
        <ele>1636.021718228</ele>
        <time>2019-09-28T11:34:27Z</time>
      </trkpt>
      <trkpt lat="45.58196" lon="2.84436">
        <ele>1636.5873533366</ele>
        <time>2019-09-28T11:34:37Z</time>
      </trkpt>
      <trkpt lat="45.58185" lon="2.84433">
        <ele>1637.1084129089</ele>
        <time>2019-09-28T11:34:47Z</time>
      </trkpt>
      <trkpt lat="45.58177" lon="2.84428">
        <ele>1637.5482036748</ele>
        <time>2019-09-28T11:34:56Z</time>
      </trkpt>
      <trkpt lat="45.58166" lon="2.84421">
        <ele>1638.0010251647</ele>
        <time>2019-09-28T11:35:06Z</time>
      </trkpt>
      <trkpt lat="45.58156" lon="2.84413">
        <ele>1638.3904022097</ele>
        <time>2019-09-28T11:35:15Z</time>
      </trkpt>
      <trkpt lat="45.5815" lon="2.8441">
        <ele>1638.7829702262</ele>
        <time>2019-09-28T11:35:25Z</time>
      </trkpt>
      <trkpt lat="45.58143" lon="2.84405">
        <ele>1639.1410872902</ele>
        <time>2019-09-28T11:35:34Z</time>
      </trkpt>
      <trkpt lat="45.58133" lon="2.84396">
        <ele>1639.5833324081</ele>
        <time>2019-09-28T11:35:43Z</time>
      </trkpt>
      <trkpt lat="45.58127" lon="2.84385">
        <ele>1640.0356921895</ele>
        <time>2019-09-28T11:35:52Z</time>
      </trkpt>
      <trkpt lat="45.5812" lon="2.84371">
        <ele>1640.5060760973</ele>
        <time>2019-09-28T11:36:02Z</time>
      </trkpt>
      <trkpt lat="45.58113" lon="2.84358">
        <ele>1640.8784239263</ele>
        <time>2019-09-28T11:36:11Z</time>
      </trkpt>
      <trkpt lat="45.5811" lon="2.84347">
        <ele>1641.2344535454</ele>
        <time>2019-09-28T11:36:21Z</time>
      </trkpt>
      <trkpt lat="45.58105" lon="2.84336">
        <ele>1641.5570407792</ele>
        <time>2019-09-28T11:36:30Z</time>
      </trkpt>
      <trkpt lat="45.58097" lon="2.84325">
        <ele>1641.8524846713</ele>
        <time>2019-09-28T11:36:39Z</time>
      </trkpt>
      <trkpt lat="45.5809" lon="2.84308">
        <ele>1642.135373374</ele>
        <time>2019-09-28T11:36:49Z</time>
      </trkpt>
      <trkpt lat="45.58085" lon="2.84292">
        <ele>1642.3412819498</ele>
        <time>2019-09-28T11:36:58Z</time>
      </trkpt>
      <trkpt lat="45.58084" lon="2.84289">
        <ele>1642.4180135545</ele>
        <time>2019-09-28T11:37:07Z</time>
      </trkpt>
      <trkpt lat="45.58084" lon="2.84287">
        <ele>1642.5306176393</ele>
        <time>2019-09-28T11:37:31Z</time>
      </trkpt>
      <trkpt lat="45.58084" lon="2.84287">
        <ele>1642.6554682164</ele>
        <time>2019-09-28T11:37:49Z</time>
      </trkpt>
      <trkpt lat="45.58084" lon="2.84284">
        <ele>1642.6716517068</ele>
        <time>2019-09-28T11:37:58Z</time>
      </trkpt>
      <trkpt lat="45.58085" lon="2.8428">
        <ele>1642.689033759</ele>
        <time>2019-09-28T11:38:07Z</time>
      </trkpt>
      <trkpt lat="45.58088" lon="2.84277">
        <ele>1642.7569701054</ele>
        <time>2019-09-28T11:38:17Z</time>
      </trkpt>
      <trkpt lat="45.58088" lon="2.84278">
        <ele>1642.7883186675</ele>
        <time>2019-09-28T11:38:26Z</time>
      </trkpt>
      <trkpt lat="45.58088" lon="2.8428">
        <ele>1642.8336170809</ele>
        <time>2019-09-28T11:38:35Z</time>
      </trkpt>
      <trkpt lat="45.58089" lon="2.84281">
        <ele>1642.9153956575</ele>
        <time>2019-09-28T11:38:45Z</time>
      </trkpt>
      <trkpt lat="45.58089" lon="2.84282">
        <ele>1642.9508604565</ele>
        <time>2019-09-28T11:38:56Z</time>
      </trkpt>
      <trkpt lat="45.5809" lon="2.84283">
        <ele>1643.0602943395</ele>
        <time>2019-09-28T11:39:05Z</time>
      </trkpt>
      <trkpt lat="45.58087" lon="2.84284">
        <ele>1643.2216791278</ele>
        <time>2019-09-28T11:39:14Z</time>
      </trkpt>
      <trkpt lat="45.58087" lon="2.84285">
        <ele>1643.2650677478</ele>
        <time>2019-09-28T11:39:24Z</time>
      </trkpt>
      <trkpt lat="45.58085" lon="2.84286">
        <ele>1643.2882607197</ele>
        <time>2019-09-28T11:39:34Z</time>
      </trkpt>
      <trkpt lat="45.58085" lon="2.84285">
        <ele>1643.3376493238</ele>
        <time>2019-09-28T11:39:46Z</time>
      </trkpt>
      <trkpt lat="45.58082" lon="2.84287">
        <ele>1643.437453833</ele>
        <time>2019-09-28T11:39:56Z</time>
      </trkpt>
      <trkpt lat="45.58082" lon="2.84288">
        <ele>1643.5116272003</ele>
        <time>2019-09-28T11:40:09Z</time>
      </trkpt>
      <trkpt lat="45.58082" lon="2.84289">
        <ele>1643.5419493568</ele>
        <time>2019-09-28T11:40:18Z</time>
      </trkpt>
      <trkpt lat="45.58082" lon="2.84288">
        <ele>1643.6322992752</ele>
        <time>2019-09-28T11:40:29Z</time>
      </trkpt>
      <trkpt lat="45.5808" lon="2.84276">
        <ele>1643.680477575</ele>
        <time>2019-09-28T11:40:38Z</time>
      </trkpt>
      <trkpt lat="45.58078" lon="2.84265">
        <ele>1643.6914969216</ele>
        <time>2019-09-28T11:40:47Z</time>
      </trkpt>
      <trkpt lat="45.58077" lon="2.84254">
        <ele>1643.7134250755</ele>
        <time>2019-09-28T11:40:56Z</time>
      </trkpt>
      <trkpt lat="45.58072" lon="2.8424">
        <ele>1643.7651764285</ele>
        <time>2019-09-28T11:41:06Z</time>
      </trkpt>
      <trkpt lat="45.58069" lon="2.84223">
        <ele>1643.8270360455</ele>
        <time>2019-09-28T11:41:16Z</time>
      </trkpt>
      <trkpt lat="45.58065" lon="2.84209">
        <ele>1643.8887822697</ele>
        <time>2019-09-28T11:41:25Z</time>
      </trkpt>
      <trkpt lat="45.5806" lon="2.84195">
        <ele>1643.9605507152</ele>
        <time>2019-09-28T11:41:35Z</time>
      </trkpt>
      <trkpt lat="45.58055" lon="2.84182">
        <ele>1644.0228783767</ele>
        <time>2019-09-28T11:41:44Z</time>
      </trkpt>
      <trkpt lat="45.58049" lon="2.84172">
        <ele>1644.0893973624</ele>
        <time>2019-09-28T11:41:53Z</time>
      </trkpt>
      <trkpt lat="45.58042" lon="2.84163">
        <ele>1644.184733207</ele>
        <time>2019-09-28T11:42:02Z</time>
      </trkpt>
      <trkpt lat="45.58037" lon="2.84157">
        <ele>1644.3063551596</ele>
        <time>2019-09-28T11:42:11Z</time>
      </trkpt>
      <trkpt lat="45.58029" lon="2.84147">
        <ele>1644.4539881564</ele>
        <time>2019-09-28T11:42:20Z</time>
      </trkpt>
      <trkpt lat="45.5802" lon="2.84137">
        <ele>1644.5992594333</ele>
        <time>2019-09-28T11:42:29Z</time>
      </trkpt>
      <trkpt lat="45.58015" lon="2.84129">
        <ele>1644.7591102232</ele>
        <time>2019-09-28T11:42:39Z</time>
      </trkpt>
      <trkpt lat="45.5801" lon="2.84123">
        <ele>1644.9074894645</ele>
        <time>2019-09-28T11:42:48Z</time>
      </trkpt>
      <trkpt lat="45.58002" lon="2.84118">
        <ele>1645.1096841325</ele>
        <time>2019-09-28T11:42:58Z</time>
      </trkpt>
      <trkpt lat="45.57992" lon="2.84115">
        <ele>1645.3061373539</ele>
        <time>2019-09-28T11:43:07Z</time>
      </trkpt>
      <trkpt lat="45.57984" lon="2.8411">
        <ele>1645.5144354729</ele>
        <time>2019-09-28T11:43:16Z</time>
      </trkpt>
      <trkpt lat="45.57974" lon="2.84107">
        <ele>1645.7433776554</ele>
        <time>2019-09-28T11:43:26Z</time>
      </trkpt>
      <trkpt lat="45.57963" lon="2.84102">
        <ele>1646.0131325536</ele>
        <time>2019-09-28T11:43:36Z</time>
      </trkpt>
      <trkpt lat="45.57957" lon="2.841">
        <ele>1646.2383547263</ele>
        <time>2019-09-28T11:43:45Z</time>
      </trkpt>
      <trkpt lat="45.57946" lon="2.84095">
        <ele>1646.4520913119</ele>
        <time>2019-09-28T11:43:54Z</time>
      </trkpt>
      <trkpt lat="45.57942" lon="2.84088">
        <ele>1646.689561298</ele>
        <time>2019-09-28T11:44:04Z</time>
      </trkpt>
      <trkpt lat="45.57938" lon="2.84085">
        <ele>1646.896399674</ele>
        <time>2019-09-28T11:44:13Z</time>
      </trkpt>
      <trkpt lat="45.57926" lon="2.84078">
        <ele>1647.1183751634</ele>
        <time>2019-09-28T11:44:23Z</time>
      </trkpt>
      <trkpt lat="45.57918" lon="2.84072">
        <ele>1647.3185124393</ele>
        <time>2019-09-28T11:44:32Z</time>
      </trkpt>
      <trkpt lat="45.57918" lon="2.84075">
        <ele>1647.4179207965</ele>
        <time>2019-09-28T11:44:42Z</time>
      </trkpt>
      <trkpt lat="45.57918" lon="2.84076">
        <ele>1647.5957012064</ele>
        <time>2019-09-28T11:44:51Z</time>
      </trkpt>
      <trkpt lat="45.57912" lon="2.84071">
        <ele>1647.7930958218</ele>
        <time>2019-09-28T11:45:00Z</time>
      </trkpt>
      <trkpt lat="45.57904" lon="2.84061">
        <ele>1648.0154535723</ele>
        <time>2019-09-28T11:45:10Z</time>
      </trkpt>
      <trkpt lat="45.57894" lon="2.84049">
        <ele>1648.2317181864</ele>
        <time>2019-09-28T11:45:19Z</time>
      </trkpt>
      <trkpt lat="45.57887" lon="2.84042">
        <ele>1648.4731539242</ele>
        <time>2019-09-28T11:45:28Z</time>
      </trkpt>
      <trkpt lat="45.57879" lon="2.84038">
        <ele>1648.7607520192</ele>
        <time>2019-09-28T11:45:37Z</time>
      </trkpt>
      <trkpt lat="45.57874" lon="2.84032">
        <ele>1649.1310545974</ele>
        <time>2019-09-28T11:45:47Z</time>
      </trkpt>
      <trkpt lat="45.57866" lon="2.84024">
        <ele>1649.5012518051</ele>
        <time>2019-09-28T11:45:56Z</time>
      </trkpt>
      <trkpt lat="45.57868" lon="2.8402">
        <ele>1649.7533238645</ele>
        <time>2019-09-28T11:46:06Z</time>
      </trkpt>
      <trkpt lat="45.57863" lon="2.84013">
        <ele>1650.0920863921</ele>
        <time>2019-09-28T11:46:15Z</time>
      </trkpt>
      <trkpt lat="45.57862" lon="2.84012">
        <ele>1650.1866577215</ele>
        <time>2019-09-28T11:46:25Z</time>
      </trkpt>
      <trkpt lat="45.57863" lon="2.84011">
        <ele>1650.298712807</ele>
        <time>2019-09-28T11:46:34Z</time>
      </trkpt>
      <trkpt lat="45.57864" lon="2.8401">
        <ele>1650.4462579549</ele>
        <time>2019-09-28T11:46:44Z</time>
      </trkpt>
      <trkpt lat="45.57866" lon="2.84007">
        <ele>1650.5995186741</ele>
        <time>2019-09-28T11:46:53Z</time>
      </trkpt>
      <trkpt lat="45.57867" lon="2.84006">
        <ele>1650.7689995439</ele>
        <time>2019-09-28T11:47:02Z</time>
      </trkpt>
      <trkpt lat="45.57868" lon="2.84006">
        <ele>1651.1729958172</ele>
        <time>2019-09-28T11:47:21Z</time>
      </trkpt>
      <trkpt lat="45.57868" lon="2.84007">
        <ele>1653.3396998428</ele>
        <time>2019-09-28T11:47:59Z</time>
      </trkpt>
      <trkpt lat="45.57865" lon="2.84009">
        <ele>1654.5110560942</ele>
        <time>2019-09-28T11:48:08Z</time>
      </trkpt>
      <trkpt lat="45.57863" lon="2.84009">
        <ele>1655.6544956627</ele>
        <time>2019-09-28T11:48:18Z</time>
      </trkpt>
      <trkpt lat="45.57865" lon="2.8401">
        <ele>1656.2228964504</ele>
        <time>2019-09-28T11:48:27Z</time>
      </trkpt>
      <trkpt lat="45.57865" lon="2.84012">
        <ele>1656.6194159822</ele>
        <time>2019-09-28T11:48:36Z</time>
      </trkpt>
      <trkpt lat="45.57864" lon="2.84012">
        <ele>1658.2736050746</ele>
        <time>2019-09-28T11:48:58Z</time>
      </trkpt>
      <trkpt lat="45.57865" lon="2.84015">
        <ele>1659.1987786268</ele>
        <time>2019-09-28T11:49:07Z</time>
      </trkpt>
      <trkpt lat="45.57865" lon="2.84014">
        <ele>1660.2263823767</ele>
        <time>2019-09-28T11:49:23Z</time>
      </trkpt>
      <trkpt lat="45.57858" lon="2.84006">
        <ele>1661.8662023553</ele>
        <time>2019-09-28T11:49:33Z</time>
      </trkpt>
      <trkpt lat="45.57849" lon="2.83996">
        <ele>1663.4350498281</ele>
        <time>2019-09-28T11:49:43Z</time>
      </trkpt>
      <trkpt lat="45.57835" lon="2.83993">
        <ele>1664.6429969264</ele>
        <time>2019-09-28T11:49:52Z</time>
      </trkpt>
      <trkpt lat="45.57833" lon="2.83989">
        <ele>1665.7928943067</ele>
        <time>2019-09-28T11:50:02Z</time>
      </trkpt>
      <trkpt lat="45.57831" lon="2.83984">
        <ele>1666.6738641224</ele>
        <time>2019-09-28T11:50:11Z</time>
      </trkpt>
      <trkpt lat="45.57825" lon="2.83975">
        <ele>1667.4468445714</ele>
        <time>2019-09-28T11:50:20Z</time>
      </trkpt>
      <trkpt lat="45.57815" lon="2.83976">
        <ele>1668.128593712</ele>
        <time>2019-09-28T11:50:29Z</time>
      </trkpt>
      <trkpt lat="45.57814" lon="2.83963">
        <ele>1668.796383001</ele>
        <time>2019-09-28T11:50:39Z</time>
      </trkpt>
      <trkpt lat="45.57823" lon="2.8396">
        <ele>1669.2590351548</ele>
        <time>2019-09-28T11:50:48Z</time>
      </trkpt>
      <trkpt lat="45.57815" lon="2.83972">
        <ele>1669.3933257384</ele>
        <time>2019-09-28T11:50:58Z</time>
      </trkpt>
      <trkpt lat="45.57814" lon="2.83971">
        <ele>1669.548660738</ele>
        <time>2019-09-28T11:51:08Z</time>
      </trkpt>
      <trkpt lat="45.57814" lon="2.8397">
        <ele>1669.7080776558</ele>
        <time>2019-09-28T11:51:17Z</time>
      </trkpt>
      <trkpt lat="45.57813" lon="2.83965">
        <ele>1670.5004433749</ele>
        <time>2019-09-28T11:51:26Z</time>
      </trkpt>
      <trkpt lat="45.57808" lon="2.83953">
        <ele>1671.2998973679</ele>
        <time>2019-09-28T11:51:36Z</time>
      </trkpt>
      <trkpt lat="45.57801" lon="2.83944">
        <ele>1672.0856428752</ele>
        <time>2019-09-28T11:51:46Z</time>
      </trkpt>
      <trkpt lat="45.57793" lon="2.83935">
        <ele>1672.7887359011</ele>
        <time>2019-09-28T11:51:55Z</time>
      </trkpt>
      <trkpt lat="45.57786" lon="2.83927">
        <ele>1673.4617559041</ele>
        <time>2019-09-28T11:52:04Z</time>
      </trkpt>
      <trkpt lat="45.57779" lon="2.83918">
        <ele>1674.1688393012</ele>
        <time>2019-09-28T11:52:14Z</time>
      </trkpt>
      <trkpt lat="45.57774" lon="2.83915">
        <ele>1674.7892852686</ele>
        <time>2019-09-28T11:52:23Z</time>
      </trkpt>
      <trkpt lat="45.57764" lon="2.83914">
        <ele>1675.4605190605</ele>
        <time>2019-09-28T11:52:33Z</time>
      </trkpt>
      <trkpt lat="45.57757" lon="2.83914">
        <ele>1676.0297337761</ele>
        <time>2019-09-28T11:52:42Z</time>
      </trkpt>
      <trkpt lat="45.57748" lon="2.83917">
        <ele>1676.5534396901</ele>
        <time>2019-09-28T11:52:51Z</time>
      </trkpt>
      <trkpt lat="45.57737" lon="2.83919">
        <ele>1677.0944652982</ele>
        <time>2019-09-28T11:53:01Z</time>
      </trkpt>
      <trkpt lat="45.57729" lon="2.83921">
        <ele>1677.6120396474</ele>
        <time>2019-09-28T11:53:11Z</time>
      </trkpt>
      <trkpt lat="45.57721" lon="2.83922">
        <ele>1678.0505395457</ele>
        <time>2019-09-28T11:53:20Z</time>
      </trkpt>
      <trkpt lat="45.57714" lon="2.83924">
        <ele>1678.4410922197</ele>
        <time>2019-09-28T11:53:29Z</time>
      </trkpt>
      <trkpt lat="45.57707" lon="2.83924">
        <ele>1678.7722968228</ele>
        <time>2019-09-28T11:53:38Z</time>
      </trkpt>
      <trkpt lat="45.57699" lon="2.83922">
        <ele>1679.0531038212</ele>
        <time>2019-09-28T11:53:47Z</time>
      </trkpt>
      <trkpt lat="45.5769" lon="2.83926">
        <ele>1679.3280207106</ele>
        <time>2019-09-28T11:53:57Z</time>
      </trkpt>
      <trkpt lat="45.57685" lon="2.83931">
        <ele>1679.5769898124</ele>
        <time>2019-09-28T11:54:07Z</time>
      </trkpt>
      <trkpt lat="45.57677" lon="2.83933">
        <ele>1679.7605619205</ele>
        <time>2019-09-28T11:54:16Z</time>
      </trkpt>
      <trkpt lat="45.5767" lon="2.83936">
        <ele>1679.8895368868</ele>
        <time>2019-09-28T11:54:25Z</time>
      </trkpt>
      <trkpt lat="45.57661" lon="2.83935">
        <ele>1679.9911231921</ele>
        <time>2019-09-28T11:54:35Z</time>
      </trkpt>
      <trkpt lat="45.5765" lon="2.8394">
        <ele>1680.0483931953</ele>
        <time>2019-09-28T11:54:44Z</time>
      </trkpt>
      <trkpt lat="45.57641" lon="2.83943">
        <ele>1680.0766152252</ele>
        <time>2019-09-28T11:54:53Z</time>
      </trkpt>
      <trkpt lat="45.57634" lon="2.83945">
        <ele>1680.0660417295</ele>
        <time>2019-09-28T11:55:03Z</time>
      </trkpt>
      <trkpt lat="45.57628" lon="2.83949">
        <ele>1680.0386081614</ele>
        <time>2019-09-28T11:55:13Z</time>
      </trkpt>
      <trkpt lat="45.57618" lon="2.83952">
        <ele>1680.0019199675</ele>
        <time>2019-09-28T11:55:22Z</time>
      </trkpt>
      <trkpt lat="45.57607" lon="2.83954">
        <ele>1679.9357885185</ele>
        <time>2019-09-28T11:55:32Z</time>
      </trkpt>
      <trkpt lat="45.57596" lon="2.83955">
        <ele>1679.8574294547</ele>
        <time>2019-09-28T11:55:42Z</time>
      </trkpt>
      <trkpt lat="45.57586" lon="2.83956">
        <ele>1679.779817729</ele>
        <time>2019-09-28T11:55:51Z</time>
      </trkpt>
      <trkpt lat="45.57576" lon="2.83958">
        <ele>1679.7004392721</ele>
        <time>2019-09-28T11:56:00Z</time>
      </trkpt>
      <trkpt lat="45.57566" lon="2.83961">
        <ele>1679.6209657304</ele>
        <time>2019-09-28T11:56:10Z</time>
      </trkpt>
      <trkpt lat="45.57556" lon="2.83962">
        <ele>1679.5527635431</ele>
        <time>2019-09-28T11:56:19Z</time>
      </trkpt>
      <trkpt lat="45.57545" lon="2.83964">
        <ele>1679.4974034042</ele>
        <time>2019-09-28T11:56:29Z</time>
      </trkpt>
      <trkpt lat="45.57538" lon="2.83966">
        <ele>1679.4571471855</ele>
        <time>2019-09-28T11:56:39Z</time>
      </trkpt>
      <trkpt lat="45.5753" lon="2.83964">
        <ele>1679.4208330377</ele>
        <time>2019-09-28T11:56:48Z</time>
      </trkpt>
      <trkpt lat="45.57522" lon="2.83963">
        <ele>1679.3816769996</ele>
        <time>2019-09-28T11:56:58Z</time>
      </trkpt>
      <trkpt lat="45.57512" lon="2.83964">
        <ele>1679.3485118121</ele>
        <time>2019-09-28T11:57:08Z</time>
      </trkpt>
      <trkpt lat="45.57505" lon="2.83968">
        <ele>1679.3253648804</ele>
        <time>2019-09-28T11:57:17Z</time>
      </trkpt>
      <trkpt lat="45.57497" lon="2.83972">
        <ele>1679.318433916</ele>
        <time>2019-09-28T11:57:26Z</time>
      </trkpt>
      <trkpt lat="45.5749" lon="2.83973">
        <ele>1679.3199098071</ele>
        <time>2019-09-28T11:57:36Z</time>
      </trkpt>
      <trkpt lat="45.57479" lon="2.83975">
        <ele>1679.3368233089</ele>
        <time>2019-09-28T11:57:46Z</time>
      </trkpt>
      <trkpt lat="45.57473" lon="2.83978">
        <ele>1679.3837131278</ele>
        <time>2019-09-28T11:57:55Z</time>
      </trkpt>
      <trkpt lat="45.57473" lon="2.83978">
        <ele>1679.4219309839</ele>
        <time>2019-09-28T11:58:05Z</time>
      </trkpt>
      <trkpt lat="45.57465" lon="2.83973">
        <ele>1679.4967387562</ele>
        <time>2019-09-28T11:58:15Z</time>
      </trkpt>
      <trkpt lat="45.57462" lon="2.83971">
        <ele>1679.5818632786</ele>
        <time>2019-09-28T11:58:25Z</time>
      </trkpt>
      <trkpt lat="45.57454" lon="2.8397">
        <ele>1679.6580379086</ele>
        <time>2019-09-28T11:58:34Z</time>
      </trkpt>
      <trkpt lat="45.5745" lon="2.83972">
        <ele>1679.7551538306</ele>
        <time>2019-09-28T11:58:44Z</time>
      </trkpt>
      <trkpt lat="45.57442" lon="2.83972">
        <ele>1679.839053877</ele>
        <time>2019-09-28T11:58:53Z</time>
      </trkpt>
      <trkpt lat="45.57434" lon="2.83968">
        <ele>1679.9252142529</ele>
        <time>2019-09-28T11:59:02Z</time>
      </trkpt>
      <trkpt lat="45.57431" lon="2.83965">
        <ele>1679.9553668995</ele>
        <time>2019-09-28T11:59:12Z</time>
      </trkpt>
      <trkpt lat="45.57429" lon="2.83964">
        <ele>1679.9763693577</ele>
        <time>2019-09-28T11:59:21Z</time>
      </trkpt>
      <trkpt lat="45.57428" lon="2.83963">
        <ele>1680.0341891227</ele>
        <time>2019-09-28T11:59:31Z</time>
      </trkpt>
      <trkpt lat="45.5743" lon="2.83967">
        <ele>1680.1670978072</ele>
        <time>2019-09-28T11:59:41Z</time>
      </trkpt>
      <trkpt lat="45.57431" lon="2.83969">
        <ele>1680.2365676444</ele>
        <time>2019-09-28T11:59:50Z</time>
      </trkpt>
      <trkpt lat="45.57432" lon="2.8397">
        <ele>1680.3292074535</ele>
        <time>2019-09-28T12:00:03Z</time>
      </trkpt>
      <trkpt lat="45.5743" lon="2.83973">
        <ele>1680.7329556987</ele>
        <time>2019-09-28T12:00:12Z</time>
      </trkpt>
      <trkpt lat="45.57423" lon="2.83977">
        <ele>1681.1409593646</ele>
        <time>2019-09-28T12:00:22Z</time>
      </trkpt>
      <trkpt lat="45.57417" lon="2.83978">
        <ele>1681.4813935556</ele>
        <time>2019-09-28T12:00:31Z</time>
      </trkpt>
      <trkpt lat="45.5741" lon="2.83978">
        <ele>1681.7916893751</ele>
        <time>2019-09-28T12:00:40Z</time>
      </trkpt>
      <trkpt lat="45.57403" lon="2.83982">
        <ele>1682.1717690359</ele>
        <time>2019-09-28T12:00:50Z</time>
      </trkpt>
      <trkpt lat="45.57399" lon="2.83983">
        <ele>1682.5349991515</ele>
        <time>2019-09-28T12:00:59Z</time>
      </trkpt>
      <trkpt lat="45.57395" lon="2.83985">
        <ele>1682.8836079142</ele>
        <time>2019-09-28T12:01:08Z</time>
      </trkpt>
      <trkpt lat="45.57393" lon="2.83984">
        <ele>1682.9933585543</ele>
        <time>2019-09-28T12:01:18Z</time>
      </trkpt>
      <trkpt lat="45.57391" lon="2.83982">
        <ele>1683.0906843735</ele>
        <time>2019-09-28T12:01:27Z</time>
      </trkpt>
      <trkpt lat="45.5739" lon="2.83982">
        <ele>1683.259571771</ele>
        <time>2019-09-28T12:01:41Z</time>
      </trkpt>
      <trkpt lat="45.57388" lon="2.8398">
        <ele>1683.3355446022</ele>
        <time>2019-09-28T12:01:50Z</time>
      </trkpt>
      <trkpt lat="45.57385" lon="2.83977">
        <ele>1683.5049347299</ele>
        <time>2019-09-28T12:01:59Z</time>
      </trkpt>
      <trkpt lat="45.57384" lon="2.83975">
        <ele>1683.6014783079</ele>
        <time>2019-09-28T12:02:08Z</time>
      </trkpt>
      <trkpt lat="45.57383" lon="2.83974">
        <ele>1684.0582172619</ele>
        <time>2019-09-28T12:02:41Z</time>
      </trkpt>
      <trkpt lat="45.57382" lon="2.83973">
        <ele>1684.4677038924</ele>
        <time>2019-09-28T12:02:51Z</time>
      </trkpt>
      <trkpt lat="45.57381" lon="2.83973">
        <ele>1684.6100423835</ele>
        <time>2019-09-28T12:03:01Z</time>
      </trkpt>
      <trkpt lat="45.5738" lon="2.83972">
        <ele>1684.7514635622</ele>
        <time>2019-09-28T12:03:11Z</time>
      </trkpt>
      <trkpt lat="45.57379" lon="2.83971">
        <ele>1684.8779451923</ele>
        <time>2019-09-28T12:03:20Z</time>
      </trkpt>
      <trkpt lat="45.57379" lon="2.83969">
        <ele>1685.3812686018</ele>
        <time>2019-09-28T12:03:30Z</time>
      </trkpt>
      <trkpt lat="45.5738" lon="2.83969">
        <ele>1685.629131402</ele>
        <time>2019-09-28T12:03:40Z</time>
      </trkpt>
      <trkpt lat="45.57381" lon="2.83968">
        <ele>1685.7574981153</ele>
        <time>2019-09-28T12:03:50Z</time>
      </trkpt>
      <trkpt lat="45.57382" lon="2.83968">
        <ele>1685.9377299631</ele>
        <time>2019-09-28T12:04:04Z</time>
      </trkpt>
      <trkpt lat="45.57381" lon="2.8397">
        <ele>1686.7192028017</ele>
        <time>2019-09-28T12:04:13Z</time>
      </trkpt>
      <trkpt lat="45.5738" lon="2.83972">
        <ele>1687.2351424063</ele>
        <time>2019-09-28T12:04:23Z</time>
      </trkpt>
      <trkpt lat="45.57381" lon="2.83976">
        <ele>1688.2573967475</ele>
        <time>2019-09-28T12:04:33Z</time>
      </trkpt>
      <trkpt lat="45.57377" lon="2.83977">
        <ele>1688.9781253764</ele>
        <time>2019-09-28T12:04:42Z</time>
      </trkpt>
      <trkpt lat="45.57372" lon="2.83981">
        <ele>1689.7918299036</ele>
        <time>2019-09-28T12:04:52Z</time>
      </trkpt>
      <trkpt lat="45.57367" lon="2.8398">
        <ele>1690.4896186517</ele>
        <time>2019-09-28T12:05:02Z</time>
      </trkpt>
      <trkpt lat="45.57363" lon="2.8398">
        <ele>1691.0797926687</ele>
        <time>2019-09-28T12:05:12Z</time>
      </trkpt>
      <trkpt lat="45.57356" lon="2.8398">
        <ele>1691.5342346758</ele>
        <time>2019-09-28T12:05:21Z</time>
      </trkpt>
      <trkpt lat="45.57352" lon="2.83981">
        <ele>1691.9431307341</ele>
        <time>2019-09-28T12:05:30Z</time>
      </trkpt>
      <trkpt lat="45.57349" lon="2.83983">
        <ele>1692.3730848786</ele>
        <time>2019-09-28T12:05:40Z</time>
      </trkpt>
      <trkpt lat="45.5734" lon="2.83986">
        <ele>1692.7457327704</ele>
        <time>2019-09-28T12:05:49Z</time>
      </trkpt>
      <trkpt lat="45.57337" lon="2.83987">
        <ele>1693.1383785535</ele>
        <time>2019-09-28T12:05:59Z</time>
      </trkpt>
      <trkpt lat="45.57335" lon="2.83987">
        <ele>1693.448800644</ele>
        <time>2019-09-28T12:06:08Z</time>
      </trkpt>
      <trkpt lat="45.57332" lon="2.83988">
        <ele>1693.8164765643</ele>
        <time>2019-09-28T12:06:17Z</time>
      </trkpt>
      <trkpt lat="45.57328" lon="2.8399">
        <ele>1694.165721162</ele>
        <time>2019-09-28T12:06:26Z</time>
      </trkpt>
      <trkpt lat="45.57322" lon="2.83992">
        <ele>1694.5156653392</ele>
        <time>2019-09-28T12:06:35Z</time>
      </trkpt>
      <trkpt lat="45.57318" lon="2.83993">
        <ele>1694.9015542954</ele>
        <time>2019-09-28T12:06:45Z</time>
      </trkpt>
      <trkpt lat="45.57312" lon="2.83994">
        <ele>1695.2051651306</ele>
        <time>2019-09-28T12:06:54Z</time>
      </trkpt>
      <trkpt lat="45.5731" lon="2.83996">
        <ele>1695.2837198966</ele>
        <time>2019-09-28T12:07:04Z</time>
      </trkpt>
      <trkpt lat="45.57309" lon="2.83995">
        <ele>1695.3654371077</ele>
        <time>2019-09-28T12:07:13Z</time>
      </trkpt>
      <trkpt lat="45.57308" lon="2.83994">
        <ele>1695.5935795264</ele>
        <time>2019-09-28T12:07:23Z</time>
      </trkpt>
      <trkpt lat="45.57305" lon="2.83994">
        <ele>1695.957803046</ele>
        <time>2019-09-28T12:07:33Z</time>
      </trkpt>
      <trkpt lat="45.57304" lon="2.83994">
        <ele>1696.129812094</ele>
        <time>2019-09-28T12:07:42Z</time>
      </trkpt>
      <trkpt lat="45.57303" lon="2.83995">
        <ele>1696.3958801448</ele>
        <time>2019-09-28T12:08:02Z</time>
      </trkpt>
      <trkpt lat="45.57303" lon="2.83996">
        <ele>1696.5602700339</ele>
        <time>2019-09-28T12:08:17Z</time>
      </trkpt>
      <trkpt lat="45.57303" lon="2.83994">
        <ele>1697.0208829802</ele>
        <time>2019-09-28T12:08:37Z</time>
      </trkpt>
      <trkpt lat="45.57304" lon="2.83994">
        <ele>1697.5835957796</ele>
        <time>2019-09-28T12:08:47Z</time>
      </trkpt>
      <trkpt lat="45.57305" lon="2.83992">
        <ele>1697.853640755</ele>
        <time>2019-09-28T12:08:56Z</time>
      </trkpt>
      <trkpt lat="45.57305" lon="2.83991">
        <ele>1697.9919675241</ele>
        <time>2019-09-28T12:09:06Z</time>
      </trkpt>
      <trkpt lat="45.57306" lon="2.8399">
        <ele>1698.284123329</ele>
        <time>2019-09-28T12:09:17Z</time>
      </trkpt>
      <trkpt lat="45.57306" lon="2.83988">
        <ele>1698.5613637577</ele>
        <time>2019-09-28T12:09:26Z</time>
      </trkpt>
      <trkpt lat="45.57307" lon="2.83988">
        <ele>1698.931337371</ele>
        <time>2019-09-28T12:09:37Z</time>
      </trkpt>
      <trkpt lat="45.57306" lon="2.83994">
        <ele>1699.3537735255</ele>
        <time>2019-09-28T12:09:47Z</time>
      </trkpt>
      <trkpt lat="45.57302" lon="2.84">
        <ele>1699.7796161132</ele>
        <time>2019-09-28T12:09:56Z</time>
      </trkpt>
      <trkpt lat="45.57298" lon="2.83999">
        <ele>1700.4348419347</ele>
        <time>2019-09-28T12:10:05Z</time>
      </trkpt>
      <trkpt lat="45.57297" lon="2.83999">
        <ele>1700.9974167713</ele>
        <time>2019-09-28T12:10:17Z</time>
      </trkpt>
      <trkpt lat="45.57297" lon="2.83998">
        <ele>1701.5808231299</ele>
        <time>2019-09-28T12:10:37Z</time>
      </trkpt>
      <trkpt lat="45.57296" lon="2.83997">
        <ele>1701.9052506139</ele>
        <time>2019-09-28T12:11:04Z</time>
      </trkpt>
      <trkpt lat="45.57296" lon="2.83996">
        <ele>1702.0385552744</ele>
        <time>2019-09-28T12:11:13Z</time>
      </trkpt>
      <trkpt lat="45.57295" lon="2.83995">
        <ele>1702.200934847</ele>
        <time>2019-09-28T12:11:23Z</time>
      </trkpt>
      <trkpt lat="45.57295" lon="2.83994">
        <ele>1702.6818280531</ele>
        <time>2019-09-28T12:11:33Z</time>
      </trkpt>
      <trkpt lat="45.57295" lon="2.83992">
        <ele>1702.8384104409</ele>
        <time>2019-09-28T12:11:42Z</time>
      </trkpt>
      <trkpt lat="45.57295" lon="2.83991">
        <ele>1703.6562205243</ele>
        <time>2019-09-28T12:11:53Z</time>
      </trkpt>
      <trkpt lat="45.57295" lon="2.8399">
        <ele>1704.9429957914</ele>
        <time>2019-09-28T12:12:02Z</time>
      </trkpt>
      <trkpt lat="45.57289" lon="2.8398">
        <ele>1706.2095838006</ele>
        <time>2019-09-28T12:12:11Z</time>
      </trkpt>
      <trkpt lat="45.57289" lon="2.83973">
        <ele>1707.2304712915</ele>
        <time>2019-09-28T12:12:20Z</time>
      </trkpt>
      <trkpt lat="45.57289" lon="2.83969">
        <ele>1708.5875444205</ele>
        <time>2019-09-28T12:12:29Z</time>
      </trkpt>
      <trkpt lat="45.57286" lon="2.83964">
        <ele>1709.8158028701</ele>
        <time>2019-09-28T12:12:38Z</time>
      </trkpt>
      <trkpt lat="45.5728" lon="2.8395">
        <ele>1710.9764209458</ele>
        <time>2019-09-28T12:12:48Z</time>
      </trkpt>
      <trkpt lat="45.57274" lon="2.83935">
        <ele>1711.9532170252</ele>
        <time>2019-09-28T12:12:58Z</time>
      </trkpt>
      <trkpt lat="45.57269" lon="2.83924">
        <ele>1712.6922027634</ele>
        <time>2019-09-28T12:13:07Z</time>
      </trkpt>
      <trkpt lat="45.57264" lon="2.83907">
        <ele>1713.3444615906</ele>
        <time>2019-09-28T12:13:16Z</time>
      </trkpt>
      <trkpt lat="45.57262" lon="2.83895">
        <ele>1713.966815651</ele>
        <time>2019-09-28T12:13:26Z</time>
      </trkpt>
      <trkpt lat="45.57261" lon="2.83891">
        <ele>1714.4368375802</ele>
        <time>2019-09-28T12:13:35Z</time>
      </trkpt>
      <trkpt lat="45.57256" lon="2.83886">
        <ele>1714.8406432118</ele>
        <time>2019-09-28T12:13:44Z</time>
      </trkpt>
      <trkpt lat="45.5725" lon="2.83874">
        <ele>1715.2315465877</ele>
        <time>2019-09-28T12:13:54Z</time>
      </trkpt>
      <trkpt lat="45.57245" lon="2.83859">
        <ele>1715.5449995517</ele>
        <time>2019-09-28T12:14:04Z</time>
      </trkpt>
      <trkpt lat="45.57244" lon="2.83848">
        <ele>1715.7924684555</ele>
        <time>2019-09-28T12:14:13Z</time>
      </trkpt>
      <trkpt lat="45.57243" lon="2.83836">
        <ele>1716.0191655049</ele>
        <time>2019-09-28T12:14:22Z</time>
      </trkpt>
      <trkpt lat="45.57242" lon="2.83825">
        <ele>1716.2365105814</ele>
        <time>2019-09-28T12:14:32Z</time>
      </trkpt>
      <trkpt lat="45.57242" lon="2.83821">
        <ele>1716.3513874184</ele>
        <time>2019-09-28T12:14:41Z</time>
      </trkpt>
      <trkpt lat="45.57242" lon="2.83821">
        <ele>1716.4398278885</ele>
        <time>2019-09-28T12:14:50Z</time>
      </trkpt>
      <trkpt lat="45.57242" lon="2.83805">
        <ele>1716.4829467286</ele>
        <time>2019-09-28T12:15:00Z</time>
      </trkpt>
      <trkpt lat="45.57233" lon="2.83789">
        <ele>1716.482165173</ele>
        <time>2019-09-28T12:15:09Z</time>
      </trkpt>
      <trkpt lat="45.57225" lon="2.8378">
        <ele>1716.4517143894</ele>
        <time>2019-09-28T12:15:19Z</time>
      </trkpt>
      <trkpt lat="45.57218" lon="2.83785">
        <ele>1716.3792607168</ele>
        <time>2019-09-28T12:15:29Z</time>
      </trkpt>
      <trkpt lat="45.57213" lon="2.83795">
        <ele>1716.2604988989</ele>
        <time>2019-09-28T12:15:39Z</time>
      </trkpt>
      <trkpt lat="45.5721" lon="2.838">
        <ele>1716.1358291325</ele>
        <time>2019-09-28T12:15:48Z</time>
      </trkpt>
      <trkpt lat="45.57209" lon="2.838">
        <ele>1716.0449034564</ele>
        <time>2019-09-28T12:15:58Z</time>
      </trkpt>
      <trkpt lat="45.57204" lon="2.83809">
        <ele>1715.7885925442</ele>
        <time>2019-09-28T12:16:07Z</time>
      </trkpt>
      <trkpt lat="45.57203" lon="2.83813">
        <ele>1715.5060843362</ele>
        <time>2019-09-28T12:16:17Z</time>
      </trkpt>
      <trkpt lat="45.57202" lon="2.83815">
        <ele>1715.3605364326</ele>
        <time>2019-09-28T12:16:26Z</time>
      </trkpt>
      <trkpt lat="45.57199" lon="2.83833">
        <ele>1715.0850069206</ele>
        <time>2019-09-28T12:16:36Z</time>
      </trkpt>
      <trkpt lat="45.57198" lon="2.8384">
        <ele>1714.8666926117</ele>
        <time>2019-09-28T12:16:46Z</time>
      </trkpt>
      <trkpt lat="45.57195" lon="2.83853">
        <ele>1714.6611041525</ele>
        <time>2019-09-28T12:16:55Z</time>
      </trkpt>
      <trkpt lat="45.57193" lon="2.83863">
        <ele>1714.4517566834</ele>
        <time>2019-09-28T12:17:04Z</time>
      </trkpt>
      <trkpt lat="45.57189" lon="2.83875">
        <ele>1714.2168375558</ele>
        <time>2019-09-28T12:17:14Z</time>
      </trkpt>
      <trkpt lat="45.57186" lon="2.83885">
        <ele>1713.9701298078</ele>
        <time>2019-09-28T12:17:24Z</time>
      </trkpt>
      <trkpt lat="45.57188" lon="2.83901">
        <ele>1713.7175073701</ele>
        <time>2019-09-28T12:17:33Z</time>
      </trkpt>
      <trkpt lat="45.57189" lon="2.83898">
        <ele>1713.4785936097</ele>
        <time>2019-09-28T12:17:42Z</time>
      </trkpt>
      <trkpt lat="45.57185" lon="2.83894">
        <ele>1713.2669358529</ele>
        <time>2019-09-28T12:17:51Z</time>
      </trkpt>
      <trkpt lat="45.57181" lon="2.83881">
        <ele>1712.9104262507</ele>
        <time>2019-09-28T12:18:01Z</time>
      </trkpt>
      <trkpt lat="45.57179" lon="2.8387">
        <ele>1712.5376450143</ele>
        <time>2019-09-28T12:18:11Z</time>
      </trkpt>
      <trkpt lat="45.57178" lon="2.83865">
        <ele>1712.1672218027</ele>
        <time>2019-09-28T12:18:20Z</time>
      </trkpt>
      <trkpt lat="45.57176" lon="2.83857">
        <ele>1711.7866551464</ele>
        <time>2019-09-28T12:18:29Z</time>
      </trkpt>
      <trkpt lat="45.57175" lon="2.8385">
        <ele>1711.4005603623</ele>
        <time>2019-09-28T12:18:38Z</time>
      </trkpt>
      <trkpt lat="45.57173" lon="2.8384">
        <ele>1710.9554212765</ele>
        <time>2019-09-28T12:18:48Z</time>
      </trkpt>
      <trkpt lat="45.57173" lon="2.83834">
        <ele>1710.5620071399</ele>
        <time>2019-09-28T12:18:57Z</time>
      </trkpt>
      <trkpt lat="45.57167" lon="2.83827">
        <ele>1710.109278823</ele>
        <time>2019-09-28T12:19:06Z</time>
      </trkpt>
      <trkpt lat="45.57165" lon="2.83825">
        <ele>1709.7073033581</ele>
        <time>2019-09-28T12:19:15Z</time>
      </trkpt>
      <trkpt lat="45.57163" lon="2.83816">
        <ele>1709.2549506713</ele>
        <time>2019-09-28T12:19:24Z</time>
      </trkpt>
      <trkpt lat="45.57162" lon="2.83813">
        <ele>1708.7701752075</ele>
        <time>2019-09-28T12:19:34Z</time>
      </trkpt>
      <trkpt lat="45.5716" lon="2.83802">
        <ele>1708.403034056</ele>
        <time>2019-09-28T12:19:43Z</time>
      </trkpt>
      <trkpt lat="45.57159" lon="2.83797">
        <ele>1708.0087067355</ele>
        <time>2019-09-28T12:19:52Z</time>
      </trkpt>
      <trkpt lat="45.57154" lon="2.83792">
        <ele>1707.4807765289</ele>
        <time>2019-09-28T12:20:02Z</time>
      </trkpt>
      <trkpt lat="45.57153" lon="2.83782">
        <ele>1707.0131484903</ele>
        <time>2019-09-28T12:20:12Z</time>
      </trkpt>
      <trkpt lat="45.57154" lon="2.83771">
        <ele>1706.4143205651</ele>
        <time>2019-09-28T12:20:22Z</time>
      </trkpt>
      <trkpt lat="45.57154" lon="2.83764">
        <ele>1705.919092401</ele>
        <time>2019-09-28T12:20:31Z</time>
      </trkpt>
      <trkpt lat="45.57153" lon="2.83763">
        <ele>1705.5539879086</ele>
        <time>2019-09-28T12:20:40Z</time>
      </trkpt>
      <trkpt lat="45.57153" lon="2.83755">
        <ele>1705.0573890152</ele>
        <time>2019-09-28T12:20:49Z</time>
      </trkpt>
      <trkpt lat="45.57155" lon="2.83752">
        <ele>1704.6072856267</ele>
        <time>2019-09-28T12:20:58Z</time>
      </trkpt>
      <trkpt lat="45.57157" lon="2.83746">
        <ele>1704.1953569804</ele>
        <time>2019-09-28T12:21:07Z</time>
      </trkpt>
      <trkpt lat="45.57155" lon="2.83743">
        <ele>1703.8521345833</ele>
        <time>2019-09-28T12:21:16Z</time>
      </trkpt>
      <trkpt lat="45.57157" lon="2.83737">
        <ele>1703.4805845754</ele>
        <time>2019-09-28T12:21:26Z</time>
      </trkpt>
      <trkpt lat="45.57158" lon="2.83728">
        <ele>1703.1327834753</ele>
        <time>2019-09-28T12:21:35Z</time>
      </trkpt>
      <trkpt lat="45.57157" lon="2.83722">
        <ele>1702.7984241094</ele>
        <time>2019-09-28T12:21:45Z</time>
      </trkpt>
      <trkpt lat="45.57156" lon="2.83714">
        <ele>1702.4671732672</ele>
        <time>2019-09-28T12:21:54Z</time>
      </trkpt>
      <trkpt lat="45.57156" lon="2.83706">
        <ele>1702.1430172896</ele>
        <time>2019-09-28T12:22:03Z</time>
      </trkpt>
      <trkpt lat="45.57155" lon="2.83698">
        <ele>1701.7661702138</ele>
        <time>2019-09-28T12:22:13Z</time>
      </trkpt>
      <trkpt lat="45.57156" lon="2.83692">
        <ele>1701.3957747725</ele>
        <time>2019-09-28T12:22:23Z</time>
      </trkpt>
      <trkpt lat="45.57157" lon="2.83686">
        <ele>1701.0988540562</ele>
        <time>2019-09-28T12:22:32Z</time>
      </trkpt>
      <trkpt lat="45.57158" lon="2.8368">
        <ele>1700.7410396216</ele>
        <time>2019-09-28T12:22:42Z</time>
      </trkpt>
      <trkpt lat="45.57161" lon="2.8367">
        <ele>1700.3914246119</ele>
        <time>2019-09-28T12:22:52Z</time>
      </trkpt>
      <trkpt lat="45.57165" lon="2.83664">
        <ele>1700.075569104</ele>
        <time>2019-09-28T12:23:01Z</time>
      </trkpt>
      <trkpt lat="45.57165" lon="2.83662">
        <ele>1699.938615976</ele>
        <time>2019-09-28T12:23:11Z</time>
      </trkpt>
      <trkpt lat="45.57164" lon="2.83661">
        <ele>1699.8388982377</ele>
        <time>2019-09-28T12:23:21Z</time>
      </trkpt>
      <trkpt lat="45.57163" lon="2.83659">
        <ele>1699.7822391014</ele>
        <time>2019-09-28T12:23:30Z</time>
      </trkpt>
      <trkpt lat="45.57164" lon="2.83653">
        <ele>1699.2705850001</ele>
        <time>2019-09-28T12:23:39Z</time>
      </trkpt>
      <trkpt lat="45.57165" lon="2.83647">
        <ele>1698.8959940656</ele>
        <time>2019-09-28T12:23:48Z</time>
      </trkpt>
      <trkpt lat="45.57164" lon="2.83645">
        <ele>1698.5918695449</ele>
        <time>2019-09-28T12:23:58Z</time>
      </trkpt>
      <trkpt lat="45.57167" lon="2.83637">
        <ele>1697.8522845294</ele>
        <time>2019-09-28T12:24:08Z</time>
      </trkpt>
      <trkpt lat="45.57173" lon="2.83633">
        <ele>1697.1226836372</ele>
        <time>2019-09-28T12:24:17Z</time>
      </trkpt>
      <trkpt lat="45.57174" lon="2.83632">
        <ele>1696.9104562943</ele>
        <time>2019-09-28T12:24:26Z</time>
      </trkpt>
      <trkpt lat="45.57174" lon="2.83632">
        <ele>1696.4952003569</ele>
        <time>2019-09-28T12:24:49Z</time>
      </trkpt>
      <trkpt lat="45.5717" lon="2.83634">
        <ele>1696.3954317813</ele>
        <time>2019-09-28T12:24:58Z</time>
      </trkpt>
      <trkpt lat="45.57169" lon="2.83634">
        <ele>1696.2871782854</ele>
        <time>2019-09-28T12:25:07Z</time>
      </trkpt>
      <trkpt lat="45.57168" lon="2.83633">
        <ele>1696.0382896378</ele>
        <time>2019-09-28T12:25:26Z</time>
      </trkpt>
      <trkpt lat="45.57167" lon="2.83634">
        <ele>1695.8401502119</ele>
        <time>2019-09-28T12:25:40Z</time>
      </trkpt>
      <trkpt lat="45.57168" lon="2.83631">
        <ele>1695.1592813739</ele>
        <time>2019-09-28T12:25:50Z</time>
      </trkpt>
      <trkpt lat="45.57173" lon="2.83627">
        <ele>1694.0476385246</ele>
        <time>2019-09-28T12:25:59Z</time>
      </trkpt>
      <trkpt lat="45.5718" lon="2.8362">
        <ele>1692.8704803287</ele>
        <time>2019-09-28T12:26:09Z</time>
      </trkpt>
      <trkpt lat="45.5718" lon="2.83617">
        <ele>1692.4941806485</ele>
        <time>2019-09-28T12:26:18Z</time>
      </trkpt>
      <trkpt lat="45.5718" lon="2.83615">
        <ele>1692.285723161</ele>
        <time>2019-09-28T12:26:27Z</time>
      </trkpt>
      <trkpt lat="45.57185" lon="2.83609">
        <ele>1691.1722047896</ele>
        <time>2019-09-28T12:26:37Z</time>
      </trkpt>
      <trkpt lat="45.57194" lon="2.83603">
        <ele>1690.1899688231</ele>
        <time>2019-09-28T12:26:47Z</time>
      </trkpt>
      <trkpt lat="45.57198" lon="2.836">
        <ele>1689.3555634581</ele>
        <time>2019-09-28T12:26:56Z</time>
      </trkpt>
      <trkpt lat="45.57203" lon="2.83595">
        <ele>1688.576839446</ele>
        <time>2019-09-28T12:27:05Z</time>
      </trkpt>
      <trkpt lat="45.57212" lon="2.83592">
        <ele>1687.7550955046</ele>
        <time>2019-09-28T12:27:15Z</time>
      </trkpt>
      <trkpt lat="45.57221" lon="2.83591">
        <ele>1687.024637195</ele>
        <time>2019-09-28T12:27:24Z</time>
      </trkpt>
      <trkpt lat="45.57228" lon="2.8359">
        <ele>1686.3844125948</ele>
        <time>2019-09-28T12:27:34Z</time>
      </trkpt>
      <trkpt lat="45.57223" lon="2.83591">
        <ele>1685.5933569427</ele>
        <time>2019-09-28T12:27:43Z</time>
      </trkpt>
      <trkpt lat="45.5722" lon="2.83592">
        <ele>1684.587572701</ele>
        <time>2019-09-28T12:27:53Z</time>
      </trkpt>
      <trkpt lat="45.57212" lon="2.83589">
        <ele>1683.5452952792</ele>
        <time>2019-09-28T12:28:03Z</time>
      </trkpt>
      <trkpt lat="45.57204" lon="2.83581">
        <ele>1682.4381503554</ele>
        <time>2019-09-28T12:28:12Z</time>
      </trkpt>
      <trkpt lat="45.57197" lon="2.8358">
        <ele>1681.1439610661</ele>
        <time>2019-09-28T12:28:22Z</time>
      </trkpt>
      <trkpt lat="45.5719" lon="2.83576">
        <ele>1679.9113977426</ele>
        <time>2019-09-28T12:28:31Z</time>
      </trkpt>
      <trkpt lat="45.57185" lon="2.83571">
        <ele>1678.385071769</ele>
        <time>2019-09-28T12:28:40Z</time>
      </trkpt>
      <trkpt lat="45.5718" lon="2.83566">
        <ele>1676.9886037908</ele>
        <time>2019-09-28T12:28:49Z</time>
      </trkpt>
      <trkpt lat="45.57171" lon="2.83562">
        <ele>1675.1020619137</ele>
        <time>2019-09-28T12:28:59Z</time>
      </trkpt>
      <trkpt lat="45.57165" lon="2.83559">
        <ele>1673.0677033491</ele>
        <time>2019-09-28T12:29:08Z</time>
      </trkpt>
      <trkpt lat="45.57159" lon="2.83555">
        <ele>1670.9697109124</ele>
        <time>2019-09-28T12:29:17Z</time>
      </trkpt>
      <trkpt lat="45.57157" lon="2.83551">
        <ele>1669.1533413695</ele>
        <time>2019-09-28T12:29:26Z</time>
      </trkpt>
      <trkpt lat="45.57154" lon="2.83547">
        <ele>1667.1079877715</ele>
        <time>2019-09-28T12:29:36Z</time>
      </trkpt>
      <trkpt lat="45.57152" lon="2.83544">
        <ele>1665.3190464336</ele>
        <time>2019-09-28T12:29:45Z</time>
      </trkpt>
      <trkpt lat="45.57147" lon="2.83541">
        <ele>1663.1364886253</ele>
        <time>2019-09-28T12:29:55Z</time>
      </trkpt>
      <trkpt lat="45.57141" lon="2.83536">
        <ele>1661.2548319572</ele>
        <time>2019-09-28T12:30:04Z</time>
      </trkpt>
      <trkpt lat="45.57133" lon="2.83529">
        <ele>1659.3050626274</ele>
        <time>2019-09-28T12:30:14Z</time>
      </trkpt>
      <trkpt lat="45.57126" lon="2.83526">
        <ele>1657.3138079962</ele>
        <time>2019-09-28T12:30:23Z</time>
      </trkpt>
      <trkpt lat="45.57119" lon="2.83522">
        <ele>1655.2247120153</ele>
        <time>2019-09-28T12:30:33Z</time>
      </trkpt>
      <trkpt lat="45.57115" lon="2.83517">
        <ele>1653.1768712083</ele>
        <time>2019-09-28T12:30:43Z</time>
      </trkpt>
      <trkpt lat="45.57109" lon="2.83511">
        <ele>1651.3549463567</ele>
        <time>2019-09-28T12:30:52Z</time>
      </trkpt>
      <trkpt lat="45.57103" lon="2.83509">
        <ele>1649.4619268838</ele>
        <time>2019-09-28T12:31:02Z</time>
      </trkpt>
      <trkpt lat="45.57096" lon="2.83503">
        <ele>1647.8630932402</ele>
        <time>2019-09-28T12:31:11Z</time>
      </trkpt>
      <trkpt lat="45.57093" lon="2.83501">
        <ele>1646.3872678641</ele>
        <time>2019-09-28T12:31:20Z</time>
      </trkpt>
      <trkpt lat="45.57089" lon="2.83498">
        <ele>1644.8096004855</ele>
        <time>2019-09-28T12:31:30Z</time>
      </trkpt>
      <trkpt lat="45.57085" lon="2.83497">
        <ele>1643.2304114452</ele>
        <time>2019-09-28T12:31:40Z</time>
      </trkpt>
      <trkpt lat="45.57077" lon="2.83491">
        <ele>1641.6400057748</ele>
        <time>2019-09-28T12:31:50Z</time>
      </trkpt>
      <trkpt lat="45.5707" lon="2.83487">
        <ele>1640.0673670971</ele>
        <time>2019-09-28T12:32:00Z</time>
      </trkpt>
      <trkpt lat="45.57063" lon="2.83484">
        <ele>1638.6626603076</ele>
        <time>2019-09-28T12:32:09Z</time>
      </trkpt>
      <trkpt lat="45.57064" lon="2.83484">
        <ele>1637.7841972609</ele>
        <time>2019-09-28T12:32:18Z</time>
      </trkpt>
      <trkpt lat="45.57062" lon="2.83479">
        <ele>1636.5463230543</ele>
        <time>2019-09-28T12:32:27Z</time>
      </trkpt>
      <trkpt lat="45.57061" lon="2.83478">
        <ele>1634.9665293986</ele>
        <time>2019-09-28T12:32:37Z</time>
      </trkpt>
      <trkpt lat="45.57055" lon="2.83471">
        <ele>1633.3028120179</ele>
        <time>2019-09-28T12:32:47Z</time>
      </trkpt>
      <trkpt lat="45.57052" lon="2.83459">
        <ele>1631.7211497784</ele>
        <time>2019-09-28T12:32:57Z</time>
      </trkpt>
      <trkpt lat="45.5705" lon="2.83455">
        <ele>1630.3803169769</ele>
        <time>2019-09-28T12:33:06Z</time>
      </trkpt>
      <trkpt lat="45.57042" lon="2.83447">
        <ele>1629.0235277116</ele>
        <time>2019-09-28T12:33:16Z</time>
      </trkpt>
      <trkpt lat="45.57038" lon="2.83442">
        <ele>1627.7784562741</ele>
        <time>2019-09-28T12:33:25Z</time>
      </trkpt>
      <trkpt lat="45.57035" lon="2.83443">
        <ele>1626.7326784235</ele>
        <time>2019-09-28T12:33:35Z</time>
      </trkpt>
      <trkpt lat="45.57034" lon="2.83443">
        <ele>1625.6172529686</ele>
        <time>2019-09-28T12:33:45Z</time>
      </trkpt>
      <trkpt lat="45.57034" lon="2.83442">
        <ele>1624.5288742932</ele>
        <time>2019-09-28T12:34:02Z</time>
      </trkpt>
      <trkpt lat="45.57035" lon="2.83437">
        <ele>1623.4322897243</ele>
        <time>2019-09-28T12:34:11Z</time>
      </trkpt>
      <trkpt lat="45.57027" lon="2.83433">
        <ele>1622.1899858521</ele>
        <time>2019-09-28T12:34:21Z</time>
      </trkpt>
      <trkpt lat="45.57022" lon="2.83427">
        <ele>1620.7937504645</ele>
        <time>2019-09-28T12:34:30Z</time>
      </trkpt>
      <trkpt lat="45.57024" lon="2.83425">
        <ele>1619.6535364102</ele>
        <time>2019-09-28T12:34:39Z</time>
      </trkpt>
      <trkpt lat="45.57024" lon="2.83423">
        <ele>1619.0408064438</ele>
        <time>2019-09-28T12:34:49Z</time>
      </trkpt>
      <trkpt lat="45.57023" lon="2.83423">
        <ele>1618.8727915562</ele>
        <time>2019-09-28T12:34:58Z</time>
      </trkpt>
      <trkpt lat="45.57023" lon="2.83423">
        <ele>1618.2205463498</ele>
        <time>2019-09-28T12:35:21Z</time>
      </trkpt>
      <trkpt lat="45.57019" lon="2.83418">
        <ele>1616.4022618612</ele>
        <time>2019-09-28T12:35:31Z</time>
      </trkpt>
      <trkpt lat="45.57012" lon="2.83414">
        <ele>1614.5134510196</ele>
        <time>2019-09-28T12:35:41Z</time>
      </trkpt>
      <trkpt lat="45.57006" lon="2.83406">
        <ele>1612.9630243352</ele>
        <time>2019-09-28T12:35:50Z</time>
      </trkpt>
      <trkpt lat="45.57004" lon="2.83403">
        <ele>1611.5884955015</ele>
        <time>2019-09-28T12:35:59Z</time>
      </trkpt>
      <trkpt lat="45.57005" lon="2.834">
        <ele>1610.4213752332</ele>
        <time>2019-09-28T12:36:08Z</time>
      </trkpt>
      <trkpt lat="45.57005" lon="2.83396">
        <ele>1609.0806303642</ele>
        <time>2019-09-28T12:36:18Z</time>
      </trkpt>
      <trkpt lat="45.57" lon="2.83392">
        <ele>1607.7816477825</ele>
        <time>2019-09-28T12:36:28Z</time>
      </trkpt>
      <trkpt lat="45.56996" lon="2.83391">
        <ele>1606.4858577341</ele>
        <time>2019-09-28T12:36:37Z</time>
      </trkpt>
      <trkpt lat="45.5699" lon="2.83385">
        <ele>1605.2174663435</ele>
        <time>2019-09-28T12:36:46Z</time>
      </trkpt>
      <trkpt lat="45.56988" lon="2.83379">
        <ele>1603.8951262411</ele>
        <time>2019-09-28T12:36:56Z</time>
      </trkpt>
      <trkpt lat="45.56989" lon="2.83374">
        <ele>1602.7747940621</ele>
        <time>2019-09-28T12:37:05Z</time>
      </trkpt>
      <trkpt lat="45.56986" lon="2.83367">
        <ele>1601.5992372804</ele>
        <time>2019-09-28T12:37:15Z</time>
      </trkpt>
      <trkpt lat="45.56984" lon="2.83365">
        <ele>1600.5592614261</ele>
        <time>2019-09-28T12:37:25Z</time>
      </trkpt>
      <trkpt lat="45.56982" lon="2.83361">
        <ele>1599.4940724722</ele>
        <time>2019-09-28T12:37:35Z</time>
      </trkpt>
      <trkpt lat="45.56982" lon="2.83357">
        <ele>1598.513999175</ele>
        <time>2019-09-28T12:37:44Z</time>
      </trkpt>
      <trkpt lat="45.56981" lon="2.8335">
        <ele>1597.4469122457</ele>
        <time>2019-09-28T12:37:53Z</time>
      </trkpt>
      <trkpt lat="45.56975" lon="2.83334">
        <ele>1596.2359175433</ele>
        <time>2019-09-28T12:38:03Z</time>
      </trkpt>
      <trkpt lat="45.56973" lon="2.83324">
        <ele>1594.9835215434</ele>
        <time>2019-09-28T12:38:12Z</time>
      </trkpt>
      <trkpt lat="45.56971" lon="2.83312">
        <ele>1593.6521402099</ele>
        <time>2019-09-28T12:38:21Z</time>
      </trkpt>
      <trkpt lat="45.5697" lon="2.83302">
        <ele>1592.208808566</ele>
        <time>2019-09-28T12:38:30Z</time>
      </trkpt>
      <trkpt lat="45.56966" lon="2.83288">
        <ele>1590.6033777733</ele>
        <time>2019-09-28T12:38:39Z</time>
      </trkpt>
      <trkpt lat="45.56964" lon="2.83278">
        <ele>1588.7943523858</ele>
        <time>2019-09-28T12:38:49Z</time>
      </trkpt>
      <trkpt lat="45.56958" lon="2.83267">
        <ele>1587.2256321965</ele>
        <time>2019-09-28T12:38:58Z</time>
      </trkpt>
      <trkpt lat="45.56956" lon="2.83264">
        <ele>1586.2379991484</ele>
        <time>2019-09-28T12:39:08Z</time>
      </trkpt>
      <trkpt lat="45.56957" lon="2.83265">
        <ele>1585.9700214231</ele>
        <time>2019-09-28T12:39:20Z</time>
      </trkpt>
      <trkpt lat="45.56958" lon="2.83265">
        <ele>1585.6620960245</ele>
        <time>2019-09-28T12:39:33Z</time>
      </trkpt>
      <trkpt lat="45.56959" lon="2.83266">
        <ele>1585.3494124905</ele>
        <time>2019-09-28T12:39:46Z</time>
      </trkpt>
      <trkpt lat="45.56959" lon="2.83266">
        <ele>1584.9208688142</ele>
        <time>2019-09-28T12:40:04Z</time>
      </trkpt>
      <trkpt lat="45.5696" lon="2.83267">
        <ele>1583.7786276032</ele>
        <time>2019-09-28T12:40:36Z</time>
      </trkpt>
      <trkpt lat="45.56961" lon="2.83266">
        <ele>1581.140919705</ele>
        <time>2019-09-28T12:41:25Z</time>
      </trkpt>
      <trkpt lat="45.56961" lon="2.83265">
        <ele>1580.4961880324</ele>
        <time>2019-09-28T12:41:34Z</time>
      </trkpt>
      <trkpt lat="45.56961" lon="2.83263">
        <ele>1579.8550937106</ele>
        <time>2019-09-28T12:41:43Z</time>
      </trkpt>
      <trkpt lat="45.5696" lon="2.83262">
        <ele>1576.6618178376</ele>
        <time>2019-09-28T12:42:30Z</time>
      </trkpt>
      <trkpt lat="45.56959" lon="2.83262">
        <ele>1575.2043118522</ele>
        <time>2019-09-28T12:42:40Z</time>
      </trkpt>
      <trkpt lat="45.56959" lon="2.8326">
        <ele>1574.4401819388</ele>
        <time>2019-09-28T12:42:49Z</time>
      </trkpt>
      <trkpt lat="45.56959" lon="2.83259">
        <ele>1572.2268123087</ele>
        <time>2019-09-28T12:43:04Z</time>
      </trkpt>
      <trkpt lat="45.56957" lon="2.83256">
        <ele>1569.2752094114</ele>
        <time>2019-09-28T12:43:13Z</time>
      </trkpt>
      <trkpt lat="45.56957" lon="2.83257">
        <ele>1567.2423223629</ele>
        <time>2019-09-28T12:43:22Z</time>
      </trkpt>
      <trkpt lat="45.56957" lon="2.83258">
        <ele>1565.2838641512</ele>
        <time>2019-09-28T12:43:51Z</time>
      </trkpt>
      <trkpt lat="45.56958" lon="2.83261">
        <ele>1564.0578604072</ele>
        <time>2019-09-28T12:44:01Z</time>
      </trkpt>
      <trkpt lat="45.56957" lon="2.83262">
        <ele>1562.935036559</ele>
        <time>2019-09-28T12:44:10Z</time>
      </trkpt>
      <trkpt lat="45.56957" lon="2.83259">
        <ele>1561.1362262617</ele>
        <time>2019-09-28T12:44:19Z</time>
      </trkpt>
      <trkpt lat="45.56957" lon="2.83258">
        <ele>1560.6010541186</ele>
        <time>2019-09-28T12:44:30Z</time>
      </trkpt>
      <trkpt lat="45.56956" lon="2.83256">
        <ele>1560.1326914056</ele>
        <time>2019-09-28T12:44:39Z</time>
      </trkpt>
      <trkpt lat="45.56955" lon="2.83257">
        <ele>1559.4209846826</ele>
        <time>2019-09-28T12:44:49Z</time>
      </trkpt>
      <trkpt lat="45.56955" lon="2.83255">
        <ele>1557.7467689368</ele>
        <time>2019-09-28T12:45:14Z</time>
      </trkpt>
      <trkpt lat="45.56955" lon="2.83254">
        <ele>1556.7593772451</ele>
        <time>2019-09-28T12:45:23Z</time>
      </trkpt>
      <trkpt lat="45.56954" lon="2.83255">
        <ele>1556.3262922623</ele>
        <time>2019-09-28T12:45:35Z</time>
      </trkpt>
      <trkpt lat="45.56954" lon="2.83255">
        <ele>1554.9690472048</ele>
        <time>2019-09-28T12:46:16Z</time>
      </trkpt>
      <trkpt lat="45.56947" lon="2.83252">
        <ele>1553.456814701</ele>
        <time>2019-09-28T12:46:26Z</time>
      </trkpt>
      <trkpt lat="45.56941" lon="2.83253">
        <ele>1552.542809897</ele>
        <time>2019-09-28T12:46:35Z</time>
      </trkpt>
      <trkpt lat="45.5694" lon="2.83254">
        <ele>1552.3832829906</ele>
        <time>2019-09-28T12:46:45Z</time>
      </trkpt>
      <trkpt lat="45.56939" lon="2.83254">
        <ele>1552.1784119129</ele>
        <time>2019-09-28T12:46:58Z</time>
      </trkpt>
      <trkpt lat="45.56931" lon="2.83252">
        <ele>1551.068184912</ele>
        <time>2019-09-28T12:47:08Z</time>
      </trkpt>
      <trkpt lat="45.5693" lon="2.83252">
        <ele>1550.6825999409</ele>
        <time>2019-09-28T12:47:17Z</time>
      </trkpt>
      <trkpt lat="45.56927" lon="2.83254">
        <ele>1550.038030714</ele>
        <time>2019-09-28T12:47:27Z</time>
      </trkpt>
      <trkpt lat="45.56925" lon="2.83259">
        <ele>1548.9737969336</ele>
        <time>2019-09-28T12:47:36Z</time>
      </trkpt>
      <trkpt lat="45.56918" lon="2.83262">
        <ele>1547.9210207998</ele>
        <time>2019-09-28T12:47:45Z</time>
      </trkpt>
      <trkpt lat="45.56912" lon="2.83267">
        <ele>1546.9874977914</ele>
        <time>2019-09-28T12:47:54Z</time>
      </trkpt>
      <trkpt lat="45.56905" lon="2.83272">
        <ele>1546.1533997935</ele>
        <time>2019-09-28T12:48:03Z</time>
      </trkpt>
      <trkpt lat="45.56899" lon="2.83277">
        <ele>1545.4079690572</ele>
        <time>2019-09-28T12:48:12Z</time>
      </trkpt>
      <trkpt lat="45.5689" lon="2.83274">
        <ele>1544.7230496201</ele>
        <time>2019-09-28T12:48:21Z</time>
      </trkpt>
      <trkpt lat="45.56877" lon="2.83277">
        <ele>1544.0229983437</ele>
        <time>2019-09-28T12:48:31Z</time>
      </trkpt>
      <trkpt lat="45.5687" lon="2.83284">
        <ele>1543.433598687</ele>
        <time>2019-09-28T12:48:40Z</time>
      </trkpt>
      <trkpt lat="45.56865" lon="2.83294">
        <ele>1542.8298718613</ele>
        <time>2019-09-28T12:48:50Z</time>
      </trkpt>
      <trkpt lat="45.56862" lon="2.833">
        <ele>1542.3184209943</ele>
        <time>2019-09-28T12:48:59Z</time>
      </trkpt>
      <trkpt lat="45.56854" lon="2.83308">
        <ele>1541.7703175906</ele>
        <time>2019-09-28T12:49:09Z</time>
      </trkpt>
      <trkpt lat="45.5685" lon="2.83315">
        <ele>1541.2429220413</ele>
        <time>2019-09-28T12:49:19Z</time>
      </trkpt>
      <trkpt lat="45.56851" lon="2.83317">
        <ele>1540.8667014685</ele>
        <time>2019-09-28T12:49:28Z</time>
      </trkpt>
      <trkpt lat="45.56844" lon="2.83324">
        <ele>1540.3829368925</ele>
        <time>2019-09-28T12:49:37Z</time>
      </trkpt>
      <trkpt lat="45.56835" lon="2.83332">
        <ele>1539.8485916878</ele>
        <time>2019-09-28T12:49:47Z</time>
      </trkpt>
      <trkpt lat="45.56828" lon="2.83342">
        <ele>1539.3629243337</ele>
        <time>2019-09-28T12:49:57Z</time>
      </trkpt>
      <trkpt lat="45.56821" lon="2.83344">
        <ele>1538.9720240219</ele>
        <time>2019-09-28T12:50:06Z</time>
      </trkpt>
      <trkpt lat="45.56813" lon="2.83349">
        <ele>1538.6066723166</ele>
        <time>2019-09-28T12:50:15Z</time>
      </trkpt>
      <trkpt lat="45.56801" lon="2.83354">
        <ele>1538.2205388409</ele>
        <time>2019-09-28T12:50:25Z</time>
      </trkpt>
      <trkpt lat="45.56793" lon="2.83357">
        <ele>1537.890546946</ele>
        <time>2019-09-28T12:50:34Z</time>
      </trkpt>
      <trkpt lat="45.56786" lon="2.83358">
        <ele>1537.5393794553</ele>
        <time>2019-09-28T12:50:44Z</time>
      </trkpt>
      <trkpt lat="45.56778" lon="2.83359">
        <ele>1537.192513349</ele>
        <time>2019-09-28T12:50:54Z</time>
      </trkpt>
      <trkpt lat="45.56769" lon="2.8336">
        <ele>1536.8853952446</ele>
        <time>2019-09-28T12:51:04Z</time>
      </trkpt>
      <trkpt lat="45.56769" lon="2.83359">
        <ele>1536.6609610894</ele>
        <time>2019-09-28T12:51:27Z</time>
      </trkpt>
      <trkpt lat="45.56767" lon="2.83357">
        <ele>1536.2406905595</ele>
        <time>2019-09-28T12:51:37Z</time>
      </trkpt>
      <trkpt lat="45.56767" lon="2.83353">
        <ele>1536.1179274106</ele>
        <time>2019-09-28T12:51:47Z</time>
      </trkpt>
      <trkpt lat="45.56767" lon="2.83353">
        <ele>1536.0092103627</ele>
        <time>2019-09-28T12:51:59Z</time>
      </trkpt>
      <trkpt lat="45.56767" lon="2.83352">
        <ele>1535.9041545927</ele>
        <time>2019-09-28T12:52:09Z</time>
      </trkpt>
      <trkpt lat="45.56767" lon="2.83352">
        <ele>1535.7172796534</ele>
        <time>2019-09-28T12:52:22Z</time>
      </trkpt>
      <trkpt lat="45.56768" lon="2.83353">
        <ele>1534.9340757722</ele>
        <time>2019-09-28T12:52:52Z</time>
      </trkpt>
      <trkpt lat="45.5676" lon="2.83345">
        <ele>1534.3325353076</ele>
        <time>2019-09-28T12:53:02Z</time>
      </trkpt>
      <trkpt lat="45.56754" lon="2.8334">
        <ele>1533.7413394018</ele>
        <time>2019-09-28T12:53:12Z</time>
      </trkpt>
      <trkpt lat="45.56751" lon="2.83335">
        <ele>1533.2195105291</ele>
        <time>2019-09-28T12:53:21Z</time>
      </trkpt>
      <trkpt lat="45.56742" lon="2.83328">
        <ele>1532.6007774708</ele>
        <time>2019-09-28T12:53:31Z</time>
      </trkpt>
      <trkpt lat="45.56737" lon="2.83323">
        <ele>1532.0624014597</ele>
        <time>2019-09-28T12:53:40Z</time>
      </trkpt>
      <trkpt lat="45.56729" lon="2.83314">
        <ele>1531.3596177939</ele>
        <time>2019-09-28T12:53:50Z</time>
      </trkpt>
      <trkpt lat="45.56724" lon="2.83305">
        <ele>1530.7173099737</ele>
        <time>2019-09-28T12:54:00Z</time>
      </trkpt>
      <trkpt lat="45.56718" lon="2.83298">
        <ele>1530.1668037193</ele>
        <time>2019-09-28T12:54:09Z</time>
      </trkpt>
      <trkpt lat="45.56712" lon="2.83292">
        <ele>1529.6616214725</ele>
        <time>2019-09-28T12:54:18Z</time>
      </trkpt>
      <trkpt lat="45.56707" lon="2.83286">
        <ele>1529.1226586824</ele>
        <time>2019-09-28T12:54:28Z</time>
      </trkpt>
      <trkpt lat="45.56698" lon="2.83279">
        <ele>1528.5512168505</ele>
        <time>2019-09-28T12:54:38Z</time>
      </trkpt>
      <trkpt lat="45.56696" lon="2.83274">
        <ele>1527.8923523374</ele>
        <time>2019-09-28T12:54:48Z</time>
      </trkpt>
      <trkpt lat="45.5669" lon="2.83268">
        <ele>1527.2124508818</ele>
        <time>2019-09-28T12:54:57Z</time>
      </trkpt>
      <trkpt lat="45.56685" lon="2.83266">
        <ele>1526.469399705</ele>
        <time>2019-09-28T12:55:06Z</time>
      </trkpt>
      <trkpt lat="45.56683" lon="2.83265">
        <ele>1525.8050841884</ele>
        <time>2019-09-28T12:55:16Z</time>
      </trkpt>
      <trkpt lat="45.56675" lon="2.83261">
        <ele>1524.6782246942</ele>
        <time>2019-09-28T12:55:25Z</time>
      </trkpt>
      <trkpt lat="45.56667" lon="2.83257">
        <ele>1523.5968033149</ele>
        <time>2019-09-28T12:55:34Z</time>
      </trkpt>
      <trkpt lat="45.56656" lon="2.83254">
        <ele>1522.4009155686</ele>
        <time>2019-09-28T12:55:44Z</time>
      </trkpt>
      <trkpt lat="45.56649" lon="2.83247">
        <ele>1521.3020395172</ele>
        <time>2019-09-28T12:55:53Z</time>
      </trkpt>
      <trkpt lat="45.56641" lon="2.83242">
        <ele>1520.2501599724</ele>
        <time>2019-09-28T12:56:02Z</time>
      </trkpt>
      <trkpt lat="45.56632" lon="2.83236">
        <ele>1519.1311243916</ele>
        <time>2019-09-28T12:56:12Z</time>
      </trkpt>
      <trkpt lat="45.56625" lon="2.83235">
        <ele>1518.0172889969</ele>
        <time>2019-09-28T12:56:22Z</time>
      </trkpt>
      <trkpt lat="45.56619" lon="2.8323">
        <ele>1516.8569195387</ele>
        <time>2019-09-28T12:56:31Z</time>
      </trkpt>
      <trkpt lat="45.56613" lon="2.83225">
        <ele>1515.4028753487</ele>
        <time>2019-09-28T12:56:41Z</time>
      </trkpt>
      <trkpt lat="45.56604" lon="2.83218">
        <ele>1513.9704310229</ele>
        <time>2019-09-28T12:56:50Z</time>
      </trkpt>
      <trkpt lat="45.56598" lon="2.83215">
        <ele>1512.6391131846</ele>
        <time>2019-09-28T12:56:59Z</time>
      </trkpt>
      <trkpt lat="45.56589" lon="2.83212">
        <ele>1511.3032569669</ele>
        <time>2019-09-28T12:57:08Z</time>
      </trkpt>
      <trkpt lat="45.56581" lon="2.83209">
        <ele>1509.8571285337</ele>
        <time>2019-09-28T12:57:17Z</time>
      </trkpt>
      <trkpt lat="45.56571" lon="2.83204">
        <ele>1508.4415643446</ele>
        <time>2019-09-28T12:57:26Z</time>
      </trkpt>
      <trkpt lat="45.56562" lon="2.83195">
        <ele>1506.8582150233</ele>
        <time>2019-09-28T12:57:36Z</time>
      </trkpt>
      <trkpt lat="45.56552" lon="2.8319">
        <ele>1505.3216156016</ele>
        <time>2019-09-28T12:57:45Z</time>
      </trkpt>
      <trkpt lat="45.56543" lon="2.83184">
        <ele>1503.6290490366</ele>
        <time>2019-09-28T12:57:55Z</time>
      </trkpt>
      <trkpt lat="45.56535" lon="2.83179">
        <ele>1502.1472895516</ele>
        <time>2019-09-28T12:58:04Z</time>
      </trkpt>
      <trkpt lat="45.56528" lon="2.83175">
        <ele>1500.5988812674</ele>
        <time>2019-09-28T12:58:13Z</time>
      </trkpt>
      <trkpt lat="45.56522" lon="2.83172">
        <ele>1499.1445673459</ele>
        <time>2019-09-28T12:58:22Z</time>
      </trkpt>
      <trkpt lat="45.56514" lon="2.83168">
        <ele>1497.5466922635</ele>
        <time>2019-09-28T12:58:32Z</time>
      </trkpt>
      <trkpt lat="45.56505" lon="2.83164">
        <ele>1496.1210311495</ele>
        <time>2019-09-28T12:58:41Z</time>
      </trkpt>
      <trkpt lat="45.56495" lon="2.83158">
        <ele>1494.6906706559</ele>
        <time>2019-09-28T12:58:50Z</time>
      </trkpt>
      <trkpt lat="45.56487" lon="2.83153">
        <ele>1492.9969919041</ele>
        <time>2019-09-28T12:59:00Z</time>
      </trkpt>
      <trkpt lat="45.5648" lon="2.8315">
        <ele>1491.2188039442</ele>
        <time>2019-09-28T12:59:10Z</time>
      </trkpt>
      <trkpt lat="45.56473" lon="2.83143">
        <ele>1489.567047401</ele>
        <time>2019-09-28T12:59:19Z</time>
      </trkpt>
      <trkpt lat="45.56465" lon="2.83136">
        <ele>1487.8922195093</ele>
        <time>2019-09-28T12:59:28Z</time>
      </trkpt>
      <trkpt lat="45.56456" lon="2.83132">
        <ele>1486.2362038572</ele>
        <time>2019-09-28T12:59:37Z</time>
      </trkpt>
      <trkpt lat="45.56446" lon="2.83128">
        <ele>1484.5397089617</ele>
        <time>2019-09-28T12:59:47Z</time>
      </trkpt>
      <trkpt lat="45.56436" lon="2.83125">
        <ele>1483.0463870897</ele>
        <time>2019-09-28T12:59:56Z</time>
      </trkpt>
      <trkpt lat="45.56427" lon="2.8312">
        <ele>1481.6064854301</ele>
        <time>2019-09-28T13:00:05Z</time>
      </trkpt>
      <trkpt lat="45.56418" lon="2.83113">
        <ele>1479.9775974422</ele>
        <time>2019-09-28T13:00:15Z</time>
      </trkpt>
      <trkpt lat="45.56415" lon="2.83109">
        <ele>1478.3939986243</ele>
        <time>2019-09-28T13:00:25Z</time>
      </trkpt>
      <trkpt lat="45.56409" lon="2.83103">
        <ele>1477.0264593325</ele>
        <time>2019-09-28T13:00:34Z</time>
      </trkpt>
      <trkpt lat="45.56404" lon="2.83096">
        <ele>1475.7041099373</ele>
        <time>2019-09-28T13:00:43Z</time>
      </trkpt>
      <trkpt lat="45.56402" lon="2.8309">
        <ele>1474.3761229957</ele>
        <time>2019-09-28T13:00:52Z</time>
      </trkpt>
      <trkpt lat="45.56399" lon="2.83087">
        <ele>1473.6881282999</ele>
        <time>2019-09-28T13:01:02Z</time>
      </trkpt>
      <trkpt lat="45.56398" lon="2.83086">
        <ele>1473.3250304656</ele>
        <time>2019-09-28T13:01:14Z</time>
      </trkpt>
      <trkpt lat="45.56398" lon="2.83085">
        <ele>1473.0616238121</ele>
        <time>2019-09-28T13:01:28Z</time>
      </trkpt>
      <trkpt lat="45.56397" lon="2.83085">
        <ele>1472.4811932109</ele>
        <time>2019-09-28T13:01:39Z</time>
      </trkpt>
      <trkpt lat="45.56397" lon="2.83084">
        <ele>1471.6453975862</ele>
        <time>2019-09-28T13:01:54Z</time>
      </trkpt>
      <trkpt lat="45.56394" lon="2.83082">
        <ele>1470.5578961113</ele>
        <time>2019-09-28T13:02:03Z</time>
      </trkpt>
      <trkpt lat="45.56387" lon="2.8308">
        <ele>1468.7494160354</ele>
        <time>2019-09-28T13:02:13Z</time>
      </trkpt>
      <trkpt lat="45.56379" lon="2.83079">
        <ele>1467.2737687547</ele>
        <time>2019-09-28T13:02:22Z</time>
      </trkpt>
      <trkpt lat="45.56374" lon="2.83081">
        <ele>1465.5365356985</ele>
        <time>2019-09-28T13:02:32Z</time>
      </trkpt>
      <trkpt lat="45.56366" lon="2.83085">
        <ele>1464.0259021529</ele>
        <time>2019-09-28T13:02:41Z</time>
      </trkpt>
      <trkpt lat="45.56358" lon="2.83093">
        <ele>1462.5455575601</ele>
        <time>2019-09-28T13:02:51Z</time>
      </trkpt>
      <trkpt lat="45.56354" lon="2.83094">
        <ele>1461.6999007976</ele>
        <time>2019-09-28T13:03:00Z</time>
      </trkpt>
      <trkpt lat="45.56354" lon="2.83093">
        <ele>1461.0066635269</ele>
        <time>2019-09-28T13:03:29Z</time>
      </trkpt>
      <trkpt lat="45.56352" lon="2.83092">
        <ele>1460.5643247448</ele>
        <time>2019-09-28T13:03:39Z</time>
      </trkpt>
      <trkpt lat="45.56352" lon="2.83092">
        <ele>1460.410436583</ele>
        <time>2019-09-28T13:03:49Z</time>
      </trkpt>
      <trkpt lat="45.56349" lon="2.83091">
        <ele>1459.8385164732</ele>
        <time>2019-09-28T13:03:59Z</time>
      </trkpt>
      <trkpt lat="45.56349" lon="2.8309">
        <ele>1459.5591229336</ele>
        <time>2019-09-28T13:04:08Z</time>
      </trkpt>
      <trkpt lat="45.5635" lon="2.83091">
        <ele>1458.9936981816</ele>
        <time>2019-09-28T13:04:43Z</time>
      </trkpt>
      <trkpt lat="45.5635" lon="2.83092">
        <ele>1457.9553735666</ele>
        <time>2019-09-28T13:05:45Z</time>
      </trkpt>
      <trkpt lat="45.56349" lon="2.83096">
        <ele>1456.6861691836</ele>
        <time>2019-09-28T13:05:55Z</time>
      </trkpt>
      <trkpt lat="45.56345" lon="2.83102">
        <ele>1455.5011822661</ele>
        <time>2019-09-28T13:06:04Z</time>
      </trkpt>
      <trkpt lat="45.56337" lon="2.83105">
        <ele>1454.3838353283</ele>
        <time>2019-09-28T13:06:14Z</time>
      </trkpt>
      <trkpt lat="45.56329" lon="2.83107">
        <ele>1453.5201508171</ele>
        <time>2019-09-28T13:06:23Z</time>
      </trkpt>
      <trkpt lat="45.56321" lon="2.83106">
        <ele>1452.7911778782</ele>
        <time>2019-09-28T13:06:32Z</time>
      </trkpt>
      <trkpt lat="45.56311" lon="2.83107">
        <ele>1452.1103379367</ele>
        <time>2019-09-28T13:06:42Z</time>
      </trkpt>
      <trkpt lat="45.56301" lon="2.83108">
        <ele>1451.5865916779</ele>
        <time>2019-09-28T13:06:51Z</time>
      </trkpt>
      <trkpt lat="45.56291" lon="2.83111">
        <ele>1451.0773952504</ele>
        <time>2019-09-28T13:07:01Z</time>
      </trkpt>
      <trkpt lat="45.56284" lon="2.83113">
        <ele>1450.6844092012</ele>
        <time>2019-09-28T13:07:10Z</time>
      </trkpt>
      <trkpt lat="45.56275" lon="2.83117">
        <ele>1450.3252300233</ele>
        <time>2019-09-28T13:07:20Z</time>
      </trkpt>
      <trkpt lat="45.56266" lon="2.83119">
        <ele>1450.0500449424</ele>
        <time>2019-09-28T13:07:29Z</time>
      </trkpt>
      <trkpt lat="45.56259" lon="2.83121">
        <ele>1449.825355097</ele>
        <time>2019-09-28T13:07:38Z</time>
      </trkpt>
      <trkpt lat="45.56252" lon="2.8312">
        <ele>1449.6472295527</ele>
        <time>2019-09-28T13:07:47Z</time>
      </trkpt>
      <trkpt lat="45.56243" lon="2.83123">
        <ele>1449.5135258196</ele>
        <time>2019-09-28T13:07:57Z</time>
      </trkpt>
      <trkpt lat="45.56233" lon="2.83122">
        <ele>1449.4318702706</ele>
        <time>2019-09-28T13:08:06Z</time>
      </trkpt>
      <trkpt lat="45.56228" lon="2.83124">
        <ele>1449.3812507762</ele>
        <time>2019-09-28T13:08:15Z</time>
      </trkpt>
      <trkpt lat="45.56218" lon="2.83128">
        <ele>1449.3462544556</ele>
        <time>2019-09-28T13:08:24Z</time>
      </trkpt>
      <trkpt lat="45.56207" lon="2.83132">
        <ele>1449.3470023861</ele>
        <time>2019-09-28T13:08:34Z</time>
      </trkpt>
      <trkpt lat="45.56198" lon="2.83136">
        <ele>1449.3888259826</ele>
        <time>2019-09-28T13:08:43Z</time>
      </trkpt>
      <trkpt lat="45.56187" lon="2.83141">
        <ele>1449.4698350962</ele>
        <time>2019-09-28T13:08:53Z</time>
      </trkpt>
      <trkpt lat="45.56181" lon="2.83143">
        <ele>1449.5595342135</ele>
        <time>2019-09-28T13:09:02Z</time>
      </trkpt>
      <trkpt lat="45.56175" lon="2.83142">
        <ele>1449.6641523916</ele>
        <time>2019-09-28T13:09:11Z</time>
      </trkpt>
      <trkpt lat="45.56165" lon="2.83144">
        <ele>1449.7745756299</ele>
        <time>2019-09-28T13:09:20Z</time>
      </trkpt>
      <trkpt lat="45.56156" lon="2.83146">
        <ele>1449.8946744567</ele>
        <time>2019-09-28T13:09:30Z</time>
      </trkpt>
      <trkpt lat="45.56148" lon="2.83148">
        <ele>1449.9991759228</ele>
        <time>2019-09-28T13:09:39Z</time>
      </trkpt>
      <trkpt lat="45.5614" lon="2.83149">
        <ele>1450.1291985508</ele>
        <time>2019-09-28T13:09:48Z</time>
      </trkpt>
      <trkpt lat="45.56129" lon="2.83152">
        <ele>1450.2831323108</ele>
        <time>2019-09-28T13:09:57Z</time>
      </trkpt>
      <trkpt lat="45.56116" lon="2.83151">
        <ele>1450.4610161933</ele>
        <time>2019-09-28T13:10:07Z</time>
      </trkpt>
      <trkpt lat="45.56108" lon="2.83153">
        <ele>1450.60223717</ele>
        <time>2019-09-28T13:10:16Z</time>
      </trkpt>
      <trkpt lat="45.56096" lon="2.83158">
        <ele>1450.7536258711</ele>
        <time>2019-09-28T13:10:26Z</time>
      </trkpt>
      <trkpt lat="45.56088" lon="2.83166">
        <ele>1450.9077510305</ele>
        <time>2019-09-28T13:10:36Z</time>
      </trkpt>
      <trkpt lat="45.56083" lon="2.83171">
        <ele>1451.0752590661</ele>
        <time>2019-09-28T13:10:45Z</time>
      </trkpt>
      <trkpt lat="45.56074" lon="2.83178">
        <ele>1451.288574617</ele>
        <time>2019-09-28T13:10:54Z</time>
      </trkpt>
      <trkpt lat="45.56067" lon="2.8318">
        <ele>1451.5397406121</ele>
        <time>2019-09-28T13:11:03Z</time>
      </trkpt>
      <trkpt lat="45.56061" lon="2.83177">
        <ele>1451.7979446575</ele>
        <time>2019-09-28T13:11:12Z</time>
      </trkpt>
      <trkpt lat="45.56061" lon="2.83176">
        <ele>1452.0244915102</ele>
        <time>2019-09-28T13:11:26Z</time>
      </trkpt>
      <trkpt lat="45.5606" lon="2.83177">
        <ele>1452.2094104874</ele>
        <time>2019-09-28T13:11:40Z</time>
      </trkpt>
      <trkpt lat="45.56059" lon="2.83178">
        <ele>1452.345155608</ele>
        <time>2019-09-28T13:11:50Z</time>
      </trkpt>
      <trkpt lat="45.56058" lon="2.8318">
        <ele>1452.4157290845</ele>
        <time>2019-09-28T13:12:00Z</time>
      </trkpt>
      <trkpt lat="45.56055" lon="2.83182">
        <ele>1452.6843611955</ele>
        <time>2019-09-28T13:12:09Z</time>
      </trkpt>
      <trkpt lat="45.56055" lon="2.83182">
        <ele>1452.8107118482</ele>
        <time>2019-09-28T13:12:18Z</time>
      </trkpt>
      <trkpt lat="45.56054" lon="2.8318">
        <ele>1452.9081270614</ele>
        <time>2019-09-28T13:12:27Z</time>
      </trkpt>
      <trkpt lat="45.56055" lon="2.83179">
        <ele>1452.9571618734</ele>
        <time>2019-09-28T13:12:39Z</time>
      </trkpt>
      <trkpt lat="45.56055" lon="2.83178">
        <ele>1453.0384029114</ele>
        <time>2019-09-28T13:12:49Z</time>
      </trkpt>
      <trkpt lat="45.56054" lon="2.83178">
        <ele>1453.2421581443</ele>
        <time>2019-09-28T13:12:58Z</time>
      </trkpt>
      <trkpt lat="45.56051" lon="2.83182">
        <ele>1453.36668035</ele>
        <time>2019-09-28T13:13:08Z</time>
      </trkpt>
      <trkpt lat="45.56051" lon="2.83181">
        <ele>1453.5383041076</ele>
        <time>2019-09-28T13:13:26Z</time>
      </trkpt>
      <trkpt lat="45.56045" lon="2.83172">
        <ele>1453.9524313769</ele>
        <time>2019-09-28T13:13:35Z</time>
      </trkpt>
      <trkpt lat="45.56036" lon="2.83163">
        <ele>1454.4002466882</ele>
        <time>2019-09-28T13:13:45Z</time>
      </trkpt>
      <trkpt lat="45.56032" lon="2.83156">
        <ele>1454.7918126182</ele>
        <time>2019-09-28T13:13:54Z</time>
      </trkpt>
      <trkpt lat="45.56029" lon="2.83148">
        <ele>1455.1537938818</ele>
        <time>2019-09-28T13:14:03Z</time>
      </trkpt>
      <trkpt lat="45.56029" lon="2.8313">
        <ele>1455.5168185343</ele>
        <time>2019-09-28T13:14:13Z</time>
      </trkpt>
      <trkpt lat="45.56025" lon="2.83116">
        <ele>1455.8259579001</ele>
        <time>2019-09-28T13:14:22Z</time>
      </trkpt>
      <trkpt lat="45.56026" lon="2.83105">
        <ele>1456.13183495</ele>
        <time>2019-09-28T13:14:32Z</time>
      </trkpt>
      <trkpt lat="45.56028" lon="2.83089">
        <ele>1456.3896114922</ele>
        <time>2019-09-28T13:14:42Z</time>
      </trkpt>
      <trkpt lat="45.56029" lon="2.8308">
        <ele>1456.5344526601</ele>
        <time>2019-09-28T13:14:51Z</time>
      </trkpt>
      <trkpt lat="45.56029" lon="2.83079">
        <ele>1456.6540726592</ele>
        <time>2019-09-28T13:15:07Z</time>
      </trkpt>
      <trkpt lat="45.56032" lon="2.83065">
        <ele>1456.8535656999</ele>
        <time>2019-09-28T13:15:17Z</time>
      </trkpt>
      <trkpt lat="45.56033" lon="2.83051">
        <ele>1457.0093626561</ele>
        <time>2019-09-28T13:15:27Z</time>
      </trkpt>
      <trkpt lat="45.56037" lon="2.83037">
        <ele>1457.1117095213</ele>
        <time>2019-09-28T13:15:36Z</time>
      </trkpt>
      <trkpt lat="45.56043" lon="2.83027">
        <ele>1457.1956863209</ele>
        <time>2019-09-28T13:15:45Z</time>
      </trkpt>
      <trkpt lat="45.56051" lon="2.83019">
        <ele>1457.2583280136</ele>
        <time>2019-09-28T13:15:54Z</time>
      </trkpt>
      <trkpt lat="45.56058" lon="2.83008">
        <ele>1457.304739075</ele>
        <time>2019-09-28T13:16:03Z</time>
      </trkpt>
      <trkpt lat="45.56061" lon="2.82999">
        <ele>1457.3361992242</ele>
        <time>2019-09-28T13:16:13Z</time>
      </trkpt>
      <trkpt lat="45.56067" lon="2.82986">
        <ele>1457.3502871506</ele>
        <time>2019-09-28T13:16:22Z</time>
      </trkpt>
      <trkpt lat="45.56076" lon="2.82974">
        <ele>1457.346738224</ele>
        <time>2019-09-28T13:16:31Z</time>
      </trkpt>
      <trkpt lat="45.56085" lon="2.82963">
        <ele>1457.3288844269</ele>
        <time>2019-09-28T13:16:40Z</time>
      </trkpt>
      <trkpt lat="45.56093" lon="2.82956">
        <ele>1457.3003611131</ele>
        <time>2019-09-28T13:16:49Z</time>
      </trkpt>
      <trkpt lat="45.56101" lon="2.82952">
        <ele>1457.2732104043</ele>
        <time>2019-09-28T13:16:58Z</time>
      </trkpt>
      <trkpt lat="45.56108" lon="2.82945">
        <ele>1457.2412464668</ele>
        <time>2019-09-28T13:17:07Z</time>
      </trkpt>
      <trkpt lat="45.56115" lon="2.82928">
        <ele>1457.200135248</ele>
        <time>2019-09-28T13:17:17Z</time>
      </trkpt>
      <trkpt lat="45.56114" lon="2.82915">
        <ele>1457.1626671764</ele>
        <time>2019-09-28T13:17:26Z</time>
      </trkpt>
      <trkpt lat="45.56114" lon="2.82901">
        <ele>1457.1301645507</ele>
        <time>2019-09-28T13:17:35Z</time>
      </trkpt>
      <trkpt lat="45.56113" lon="2.82892">
        <ele>1457.0922130579</ele>
        <time>2019-09-28T13:17:45Z</time>
      </trkpt>
      <trkpt lat="45.56112" lon="2.82886">
        <ele>1457.0651594074</ele>
        <time>2019-09-28T13:17:54Z</time>
      </trkpt>
      <trkpt lat="45.56107" lon="2.82871">
        <ele>1457.0180354978</ele>
        <time>2019-09-28T13:18:04Z</time>
      </trkpt>
      <trkpt lat="45.56102" lon="2.82863">
        <ele>1456.9770507384</ele>
        <time>2019-09-28T13:18:13Z</time>
      </trkpt>
      <trkpt lat="45.56102" lon="2.82856">
        <ele>1456.9303658298</ele>
        <time>2019-09-28T13:18:22Z</time>
      </trkpt>
      <trkpt lat="45.56099" lon="2.82848">
        <ele>1456.866733776</ele>
        <time>2019-09-28T13:18:32Z</time>
      </trkpt>
      <trkpt lat="45.56097" lon="2.82844">
        <ele>1456.7986384763</ele>
        <time>2019-09-28T13:18:41Z</time>
      </trkpt>
      <trkpt lat="45.56094" lon="2.82837">
        <ele>1456.7140859723</ele>
        <time>2019-09-28T13:18:50Z</time>
      </trkpt>
      <trkpt lat="45.56097" lon="2.82824">
        <ele>1456.6181708951</ele>
        <time>2019-09-28T13:19:00Z</time>
      </trkpt>
      <trkpt lat="45.56106" lon="2.82812">
        <ele>1456.514952843</ele>
        <time>2019-09-28T13:19:10Z</time>
      </trkpt>
      <trkpt lat="45.56112" lon="2.82799">
        <ele>1456.4149778639</ele>
        <time>2019-09-28T13:19:19Z</time>
      </trkpt>
      <trkpt lat="45.56119" lon="2.82789">
        <ele>1456.3066985668</ele>
        <time>2019-09-28T13:19:28Z</time>
      </trkpt>
      <trkpt lat="45.56123" lon="2.8278">
        <ele>1456.1865676478</ele>
        <time>2019-09-28T13:19:38Z</time>
      </trkpt>
      <trkpt lat="45.56124" lon="2.82771">
        <ele>1456.0855223712</ele>
        <time>2019-09-28T13:19:47Z</time>
      </trkpt>
      <trkpt lat="45.56128" lon="2.82758">
        <ele>1455.9698591055</ele>
        <time>2019-09-28T13:19:57Z</time>
      </trkpt>
      <trkpt lat="45.56134" lon="2.82747">
        <ele>1455.863079069</ele>
        <time>2019-09-28T13:20:06Z</time>
      </trkpt>
      <trkpt lat="45.56138" lon="2.82738">
        <ele>1455.7568494432</ele>
        <time>2019-09-28T13:20:15Z</time>
      </trkpt>
      <trkpt lat="45.56141" lon="2.82727">
        <ele>1455.6386613389</ele>
        <time>2019-09-28T13:20:25Z</time>
      </trkpt>
      <trkpt lat="45.56144" lon="2.8272">
        <ele>1455.5194118311</ele>
        <time>2019-09-28T13:20:35Z</time>
      </trkpt>
      <trkpt lat="45.56147" lon="2.82719">
        <ele>1455.4635083448</ele>
        <time>2019-09-28T13:20:45Z</time>
      </trkpt>
      <trkpt lat="45.56147" lon="2.82719">
        <ele>1455.4213676085</ele>
        <time>2019-09-28T13:20:59Z</time>
      </trkpt>
      <trkpt lat="45.56156" lon="2.82714">
        <ele>1455.2719094551</ele>
        <time>2019-09-28T13:21:09Z</time>
      </trkpt>
      <trkpt lat="45.56157" lon="2.82712">
        <ele>1455.2172342925</ele>
        <time>2019-09-28T13:21:18Z</time>
      </trkpt>
      <trkpt lat="45.56158" lon="2.82711">
        <ele>1455.0549351421</ele>
        <time>2019-09-28T13:21:28Z</time>
      </trkpt>
      <trkpt lat="45.56162" lon="2.82707">
        <ele>1454.8860752501</ele>
        <time>2019-09-28T13:21:37Z</time>
      </trkpt>
      <trkpt lat="45.56161" lon="2.82705">
        <ele>1454.818690011</ele>
        <time>2019-09-28T13:21:46Z</time>
      </trkpt>
      <trkpt lat="45.56169" lon="2.82697">
        <ele>1454.6159797051</ele>
        <time>2019-09-28T13:21:55Z</time>
      </trkpt>
      <trkpt lat="45.56174" lon="2.82687">
        <ele>1454.3773381851</ele>
        <time>2019-09-28T13:22:05Z</time>
      </trkpt>
      <trkpt lat="45.56178" lon="2.82681">
        <ele>1454.1667609081</ele>
        <time>2019-09-28T13:22:14Z</time>
      </trkpt>
      <trkpt lat="45.56185" lon="2.82673">
        <ele>1453.9350562199</ele>
        <time>2019-09-28T13:22:24Z</time>
      </trkpt>
      <trkpt lat="45.56186" lon="2.8267">
        <ele>1453.8476423376</ele>
        <time>2019-09-28T13:22:34Z</time>
      </trkpt>
      <trkpt lat="45.56191" lon="2.82659">
        <ele>1453.6345691797</ele>
        <time>2019-09-28T13:22:44Z</time>
      </trkpt>
      <trkpt lat="45.562" lon="2.82653">
        <ele>1453.397992631</ele>
        <time>2019-09-28T13:22:53Z</time>
      </trkpt>
      <trkpt lat="45.56207" lon="2.82649">
        <ele>1453.1791521136</ele>
        <time>2019-09-28T13:23:02Z</time>
      </trkpt>
      <trkpt lat="45.56217" lon="2.82643">
        <ele>1452.9503330577</ele>
        <time>2019-09-28T13:23:11Z</time>
      </trkpt>
      <trkpt lat="45.5622" lon="2.82638">
        <ele>1452.7108074802</ele>
        <time>2019-09-28T13:23:21Z</time>
      </trkpt>
      <trkpt lat="45.56221" lon="2.82631">
        <ele>1452.5177020687</ele>
        <time>2019-09-28T13:23:30Z</time>
      </trkpt>
      <trkpt lat="45.56226" lon="2.8262">
        <ele>1452.2574203733</ele>
        <time>2019-09-28T13:23:40Z</time>
      </trkpt>
      <trkpt lat="45.56237" lon="2.82612">
        <ele>1451.9588631932</ele>
        <time>2019-09-28T13:23:49Z</time>
      </trkpt>
      <trkpt lat="45.56243" lon="2.82608">
        <ele>1451.6390666141</ele>
        <time>2019-09-28T13:23:59Z</time>
      </trkpt>
      <trkpt lat="45.56252" lon="2.82599">
        <ele>1451.331046172</ele>
        <time>2019-09-28T13:24:09Z</time>
      </trkpt>
      <trkpt lat="45.5625" lon="2.82599">
        <ele>1451.1887771769</ele>
        <time>2019-09-28T13:24:18Z</time>
      </trkpt>
      <trkpt lat="45.56249" lon="2.82598">
        <ele>1451.1189258265</ele>
        <time>2019-09-28T13:24:28Z</time>
      </trkpt>
      <trkpt lat="45.56248" lon="2.82597">
        <ele>1450.9533407942</ele>
        <time>2019-09-28T13:24:37Z</time>
      </trkpt>
      <trkpt lat="45.56253" lon="2.82592">
        <ele>1450.6669238632</ele>
        <time>2019-09-28T13:24:46Z</time>
      </trkpt>
      <trkpt lat="45.56262" lon="2.82584">
        <ele>1450.3763743792</ele>
        <time>2019-09-28T13:24:55Z</time>
      </trkpt>
      <trkpt lat="45.56271" lon="2.82573">
        <ele>1450.0952382759</ele>
        <time>2019-09-28T13:25:05Z</time>
      </trkpt>
      <trkpt lat="45.56278" lon="2.82567">
        <ele>1449.8684069829</ele>
        <time>2019-09-28T13:25:14Z</time>
      </trkpt>
      <trkpt lat="45.56282" lon="2.82562">
        <ele>1449.6888879081</ele>
        <time>2019-09-28T13:25:24Z</time>
      </trkpt>
      <trkpt lat="45.56291" lon="2.82554">
        <ele>1449.4529964586</ele>
        <time>2019-09-28T13:25:33Z</time>
      </trkpt>
      <trkpt lat="45.56301" lon="2.82545">
        <ele>1449.1859475826</ele>
        <time>2019-09-28T13:25:43Z</time>
      </trkpt>
      <trkpt lat="45.56308" lon="2.82538">
        <ele>1448.959090032</ele>
        <time>2019-09-28T13:25:52Z</time>
      </trkpt>
      <trkpt lat="45.56317" lon="2.82532">
        <ele>1448.7157202168</ele>
        <time>2019-09-28T13:26:02Z</time>
      </trkpt>
      <trkpt lat="45.56321" lon="2.82524">
        <ele>1448.4985818471</ele>
        <time>2019-09-28T13:26:11Z</time>
      </trkpt>
      <trkpt lat="45.56326" lon="2.82518">
        <ele>1448.2752272526</ele>
        <time>2019-09-28T13:26:20Z</time>
      </trkpt>
      <trkpt lat="45.5633" lon="2.82511">
        <ele>1448.0382227165</ele>
        <time>2019-09-28T13:26:30Z</time>
      </trkpt>
      <trkpt lat="45.56332" lon="2.82505">
        <ele>1447.8002291345</ele>
        <time>2019-09-28T13:26:39Z</time>
      </trkpt>
      <trkpt lat="45.56333" lon="2.82495">
        <ele>1447.5596198081</ele>
        <time>2019-09-28T13:26:48Z</time>
      </trkpt>
      <trkpt lat="45.56333" lon="2.82485">
        <ele>1447.3199992548</ele>
        <time>2019-09-28T13:26:58Z</time>
      </trkpt>
      <trkpt lat="45.56331" lon="2.82473">
        <ele>1447.2843547573</ele>
        <time>2019-09-28T13:27:07Z</time>
      </trkpt>
      <trkpt lat="45.5633" lon="2.82472">
        <ele>1447.2356332976</ele>
        <time>2019-09-28T13:27:16Z</time>
      </trkpt>
      <trkpt lat="45.56334" lon="2.82464">
        <ele>1446.8522923272</ele>
        <time>2019-09-28T13:27:25Z</time>
      </trkpt>
      <trkpt lat="45.56336" lon="2.8246">
        <ele>1446.2874992447</ele>
        <time>2019-09-28T13:27:35Z</time>
      </trkpt>
      <trkpt lat="45.56341" lon="2.82454">
        <ele>1445.8959968088</ele>
        <time>2019-09-28T13:27:44Z</time>
      </trkpt>
      <trkpt lat="45.56348" lon="2.82444">
        <ele>1445.3882089102</ele>
        <time>2019-09-28T13:27:53Z</time>
      </trkpt>
      <trkpt lat="45.56352" lon="2.82436">
        <ele>1444.873616305</ele>
        <time>2019-09-28T13:28:02Z</time>
      </trkpt>
      <trkpt lat="45.56355" lon="2.8242">
        <ele>1444.2722532379</ele>
        <time>2019-09-28T13:28:12Z</time>
      </trkpt>
      <trkpt lat="45.56359" lon="2.82405">
        <ele>1443.6497568764</ele>
        <time>2019-09-28T13:28:21Z</time>
      </trkpt>
      <trkpt lat="45.56365" lon="2.82396">
        <ele>1443.0148442579</ele>
        <time>2019-09-28T13:28:30Z</time>
      </trkpt>
      <trkpt lat="45.56366" lon="2.82384">
        <ele>1442.2601647975</ele>
        <time>2019-09-28T13:28:39Z</time>
      </trkpt>
      <trkpt lat="45.56371" lon="2.82371">
        <ele>1441.1101094162</ele>
        <time>2019-09-28T13:28:48Z</time>
      </trkpt>
      <trkpt lat="45.56372" lon="2.82362">
        <ele>1439.7622972801</ele>
        <time>2019-09-28T13:28:58Z</time>
      </trkpt>
      <trkpt lat="45.56374" lon="2.82356">
        <ele>1438.544685578</ele>
        <time>2019-09-28T13:29:08Z</time>
      </trkpt>
      <trkpt lat="45.56379" lon="2.82345">
        <ele>1437.3417341533</ele>
        <time>2019-09-28T13:29:17Z</time>
      </trkpt>
      <trkpt lat="45.56382" lon="2.82336">
        <ele>1435.9278756459</ele>
        <time>2019-09-28T13:29:27Z</time>
      </trkpt>
      <trkpt lat="45.56386" lon="2.82328">
        <ele>1434.4623970307</ele>
        <time>2019-09-28T13:29:37Z</time>
      </trkpt>
      <trkpt lat="45.5639" lon="2.82323">
        <ele>1433.1291579205</ele>
        <time>2019-09-28T13:29:46Z</time>
      </trkpt>
      <trkpt lat="45.56391" lon="2.82315">
        <ele>1431.8336184551</ele>
        <time>2019-09-28T13:29:56Z</time>
      </trkpt>
      <trkpt lat="45.56391" lon="2.82314">
        <ele>1431.6893711972</ele>
        <time>2019-09-28T13:30:05Z</time>
      </trkpt>
      <trkpt lat="45.56391" lon="2.82313">
        <ele>1431.1587706562</ele>
        <time>2019-09-28T13:30:23Z</time>
      </trkpt>
      <trkpt lat="45.56396" lon="2.82308">
        <ele>1429.5082872397</ele>
        <time>2019-09-28T13:30:32Z</time>
      </trkpt>
      <trkpt lat="45.56399" lon="2.82299">
        <ele>1427.7878543779</ele>
        <time>2019-09-28T13:30:42Z</time>
      </trkpt>
      <trkpt lat="45.564" lon="2.82295">
        <ele>1426.5012322153</ele>
        <time>2019-09-28T13:30:51Z</time>
      </trkpt>
      <trkpt lat="45.56403" lon="2.82288">
        <ele>1425.0236635096</ele>
        <time>2019-09-28T13:31:00Z</time>
      </trkpt>
      <trkpt lat="45.56406" lon="2.8227">
        <ele>1423.4742392395</ele>
        <time>2019-09-28T13:31:10Z</time>
      </trkpt>
      <trkpt lat="45.56408" lon="2.82258">
        <ele>1422.1961010315</ele>
        <time>2019-09-28T13:31:19Z</time>
      </trkpt>
      <trkpt lat="45.56416" lon="2.82251">
        <ele>1420.7961986662</ele>
        <time>2019-09-28T13:31:29Z</time>
      </trkpt>
      <trkpt lat="45.56421" lon="2.82244">
        <ele>1419.640728895</ele>
        <time>2019-09-28T13:31:38Z</time>
      </trkpt>
      <trkpt lat="45.56428" lon="2.82236">
        <ele>1418.5832125861</ele>
        <time>2019-09-28T13:31:47Z</time>
      </trkpt>
      <trkpt lat="45.56432" lon="2.82226">
        <ele>1417.4980516973</ele>
        <time>2019-09-28T13:31:57Z</time>
      </trkpt>
      <trkpt lat="45.56436" lon="2.82216">
        <ele>1416.6200832107</ele>
        <time>2019-09-28T13:32:06Z</time>
      </trkpt>
      <trkpt lat="45.56439" lon="2.82206">
        <ele>1416.017527868</ele>
        <time>2019-09-28T13:32:15Z</time>
      </trkpt>
      <trkpt lat="45.56437" lon="2.82199">
        <ele>1415.4041271461</ele>
        <time>2019-09-28T13:32:25Z</time>
      </trkpt>
      <trkpt lat="45.56436" lon="2.822">
        <ele>1415.1939636225</ele>
        <time>2019-09-28T13:32:37Z</time>
      </trkpt>
      <trkpt lat="45.56435" lon="2.82201">
        <ele>1414.9439825552</ele>
        <time>2019-09-28T13:32:47Z</time>
      </trkpt>
      <trkpt lat="45.56434" lon="2.82201">
        <ele>1414.6649803861</ele>
        <time>2019-09-28T13:32:57Z</time>
      </trkpt>
      <trkpt lat="45.56433" lon="2.82201">
        <ele>1414.2439981921</ele>
        <time>2019-09-28T13:33:09Z</time>
      </trkpt>
      <trkpt lat="45.56432" lon="2.82202">
        <ele>1412.7363207905</ele>
        <time>2019-09-28T13:33:19Z</time>
      </trkpt>
      <trkpt lat="45.56432" lon="2.822">
        <ele>1412.3145467526</ele>
        <time>2019-09-28T13:33:28Z</time>
      </trkpt>
      <trkpt lat="45.56432" lon="2.822">
        <ele>1408.8292668174</ele>
        <time>2019-09-28T13:33:53Z</time>
      </trkpt>
      <trkpt lat="45.56437" lon="2.82194">
        <ele>1404.8984824623</ele>
        <time>2019-09-28T13:34:02Z</time>
      </trkpt>
      <trkpt lat="45.56443" lon="2.82184">
        <ele>1401.1915263257</ele>
        <time>2019-09-28T13:34:12Z</time>
      </trkpt>
      <trkpt lat="45.56451" lon="2.82174">
        <ele>1398.0840461542</ele>
        <time>2019-09-28T13:34:22Z</time>
      </trkpt>
      <trkpt lat="45.56455" lon="2.82162">
        <ele>1395.4771134995</ele>
        <time>2019-09-28T13:34:32Z</time>
      </trkpt>
      <trkpt lat="45.56462" lon="2.82153">
        <ele>1393.4740422609</ele>
        <time>2019-09-28T13:34:41Z</time>
      </trkpt>
      <trkpt lat="45.5647" lon="2.82144">
        <ele>1391.5658047827</ele>
        <time>2019-09-28T13:34:51Z</time>
      </trkpt>
      <trkpt lat="45.56473" lon="2.82139">
        <ele>1390.0958170146</ele>
        <time>2019-09-28T13:35:00Z</time>
      </trkpt>
      <trkpt lat="45.5648" lon="2.82127">
        <ele>1388.8002411861</ele>
        <time>2019-09-28T13:35:09Z</time>
      </trkpt>
      <trkpt lat="45.56487" lon="2.82117">
        <ele>1387.6612784595</ele>
        <time>2019-09-28T13:35:18Z</time>
      </trkpt>
      <trkpt lat="45.56494" lon="2.82105">
        <ele>1386.6725567301</ele>
        <time>2019-09-28T13:35:27Z</time>
      </trkpt>
      <trkpt lat="45.56501" lon="2.82101">
        <ele>1385.7075383242</ele>
        <time>2019-09-28T13:35:37Z</time>
      </trkpt>
      <trkpt lat="45.56507" lon="2.82098">
        <ele>1384.9945017925</ele>
        <time>2019-09-28T13:35:47Z</time>
      </trkpt>
      <trkpt lat="45.56512" lon="2.82095">
        <ele>1384.3448794478</ele>
        <time>2019-09-28T13:35:56Z</time>
      </trkpt>
      <trkpt lat="45.56518" lon="2.82097">
        <ele>1383.6188723839</ele>
        <time>2019-09-28T13:36:06Z</time>
      </trkpt>
      <trkpt lat="45.56526" lon="2.8209">
        <ele>1382.9324307829</ele>
        <time>2019-09-28T13:36:15Z</time>
      </trkpt>
      <trkpt lat="45.56534" lon="2.82089">
        <ele>1382.2504636113</ele>
        <time>2019-09-28T13:36:25Z</time>
      </trkpt>
      <trkpt lat="45.56542" lon="2.82084">
        <ele>1381.6706492464</ele>
        <time>2019-09-28T13:36:35Z</time>
      </trkpt>
      <trkpt lat="45.56547" lon="2.82079">
        <ele>1380.9650996908</ele>
        <time>2019-09-28T13:36:44Z</time>
      </trkpt>
      <trkpt lat="45.56554" lon="2.82081">
        <ele>1380.2567560471</ele>
        <time>2019-09-28T13:36:54Z</time>
      </trkpt>
      <trkpt lat="45.56555" lon="2.82075">
        <ele>1379.6352418784</ele>
        <time>2019-09-28T13:37:03Z</time>
      </trkpt>
      <trkpt lat="45.56551" lon="2.82076">
        <ele>1379.5217747293</ele>
        <time>2019-09-28T13:37:13Z</time>
      </trkpt>
      <trkpt lat="45.56552" lon="2.82076">
        <ele>1379.1668686194</ele>
        <time>2019-09-28T13:37:22Z</time>
      </trkpt>
      <trkpt lat="45.56553" lon="2.82077">
        <ele>1378.7683977644</ele>
        <time>2019-09-28T13:37:32Z</time>
      </trkpt>
      <trkpt lat="45.56557" lon="2.8207">
        <ele>1377.4520460537</ele>
        <time>2019-09-28T13:37:41Z</time>
      </trkpt>
      <trkpt lat="45.56566" lon="2.82057">
        <ele>1376.024192352</ele>
        <time>2019-09-28T13:37:51Z</time>
      </trkpt>
      <trkpt lat="45.5657" lon="2.8205">
        <ele>1374.7198999749</ele>
        <time>2019-09-28T13:38:01Z</time>
      </trkpt>
      <trkpt lat="45.56579" lon="2.82035">
        <ele>1373.5758426702</ele>
        <time>2019-09-28T13:38:10Z</time>
      </trkpt>
      <trkpt lat="45.56585" lon="2.82024">
        <ele>1372.4813952136</ele>
        <time>2019-09-28T13:38:19Z</time>
      </trkpt>
      <trkpt lat="45.56587" lon="2.82015">
        <ele>1371.4878850749</ele>
        <time>2019-09-28T13:38:28Z</time>
      </trkpt>
      <trkpt lat="45.56589" lon="2.82005">
        <ele>1370.5838908179</ele>
        <time>2019-09-28T13:38:37Z</time>
      </trkpt>
      <trkpt lat="45.56585" lon="2.81994">
        <ele>1369.6944773442</ele>
        <time>2019-09-28T13:38:46Z</time>
      </trkpt>
      <trkpt lat="45.56584" lon="2.81989">
        <ele>1369.4139780316</ele>
        <time>2019-09-28T13:38:55Z</time>
      </trkpt>
      <trkpt lat="45.56584" lon="2.8199">
        <ele>1368.9305038918</ele>
        <time>2019-09-28T13:39:21Z</time>
      </trkpt>
      <trkpt lat="45.56584" lon="2.81991">
        <ele>1368.4614125978</ele>
        <time>2019-09-28T13:39:30Z</time>
      </trkpt>
      <trkpt lat="45.56582" lon="2.81992">
        <ele>1368.0032227368</ele>
        <time>2019-09-28T13:39:39Z</time>
      </trkpt>
      <trkpt lat="45.56582" lon="2.81991">
        <ele>1366.1044061968</ele>
        <time>2019-09-28T13:40:01Z</time>
      </trkpt>
      <trkpt lat="45.56582" lon="2.81988">
        <ele>1365.5523837993</ele>
        <time>2019-09-28T13:40:10Z</time>
      </trkpt>
      <trkpt lat="45.56583" lon="2.81988">
        <ele>1365.1302804915</ele>
        <time>2019-09-28T13:40:37Z</time>
      </trkpt>
      <trkpt lat="45.56576" lon="2.81981">
        <ele>1363.8041619497</ele>
        <time>2019-09-28T13:40:46Z</time>
      </trkpt>
      <trkpt lat="45.56567" lon="2.81971">
        <ele>1362.5100207864</ele>
        <time>2019-09-28T13:40:55Z</time>
      </trkpt>
      <trkpt lat="45.5656" lon="2.81962">
        <ele>1361.2621250692</ele>
        <time>2019-09-28T13:41:05Z</time>
      </trkpt>
      <trkpt lat="45.56555" lon="2.81953">
        <ele>1360.2944431598</ele>
        <time>2019-09-28T13:41:14Z</time>
      </trkpt>
      <trkpt lat="45.56554" lon="2.81949">
        <ele>1360.0317099269</ele>
        <time>2019-09-28T13:41:23Z</time>
      </trkpt>
      <trkpt lat="45.56551" lon="2.81939">
        <ele>1359.2027864001</ele>
        <time>2019-09-28T13:41:32Z</time>
      </trkpt>
      <trkpt lat="45.56552" lon="2.81929">
        <ele>1358.4737246194</ele>
        <time>2019-09-28T13:41:41Z</time>
      </trkpt>
      <trkpt lat="45.56553" lon="2.81915">
        <ele>1357.8118175886</ele>
        <time>2019-09-28T13:41:50Z</time>
      </trkpt>
      <trkpt lat="45.56558" lon="2.81905">
        <ele>1357.2102588515</ele>
        <time>2019-09-28T13:41:59Z</time>
      </trkpt>
      <trkpt lat="45.56561" lon="2.81891">
        <ele>1356.720705376</ele>
        <time>2019-09-28T13:42:08Z</time>
      </trkpt>
      <trkpt lat="45.56559" lon="2.81896">
        <ele>1356.1573111646</ele>
        <time>2019-09-28T13:42:17Z</time>
      </trkpt>
      <trkpt lat="45.5656" lon="2.81908">
        <ele>1355.5835803615</ele>
        <time>2019-09-28T13:42:26Z</time>
      </trkpt>
      <trkpt lat="45.56561" lon="2.81919">
        <ele>1354.9804569668</ele>
        <time>2019-09-28T13:42:36Z</time>
      </trkpt>
      <trkpt lat="45.56562" lon="2.81923">
        <ele>1354.499801879</ele>
        <time>2019-09-28T13:42:46Z</time>
      </trkpt>
      <trkpt lat="45.5656" lon="2.81935">
        <ele>1353.9766423873</ele>
        <time>2019-09-28T13:42:55Z</time>
      </trkpt>
      <trkpt lat="45.56557" lon="2.81941">
        <ele>1353.4959911678</ele>
        <time>2019-09-28T13:43:05Z</time>
      </trkpt>
      <trkpt lat="45.56563" lon="2.81947">
        <ele>1353.0227145825</ele>
        <time>2019-09-28T13:43:14Z</time>
      </trkpt>
      <trkpt lat="45.56564" lon="2.81945">
        <ele>1352.5511821355</ele>
        <time>2019-09-28T13:43:23Z</time>
      </trkpt>
      <trkpt lat="45.56567" lon="2.81945">
        <ele>1352.1331916078</ele>
        <time>2019-09-28T13:43:33Z</time>
      </trkpt>
      <trkpt lat="45.56568" lon="2.81946">
        <ele>1351.7362120581</ele>
        <time>2019-09-28T13:43:43Z</time>
      </trkpt>
      <trkpt lat="45.56567" lon="2.8195">
        <ele>1351.6275027369</ele>
        <time>2019-09-28T13:43:52Z</time>
      </trkpt>
      <trkpt lat="45.5657" lon="2.81948">
        <ele>1351.4989925965</ele>
        <time>2019-09-28T13:44:02Z</time>
      </trkpt>
      <trkpt lat="45.56571" lon="2.81947">
        <ele>1351.3764994293</ele>
        <time>2019-09-28T13:44:11Z</time>
      </trkpt>
      <trkpt lat="45.56572" lon="2.81946">
        <ele>1351.1245508382</ele>
        <time>2019-09-28T13:44:21Z</time>
      </trkpt>
      <trkpt lat="45.56574" lon="2.81946">
        <ele>1350.8488039669</ele>
        <time>2019-09-28T13:44:31Z</time>
      </trkpt>
      <trkpt lat="45.56575" lon="2.81944">
        <ele>1350.6810099558</ele>
        <time>2019-09-28T13:44:41Z</time>
      </trkpt>
      <trkpt lat="45.56575" lon="2.81937">
        <ele>1350.4181437215</ele>
        <time>2019-09-28T13:44:50Z</time>
      </trkpt>
      <trkpt lat="45.56575" lon="2.81934">
        <ele>1350.3296705269</ele>
        <time>2019-09-28T13:45:00Z</time>
      </trkpt>
      <trkpt lat="45.56574" lon="2.81927">
        <ele>1349.9335687242</ele>
        <time>2019-09-28T13:45:09Z</time>
      </trkpt>
      <trkpt lat="45.56574" lon="2.81921">
        <ele>1349.6125758109</ele>
        <time>2019-09-28T13:45:19Z</time>
      </trkpt>
      <trkpt lat="45.56574" lon="2.81912">
        <ele>1349.1822796041</ele>
        <time>2019-09-28T13:45:29Z</time>
      </trkpt>
      <trkpt lat="45.56577" lon="2.81908">
        <ele>1348.8776711578</ele>
        <time>2019-09-28T13:45:38Z</time>
      </trkpt>
      <trkpt lat="45.56578" lon="2.81911">
        <ele>1348.8030648492</ele>
        <time>2019-09-28T13:45:47Z</time>
      </trkpt>
      <trkpt lat="45.56582" lon="2.81916">
        <ele>1348.5205197532</ele>
        <time>2019-09-28T13:45:57Z</time>
      </trkpt>
      <trkpt lat="45.56583" lon="2.81925">
        <ele>1348.1621025576</ele>
        <time>2019-09-28T13:46:06Z</time>
      </trkpt>
      <trkpt lat="45.56585" lon="2.8193">
        <ele>1347.8986201565</ele>
        <time>2019-09-28T13:46:15Z</time>
      </trkpt>
      <trkpt lat="45.56585" lon="2.81933">
        <ele>1347.6195615381</ele>
        <time>2019-09-28T13:46:24Z</time>
      </trkpt>
      <trkpt lat="45.56589" lon="2.81941">
        <ele>1347.3543772951</ele>
        <time>2019-09-28T13:46:33Z</time>
      </trkpt>
      <trkpt lat="45.56591" lon="2.81945">
        <ele>1347.1011484212</ele>
        <time>2019-09-28T13:46:42Z</time>
      </trkpt>
      <trkpt lat="45.5659" lon="2.81952">
        <ele>1346.8566691994</ele>
        <time>2019-09-28T13:46:52Z</time>
      </trkpt>
      <trkpt lat="45.56592" lon="2.81959">
        <ele>1346.6708670916</ele>
        <time>2019-09-28T13:47:01Z</time>
      </trkpt>
      <trkpt lat="45.56594" lon="2.8196">
        <ele>1346.4868627036</ele>
        <time>2019-09-28T13:47:10Z</time>
      </trkpt>
      <trkpt lat="45.56596" lon="2.81952">
        <ele>1346.2285254673</ele>
        <time>2019-09-28T13:47:20Z</time>
      </trkpt>
      <trkpt lat="45.56601" lon="2.81942">
        <ele>1346.0291955595</ele>
        <time>2019-09-28T13:47:29Z</time>
      </trkpt>
      <trkpt lat="45.56604" lon="2.81933">
        <ele>1345.7911482418</ele>
        <time>2019-09-28T13:47:39Z</time>
      </trkpt>
      <trkpt lat="45.56606" lon="2.81924">
        <ele>1345.5425007833</ele>
        <time>2019-09-28T13:47:48Z</time>
      </trkpt>
      <trkpt lat="45.5661" lon="2.81926">
        <ele>1345.3546535949</ele>
        <time>2019-09-28T13:47:58Z</time>
      </trkpt>
      <trkpt lat="45.56612" lon="2.81931">
        <ele>1345.2285484319</ele>
        <time>2019-09-28T13:48:08Z</time>
      </trkpt>
      <trkpt lat="45.56613" lon="2.81932">
        <ele>1345.182195473</ele>
        <time>2019-09-28T13:48:17Z</time>
      </trkpt>
      <trkpt lat="45.56616" lon="2.81944">
        <ele>1344.8461014442</ele>
        <time>2019-09-28T13:48:26Z</time>
      </trkpt>
      <trkpt lat="45.56621" lon="2.81963">
        <ele>1344.4032059719</ele>
        <time>2019-09-28T13:48:35Z</time>
      </trkpt>
      <trkpt lat="45.56625" lon="2.81974">
        <ele>1343.8964978206</ele>
        <time>2019-09-28T13:48:45Z</time>
      </trkpt>
      <trkpt lat="45.56629" lon="2.81979">
        <ele>1343.4777120104</ele>
        <time>2019-09-28T13:48:54Z</time>
      </trkpt>
      <trkpt lat="45.56631" lon="2.8198">
        <ele>1343.1462068346</ele>
        <time>2019-09-28T13:49:03Z</time>
      </trkpt>
      <trkpt lat="45.56635" lon="2.81986">
        <ele>1342.8526134097</ele>
        <time>2019-09-28T13:49:12Z</time>
      </trkpt>
      <trkpt lat="45.56646" lon="2.81982">
        <ele>1342.5965037938</ele>
        <time>2019-09-28T13:49:21Z</time>
      </trkpt>
      <trkpt lat="45.56644" lon="2.81971">
        <ele>1342.2897684129</ele>
        <time>2019-09-28T13:49:31Z</time>
      </trkpt>
      <trkpt lat="45.56647" lon="2.81969">
        <ele>1342.0714280447</ele>
        <time>2019-09-28T13:49:40Z</time>
      </trkpt>
      <trkpt lat="45.56648" lon="2.81976">
        <ele>1341.880545873</ele>
        <time>2019-09-28T13:49:49Z</time>
      </trkpt>
      <trkpt lat="45.56658" lon="2.8197">
        <ele>1341.6831462298</ele>
        <time>2019-09-28T13:49:58Z</time>
      </trkpt>
      <trkpt lat="45.56663" lon="2.81973">
        <ele>1341.4646349529</ele>
        <time>2019-09-28T13:50:08Z</time>
      </trkpt>
      <trkpt lat="45.5666" lon="2.81975">
        <ele>1341.2926353624</ele>
        <time>2019-09-28T13:50:17Z</time>
      </trkpt>
      <trkpt lat="45.56659" lon="2.81983">
        <ele>1341.1885340826</ele>
        <time>2019-09-28T13:50:26Z</time>
      </trkpt>
      <trkpt lat="45.56658" lon="2.81982">
        <ele>1341.0793003145</ele>
        <time>2019-09-28T13:50:36Z</time>
      </trkpt>
      <trkpt lat="45.5665" lon="2.81982">
        <ele>1340.9375504539</ele>
        <time>2019-09-28T13:50:45Z</time>
      </trkpt>
      <trkpt lat="45.56651" lon="2.81975">
        <ele>1340.7851843409</ele>
        <time>2019-09-28T13:50:55Z</time>
      </trkpt>
      <trkpt lat="45.56646" lon="2.8197">
        <ele>1340.5949499285</ele>
        <time>2019-09-28T13:51:04Z</time>
      </trkpt>
      <trkpt lat="45.56644" lon="2.81968">
        <ele>1340.4742014957</ele>
        <time>2019-09-28T13:51:13Z</time>
      </trkpt>
      <trkpt lat="45.56641" lon="2.81972">
        <ele>1340.2787435391</ele>
        <time>2019-09-28T13:51:22Z</time>
      </trkpt>
      <trkpt lat="45.56639" lon="2.81973">
        <ele>1340.1586631497</ele>
        <time>2019-09-28T13:51:31Z</time>
      </trkpt>
      <trkpt lat="45.56638" lon="2.81972">
        <ele>1339.928711837</ele>
        <time>2019-09-28T13:51:41Z</time>
      </trkpt>
      <trkpt lat="45.56639" lon="2.81972">
        <ele>1339.1433477214</ele>
        <time>2019-09-28T13:51:50Z</time>
      </trkpt>
      <trkpt lat="45.56639" lon="2.81971">
        <ele>1338.9598665013</ele>
        <time>2019-09-28T13:51:59Z</time>
      </trkpt>
      <trkpt lat="45.56644" lon="2.81966">
        <ele>1338.8081578616</ele>
        <time>2019-09-28T13:52:09Z</time>
      </trkpt>
      <trkpt lat="45.5664" lon="2.81967">
        <ele>1338.6403151817</ele>
        <time>2019-09-28T13:52:18Z</time>
      </trkpt>
      <trkpt lat="45.56642" lon="2.81965">
        <ele>1338.4902250101</ele>
        <time>2019-09-28T13:52:28Z</time>
      </trkpt>
      <trkpt lat="45.56645" lon="2.81964">
        <ele>1338.2719888626</ele>
        <time>2019-09-28T13:52:37Z</time>
      </trkpt>
      <trkpt lat="45.56653" lon="2.81962">
        <ele>1338.0160140828</ele>
        <time>2019-09-28T13:52:46Z</time>
      </trkpt>
      <trkpt lat="45.56654" lon="2.81965">
        <ele>1337.8435813012</ele>
        <time>2019-09-28T13:52:55Z</time>
      </trkpt>
      <trkpt lat="45.56652" lon="2.81963">
        <ele>1337.5725883363</ele>
        <time>2019-09-28T13:53:05Z</time>
      </trkpt>
      <trkpt lat="45.5665" lon="2.81963">
        <ele>1337.4421656733</ele>
        <time>2019-09-28T13:53:14Z</time>
      </trkpt>
      <trkpt lat="45.56647" lon="2.81961">
        <ele>1337.2080882302</ele>
        <time>2019-09-28T13:53:24Z</time>
      </trkpt>
      <trkpt lat="45.56644" lon="2.8196">
        <ele>1337.1219886024</ele>
        <time>2019-09-28T13:53:33Z</time>
      </trkpt>
      <trkpt lat="45.56643" lon="2.81958">
        <ele>1337.0062443587</ele>
        <time>2019-09-28T13:53:43Z</time>
      </trkpt>
      <trkpt lat="45.56638" lon="2.81958">
        <ele>1336.9189722593</ele>
        <time>2019-09-28T13:53:52Z</time>
      </trkpt>
      <trkpt lat="45.56638" lon="2.81956">
        <ele>1336.8431962582</ele>
        <time>2019-09-28T13:54:02Z</time>
      </trkpt>
      <trkpt lat="45.56638" lon="2.81957">
        <ele>1336.6653899088</ele>
        <time>2019-09-28T13:54:13Z</time>
      </trkpt>
      <trkpt lat="45.5664" lon="2.81962">
        <ele>1336.4468123145</ele>
        <time>2019-09-28T13:54:22Z</time>
      </trkpt>
      <trkpt lat="45.5664" lon="2.81961">
        <ele>1336.1113169421</ele>
        <time>2019-09-28T13:54:34Z</time>
      </trkpt>
      <trkpt lat="45.56644" lon="2.81953">
        <ele>1335.9664899474</ele>
        <time>2019-09-28T13:54:44Z</time>
      </trkpt>
      <trkpt lat="45.56644" lon="2.81952">
        <ele>1335.7313654992</ele>
        <time>2019-09-28T13:55:02Z</time>
      </trkpt>
      <trkpt lat="45.5665" lon="2.81954">
        <ele>1335.1972073012</ele>
        <time>2019-09-28T13:55:12Z</time>
      </trkpt>
      <trkpt lat="45.56647" lon="2.81955">
        <ele>1335.0091628018</ele>
        <time>2019-09-28T13:55:21Z</time>
      </trkpt>
      <trkpt lat="45.56645" lon="2.81955">
        <ele>1334.8199939453</ele>
        <time>2019-09-28T13:55:31Z</time>
      </trkpt>
      <trkpt lat="45.56645" lon="2.81962">
        <ele>1334.3137765778</ele>
        <time>2019-09-28T13:55:41Z</time>
      </trkpt>
      <trkpt lat="45.56649" lon="2.81962">
        <ele>1333.8941581518</ele>
        <time>2019-09-28T13:55:51Z</time>
      </trkpt>
      <trkpt lat="45.56651" lon="2.81966">
        <ele>1333.597334741</ele>
        <time>2019-09-28T13:56:01Z</time>
      </trkpt>
      <trkpt lat="45.56654" lon="2.81972">
        <ele>1333.495385699</ele>
        <time>2019-09-28T13:56:10Z</time>
      </trkpt>
      <trkpt lat="45.56654" lon="2.81975">
        <ele>1333.2709768838</ele>
        <time>2019-09-28T13:56:19Z</time>
      </trkpt>
      <trkpt lat="45.56654" lon="2.81968">
        <ele>1333.1366122241</ele>
        <time>2019-09-28T13:56:29Z</time>
      </trkpt>
      <trkpt lat="45.56651" lon="2.81969">
        <ele>1332.9319149179</ele>
        <time>2019-09-28T13:56:38Z</time>
      </trkpt>
      <trkpt lat="45.56651" lon="2.81969">
        <ele>1332.8693935898</ele>
        <time>2019-09-28T13:56:47Z</time>
      </trkpt>
      <trkpt lat="45.56651" lon="2.8197">
        <ele>1332.2957845344</ele>
        <time>2019-09-28T13:56:59Z</time>
      </trkpt>
      <trkpt lat="45.56647" lon="2.81973">
        <ele>1332.1044823539</ele>
        <time>2019-09-28T13:57:08Z</time>
      </trkpt>
      <trkpt lat="45.56646" lon="2.81973">
        <ele>1331.8092897652</ele>
        <time>2019-09-28T13:57:22Z</time>
      </trkpt>
      <trkpt lat="45.56643" lon="2.81972">
        <ele>1331.5404411526</ele>
        <time>2019-09-28T13:57:31Z</time>
      </trkpt>
      <trkpt lat="45.56643" lon="2.8197">
        <ele>1331.2650223506</ele>
        <time>2019-09-28T13:57:41Z</time>
      </trkpt>
      <trkpt lat="45.56644" lon="2.81968">
        <ele>1330.9388534958</ele>
        <time>2019-09-28T13:57:50Z</time>
      </trkpt>
      <trkpt lat="45.56645" lon="2.81969">
        <ele>1330.4518449075</ele>
        <time>2019-09-28T13:57:59Z</time>
      </trkpt>
      <trkpt lat="45.56646" lon="2.81975">
        <ele>1329.9422966084</ele>
        <time>2019-09-28T13:58:09Z</time>
      </trkpt>
      <trkpt lat="45.56645" lon="2.81971">
        <ele>1329.5294552938</ele>
        <time>2019-09-28T13:58:18Z</time>
      </trkpt>
      <trkpt lat="45.56646" lon="2.81969">
        <ele>1329.0972387233</ele>
        <time>2019-09-28T13:58:28Z</time>
      </trkpt>
      <trkpt lat="45.56646" lon="2.8197">
        <ele>1328.6976939257</ele>
        <time>2019-09-28T13:59:00Z</time>
      </trkpt>
      <trkpt lat="45.5665" lon="2.81968">
        <ele>1328.3277326008</ele>
        <time>2019-09-28T13:59:09Z</time>
      </trkpt>
      <trkpt lat="45.56655" lon="2.81961">
        <ele>1327.885120428</ele>
        <time>2019-09-28T13:59:18Z</time>
      </trkpt>
      <trkpt lat="45.56659" lon="2.81955">
        <ele>1327.3963154652</ele>
        <time>2019-09-28T13:59:27Z</time>
      </trkpt>
      <trkpt lat="45.56673" lon="2.81944">
        <ele>1327.0007215288</ele>
        <time>2019-09-28T13:59:37Z</time>
      </trkpt>
      <trkpt lat="45.5668" lon="2.81934">
        <ele>1326.600425087</ele>
        <time>2019-09-28T13:59:46Z</time>
      </trkpt>
      <trkpt lat="45.56686" lon="2.81928">
        <ele>1326.2694018406</ele>
        <time>2019-09-28T13:59:56Z</time>
      </trkpt>
      <trkpt lat="45.5669" lon="2.8192">
        <ele>1325.9079587979</ele>
        <time>2019-09-28T14:00:05Z</time>
      </trkpt>
      <trkpt lat="45.56695" lon="2.81913">
        <ele>1325.5539223333</ele>
        <time>2019-09-28T14:00:14Z</time>
      </trkpt>
      <trkpt lat="45.56702" lon="2.81906">
        <ele>1325.2465429338</ele>
        <time>2019-09-28T14:00:24Z</time>
      </trkpt>
      <trkpt lat="45.56704" lon="2.81896">
        <ele>1324.8984330464</ele>
        <time>2019-09-28T14:00:34Z</time>
      </trkpt>
      <trkpt lat="45.56707" lon="2.81894">
        <ele>1324.4678686564</ele>
        <time>2019-09-28T14:00:43Z</time>
      </trkpt>
      <trkpt lat="45.56717" lon="2.81898">
        <ele>1324.0324372836</ele>
        <time>2019-09-28T14:00:52Z</time>
      </trkpt>
      <trkpt lat="45.56725" lon="2.81897">
        <ele>1323.4633870714</ele>
        <time>2019-09-28T14:01:01Z</time>
      </trkpt>
      <trkpt lat="45.56732" lon="2.81895">
        <ele>1322.901752034</ele>
        <time>2019-09-28T14:01:10Z</time>
      </trkpt>
      <trkpt lat="45.56742" lon="2.8188">
        <ele>1322.0121184757</ele>
        <time>2019-09-28T14:01:20Z</time>
      </trkpt>
      <trkpt lat="45.5675" lon="2.81872">
        <ele>1321.3068181141</ele>
        <time>2019-09-28T14:01:29Z</time>
      </trkpt>
      <trkpt lat="45.56759" lon="2.81868">
        <ele>1320.2322150462</ele>
        <time>2019-09-28T14:01:39Z</time>
      </trkpt>
      <trkpt lat="45.5676" lon="2.81859">
        <ele>1319.0878003186</ele>
        <time>2019-09-28T14:01:49Z</time>
      </trkpt>
      <trkpt lat="45.56763" lon="2.81851">
        <ele>1318.1099228318</ele>
        <time>2019-09-28T14:01:58Z</time>
      </trkpt>
      <trkpt lat="45.56764" lon="2.81839">
        <ele>1317.116993811</ele>
        <time>2019-09-28T14:02:08Z</time>
      </trkpt>
      <trkpt lat="45.56769" lon="2.81825">
        <ele>1315.8475166056</ele>
        <time>2019-09-28T14:02:18Z</time>
      </trkpt>
      <trkpt lat="45.56771" lon="2.81819">
        <ele>1314.9153568677</ele>
        <time>2019-09-28T14:02:27Z</time>
      </trkpt>
      <trkpt lat="45.56774" lon="2.81812">
        <ele>1313.6451589572</ele>
        <time>2019-09-28T14:02:37Z</time>
      </trkpt>
      <trkpt lat="45.56773" lon="2.81815">
        <ele>1312.7828034304</ele>
        <time>2019-09-28T14:02:46Z</time>
      </trkpt>
      <trkpt lat="45.56772" lon="2.81814">
        <ele>1311.7213748499</ele>
        <time>2019-09-28T14:02:55Z</time>
      </trkpt>
      <trkpt lat="45.56769" lon="2.81817">
        <ele>1310.4130838915</ele>
        <time>2019-09-28T14:03:05Z</time>
      </trkpt>
      <trkpt lat="45.56764" lon="2.81817">
        <ele>1309.1612764902</ele>
        <time>2019-09-28T14:03:14Z</time>
      </trkpt>
      <trkpt lat="45.56756" lon="2.81831">
        <ele>1307.8423636228</ele>
        <time>2019-09-28T14:03:23Z</time>
      </trkpt>
      <trkpt lat="45.5674" lon="2.81848">
        <ele>1306.116612961</ele>
        <time>2019-09-28T14:03:33Z</time>
      </trkpt>
      <trkpt lat="45.56729" lon="2.81855">
        <ele>1304.8927198911</ele>
        <time>2019-09-28T14:03:42Z</time>
      </trkpt>
      <trkpt lat="45.56713" lon="2.81869">
        <ele>1303.5447538986</ele>
        <time>2019-09-28T14:03:51Z</time>
      </trkpt>
      <trkpt lat="45.56711" lon="2.81866">
        <ele>1302.0594191655</ele>
        <time>2019-09-28T14:04:00Z</time>
      </trkpt>
      <trkpt lat="45.5671" lon="2.81859">
        <ele>1300.5373475923</ele>
        <time>2019-09-28T14:04:10Z</time>
      </trkpt>
      <trkpt lat="45.56703" lon="2.81862">
        <ele>1299.2772813684</ele>
        <time>2019-09-28T14:04:20Z</time>
      </trkpt>
      <trkpt lat="45.56691" lon="2.81852">
        <ele>1298.0898790896</ele>
        <time>2019-09-28T14:04:29Z</time>
      </trkpt>
      <trkpt lat="45.56697" lon="2.81844">
        <ele>1296.7990801522</ele>
        <time>2019-09-28T14:04:39Z</time>
      </trkpt>
      <trkpt lat="45.56701" lon="2.8184">
        <ele>1295.5719484957</ele>
        <time>2019-09-28T14:04:48Z</time>
      </trkpt>
      <trkpt lat="45.56713" lon="2.8184">
        <ele>1293.9624720202</ele>
        <time>2019-09-28T14:04:58Z</time>
      </trkpt>
      <trkpt lat="45.5672" lon="2.81829">
        <ele>1292.8971400259</ele>
        <time>2019-09-28T14:05:07Z</time>
      </trkpt>
      <trkpt lat="45.56722" lon="2.81827">
        <ele>1291.8572952786</ele>
        <time>2019-09-28T14:05:16Z</time>
      </trkpt>
      <trkpt lat="45.5672" lon="2.81822">
        <ele>1290.5827321651</ele>
        <time>2019-09-28T14:05:26Z</time>
      </trkpt>
      <trkpt lat="45.56714" lon="2.81822">
        <ele>1289.3583710578</ele>
        <time>2019-09-28T14:05:35Z</time>
      </trkpt>
      <trkpt lat="45.56714" lon="2.81824">
        <ele>1288.1502414267</ele>
        <time>2019-09-28T14:05:44Z</time>
      </trkpt>
      <trkpt lat="45.56715" lon="2.81816">
        <ele>1287.0053431522</ele>
        <time>2019-09-28T14:05:53Z</time>
      </trkpt>
      <trkpt lat="45.56717" lon="2.81803">
        <ele>1285.649822834</ele>
        <time>2019-09-28T14:06:02Z</time>
      </trkpt>
      <trkpt lat="45.56712" lon="2.81798">
        <ele>1284.1515559701</ele>
        <time>2019-09-28T14:06:12Z</time>
      </trkpt>
      <trkpt lat="45.56712" lon="2.81802">
        <ele>1283.0777215344</ele>
        <time>2019-09-28T14:06:22Z</time>
      </trkpt>
      <trkpt lat="45.56706" lon="2.81803">
        <ele>1282.3677291103</ele>
        <time>2019-09-28T14:06:31Z</time>
      </trkpt>
      <trkpt lat="45.56701" lon="2.81802">
        <ele>1281.4890320846</ele>
        <time>2019-09-28T14:06:40Z</time>
      </trkpt>
      <trkpt lat="45.56704" lon="2.81805">
        <ele>1280.6572069455</ele>
        <time>2019-09-28T14:06:50Z</time>
      </trkpt>
      <trkpt lat="45.56707" lon="2.81803">
        <ele>1279.8121601037</ele>
        <time>2019-09-28T14:06:59Z</time>
      </trkpt>
      <trkpt lat="45.5671" lon="2.81799">
        <ele>1279.019019083</ele>
        <time>2019-09-28T14:07:08Z</time>
      </trkpt>
      <trkpt lat="45.5672" lon="2.8179">
        <ele>1277.7938806405</ele>
        <time>2019-09-28T14:07:18Z</time>
      </trkpt>
      <trkpt lat="45.5672" lon="2.81779">
        <ele>1276.5922685318</ele>
        <time>2019-09-28T14:07:28Z</time>
      </trkpt>
      <trkpt lat="45.56721" lon="2.81776">
        <ele>1275.6868591986</ele>
        <time>2019-09-28T14:07:37Z</time>
      </trkpt>
      <trkpt lat="45.5673" lon="2.81779">
        <ele>1274.7835681951</ele>
        <time>2019-09-28T14:07:47Z</time>
      </trkpt>
      <trkpt lat="45.56745" lon="2.81775">
        <ele>1274.0534456092</ele>
        <time>2019-09-28T14:07:56Z</time>
      </trkpt>
      <trkpt lat="45.56746" lon="2.81768">
        <ele>1273.3316369701</ele>
        <time>2019-09-28T14:08:05Z</time>
      </trkpt>
      <trkpt lat="45.56751" lon="2.81758">
        <ele>1272.4954130169</ele>
        <time>2019-09-28T14:08:14Z</time>
      </trkpt>
      <trkpt lat="45.56755" lon="2.81748">
        <ele>1271.4918604903</ele>
        <time>2019-09-28T14:08:24Z</time>
      </trkpt>
      <trkpt lat="45.56759" lon="2.8173">
        <ele>1270.4005359908</ele>
        <time>2019-09-28T14:08:34Z</time>
      </trkpt>
      <trkpt lat="45.56767" lon="2.81724">
        <ele>1269.1936249756</ele>
        <time>2019-09-28T14:08:43Z</time>
      </trkpt>
      <trkpt lat="45.56773" lon="2.81718">
        <ele>1267.208998628</ele>
        <time>2019-09-28T14:08:53Z</time>
      </trkpt>
      <trkpt lat="45.56775" lon="2.81715">
        <ele>1265.1990121395</ele>
        <time>2019-09-28T14:09:02Z</time>
      </trkpt>
      <trkpt lat="45.56779" lon="2.81704">
        <ele>1262.4773180502</ele>
        <time>2019-09-28T14:09:12Z</time>
      </trkpt>
      <trkpt lat="45.56783" lon="2.81694">
        <ele>1260.4259090576</ele>
        <time>2019-09-28T14:09:21Z</time>
      </trkpt>
      <trkpt lat="45.56786" lon="2.81703">
        <ele>1258.1698869227</ele>
        <time>2019-09-28T14:09:31Z</time>
      </trkpt>
      <trkpt lat="45.56791" lon="2.817">
        <ele>1255.9629599308</ele>
        <time>2019-09-28T14:09:40Z</time>
      </trkpt>
      <trkpt lat="45.56794" lon="2.81704">
        <ele>1254.1411933422</ele>
        <time>2019-09-28T14:09:49Z</time>
      </trkpt>
      <trkpt lat="45.56802" lon="2.81694">
        <ele>1252.0163095733</ele>
        <time>2019-09-28T14:09:59Z</time>
      </trkpt>
      <trkpt lat="45.56809" lon="2.81691">
        <ele>1249.8218478245</ele>
        <time>2019-09-28T14:10:09Z</time>
      </trkpt>
      <trkpt lat="45.56807" lon="2.81687">
        <ele>1247.0340875081</ele>
        <time>2019-09-28T14:10:18Z</time>
      </trkpt>
      <trkpt lat="45.56808" lon="2.81679">
        <ele>1244.1203319824</ele>
        <time>2019-09-28T14:10:28Z</time>
      </trkpt>
      <trkpt lat="45.56815" lon="2.81664">
        <ele>1241.2590447251</ele>
        <time>2019-09-28T14:10:37Z</time>
      </trkpt>
      <trkpt lat="45.56823" lon="2.81658">
        <ele>1238.5642765003</ele>
        <time>2019-09-28T14:10:46Z</time>
      </trkpt>
      <trkpt lat="45.5683" lon="2.81654">
        <ele>1236.3029918346</ele>
        <time>2019-09-28T14:10:55Z</time>
      </trkpt>
      <trkpt lat="45.56837" lon="2.81648">
        <ele>1234.2634957691</ele>
        <time>2019-09-28T14:11:04Z</time>
      </trkpt>
      <trkpt lat="45.56847" lon="2.81643">
        <ele>1232.2771284945</ele>
        <time>2019-09-28T14:11:13Z</time>
      </trkpt>
      <trkpt lat="45.56853" lon="2.81638">
        <ele>1230.3779202043</ele>
        <time>2019-09-28T14:11:23Z</time>
      </trkpt>
      <trkpt lat="45.56859" lon="2.81634">
        <ele>1228.9395982464</ele>
        <time>2019-09-28T14:11:32Z</time>
      </trkpt>
      <trkpt lat="45.56864" lon="2.81623">
        <ele>1227.5587690503</ele>
        <time>2019-09-28T14:11:41Z</time>
      </trkpt>
      <trkpt lat="45.56867" lon="2.81613">
        <ele>1226.2073644818</ele>
        <time>2019-09-28T14:11:50Z</time>
      </trkpt>
      <trkpt lat="45.56872" lon="2.81599">
        <ele>1224.7220749877</ele>
        <time>2019-09-28T14:11:59Z</time>
      </trkpt>
      <trkpt lat="45.56876" lon="2.81588">
        <ele>1222.9368679698</ele>
        <time>2019-09-28T14:12:09Z</time>
      </trkpt>
      <trkpt lat="45.56877" lon="2.81577">
        <ele>1221.5545772886</ele>
        <time>2019-09-28T14:12:18Z</time>
      </trkpt>
      <trkpt lat="45.56882" lon="2.81567">
        <ele>1220.0555523083</ele>
        <time>2019-09-28T14:12:27Z</time>
      </trkpt>
      <trkpt lat="45.56888" lon="2.81555">
        <ele>1218.4631993668</ele>
        <time>2019-09-28T14:12:37Z</time>
      </trkpt>
      <trkpt lat="45.56892" lon="2.8155">
        <ele>1216.9732824668</ele>
        <time>2019-09-28T14:12:47Z</time>
      </trkpt>
      <trkpt lat="45.56901" lon="2.81554">
        <ele>1216.031668781</ele>
        <time>2019-09-28T14:12:56Z</time>
      </trkpt>
      <trkpt lat="45.56907" lon="2.81555">
        <ele>1214.9698058386</ele>
        <time>2019-09-28T14:13:05Z</time>
      </trkpt>
      <trkpt lat="45.56911" lon="2.81561">
        <ele>1214.0455228046</ele>
        <time>2019-09-28T14:13:14Z</time>
      </trkpt>
      <trkpt lat="45.56922" lon="2.8156">
        <ele>1213.1784828041</ele>
        <time>2019-09-28T14:13:24Z</time>
      </trkpt>
      <trkpt lat="45.56932" lon="2.81554">
        <ele>1212.3156644532</ele>
        <time>2019-09-28T14:13:33Z</time>
      </trkpt>
      <trkpt lat="45.56935" lon="2.81549">
        <ele>1211.6212821603</ele>
        <time>2019-09-28T14:13:42Z</time>
      </trkpt>
      <trkpt lat="45.56947" lon="2.81547">
        <ele>1210.6617996938</ele>
        <time>2019-09-28T14:13:52Z</time>
      </trkpt>
      <trkpt lat="45.56953" lon="2.81543">
        <ele>1209.7245976471</ele>
        <time>2019-09-28T14:14:02Z</time>
      </trkpt>
      <trkpt lat="45.56954" lon="2.81538">
        <ele>1208.8499845178</ele>
        <time>2019-09-28T14:14:11Z</time>
      </trkpt>
      <trkpt lat="45.56964" lon="2.81528">
        <ele>1207.7516411944</ele>
        <time>2019-09-28T14:14:21Z</time>
      </trkpt>
      <trkpt lat="45.56974" lon="2.8152">
        <ele>1206.6437685268</ele>
        <time>2019-09-28T14:14:31Z</time>
      </trkpt>
      <trkpt lat="45.56974" lon="2.81519">
        <ele>1205.9044782187</ele>
        <time>2019-09-28T14:14:41Z</time>
      </trkpt>
      <trkpt lat="45.56974" lon="2.81518">
        <ele>1205.4258113828</ele>
        <time>2019-09-28T14:14:52Z</time>
      </trkpt>
      <trkpt lat="45.56975" lon="2.81515">
        <ele>1204.8708208008</ele>
        <time>2019-09-28T14:15:01Z</time>
      </trkpt>
      <trkpt lat="45.56977" lon="2.81512">
        <ele>1203.0791668485</ele>
        <time>2019-09-28T14:15:10Z</time>
      </trkpt>
      <trkpt lat="45.56987" lon="2.81514">
        <ele>1201.3565232737</ele>
        <time>2019-09-28T14:15:20Z</time>
      </trkpt>
      <trkpt lat="45.56998" lon="2.81513">
        <ele>1199.9603454693</ele>
        <time>2019-09-28T14:15:30Z</time>
      </trkpt>
      <trkpt lat="45.57004" lon="2.8151">
        <ele>1198.914494023</ele>
        <time>2019-09-28T14:15:39Z</time>
      </trkpt>
      <trkpt lat="45.57011" lon="2.81508">
        <ele>1197.7892608058</ele>
        <time>2019-09-28T14:15:49Z</time>
      </trkpt>
      <trkpt lat="45.57021" lon="2.81503">
        <ele>1196.4592104177</ele>
        <time>2019-09-28T14:15:59Z</time>
      </trkpt>
      <trkpt lat="45.57019" lon="2.81501">
        <ele>1195.7342432332</ele>
        <time>2019-09-28T14:16:08Z</time>
      </trkpt>
      <trkpt lat="45.57019" lon="2.81501">
        <ele>1195.4514319882</ele>
        <time>2019-09-28T14:16:17Z</time>
      </trkpt>
      <trkpt lat="45.57012" lon="2.81497">
        <ele>1194.262903527</ele>
        <time>2019-09-28T14:16:26Z</time>
      </trkpt>
      <trkpt lat="45.57005" lon="2.81494">
        <ele>1193.1459498863</ele>
        <time>2019-09-28T14:16:35Z</time>
      </trkpt>
      <trkpt lat="45.56997" lon="2.81487">
        <ele>1191.8525175041</ele>
        <time>2019-09-28T14:16:44Z</time>
      </trkpt>
      <trkpt lat="45.56987" lon="2.81486">
        <ele>1190.663342315</ele>
        <time>2019-09-28T14:16:53Z</time>
      </trkpt>
      <trkpt lat="45.56975" lon="2.81485">
        <ele>1189.6562121981</ele>
        <time>2019-09-28T14:17:02Z</time>
      </trkpt>
      <trkpt lat="45.56969" lon="2.81486">
        <ele>1188.6793230234</ele>
        <time>2019-09-28T14:17:12Z</time>
      </trkpt>
      <trkpt lat="45.5696" lon="2.81486">
        <ele>1187.8226936357</ele>
        <time>2019-09-28T14:17:21Z</time>
      </trkpt>
      <trkpt lat="45.56956" lon="2.81485">
        <ele>1186.9102299813</ele>
        <time>2019-09-28T14:17:30Z</time>
      </trkpt>
      <trkpt lat="45.56946" lon="2.81485">
        <ele>1185.8882978791</ele>
        <time>2019-09-28T14:17:40Z</time>
      </trkpt>
      <trkpt lat="45.56938" lon="2.8148">
        <ele>1184.8704833684</ele>
        <time>2019-09-28T14:17:49Z</time>
      </trkpt>
      <trkpt lat="45.56925" lon="2.81478">
        <ele>1183.7737460739</ele>
        <time>2019-09-28T14:17:59Z</time>
      </trkpt>
      <trkpt lat="45.56915" lon="2.81475">
        <ele>1182.7937255799</ele>
        <time>2019-09-28T14:18:08Z</time>
      </trkpt>
      <trkpt lat="45.56905" lon="2.81469">
        <ele>1181.9029220431</ele>
        <time>2019-09-28T14:18:17Z</time>
      </trkpt>
      <trkpt lat="45.56903" lon="2.81466">
        <ele>1181.0860939031</ele>
        <time>2019-09-28T14:18:27Z</time>
      </trkpt>
      <trkpt lat="45.56906" lon="2.81466">
        <ele>1180.9762552741</ele>
        <time>2019-09-28T14:18:36Z</time>
      </trkpt>
      <trkpt lat="45.56907" lon="2.81466">
        <ele>1180.1758275426</ele>
        <time>2019-09-28T14:18:45Z</time>
      </trkpt>
      <trkpt lat="45.56907" lon="2.81466">
        <ele>1179.8384046038</ele>
        <time>2019-09-28T14:18:58Z</time>
      </trkpt>
      <trkpt lat="45.56905" lon="2.81458">
        <ele>1178.3912456708</ele>
        <time>2019-09-28T14:19:07Z</time>
      </trkpt>
      <trkpt lat="45.56905" lon="2.81463">
        <ele>1178.1029049452</ele>
        <time>2019-09-28T14:19:16Z</time>
      </trkpt>
      <trkpt lat="45.56912" lon="2.81478">
        <ele>1176.9632617174</ele>
        <time>2019-09-28T14:19:25Z</time>
      </trkpt>
      <trkpt lat="45.56923" lon="2.81477">
        <ele>1175.537645251</ele>
        <time>2019-09-28T14:19:34Z</time>
      </trkpt>
      <trkpt lat="45.56937" lon="2.81475">
        <ele>1173.8200825157</ele>
        <time>2019-09-28T14:19:44Z</time>
      </trkpt>
      <trkpt lat="45.56946" lon="2.81478">
        <ele>1172.3886938982</ele>
        <time>2019-09-28T14:19:53Z</time>
      </trkpt>
      <trkpt lat="45.56958" lon="2.81475">
        <ele>1170.8266628965</ele>
        <time>2019-09-28T14:20:03Z</time>
      </trkpt>
      <trkpt lat="45.56967" lon="2.81469">
        <ele>1169.4013095127</ele>
        <time>2019-09-28T14:20:12Z</time>
      </trkpt>
      <trkpt lat="45.56976" lon="2.81462">
        <ele>1168.2610199832</ele>
        <time>2019-09-28T14:20:21Z</time>
      </trkpt>
      <trkpt lat="45.56989" lon="2.81458">
        <ele>1166.6937888886</ele>
        <time>2019-09-28T14:20:31Z</time>
      </trkpt>
      <trkpt lat="45.56994" lon="2.81454">
        <ele>1165.3396259249</ele>
        <time>2019-09-28T14:20:40Z</time>
      </trkpt>
      <trkpt lat="45.56998" lon="2.81457">
        <ele>1164.0030462044</ele>
        <time>2019-09-28T14:20:50Z</time>
      </trkpt>
      <trkpt lat="45.57009" lon="2.81452">
        <ele>1163.2030298778</ele>
        <time>2019-09-28T14:20:59Z</time>
      </trkpt>
      <trkpt lat="45.57019" lon="2.8145">
        <ele>1162.0560351006</ele>
        <time>2019-09-28T14:21:08Z</time>
      </trkpt>
      <trkpt lat="45.57029" lon="2.81445">
        <ele>1160.9858734176</ele>
        <time>2019-09-28T14:21:17Z</time>
      </trkpt>
      <trkpt lat="45.57038" lon="2.81439">
        <ele>1159.9838060804</ele>
        <time>2019-09-28T14:21:26Z</time>
      </trkpt>
      <trkpt lat="45.57047" lon="2.81433">
        <ele>1159.0563701693</ele>
        <time>2019-09-28T14:21:35Z</time>
      </trkpt>
      <trkpt lat="45.57061" lon="2.81421">
        <ele>1158.3182524861</ele>
        <time>2019-09-28T14:21:44Z</time>
      </trkpt>
      <trkpt lat="45.57072" lon="2.81411">
        <ele>1157.5651858336</ele>
        <time>2019-09-28T14:21:54Z</time>
      </trkpt>
      <trkpt lat="45.5709" lon="2.81402">
        <ele>1156.8542524891</ele>
        <time>2019-09-28T14:22:03Z</time>
      </trkpt>
      <trkpt lat="45.57103" lon="2.81395">
        <ele>1156.086772761</ele>
        <time>2019-09-28T14:22:13Z</time>
      </trkpt>
      <trkpt lat="45.57111" lon="2.81387">
        <ele>1155.3648652736</ele>
        <time>2019-09-28T14:22:23Z</time>
      </trkpt>
      <trkpt lat="45.57121" lon="2.81382">
        <ele>1154.7753618785</ele>
        <time>2019-09-28T14:22:32Z</time>
      </trkpt>
      <trkpt lat="45.57136" lon="2.81376">
        <ele>1154.1837847454</ele>
        <time>2019-09-28T14:22:42Z</time>
      </trkpt>
      <trkpt lat="45.5714" lon="2.81372">
        <ele>1153.8690808097</ele>
        <time>2019-09-28T14:22:51Z</time>
      </trkpt>
      <trkpt lat="45.5714" lon="2.8137">
        <ele>1153.7858544947</ele>
        <time>2019-09-28T14:23:01Z</time>
      </trkpt>
      <trkpt lat="45.57138" lon="2.81369">
        <ele>1153.6014321059</ele>
        <time>2019-09-28T14:23:10Z</time>
      </trkpt>
      <trkpt lat="45.57139" lon="2.81366">
        <ele>1152.8382125138</ele>
        <time>2019-09-28T14:23:20Z</time>
      </trkpt>
      <trkpt lat="45.57138" lon="2.81365">
        <ele>1152.4739732569</ele>
        <time>2019-09-28T14:23:29Z</time>
      </trkpt>
      <trkpt lat="45.57139" lon="2.81363">
        <ele>1152.2914567347</ele>
        <time>2019-09-28T14:23:38Z</time>
      </trkpt>
      <trkpt lat="45.57138" lon="2.81363">
        <ele>1151.7418362233</ele>
        <time>2019-09-28T14:23:47Z</time>
      </trkpt>
      <trkpt lat="45.57144" lon="2.8136">
        <ele>1150.9095842581</ele>
        <time>2019-09-28T14:23:56Z</time>
      </trkpt>
      <trkpt lat="45.57151" lon="2.81357">
        <ele>1150.1732377524</ele>
        <time>2019-09-28T14:24:05Z</time>
      </trkpt>
      <trkpt lat="45.57166" lon="2.81363">
        <ele>1149.482002382</ele>
        <time>2019-09-28T14:24:15Z</time>
      </trkpt>
      <trkpt lat="45.57176" lon="2.8137">
        <ele>1148.9921299599</ele>
        <time>2019-09-28T14:24:24Z</time>
      </trkpt>
      <trkpt lat="45.572" lon="2.81364">
        <ele>1148.5068633652</ele>
        <time>2019-09-28T14:24:34Z</time>
      </trkpt>
      <trkpt lat="45.5721" lon="2.8136">
        <ele>1148.0727680171</ele>
        <time>2019-09-28T14:24:43Z</time>
      </trkpt>
      <trkpt lat="45.5722" lon="2.81351">
        <ele>1147.6751537967</ele>
        <time>2019-09-28T14:24:52Z</time>
      </trkpt>
      <trkpt lat="45.57235" lon="2.81343">
        <ele>1147.3365191398</ele>
        <time>2019-09-28T14:25:01Z</time>
      </trkpt>
      <trkpt lat="45.57239" lon="2.81332">
        <ele>1147.0189919979</ele>
        <time>2019-09-28T14:25:10Z</time>
      </trkpt>
      <trkpt lat="45.57253" lon="2.81328">
        <ele>1146.7046422213</ele>
        <time>2019-09-28T14:25:19Z</time>
      </trkpt>
      <trkpt lat="45.57262" lon="2.81318">
        <ele>1146.3194646233</ele>
        <time>2019-09-28T14:25:29Z</time>
      </trkpt>
      <trkpt lat="45.57273" lon="2.8131">
        <ele>1146.0363810858</ele>
        <time>2019-09-28T14:25:38Z</time>
      </trkpt>
      <trkpt lat="45.57284" lon="2.81303">
        <ele>1145.7262512713</ele>
        <time>2019-09-28T14:25:47Z</time>
      </trkpt>
      <trkpt lat="45.57294" lon="2.81296">
        <ele>1145.4130847053</ele>
        <time>2019-09-28T14:25:56Z</time>
      </trkpt>
      <trkpt lat="45.57298" lon="2.8129">
        <ele>1145.0941086221</ele>
        <time>2019-09-28T14:26:06Z</time>
      </trkpt>
      <trkpt lat="45.5731" lon="2.81285">
        <ele>1144.7753442578</ele>
        <time>2019-09-28T14:26:16Z</time>
      </trkpt>
      <trkpt lat="45.57316" lon="2.81274">
        <ele>1144.5143612469</ele>
        <time>2019-09-28T14:26:25Z</time>
      </trkpt>
      <trkpt lat="45.57332" lon="2.81263">
        <ele>1144.2199548762</ele>
        <time>2019-09-28T14:26:34Z</time>
      </trkpt>
      <trkpt lat="45.57344" lon="2.81256">
        <ele>1143.927514805</ele>
        <time>2019-09-28T14:26:43Z</time>
      </trkpt>
      <trkpt lat="45.57351" lon="2.81253">
        <ele>1143.6505848281</ele>
        <time>2019-09-28T14:26:53Z</time>
      </trkpt>
      <trkpt lat="45.57354" lon="2.81253">
        <ele>1143.4214853695</ele>
        <time>2019-09-28T14:27:03Z</time>
      </trkpt>
      <trkpt lat="45.57359" lon="2.81252">
        <ele>1143.1959487245</ele>
        <time>2019-09-28T14:27:12Z</time>
      </trkpt>
      <trkpt lat="45.57369" lon="2.81243">
        <ele>1142.9900156991</ele>
        <time>2019-09-28T14:27:21Z</time>
      </trkpt>
      <trkpt lat="45.57372" lon="2.81235">
        <ele>1142.8531226207</ele>
        <time>2019-09-28T14:27:30Z</time>
      </trkpt>
      <trkpt lat="45.57371" lon="2.81238">
        <ele>1142.6858318698</ele>
        <time>2019-09-28T14:27:39Z</time>
      </trkpt>
      <trkpt lat="45.5737" lon="2.81233">
        <ele>1142.4433881028</ele>
        <time>2019-09-28T14:27:48Z</time>
      </trkpt>
      <trkpt lat="45.57365" lon="2.81231">
        <ele>1142.2155698928</ele>
        <time>2019-09-28T14:27:57Z</time>
      </trkpt>
      <trkpt lat="45.57359" lon="2.81229">
        <ele>1142.0636981028</ele>
        <time>2019-09-28T14:28:06Z</time>
      </trkpt>
      <trkpt lat="45.57354" lon="2.81217">
        <ele>1141.4304409175</ele>
        <time>2019-09-28T14:28:16Z</time>
      </trkpt>
      <trkpt lat="45.57356" lon="2.81208">
        <ele>1140.8895994135</ele>
        <time>2019-09-28T14:28:25Z</time>
      </trkpt>
      <trkpt lat="45.57362" lon="2.81204">
        <ele>1140.3887247854</ele>
        <time>2019-09-28T14:28:34Z</time>
      </trkpt>
      <trkpt lat="45.57365" lon="2.81198">
        <ele>1139.8685186309</ele>
        <time>2019-09-28T14:28:44Z</time>
      </trkpt>
      <trkpt lat="45.57365" lon="2.81199">
        <ele>1139.4537973675</ele>
        <time>2019-09-28T14:28:53Z</time>
      </trkpt>
      <trkpt lat="45.57367" lon="2.81196">
        <ele>1139.1273484097</ele>
        <time>2019-09-28T14:29:02Z</time>
      </trkpt>
      <trkpt lat="45.5737" lon="2.81186">
        <ele>1138.7459683891</ele>
        <time>2019-09-28T14:29:11Z</time>
      </trkpt>
      <trkpt lat="45.57364" lon="2.81178">
        <ele>1138.3831457318</ele>
        <time>2019-09-28T14:29:20Z</time>
      </trkpt>
      <trkpt lat="45.57355" lon="2.8118">
        <ele>1137.683678515</ele>
        <time>2019-09-28T14:29:30Z</time>
      </trkpt>
      <trkpt lat="45.57352" lon="2.81178">
        <ele>1136.9708772499</ele>
        <time>2019-09-28T14:29:39Z</time>
      </trkpt>
      <trkpt lat="45.5735" lon="2.81176">
        <ele>1136.4068247908</ele>
        <time>2019-09-28T14:29:48Z</time>
      </trkpt>
      <trkpt lat="45.57347" lon="2.81172">
        <ele>1135.6096754732</ele>
        <time>2019-09-28T14:29:57Z</time>
      </trkpt>
      <trkpt lat="45.57342" lon="2.81166">
        <ele>1134.4197596881</ele>
        <time>2019-09-28T14:30:06Z</time>
      </trkpt>
      <trkpt lat="45.57344" lon="2.81158">
        <ele>1133.3258689756</ele>
        <time>2019-09-28T14:30:16Z</time>
      </trkpt>
      <trkpt lat="45.5735" lon="2.81152">
        <ele>1132.286420226</ele>
        <time>2019-09-28T14:30:25Z</time>
      </trkpt>
      <trkpt lat="45.57352" lon="2.81147">
        <ele>1131.0645163851</ele>
        <time>2019-09-28T14:30:35Z</time>
      </trkpt>
      <trkpt lat="45.57354" lon="2.81142">
        <ele>1129.8721705785</ele>
        <time>2019-09-28T14:30:45Z</time>
      </trkpt>
      <trkpt lat="45.57353" lon="2.8113">
        <ele>1128.9506059631</ele>
        <time>2019-09-28T14:30:54Z</time>
      </trkpt>
      <trkpt lat="45.5735" lon="2.81124">
        <ele>1127.7564875134</ele>
        <time>2019-09-28T14:31:03Z</time>
      </trkpt>
      <trkpt lat="45.57348" lon="2.81123">
        <ele>1126.7759826899</ele>
        <time>2019-09-28T14:31:12Z</time>
      </trkpt>
      <trkpt lat="45.57344" lon="2.81127">
        <ele>1125.7428861448</ele>
        <time>2019-09-28T14:31:21Z</time>
      </trkpt>
      <trkpt lat="45.57346" lon="2.81127">
        <ele>1124.4621973637</ele>
        <time>2019-09-28T14:31:31Z</time>
      </trkpt>
      <trkpt lat="45.57347" lon="2.81119">
        <ele>1123.2997010207</ele>
        <time>2019-09-28T14:31:40Z</time>
      </trkpt>
      <trkpt lat="45.57341" lon="2.81107">
        <ele>1122.1786321618</ele>
        <time>2019-09-28T14:31:49Z</time>
      </trkpt>
      <trkpt lat="45.57341" lon="2.81105">
        <ele>1121.324750198</ele>
        <time>2019-09-28T14:31:59Z</time>
      </trkpt>
      <trkpt lat="45.57341" lon="2.81106">
        <ele>1121.1741082274</ele>
        <time>2019-09-28T14:32:08Z</time>
      </trkpt>
      <trkpt lat="45.57341" lon="2.81108">
        <ele>1120.9980710401</ele>
        <time>2019-09-28T14:32:18Z</time>
      </trkpt>
      <trkpt lat="45.57341" lon="2.8111">
        <ele>1120.815936813</ele>
        <time>2019-09-28T14:32:28Z</time>
      </trkpt>
      <trkpt lat="45.57341" lon="2.81111">
        <ele>1120.4196768615</ele>
        <time>2019-09-28T14:32:40Z</time>
      </trkpt>
      <trkpt lat="45.57342" lon="2.81113">
        <ele>1120.2002542965</ele>
        <time>2019-09-28T14:32:50Z</time>
      </trkpt>
      <trkpt lat="45.57342" lon="2.8112">
        <ele>1119.3456343195</ele>
        <time>2019-09-28T14:32:59Z</time>
      </trkpt>
      <trkpt lat="45.57342" lon="2.8112">
        <ele>1119.2976838252</ele>
        <time>2019-09-28T14:33:01Z</time>
      </trkpt>
      <trkpt lat="45.57342" lon="2.8112">
        <ele>1119.2976838252</ele>
        <time>2019-09-28T14:33:01Z</time>
      </trkpt>
    </trkseg>
  </trk>
</gpx>